<?xml version='1.0' encoding='UTF-8'?><gpx version="1.1" creator="JPX - https://github.com/jenetics/jpx" xmlns="http://www.topografix.com/GPX/1/1"><trk><trkseg><trkpt lat="45.331962460842036" lon="11.377626359813314"><ele>23.0</ele><time>2026-04-04T11:50:53.168Z</time></trkpt><trkpt lat="45.33191869759367" lon="11.377727277189198"><ele>23.0</ele><time>2026-04-04T11:50:55.168Z</time></trkpt><trkpt lat="45.33182831868219" lon="11.377814250182999"><ele>23.0</ele><time>2026-04-04T11:50:57.168Z</time></trkpt><trkpt lat="45.33177333040271" lon="11.377880327570756"><ele>23.0</ele><time>2026-04-04T11:50:58.168Z</time></trkpt><trkpt lat="45.33165497122652" lon="11.377900460873274"><ele>23.0</ele><time>2026-04-04T11:51:00.168Z</time></trkpt><trkpt lat="45.331593470489565" lon="11.377978609831608"><ele>23.0</ele><time>2026-04-04T11:51:02.168Z</time></trkpt><trkpt lat="45.33146367139698" lon="11.377998545305736"><ele>23.0</ele><time>2026-04-04T11:51:03.168Z</time></trkpt><trkpt lat="45.33056780234475" lon="11.378472112129794"><ele>22.333333333333336</ele><time>2026-04-04T11:51:04.168Z</time></trkpt><trkpt lat="45.33034658620189" lon="11.378580005064054"><ele>21.666666666666668</ele><time>2026-04-04T11:51:05.168Z</time></trkpt><trkpt lat="45.330178226129355" lon="11.37861376467115"><ele>21.0</ele><time>2026-04-04T11:51:06.168Z</time></trkpt><trkpt lat="45.32999368623716" lon="11.378696552846641"><ele>21.0</ele><time>2026-04-04T11:51:07.168Z</time></trkpt><trkpt lat="45.329803738907096" lon="11.378782234751926"><ele>21.0</ele><time>2026-04-04T11:51:08.168Z</time></trkpt><trkpt lat="45.329596847864835" lon="11.378861489671214"><ele>21.0</ele><time>2026-04-04T11:51:09.168Z</time></trkpt><trkpt lat="45.32940074149556" lon="11.378948168744229"><ele>21.0</ele><time>2026-04-04T11:51:10.168Z</time></trkpt><trkpt lat="45.32923747133086" lon="11.379038189485287"><ele>21.0</ele><time>2026-04-04T11:51:11.168Z</time></trkpt><trkpt lat="45.32909198297486" lon="11.379093623248004"><ele>21.0</ele><time>2026-04-04T11:51:12.168Z</time></trkpt><trkpt lat="45.32894138272724" lon="11.37915470918007"><ele>21.333333333333332</ele><time>2026-04-04T11:51:13.168Z</time></trkpt><trkpt lat="45.328806800161836" lon="11.379224578808028"><ele>21.666666666666664</ele><time>2026-04-04T11:51:14.168Z</time></trkpt><trkpt lat="45.32864825908435" lon="11.379285489431656"><ele>22.0</ele><time>2026-04-04T11:51:15.168Z</time></trkpt><trkpt lat="45.32849506372494" lon="11.3793716090113"><ele>22.0</ele><time>2026-04-04T11:51:16.168Z</time></trkpt><trkpt lat="45.32833254721584" lon="11.37943779664583"><ele>22.0</ele><time>2026-04-04T11:51:17.168Z</time></trkpt><trkpt lat="45.328172431363534" lon="11.379507659533553"><ele>22.0</ele><time>2026-04-04T11:51:18.168Z</time></trkpt><trkpt lat="45.32799524276594" lon="11.379570037975341"><ele>22.0</ele><time>2026-04-04T11:51:19.168Z</time></trkpt><trkpt lat="45.327836748394276" lon="11.379602213095803"><ele>22.0</ele><time>2026-04-04T11:51:20.168Z</time></trkpt><trkpt lat="45.32769393198111" lon="11.379656380415266"><ele>22.0</ele><time>2026-04-04T11:51:21.168Z</time></trkpt><trkpt lat="45.327561541390914" lon="11.379675886775976"><ele>22.0</ele><time>2026-04-04T11:51:22.168Z</time></trkpt><trkpt lat="45.327429622186834" lon="11.379709870551766"><ele>21.75</ele><time>2026-04-04T11:51:23.168Z</time></trkpt><trkpt lat="45.32728323377782" lon="11.379746293410298"><ele>21.5</ele><time>2026-04-04T11:51:24.168Z</time></trkpt><trkpt lat="45.3271648741564" lon="11.379767131098856"><ele>21.25</ele><time>2026-04-04T11:51:25.168Z</time></trkpt><trkpt lat="45.327058644517734" lon="11.3797914749956"><ele>21.0</ele><time>2026-04-04T11:51:26.168Z</time></trkpt><trkpt lat="45.326957357357784" lon="11.379821503492312"><ele>21.0</ele><time>2026-04-04T11:51:27.168Z</time></trkpt><trkpt lat="45.32686671438148" lon="11.379837912662614"><ele>21.0</ele><time>2026-04-04T11:51:28.168Z</time></trkpt><trkpt lat="45.32676499669883" lon="11.37986120871922"><ele>21.0</ele><time>2026-04-04T11:51:29.168Z</time></trkpt><trkpt lat="45.32664905761582" lon="11.379881016464052"><ele>21.0</ele><time>2026-04-04T11:51:30.168Z</time></trkpt><trkpt lat="45.32652892328325" lon="11.379915939510907"><ele>21.0</ele><time>2026-04-04T11:51:31.168Z</time></trkpt><trkpt lat="45.326400064682744" lon="11.379929770345537"><ele>20.75</ele><time>2026-04-04T11:51:32.168Z</time></trkpt><trkpt lat="45.32626385165905" lon="11.37997523569442"><ele>20.5</ele><time>2026-04-04T11:51:33.168Z</time></trkpt><trkpt lat="45.32613244602223" lon="11.37999730198164"><ele>20.25</ele><time>2026-04-04T11:51:34.168Z</time></trkpt><trkpt lat="45.32599414693779" lon="11.380021162114392"><ele>20.0</ele><time>2026-04-04T11:51:35.168Z</time></trkpt><trkpt lat="45.32585477068443" lon="11.380065586687612"><ele>20.0</ele><time>2026-04-04T11:51:36.168Z</time></trkpt><trkpt lat="45.325708465535946" lon="11.380102177723542"><ele>20.0</ele><time>2026-04-04T11:51:37.168Z</time></trkpt><trkpt lat="45.325562730096905" lon="11.38013345486184"><ele>20.0</ele><time>2026-04-04T11:51:38.168Z</time></trkpt><trkpt lat="45.32542051654833" lon="11.380171183725961"><ele>20.0</ele><time>2026-04-04T11:51:39.168Z</time></trkpt><trkpt lat="45.32527078908406" lon="11.380201478443214"><ele>20.0</ele><time>2026-04-04T11:51:40.168Z</time></trkpt><trkpt lat="45.32513645804364" lon="11.380234094386783"><ele>20.0</ele><time>2026-04-04T11:51:41.168Z</time></trkpt><trkpt lat="45.32499833550199" lon="11.380264526813137"><ele>20.0</ele><time>2026-04-04T11:51:42.168Z</time></trkpt><trkpt lat="45.32485665962263" lon="11.380282756699916"><ele>20.0</ele><time>2026-04-04T11:51:43.168Z</time></trkpt><trkpt lat="45.32473435255257" lon="11.38030827247921"><ele>20.25</ele><time>2026-04-04T11:51:44.168Z</time></trkpt><trkpt lat="45.324606668772894" lon="11.380342248461538"><ele>20.5</ele><time>2026-04-04T11:51:45.168Z</time></trkpt><trkpt lat="45.324481233770015" lon="11.380387113774047"><ele>20.75</ele><time>2026-04-04T11:51:46.168Z</time></trkpt><trkpt lat="45.324339198763234" lon="11.380415169272288"><ele>21.0</ele><time>2026-04-04T11:51:47.168Z</time></trkpt><trkpt lat="45.32419762826612" lon="11.38044941844736"><ele>21.0</ele><time>2026-04-04T11:51:48.168Z</time></trkpt><trkpt lat="45.32405634987896" lon="11.380465739911275"><ele>21.0</ele><time>2026-04-04T11:51:49.168Z</time></trkpt><trkpt lat="45.323918448604736" lon="11.380497849107622"><ele>21.0</ele><time>2026-04-04T11:51:50.168Z</time></trkpt><trkpt lat="45.323777021352406" lon="11.38051659577426"><ele>21.0</ele><time>2026-04-04T11:51:51.168Z</time></trkpt><trkpt lat="45.32363499131717" lon="11.380550563936438"><ele>20.75</ele><time>2026-04-04T11:51:52.168Z</time></trkpt><trkpt lat="45.32349152018918" lon="11.380558496550455"><ele>20.5</ele><time>2026-04-04T11:51:53.168Z</time></trkpt><trkpt lat="45.323361132324926" lon="11.380587627996123"><ele>20.25</ele><time>2026-04-04T11:51:54.168Z</time></trkpt><trkpt lat="45.323229297616635" lon="11.380620394848886"><ele>20.0</ele><time>2026-04-04T11:51:55.168Z</time></trkpt><trkpt lat="45.32309726317596" lon="11.380596406776442"><ele>20.0</ele><time>2026-04-04T11:51:56.168Z</time></trkpt><trkpt lat="45.32298435652415" lon="11.380543702938198"><ele>20.0</ele><time>2026-04-04T11:51:57.168Z</time></trkpt><trkpt lat="45.32285723833027" lon="11.380513802812343"><ele>20.0</ele><time>2026-04-04T11:51:58.168Z</time></trkpt><trkpt lat="45.32275401841269" lon="11.380444287036205"><ele>20.0</ele><time>2026-04-04T11:51:59.168Z</time></trkpt><trkpt lat="45.322663100737216" lon="11.380383639705283"><ele>20.5</ele><time>2026-04-04T11:52:00.168Z</time></trkpt><trkpt lat="45.322553454131224" lon="11.380297375448526"><ele>21.0</ele><time>2026-04-04T11:52:01.168Z</time></trkpt><trkpt lat="45.32242009357947" lon="11.380248810071587"><ele>21.5</ele><time>2026-04-04T11:52:02.168Z</time></trkpt><trkpt lat="45.32232569988249" lon="11.380083869183325"><ele>22.0</ele><time>2026-04-04T11:52:03.168Z</time></trkpt><trkpt lat="45.3222070214317" lon="11.379960752392574"><ele>22.0</ele><time>2026-04-04T11:52:04.168Z</time></trkpt><trkpt lat="45.32209580311402" lon="11.379823908923068"><ele>22.0</ele><time>2026-04-04T11:52:05.168Z</time></trkpt><trkpt lat="45.321992567401026" lon="11.379630543435724"><ele>22.0</ele><time>2026-04-04T11:52:06.168Z</time></trkpt><trkpt lat="45.32188043019186" lon="11.379417562712696"><ele>22.0</ele><time>2026-04-04T11:52:07.168Z</time></trkpt><trkpt lat="45.321800632998865" lon="11.379183389256136"><ele>22.0</ele><time>2026-04-04T11:52:08.168Z</time></trkpt><trkpt lat="45.32173884349939" lon="11.3789595614959"><ele>22.0</ele><time>2026-04-04T11:52:09.168Z</time></trkpt><trkpt lat="45.32168864816239" lon="11.37871394728158"><ele>22.0</ele><time>2026-04-04T11:52:10.168Z</time></trkpt><trkpt lat="45.3216439407757" lon="11.378486980811482"><ele>22.0</ele><time>2026-04-04T11:52:11.168Z</time></trkpt><trkpt lat="45.32161791919398" lon="11.378221649622859"><ele>22.0</ele><time>2026-04-04T11:52:12.168Z</time></trkpt><trkpt lat="45.32157620310469" lon="11.377975819552715"><ele>22.0</ele><time>2026-04-04T11:52:13.168Z</time></trkpt><trkpt lat="45.321543769147155" lon="11.377768351125049"><ele>22.0</ele><time>2026-04-04T11:52:14.168Z</time></trkpt><trkpt lat="45.321496203964934" lon="11.377536394797044"><ele>22.0</ele><time>2026-04-04T11:52:15.168Z</time></trkpt><trkpt lat="45.32143919942306" lon="11.377311671786769"><ele>21.333333333333332</ele><time>2026-04-04T11:52:16.168Z</time></trkpt><trkpt lat="45.32133504132898" lon="11.377079683464936"><ele>20.666666666666668</ele><time>2026-04-04T11:52:17.168Z</time></trkpt><trkpt lat="45.32123837787998" lon="11.37686746031383"><ele>20.0</ele><time>2026-04-04T11:52:18.168Z</time></trkpt><trkpt lat="45.32112852400684" lon="11.376678934286502"><ele>20.0</ele><time>2026-04-04T11:52:19.168Z</time></trkpt><trkpt lat="45.32103188219323" lon="11.376521833178101"><ele>20.0</ele><time>2026-04-04T11:52:20.168Z</time></trkpt><trkpt lat="45.320952536442405" lon="11.376380233884642"><ele>20.0</ele><time>2026-04-04T11:52:21.168Z</time></trkpt><trkpt lat="45.320882633260005" lon="11.376271996936103"><ele>20.0</ele><time>2026-04-04T11:52:22.168Z</time></trkpt><trkpt lat="45.32083272724029" lon="11.376213536091024"><ele>20.0</ele><time>2026-04-04T11:52:23.168Z</time></trkpt><trkpt lat="45.32078536576533" lon="11.37607551780316"><ele>20.333333333333336</ele><time>2026-04-04T11:52:25.168Z</time></trkpt><trkpt lat="45.32091204507488" lon="11.375869066038131"><ele>20.666666666666668</ele><time>2026-04-04T11:52:28.168Z</time></trkpt><trkpt lat="45.32100794860484" lon="11.375803620878662"><ele>21.0</ele><time>2026-04-04T11:52:29.168Z</time></trkpt><trkpt lat="45.32117250945043" lon="11.375741729837856"><ele>21.0</ele><time>2026-04-04T11:52:30.168Z</time></trkpt><trkpt lat="45.32132424174997" lon="11.375683576162308"><ele>21.0</ele><time>2026-04-04T11:52:31.168Z</time></trkpt><trkpt lat="45.32146945324577" lon="11.375625362867197"><ele>21.0</ele><time>2026-04-04T11:52:32.168Z</time></trkpt><trkpt lat="45.32158226347574" lon="11.375549887638638"><ele>21.0</ele><time>2026-04-04T11:52:33.168Z</time></trkpt><trkpt lat="45.32169401121085" lon="11.375454580835116"><ele>21.0</ele><time>2026-04-04T11:52:34.168Z</time></trkpt><trkpt lat="45.32183855877304" lon="11.375311772120945"><ele>21.0</ele><time>2026-04-04T11:52:35.168Z</time></trkpt><trkpt lat="45.32199939492433" lon="11.375147726694602"><ele>21.0</ele><time>2026-04-04T11:52:36.168Z</time></trkpt><trkpt lat="45.32213629997556" lon="11.374930793479257"><ele>20.666666666666668</ele><time>2026-04-04T11:52:37.168Z</time></trkpt><trkpt lat="45.322268318752066" lon="11.374706182275203"><ele>20.333333333333336</ele><time>2026-04-04T11:52:38.168Z</time></trkpt><trkpt lat="45.32241208011659" lon="11.374467925001628"><ele>20.0</ele><time>2026-04-04T11:52:39.168Z</time></trkpt><trkpt lat="45.32255591536454" lon="11.374262010710476"><ele>20.0</ele><time>2026-04-04T11:52:40.168Z</time></trkpt><trkpt lat="45.32269139402203" lon="11.374057362567346"><ele>20.0</ele><time>2026-04-04T11:52:41.168Z</time></trkpt><trkpt lat="45.322825033065385" lon="11.373847747735864"><ele>20.0</ele><time>2026-04-04T11:52:42.168Z</time></trkpt><trkpt lat="45.32295553685032" lon="11.373645872906863"><ele>20.0</ele><time>2026-04-04T11:52:43.168Z</time></trkpt><trkpt lat="45.32309803828381" lon="11.373442600454226"><ele>20.0</ele><time>2026-04-04T11:52:44.168Z</time></trkpt><trkpt lat="45.32324140627946" lon="11.37322189989059"><ele>20.0</ele><time>2026-04-04T11:52:45.168Z</time></trkpt><trkpt lat="45.323416581244025" lon="11.372985255503249"><ele>19.5</ele><time>2026-04-04T11:52:46.168Z</time></trkpt><trkpt lat="45.32359888842123" lon="11.372730625630924"><ele>19.0</ele><time>2026-04-04T11:52:47.168Z</time></trkpt><trkpt lat="45.323767221372236" lon="11.372498588588316"><ele>19.0</ele><time>2026-04-04T11:52:48.168Z</time></trkpt><trkpt lat="45.32391461452346" lon="11.372271200245539"><ele>19.0</ele><time>2026-04-04T11:52:49.168Z</time></trkpt><trkpt lat="45.32406776376365" lon="11.37202175090858"><ele>19.0</ele><time>2026-04-04T11:52:50.168Z</time></trkpt><trkpt lat="45.324229456170684" lon="11.371777859366276"><ele>19.0</ele><time>2026-04-04T11:52:51.168Z</time></trkpt><trkpt lat="45.32441478345844" lon="11.3715316535183"><ele>19.0</ele><time>2026-04-04T11:52:52.168Z</time></trkpt><trkpt lat="45.3245681486929" lon="11.371284628005998"><ele>19.0</ele><time>2026-04-04T11:52:53.168Z</time></trkpt><trkpt lat="45.324729047575715" lon="11.371028771498143"><ele>19.0</ele><time>2026-04-04T11:52:54.168Z</time></trkpt><trkpt lat="45.32487465638685" lon="11.370803147541796"><ele>19.0</ele><time>2026-04-04T11:52:55.168Z</time></trkpt><trkpt lat="45.32503359891789" lon="11.370578368030944"><ele>19.0</ele><time>2026-04-04T11:52:56.168Z</time></trkpt><trkpt lat="45.32519261114022" lon="11.370340704526983"><ele>19.666666666666664</ele><time>2026-04-04T11:52:57.168Z</time></trkpt><trkpt lat="45.32534407402333" lon="11.370127739934288"><ele>20.333333333333332</ele><time>2026-04-04T11:52:58.168Z</time></trkpt><trkpt lat="45.325496843700336" lon="11.369914125580081"><ele>21.0</ele><time>2026-04-04T11:52:59.168Z</time></trkpt><trkpt lat="45.32564809458342" lon="11.369692873662059"><ele>20.666666666666668</ele><time>2026-04-04T11:53:00.168Z</time></trkpt><trkpt lat="45.3258037327545" lon="11.3694620382482"><ele>20.333333333333336</ele><time>2026-04-04T11:53:01.168Z</time></trkpt><trkpt lat="45.32593729756558" lon="11.36923075268781"><ele>20.0</ele><time>2026-04-04T11:53:02.168Z</time></trkpt><trkpt lat="45.32609322442812" lon="11.369006720086384"><ele>19.5</ele><time>2026-04-04T11:53:03.168Z</time></trkpt><trkpt lat="45.32625902273943" lon="11.368751524660968"><ele>19.0</ele><time>2026-04-04T11:53:04.168Z</time></trkpt><trkpt lat="45.32642656399675" lon="11.368493677106345"><ele>19.0</ele><time>2026-04-04T11:53:05.168Z</time></trkpt><trkpt lat="45.32658561144131" lon="11.368262094391127"><ele>19.0</ele><time>2026-04-04T11:53:06.168Z</time></trkpt><trkpt lat="45.326738775127616" lon="11.368038687009674"><ele>19.0</ele><time>2026-04-04T11:53:07.168Z</time></trkpt><trkpt lat="45.3268875999559" lon="11.367816565244624"><ele>19.666666666666664</ele><time>2026-04-04T11:53:08.168Z</time></trkpt><trkpt lat="45.32704087961196" lon="11.367602841428695"><ele>20.333333333333332</ele><time>2026-04-04T11:53:09.168Z</time></trkpt><trkpt lat="45.327188919453945" lon="11.36739391041766"><ele>21.0</ele><time>2026-04-04T11:53:10.168Z</time></trkpt><trkpt lat="45.32733001078836" lon="11.367192436919629"><ele>21.0</ele><time>2026-04-04T11:53:11.168Z</time></trkpt><trkpt lat="45.327454022947194" lon="11.36695473158306"><ele>21.0</ele><time>2026-04-04T11:53:12.168Z</time></trkpt><trkpt lat="45.32758739797081" lon="11.366731304019966"><ele>21.0</ele><time>2026-04-04T11:53:13.168Z</time></trkpt><trkpt lat="45.32769840429615" lon="11.366509509397687"><ele>21.0</ele><time>2026-04-04T11:53:14.168Z</time></trkpt><trkpt lat="45.32779948557883" lon="11.366276557939424"><ele>21.0</ele><time>2026-04-04T11:53:15.168Z</time></trkpt><trkpt lat="45.32787384540668" lon="11.366049327811842"><ele>21.0</ele><time>2026-04-04T11:53:16.168Z</time></trkpt><trkpt lat="45.32792925879761" lon="11.36581804473522"><ele>21.0</ele><time>2026-04-04T11:53:17.168Z</time></trkpt><trkpt lat="45.32799880044696" lon="11.365553442191873"><ele>21.0</ele><time>2026-04-04T11:53:18.168Z</time></trkpt><trkpt lat="45.32806251217217" lon="11.3652892951964"><ele>21.0</ele><time>2026-04-04T11:53:19.168Z</time></trkpt><trkpt lat="45.32813877130368" lon="11.365022955298167"><ele>21.0</ele><time>2026-04-04T11:53:20.168Z</time></trkpt><trkpt lat="45.328230008057766" lon="11.364753298173133"><ele>21.0</ele><time>2026-04-04T11:53:21.168Z</time></trkpt><trkpt lat="45.32830048736784" lon="11.364487365817862"><ele>21.0</ele><time>2026-04-04T11:53:22.168Z</time></trkpt><trkpt lat="45.32836880740768" lon="11.364218019170277"><ele>20.666666666666668</ele><time>2026-04-04T11:53:23.168Z</time></trkpt><trkpt lat="45.32844789118701" lon="11.363943933507192"><ele>20.333333333333336</ele><time>2026-04-04T11:53:24.168Z</time></trkpt><trkpt lat="45.328515166814306" lon="11.36367427761845"><ele>20.0</ele><time>2026-04-04T11:53:25.168Z</time></trkpt><trkpt lat="45.32859711046187" lon="11.363398492359057"><ele>20.0</ele><time>2026-04-04T11:53:26.168Z</time></trkpt><trkpt lat="45.32867039239346" lon="11.363125951751783"><ele>20.0</ele><time>2026-04-04T11:53:27.168Z</time></trkpt><trkpt lat="45.32874544193319" lon="11.36285594827085"><ele>20.0</ele><time>2026-04-04T11:53:28.168Z</time></trkpt><trkpt lat="45.32882220830758" lon="11.362579162186137"><ele>20.0</ele><time>2026-04-04T11:53:29.168Z</time></trkpt><trkpt lat="45.32888863379556" lon="11.362301329891944"><ele>20.0</ele><time>2026-04-04T11:53:30.168Z</time></trkpt><trkpt lat="45.328986401685775" lon="11.361992488326079"><ele>20.0</ele><time>2026-04-04T11:53:31.168Z</time></trkpt><trkpt lat="45.329076153327286" lon="11.361683985804286"><ele>19.5</ele><time>2026-04-04T11:53:32.168Z</time></trkpt><trkpt lat="45.32915332766961" lon="11.361359917073846"><ele>19.0</ele><time>2026-04-04T11:53:33.168Z</time></trkpt><trkpt lat="45.329247617237684" lon="11.361014718340952"><ele>19.0</ele><time>2026-04-04T11:53:34.168Z</time></trkpt><trkpt lat="45.32934403190101" lon="11.360670713044302"><ele>19.0</ele><time>2026-04-04T11:53:35.168Z</time></trkpt><trkpt lat="45.32945248219798" lon="11.36030008855365"><ele>19.0</ele><time>2026-04-04T11:53:36.168Z</time></trkpt><trkpt lat="45.329558377066256" lon="11.359926737623692"><ele>19.0</ele><time>2026-04-04T11:53:37.168Z</time></trkpt><trkpt lat="45.32966144531907" lon="11.359570685911383"><ele>19.5</ele><time>2026-04-04T11:53:38.168Z</time></trkpt><trkpt lat="45.32975448430064" lon="11.35923784911872"><ele>20.0</ele><time>2026-04-04T11:53:39.168Z</time></trkpt><trkpt lat="45.32984571392293" lon="11.358917448648057"><ele>21.0</ele><time>2026-04-04T11:53:40.168Z</time></trkpt><trkpt lat="45.32993224254504" lon="11.358611233032995"><ele>22.0</ele><time>2026-04-04T11:53:41.168Z</time></trkpt><trkpt lat="45.330019584067685" lon="11.358293139520063"><ele>22.0</ele><time>2026-04-04T11:53:42.168Z</time></trkpt><trkpt lat="45.3301102807856" lon="11.357976279628968"><ele>22.0</ele><time>2026-04-04T11:53:43.168Z</time></trkpt><trkpt lat="45.33019929747648" lon="11.35766025227455"><ele>22.0</ele><time>2026-04-04T11:53:44.168Z</time></trkpt><trkpt lat="45.330287736223056" lon="11.35733474546476"><ele>22.0</ele><time>2026-04-04T11:53:45.168Z</time></trkpt><trkpt lat="45.33038648027352" lon="11.357015379807262"><ele>22.0</ele><time>2026-04-04T11:53:46.168Z</time></trkpt><trkpt lat="45.33047559730812" lon="11.356676752434286"><ele>22.0</ele><time>2026-04-04T11:53:47.168Z</time></trkpt><trkpt lat="45.33056606210593" lon="11.356345559003197"><ele>21.0</ele><time>2026-04-04T11:53:48.168Z</time></trkpt><trkpt lat="45.33066312260317" lon="11.356017575694867"><ele>20.0</ele><time>2026-04-04T11:53:49.168Z</time></trkpt><trkpt lat="45.33075868305159" lon="11.35568607834337"><ele>21.0</ele><time>2026-04-04T11:53:50.169Z</time></trkpt><trkpt lat="45.33085579502749" lon="11.355356326505602"><ele>22.0</ele><time>2026-04-04T11:53:51.169Z</time></trkpt><trkpt lat="45.3309485316227" lon="11.355025118874412"><ele>21.5</ele><time>2026-04-04T11:53:52.169Z</time></trkpt><trkpt lat="45.33105136689158" lon="11.354700497628286"><ele>21.0</ele><time>2026-04-04T11:53:53.169Z</time></trkpt><trkpt lat="45.33115026339307" lon="11.354382468712302"><ele>21.0</ele><time>2026-04-04T11:53:54.169Z</time></trkpt><trkpt lat="45.33123949229383" lon="11.354082748544874"><ele>21.0</ele><time>2026-04-04T11:53:55.169Z</time></trkpt><trkpt lat="45.33133203049466" lon="11.353783820764571"><ele>21.333333333333332</ele><time>2026-04-04T11:53:56.169Z</time></trkpt><trkpt lat="45.33141774638065" lon="11.353503584636476"><ele>21.666666666666664</ele><time>2026-04-04T11:53:57.169Z</time></trkpt><trkpt lat="45.33149463161651" lon="11.353210820012562"><ele>22.0</ele><time>2026-04-04T11:53:58.169Z</time></trkpt><trkpt lat="45.33158597121949" lon="11.352926651418894"><ele>22.0</ele><time>2026-04-04T11:53:59.169Z</time></trkpt><trkpt lat="45.33167214694912" lon="11.35264590474701"><ele>22.0</ele><time>2026-04-04T11:54:00.169Z</time></trkpt><trkpt lat="45.33175947830238" lon="11.352365465641885"><ele>22.0</ele><time>2026-04-04T11:54:01.169Z</time></trkpt><trkpt lat="45.33183589233709" lon="11.352081693853757"><ele>21.666666666666664</ele><time>2026-04-04T11:54:02.169Z</time></trkpt><trkpt lat="45.33192733756924" lon="11.351797783072731"><ele>21.333333333333332</ele><time>2026-04-04T11:54:03.169Z</time></trkpt><trkpt lat="45.33201758046614" lon="11.351508032046329"><ele>21.0</ele><time>2026-04-04T11:54:04.169Z</time></trkpt><trkpt lat="45.332104255149716" lon="11.35122249907328"><ele>20.5</ele><time>2026-04-04T11:54:05.169Z</time></trkpt><trkpt lat="45.33220271523318" lon="11.35092325823122"><ele>20.0</ele><time>2026-04-04T11:54:06.169Z</time></trkpt><trkpt lat="45.33228766610626" lon="11.350626740140559"><ele>20.5</ele><time>2026-04-04T11:54:07.169Z</time></trkpt><trkpt lat="45.33237926927026" lon="11.350328141932232"><ele>21.0</ele><time>2026-04-04T11:54:08.169Z</time></trkpt><trkpt lat="45.332469515295976" lon="11.350009326704745"><ele>20.0</ele><time>2026-04-04T11:54:09.169Z</time></trkpt><trkpt lat="45.33257436269792" lon="11.349687668021403"><ele>19.0</ele><time>2026-04-04T11:54:10.169Z</time></trkpt><trkpt lat="45.332666739051646" lon="11.349353377623162"><ele>19.0</ele><time>2026-04-04T11:54:11.169Z</time></trkpt><trkpt lat="45.3327704164828" lon="11.349038605025573"><ele>19.0</ele><time>2026-04-04T11:54:12.169Z</time></trkpt><trkpt lat="45.332849747057494" lon="11.348746972897647"><ele>18.0</ele><time>2026-04-04T11:54:13.169Z</time></trkpt><trkpt lat="45.33294293961862" lon="11.348459403310118"><ele>17.0</ele><time>2026-04-04T11:54:14.169Z</time></trkpt><trkpt lat="45.33303549168828" lon="11.348178113990665"><ele>16.0</ele><time>2026-04-04T11:54:15.169Z</time></trkpt><trkpt lat="45.33311130824955" lon="11.347895447381928"><ele>17.333333333333332</ele><time>2026-04-04T11:54:16.169Z</time></trkpt><trkpt lat="45.33319311898641" lon="11.347609331337182"><ele>18.666666666666668</ele><time>2026-04-04T11:54:17.169Z</time></trkpt><trkpt lat="45.333275724460876" lon="11.3473305810696"><ele>20.0</ele><time>2026-04-04T11:54:18.169Z</time></trkpt><trkpt lat="45.33336469204959" lon="11.347049265199205"><ele>20.0</ele><time>2026-04-04T11:54:19.169Z</time></trkpt><trkpt lat="45.33345698979817" lon="11.346760222307472"><ele>20.0</ele><time>2026-04-04T11:54:20.169Z</time></trkpt><trkpt lat="45.33354466626148" lon="11.34646959393112"><ele>20.0</ele><time>2026-04-04T11:54:21.169Z</time></trkpt><trkpt lat="45.3336328202762" lon="11.346182048156816"><ele>19.5</ele><time>2026-04-04T11:54:22.169Z</time></trkpt><trkpt lat="45.33372694759884" lon="11.345885919598507"><ele>19.0</ele><time>2026-04-04T11:54:23.169Z</time></trkpt><trkpt lat="45.333811437410496" lon="11.345584450561788"><ele>19.0</ele><time>2026-04-04T11:54:24.169Z</time></trkpt><trkpt lat="45.33390819117332" lon="11.345280607538655"><ele>19.0</ele><time>2026-04-04T11:54:25.169Z</time></trkpt><trkpt lat="45.33401100833773" lon="11.344977301775318"><ele>19.333333333333332</ele><time>2026-04-04T11:54:26.169Z</time></trkpt><trkpt lat="45.33409490921172" lon="11.344693818941064"><ele>19.666666666666668</ele><time>2026-04-04T11:54:27.169Z</time></trkpt><trkpt lat="45.33417455293301" lon="11.344421399195754"><ele>20.0</ele><time>2026-04-04T11:54:28.169Z</time></trkpt><trkpt lat="45.33425788966435" lon="11.344144605626434"><ele>20.666666666666668</ele><time>2026-04-04T11:54:29.169Z</time></trkpt><trkpt lat="45.334337958470144" lon="11.343873984936899"><ele>21.333333333333332</ele><time>2026-04-04T11:54:30.169Z</time></trkpt><trkpt lat="45.334419407834005" lon="11.343596320911605"><ele>22.0</ele><time>2026-04-04T11:54:31.169Z</time></trkpt><trkpt lat="45.334503927691394" lon="11.343323431015115"><ele>22.0</ele><time>2026-04-04T11:54:32.169Z</time></trkpt><trkpt lat="45.33458175295373" lon="11.343052659874989"><ele>22.0</ele><time>2026-04-04T11:54:33.169Z</time></trkpt><trkpt lat="45.33466947915315" lon="11.342777106234218"><ele>22.0</ele><time>2026-04-04T11:54:34.169Z</time></trkpt><trkpt lat="45.33474489752974" lon="11.3425064086682"><ele>21.666666666666664</ele><time>2026-04-04T11:54:35.169Z</time></trkpt><trkpt lat="45.33482727086286" lon="11.342227304588848"><ele>21.333333333333332</ele><time>2026-04-04T11:54:36.169Z</time></trkpt><trkpt lat="45.334907734814955" lon="11.341945980244072"><ele>21.0</ele><time>2026-04-04T11:54:37.169Z</time></trkpt><trkpt lat="45.33499291601682" lon="11.341659382529398"><ele>21.333333333333332</ele><time>2026-04-04T11:54:38.169Z</time></trkpt><trkpt lat="45.335081261194844" lon="11.341370995561942"><ele>21.666666666666664</ele><time>2026-04-04T11:54:39.169Z</time></trkpt><trkpt lat="45.33516400024323" lon="11.341087327830888"><ele>22.0</ele><time>2026-04-04T11:54:40.169Z</time></trkpt><trkpt lat="45.335237673953884" lon="11.340826176639787"><ele>22.0</ele><time>2026-04-04T11:54:41.169Z</time></trkpt><trkpt lat="45.33531076346881" lon="11.340575415897478"><ele>22.0</ele><time>2026-04-04T11:54:42.169Z</time></trkpt><trkpt lat="45.33538806281114" lon="11.340338472586652"><ele>22.0</ele><time>2026-04-04T11:54:43.169Z</time></trkpt><trkpt lat="45.33545968467207" lon="11.34010270879371"><ele>21.666666666666664</ele><time>2026-04-04T11:54:44.169Z</time></trkpt><trkpt lat="45.335536030952696" lon="11.33986005968203"><ele>21.333333333333332</ele><time>2026-04-04T11:54:45.169Z</time></trkpt><trkpt lat="45.33561313670407" lon="11.339620743009098"><ele>21.0</ele><time>2026-04-04T11:54:46.169Z</time></trkpt><trkpt lat="45.33568491814112" lon="11.339371886625345"><ele>20.666666666666668</ele><time>2026-04-04T11:54:47.169Z</time></trkpt><trkpt lat="45.33575779768554" lon="11.339119887960502"><ele>20.333333333333336</ele><time>2026-04-04T11:54:48.169Z</time></trkpt><trkpt lat="45.33582502527148" lon="11.33888973306302"><ele>20.0</ele><time>2026-04-04T11:54:49.169Z</time></trkpt><trkpt lat="45.33589430816202" lon="11.33866317246793"><ele>20.0</ele><time>2026-04-04T11:54:50.169Z</time></trkpt><trkpt lat="45.33596892595981" lon="11.3384272114393"><ele>20.0</ele><time>2026-04-04T11:54:51.169Z</time></trkpt><trkpt lat="45.336041778440965" lon="11.338186923093376"><ele>20.0</ele><time>2026-04-04T11:54:52.169Z</time></trkpt><trkpt lat="45.336122982013954" lon="11.337939208841016"><ele>20.666666666666668</ele><time>2026-04-04T11:54:53.169Z</time></trkpt><trkpt lat="45.33619658886569" lon="11.33768532652441"><ele>21.333333333333332</ele><time>2026-04-04T11:54:54.169Z</time></trkpt><trkpt lat="45.33627472488852" lon="11.337412827327178"><ele>22.0</ele><time>2026-04-04T11:54:55.169Z</time></trkpt><trkpt lat="45.336358784416646" lon="11.3371309317222"><ele>22.0</ele><time>2026-04-04T11:54:56.169Z</time></trkpt><trkpt lat="45.33644340895146" lon="11.336856190378361"><ele>22.0</ele><time>2026-04-04T11:54:57.169Z</time></trkpt><trkpt lat="45.336522050930014" lon="11.336607867076403"><ele>22.0</ele><time>2026-04-04T11:54:58.169Z</time></trkpt><trkpt lat="45.336598742725364" lon="11.336383934539084"><ele>22.0</ele><time>2026-04-04T11:54:59.169Z</time></trkpt><trkpt lat="45.33667115362887" lon="11.33617429612929"><ele>22.0</ele><time>2026-04-04T11:55:00.169Z</time></trkpt><trkpt lat="45.33674085186451" lon="11.335979650108097"><ele>22.0</ele><time>2026-04-04T11:55:01.169Z</time></trkpt><trkpt lat="45.33680783145911" lon="11.335816190698168"><ele>22.0</ele><time>2026-04-04T11:55:02.169Z</time></trkpt><trkpt lat="45.33687989878203" lon="11.335674169063239"><ele>22.0</ele><time>2026-04-04T11:55:03.169Z</time></trkpt><trkpt lat="45.33695093425234" lon="11.335527610731551"><ele>22.0</ele><time>2026-04-04T11:55:04.169Z</time></trkpt><trkpt lat="45.33703302186683" lon="11.335403699160288"><ele>22.0</ele><time>2026-04-04T11:55:05.169Z</time></trkpt><trkpt lat="45.33711814431358" lon="11.335319621357957"><ele>22.25</ele><time>2026-04-04T11:55:06.169Z</time></trkpt><trkpt lat="45.33722497465148" lon="11.335253621537133"><ele>22.5</ele><time>2026-04-04T11:55:07.169Z</time></trkpt><trkpt lat="45.337320085348885" lon="11.335190792407609"><ele>22.75</ele><time>2026-04-04T11:55:08.169Z</time></trkpt><trkpt lat="45.33740597255883" lon="11.335078479350772"><ele>23.0</ele><time>2026-04-04T11:55:09.169Z</time></trkpt><trkpt lat="45.337480288889424" lon="11.334923051645662"><ele>23.0</ele><time>2026-04-04T11:55:10.169Z</time></trkpt><trkpt lat="45.337545695820005" lon="11.334732722089772"><ele>23.0</ele><time>2026-04-04T11:55:11.169Z</time></trkpt><trkpt lat="45.3375988548214" lon="11.334517897069237"><ele>23.0</ele><time>2026-04-04T11:55:12.169Z</time></trkpt><trkpt lat="45.337655728340444" lon="11.334267438040138"><ele>22.666666666666668</ele><time>2026-04-04T11:55:13.169Z</time></trkpt><trkpt lat="45.33774044491657" lon="11.333998201628933"><ele>22.333333333333332</ele><time>2026-04-04T11:55:14.169Z</time></trkpt><trkpt lat="45.33782844019913" lon="11.333704320914345"><ele>22.0</ele><time>2026-04-04T11:55:15.169Z</time></trkpt><trkpt lat="45.33790773325907" lon="11.333424812404287"><ele>21.666666666666664</ele><time>2026-04-04T11:55:16.169Z</time></trkpt><trkpt lat="45.33797901947986" lon="11.333155561079108"><ele>21.333333333333332</ele><time>2026-04-04T11:55:17.169Z</time></trkpt><trkpt lat="45.33805446476644" lon="11.33290718188757"><ele>21.0</ele><time>2026-04-04T11:55:18.169Z</time></trkpt><trkpt lat="45.33811909696259" lon="11.332666629390236"><ele>21.0</ele><time>2026-04-04T11:55:19.169Z</time></trkpt><trkpt lat="45.33820088994788" lon="11.332431001273376"><ele>21.0</ele><time>2026-04-04T11:55:20.169Z</time></trkpt><trkpt lat="45.33827009695989" lon="11.332163377943209"><ele>21.0</ele><time>2026-04-04T11:55:21.169Z</time></trkpt><trkpt lat="45.33836142815805" lon="11.331910354965213"><ele>21.333333333333332</ele><time>2026-04-04T11:55:22.169Z</time></trkpt><trkpt lat="45.33845350305969" lon="11.331645141839491"><ele>21.666666666666664</ele><time>2026-04-04T11:55:23.169Z</time></trkpt><trkpt lat="45.33855524614788" lon="11.331380167835361"><ele>22.0</ele><time>2026-04-04T11:55:24.169Z</time></trkpt><trkpt lat="45.33866114506691" lon="11.331107805650051"><ele>22.0</ele><time>2026-04-04T11:55:25.169Z</time></trkpt><trkpt lat="45.33878580875525" lon="11.330831533935449"><ele>22.0</ele><time>2026-04-04T11:55:26.169Z</time></trkpt><trkpt lat="45.338899307871934" lon="11.330547072027505"><ele>22.0</ele><time>2026-04-04T11:55:27.169Z</time></trkpt><trkpt lat="45.339029968667624" lon="11.3302275291367"><ele>22.0</ele><time>2026-04-04T11:55:28.169Z</time></trkpt><trkpt lat="45.33916927083899" lon="11.32990130527119"><ele>21.5</ele><time>2026-04-04T11:55:29.169Z</time></trkpt><trkpt lat="45.33931332975749" lon="11.329554924466072"><ele>21.0</ele><time>2026-04-04T11:55:30.169Z</time></trkpt><trkpt lat="45.33946257087697" lon="11.329187967136216"><ele>22.0</ele><time>2026-04-04T11:55:31.169Z</time></trkpt><trkpt lat="45.33961026095653" lon="11.328819053434946"><ele>23.0</ele><time>2026-04-04T11:55:32.169Z</time></trkpt><trkpt lat="45.33975006414701" lon="11.328482915722917"><ele>23.0</ele><time>2026-04-04T11:55:33.169Z</time></trkpt><trkpt lat="45.339870595226" lon="11.328182695246715"><ele>23.0</ele><time>2026-04-04T11:55:34.169Z</time></trkpt><trkpt lat="45.33998918430513" lon="11.327880357486674"><ele>23.5</ele><time>2026-04-04T11:55:35.169Z</time></trkpt><trkpt lat="45.34011473516143" lon="11.327577642554411"><ele>24.0</ele><time>2026-04-04T11:55:36.169Z</time></trkpt><trkpt lat="45.340236776682154" lon="11.327278352785184"><ele>24.0</ele><time>2026-04-04T11:55:37.169Z</time></trkpt><trkpt lat="45.34035321578711" lon="11.326980552147587"><ele>24.0</ele><time>2026-04-04T11:55:38.169Z</time></trkpt><trkpt lat="45.34047706015522" lon="11.326690614022128"><ele>23.666666666666668</ele><time>2026-04-04T11:55:39.169Z</time></trkpt><trkpt lat="45.34059191922229" lon="11.326421026898085"><ele>23.333333333333336</ele><time>2026-04-04T11:55:40.169Z</time></trkpt><trkpt lat="45.340702401654966" lon="11.326159309772471"><ele>23.0</ele><time>2026-04-04T11:55:41.169Z</time></trkpt><trkpt lat="45.34080541578384" lon="11.325896902979395"><ele>23.0</ele><time>2026-04-04T11:55:42.169Z</time></trkpt><trkpt lat="45.340912232123536" lon="11.325624883869791"><ele>23.0</ele><time>2026-04-04T11:55:43.169Z</time></trkpt><trkpt lat="45.341020450027294" lon="11.32534532609079"><ele>23.0</ele><time>2026-04-04T11:55:44.169Z</time></trkpt><trkpt lat="45.34111240665515" lon="11.325060523678774"><ele>23.0</ele><time>2026-04-04T11:55:45.169Z</time></trkpt><trkpt lat="45.34119841505614" lon="11.324751708791817"><ele>23.0</ele><time>2026-04-04T11:55:46.169Z</time></trkpt><trkpt lat="45.34128386901055" lon="11.32443340067515"><ele>23.0</ele><time>2026-04-04T11:55:47.169Z</time></trkpt><trkpt lat="45.34138385198812" lon="11.324100510042252"><ele>23.0</ele><time>2026-04-04T11:55:48.169Z</time></trkpt><trkpt lat="45.341463473171046" lon="11.323749324676758"><ele>23.0</ele><time>2026-04-04T11:55:49.169Z</time></trkpt><trkpt lat="45.34156958475339" lon="11.323401295658826"><ele>23.0</ele><time>2026-04-04T11:55:50.169Z</time></trkpt><trkpt lat="45.341667382815395" lon="11.32303678176123"><ele>23.5</ele><time>2026-04-04T11:55:51.169Z</time></trkpt><trkpt lat="45.34177154433077" lon="11.322655578810814"><ele>24.0</ele><time>2026-04-04T11:55:52.169Z</time></trkpt><trkpt lat="45.34187377609695" lon="11.322287313669351"><ele>24.0</ele><time>2026-04-04T11:55:53.169Z</time></trkpt><trkpt lat="45.341972828069835" lon="11.32194446603832"><ele>24.0</ele><time>2026-04-04T11:55:54.169Z</time></trkpt><trkpt lat="45.34206276885638" lon="11.32162730021504"><ele>24.0</ele><time>2026-04-04T11:55:55.169Z</time></trkpt><trkpt lat="45.34214653501184" lon="11.321322077716092"><ele>24.0</ele><time>2026-04-04T11:55:56.17Z</time></trkpt><trkpt lat="45.34223786210495" lon="11.32100936502324"><ele>24.0</ele><time>2026-04-04T11:55:57.17Z</time></trkpt><trkpt lat="45.34232311802329" lon="11.320704000902394"><ele>24.0</ele><time>2026-04-04T11:55:58.17Z</time></trkpt><trkpt lat="45.342404243715784" lon="11.320400599474853"><ele>24.0</ele><time>2026-04-04T11:55:59.17Z</time></trkpt><trkpt lat="45.342488717848106" lon="11.320094494705065"><ele>24.0</ele><time>2026-04-04T11:56:00.17Z</time></trkpt><trkpt lat="45.34257217123918" lon="11.31978623320897"><ele>24.0</ele><time>2026-04-04T11:56:01.17Z</time></trkpt><trkpt lat="45.342652245178755" lon="11.319480028868298"><ele>24.0</ele><time>2026-04-04T11:56:02.17Z</time></trkpt><trkpt lat="45.34273673049432" lon="11.31917667158778"><ele>23.5</ele><time>2026-04-04T11:56:03.17Z</time></trkpt><trkpt lat="45.34282693808614" lon="11.318874870844716"><ele>23.0</ele><time>2026-04-04T11:56:04.17Z</time></trkpt><trkpt lat="45.34291205799497" lon="11.318570057049072"><ele>23.0</ele><time>2026-04-04T11:56:05.17Z</time></trkpt><trkpt lat="45.34299573065905" lon="11.318244077349572"><ele>23.0</ele><time>2026-04-04T11:56:06.17Z</time></trkpt><trkpt lat="45.34308920288597" lon="11.317920580620767"><ele>23.0</ele><time>2026-04-04T11:56:07.17Z</time></trkpt><trkpt lat="45.34316926093695" lon="11.317598057261808"><ele>23.0</ele><time>2026-04-04T11:56:08.17Z</time></trkpt><trkpt lat="45.34326150683071" lon="11.317258184497366"><ele>23.5</ele><time>2026-04-04T11:56:09.17Z</time></trkpt><trkpt lat="45.34335094509542" lon="11.316904033269068"><ele>24.0</ele><time>2026-04-04T11:56:10.17Z</time></trkpt><trkpt lat="45.34345063242128" lon="11.316544757319654"><ele>23.5</ele><time>2026-04-04T11:56:11.17Z</time></trkpt><trkpt lat="45.343552777515455" lon="11.316199101768092"><ele>23.0</ele><time>2026-04-04T11:56:12.17Z</time></trkpt><trkpt lat="45.34364217653843" lon="11.315881255671515"><ele>23.0</ele><time>2026-04-04T11:56:13.17Z</time></trkpt><trkpt lat="45.343732131744055" lon="11.31555986330092"><ele>23.0</ele><time>2026-04-04T11:56:14.17Z</time></trkpt><trkpt lat="45.34382200019335" lon="11.315243410553629"><ele>23.5</ele><time>2026-04-04T11:56:15.17Z</time></trkpt><trkpt lat="45.34390775963949" lon="11.31491941350125"><ele>24.0</ele><time>2026-04-04T11:56:16.17Z</time></trkpt><trkpt lat="45.343988785283436" lon="11.314596263108879"><ele>24.0</ele><time>2026-04-04T11:56:17.17Z</time></trkpt><trkpt lat="45.34407509310914" lon="11.314268881622661"><ele>24.0</ele><time>2026-04-04T11:56:18.17Z</time></trkpt><trkpt lat="45.3441719653348" lon="11.31393221107494"><ele>23.5</ele><time>2026-04-04T11:56:19.17Z</time></trkpt><trkpt lat="45.34426693298628" lon="11.313589446773838"><ele>23.0</ele><time>2026-04-04T11:56:20.17Z</time></trkpt><trkpt lat="45.34436916864459" lon="11.313229607870614"><ele>23.0</ele><time>2026-04-04T11:56:21.17Z</time></trkpt><trkpt lat="45.34446777229802" lon="11.312857559087904"><ele>23.0</ele><time>2026-04-04T11:56:22.17Z</time></trkpt><trkpt lat="45.34456527411186" lon="11.312485591017706"><ele>23.0</ele><time>2026-04-04T11:56:23.17Z</time></trkpt><trkpt lat="45.34466751938904" lon="11.312097559664311"><ele>23.0</ele><time>2026-04-04T11:56:24.17Z</time></trkpt><trkpt lat="45.3447734990969" lon="11.311705972563445"><ele>23.5</ele><time>2026-04-04T11:56:25.17Z</time></trkpt><trkpt lat="45.3448884831395" lon="11.311301230909116"><ele>24.0</ele><time>2026-04-04T11:56:26.17Z</time></trkpt><trkpt lat="45.34499963022873" lon="11.310882082656514"><ele>24.0</ele><time>2026-04-04T11:56:27.17Z</time></trkpt><trkpt lat="45.34512079716281" lon="11.310472821078081"><ele>24.0</ele><time>2026-04-04T11:56:28.17Z</time></trkpt><trkpt lat="45.3452168989844" lon="11.310093403685588"><ele>24.0</ele><time>2026-04-04T11:56:29.17Z</time></trkpt><trkpt lat="45.345312340176505" lon="11.309750696550497"><ele>24.0</ele><time>2026-04-04T11:56:30.17Z</time></trkpt><trkpt lat="45.34540490462982" lon="11.309409315773912"><ele>24.0</ele><time>2026-04-04T11:56:31.17Z</time></trkpt><trkpt lat="45.345486881860786" lon="11.309082452373351"><ele>24.0</ele><time>2026-04-04T11:56:32.17Z</time></trkpt><trkpt lat="45.34558469862338" lon="11.308743450126775"><ele>24.0</ele><time>2026-04-04T11:56:33.17Z</time></trkpt><trkpt lat="45.34568042980845" lon="11.308404749374036"><ele>24.0</ele><time>2026-04-04T11:56:34.17Z</time></trkpt><trkpt lat="45.34576728795095" lon="11.308073239597677"><ele>24.0</ele><time>2026-04-04T11:56:35.17Z</time></trkpt><trkpt lat="45.345859603577225" lon="11.307743348833256"><ele>24.0</ele><time>2026-04-04T11:56:36.17Z</time></trkpt><trkpt lat="45.34595500820971" lon="11.307409714648022"><ele>24.0</ele><time>2026-04-04T11:56:37.17Z</time></trkpt><trkpt lat="45.34605459047533" lon="11.307069944726742"><ele>24.0</ele><time>2026-04-04T11:56:38.17Z</time></trkpt><trkpt lat="45.34614328015007" lon="11.306725702859994"><ele>24.5</ele><time>2026-04-04T11:56:39.17Z</time></trkpt><trkpt lat="45.34623979064218" lon="11.30638744999998"><ele>25.0</ele><time>2026-04-04T11:56:40.17Z</time></trkpt><trkpt lat="45.34634260288468" lon="11.306039684996348"><ele>25.0</ele><time>2026-04-04T11:56:41.17Z</time></trkpt><trkpt lat="45.3464356059045" lon="11.30569939660259"><ele>25.0</ele><time>2026-04-04T11:56:42.17Z</time></trkpt><trkpt lat="45.34653593793739" lon="11.305350414892876"><ele>25.0</ele><time>2026-04-04T11:56:43.17Z</time></trkpt><trkpt lat="45.34662046128506" lon="11.305006380300062"><ele>25.0</ele><time>2026-04-04T11:56:44.17Z</time></trkpt><trkpt lat="45.34671693692383" lon="11.304665820869682"><ele>24.5</ele><time>2026-04-04T11:56:45.17Z</time></trkpt><trkpt lat="45.34681964796876" lon="11.30432332636516"><ele>24.0</ele><time>2026-04-04T11:56:46.17Z</time></trkpt><trkpt lat="45.34690536954968" lon="11.304006793128803"><ele>24.5</ele><time>2026-04-04T11:56:47.17Z</time></trkpt><trkpt lat="45.3469879977902" lon="11.303699289349984"><ele>25.0</ele><time>2026-04-04T11:56:48.17Z</time></trkpt><trkpt lat="45.34707185653968" lon="11.303388661972823"><ele>25.0</ele><time>2026-04-04T11:56:49.17Z</time></trkpt><trkpt lat="45.347155571102064" lon="11.303081281012982"><ele>25.0</ele><time>2026-04-04T11:56:50.17Z</time></trkpt><trkpt lat="45.34724240112443" lon="11.302788132673951"><ele>25.0</ele><time>2026-04-04T11:56:51.17Z</time></trkpt><trkpt lat="45.34732424066082" lon="11.3024980994569"><ele>25.0</ele><time>2026-04-04T11:56:52.17Z</time></trkpt><trkpt lat="45.3474059632233" lon="11.302200821211715"><ele>25.0</ele><time>2026-04-04T11:56:53.17Z</time></trkpt><trkpt lat="45.347485736983" lon="11.301890682981625"><ele>25.0</ele><time>2026-04-04T11:56:54.17Z</time></trkpt><trkpt lat="45.34755190482551" lon="11.301601663682044"><ele>25.0</ele><time>2026-04-04T11:56:55.17Z</time></trkpt><trkpt lat="45.34764029932418" lon="11.301291162785922"><ele>25.0</ele><time>2026-04-04T11:56:56.17Z</time></trkpt><trkpt lat="45.34773105736835" lon="11.300964643096375"><ele>25.0</ele><time>2026-04-04T11:56:57.17Z</time></trkpt><trkpt lat="45.34783323260998" lon="11.300628471838829"><ele>25.0</ele><time>2026-04-04T11:56:58.17Z</time></trkpt><trkpt lat="45.34790638078907" lon="11.300299084071945"><ele>25.0</ele><time>2026-04-04T11:56:59.17Z</time></trkpt><trkpt lat="45.34799547662489" lon="11.29996942470773"><ele>25.0</ele><time>2026-04-04T11:57:00.17Z</time></trkpt><trkpt lat="45.34807673387635" lon="11.29965465502898"><ele>25.0</ele><time>2026-04-04T11:57:01.17Z</time></trkpt><trkpt lat="45.34814299969647" lon="11.299360174442869"><ele>25.0</ele><time>2026-04-04T11:57:02.17Z</time></trkpt><trkpt lat="45.34821642977196" lon="11.299071616552348"><ele>25.0</ele><time>2026-04-04T11:57:03.17Z</time></trkpt><trkpt lat="45.34827014679451" lon="11.298811876252268"><ele>25.666666666666668</ele><time>2026-04-04T11:57:04.17Z</time></trkpt><trkpt lat="45.34833252916218" lon="11.298557935240796"><ele>26.333333333333336</ele><time>2026-04-04T11:57:05.17Z</time></trkpt><trkpt lat="45.34839892061507" lon="11.298319321547893"><ele>27.0</ele><time>2026-04-04T11:57:06.17Z</time></trkpt><trkpt lat="45.34846214126807" lon="11.298111967222729"><ele>27.0</ele><time>2026-04-04T11:57:07.17Z</time></trkpt><trkpt lat="45.348557330445814" lon="11.297910760077661"><ele>27.0</ele><time>2026-04-04T11:57:08.17Z</time></trkpt><trkpt lat="45.348634866179644" lon="11.297709119107504"><ele>27.0</ele><time>2026-04-04T11:57:09.17Z</time></trkpt><trkpt lat="45.34873257327514" lon="11.297530085468477"><ele>27.0</ele><time>2026-04-04T11:57:10.17Z</time></trkpt><trkpt lat="45.34883869596097" lon="11.297375119370496"><ele>27.0</ele><time>2026-04-04T11:57:11.17Z</time></trkpt><trkpt lat="45.348977634989865" lon="11.297208510993086"><ele>27.0</ele><time>2026-04-04T11:57:12.17Z</time></trkpt><trkpt lat="45.349127650473825" lon="11.297039861361782"><ele>27.666666666666664</ele><time>2026-04-04T11:57:13.17Z</time></trkpt><trkpt lat="45.34928860292616" lon="11.296894711346527"><ele>28.333333333333332</ele><time>2026-04-04T11:57:14.17Z</time></trkpt><trkpt lat="45.34942888499055" lon="11.296783547905115"><ele>29.0</ele><time>2026-04-04T11:57:15.17Z</time></trkpt><trkpt lat="45.34957623944966" lon="11.296696185356911"><ele>28.25</ele><time>2026-04-04T11:57:16.17Z</time></trkpt><trkpt lat="45.349727000835564" lon="11.296629551799814"><ele>27.5</ele><time>2026-04-04T11:57:17.17Z</time></trkpt><trkpt lat="45.349869080186636" lon="11.296592784610336"><ele>26.75</ele><time>2026-04-04T11:57:18.17Z</time></trkpt><trkpt lat="45.35001037728366" lon="11.296560531720568"><ele>26.0</ele><time>2026-04-04T11:57:19.17Z</time></trkpt><trkpt lat="45.35013439319715" lon="11.296542011908734"><ele>26.0</ele><time>2026-04-04T11:57:20.17Z</time></trkpt><trkpt lat="45.35027017763785" lon="11.296512742985517"><ele>26.0</ele><time>2026-04-04T11:57:21.17Z</time></trkpt><trkpt lat="45.35041600917336" lon="11.29651480029644"><ele>26.0</ele><time>2026-04-04T11:57:22.17Z</time></trkpt><trkpt lat="45.35058482613975" lon="11.296538087399087"><ele>25.666666666666664</ele><time>2026-04-04T11:57:23.17Z</time></trkpt><trkpt lat="45.350754011525424" lon="11.296593794617666"><ele>25.333333333333336</ele><time>2026-04-04T11:57:24.17Z</time></trkpt><trkpt lat="45.35091082305227" lon="11.296626497711031"><ele>25.0</ele><time>2026-04-04T11:57:25.17Z</time></trkpt><trkpt lat="45.351046575496255" lon="11.296654575551175"><ele>25.0</ele><time>2026-04-04T11:57:26.17Z</time></trkpt><trkpt lat="45.35117757734882" lon="11.296672024372109"><ele>25.0</ele><time>2026-04-04T11:57:27.17Z</time></trkpt><trkpt lat="45.35130654626862" lon="11.296684048155218"><ele>25.0</ele><time>2026-04-04T11:57:28.17Z</time></trkpt><trkpt lat="45.35143861694997" lon="11.29672042629191"><ele>25.0</ele><time>2026-04-04T11:57:29.17Z</time></trkpt><trkpt lat="45.351539439071054" lon="11.296767584153724"><ele>25.0</ele><time>2026-04-04T11:57:30.17Z</time></trkpt><trkpt lat="45.351626986236695" lon="11.296843382373183"><ele>25.0</ele><time>2026-04-04T11:57:31.17Z</time></trkpt><trkpt lat="45.35171914036722" lon="11.296906192835872"><ele>25.0</ele><time>2026-04-04T11:57:32.17Z</time></trkpt><trkpt lat="45.35179592863943" lon="11.296983520849892"><ele>25.0</ele><time>2026-04-04T11:57:33.17Z</time></trkpt><trkpt lat="45.351902286475955" lon="11.297020142863161"><ele>25.0</ele><time>2026-04-04T11:57:34.17Z</time></trkpt><trkpt lat="45.35202604714254" lon="11.296997322179429"><ele>25.0</ele><time>2026-04-04T11:57:35.17Z</time></trkpt><trkpt lat="45.35213464738846" lon="11.29694153645126"><ele>25.0</ele><time>2026-04-04T11:57:36.17Z</time></trkpt><trkpt lat="45.35225783802671" lon="11.296953088227658"><ele>25.0</ele><time>2026-04-04T11:57:37.17Z</time></trkpt><trkpt lat="45.352381010155504" lon="11.296986326566422"><ele>25.0</ele><time>2026-04-04T11:57:38.17Z</time></trkpt><trkpt lat="45.35251792553636" lon="11.297037898854862"><ele>25.333333333333336</ele><time>2026-04-04T11:57:39.17Z</time></trkpt><trkpt lat="45.352681749684166" lon="11.29709196903712"><ele>25.666666666666664</ele><time>2026-04-04T11:57:40.17Z</time></trkpt><trkpt lat="45.35286228170426" lon="11.297107989703841"><ele>26.0</ele><time>2026-04-04T11:57:41.17Z</time></trkpt><trkpt lat="45.35306537234321" lon="11.297176568945618"><ele>26.0</ele><time>2026-04-04T11:57:42.17Z</time></trkpt><trkpt lat="45.35328667529746" lon="11.297241583962617"><ele>26.0</ele><time>2026-04-04T11:57:43.17Z</time></trkpt><trkpt lat="45.35353393501949" lon="11.297317177807939"><ele>26.0</ele><time>2026-04-04T11:57:44.17Z</time></trkpt><trkpt lat="45.35379218867443" lon="11.297387214500155"><ele>26.0</ele><time>2026-04-04T11:57:45.17Z</time></trkpt><trkpt lat="45.35406860504748" lon="11.297461306693084"><ele>26.0</ele><time>2026-04-04T11:57:46.17Z</time></trkpt><trkpt lat="45.35436572997437" lon="11.297556186619971"><ele>26.0</ele><time>2026-04-04T11:57:47.17Z</time></trkpt><trkpt lat="45.3546670196517" lon="11.29763224694955"><ele>26.0</ele><time>2026-04-04T11:57:48.17Z</time></trkpt><trkpt lat="45.35496507359243" lon="11.297729114722443"><ele>26.0</ele><time>2026-04-04T11:57:49.17Z</time></trkpt><trkpt lat="45.35523886113803" lon="11.297795008706771"><ele>26.0</ele><time>2026-04-04T11:57:50.17Z</time></trkpt><trkpt lat="45.35551627030969" lon="11.297848995601427"><ele>26.0</ele><time>2026-04-04T11:57:51.17Z</time></trkpt><trkpt lat="45.35578421120575" lon="11.297899064099028"><ele>26.0</ele><time>2026-04-04T11:57:52.17Z</time></trkpt><trkpt lat="45.356045301255286" lon="11.297959940124853"><ele>26.0</ele><time>2026-04-04T11:57:53.17Z</time></trkpt><trkpt lat="45.356301831307384" lon="11.298021852298685"><ele>25.0</ele><time>2026-04-04T11:57:54.17Z</time></trkpt><trkpt lat="45.35655146127858" lon="11.298084697829237"><ele>24.0</ele><time>2026-04-04T11:57:55.17Z</time></trkpt><trkpt lat="45.35680154197295" lon="11.298156964354044"><ele>24.0</ele><time>2026-04-04T11:57:56.17Z</time></trkpt><trkpt lat="45.35705163440249" lon="11.298218359156788"><ele>24.0</ele><time>2026-04-04T11:57:57.17Z</time></trkpt><trkpt lat="45.35729881423563" lon="11.298284250290013"><ele>23.5</ele><time>2026-04-04T11:57:58.17Z</time></trkpt><trkpt lat="45.35752669590893" lon="11.298336310320261"><ele>23.0</ele><time>2026-04-04T11:57:59.17Z</time></trkpt><trkpt lat="45.35774469339835" lon="11.298397483863692"><ele>23.0</ele><time>2026-04-04T11:58:00.17Z</time></trkpt><trkpt lat="45.35795278289153" lon="11.298454029108026"><ele>23.0</ele><time>2026-04-04T11:58:01.17Z</time></trkpt><trkpt lat="45.358166908793976" lon="11.298500005328707"><ele>23.0</ele><time>2026-04-04T11:58:02.17Z</time></trkpt><trkpt lat="45.358362434747974" lon="11.298548217252495"><ele>23.0</ele><time>2026-04-04T11:58:03.17Z</time></trkpt><trkpt lat="45.35857179894378" lon="11.2985666598334"><ele>23.0</ele><time>2026-04-04T11:58:04.17Z</time></trkpt><trkpt lat="45.358769300295904" lon="11.298595285521055"><ele>23.0</ele><time>2026-04-04T11:58:05.17Z</time></trkpt><trkpt lat="45.35896699418636" lon="11.298605201645179"><ele>24.0</ele><time>2026-04-04T11:58:06.17Z</time></trkpt><trkpt lat="45.35917711151999" lon="11.29859942148228"><ele>25.0</ele><time>2026-04-04T11:58:07.17Z</time></trkpt><trkpt lat="45.35939914435356" lon="11.298568552065916"><ele>26.0</ele><time>2026-04-04T11:58:08.17Z</time></trkpt><trkpt lat="45.35961965821945" lon="11.298523476370168"><ele>26.5</ele><time>2026-04-04T11:58:09.17Z</time></trkpt><trkpt lat="45.3598417907799" lon="11.298463853740815"><ele>27.0</ele><time>2026-04-04T11:58:10.17Z</time></trkpt><trkpt lat="45.36006341618162" lon="11.298387032982504"><ele>27.0</ele><time>2026-04-04T11:58:11.17Z</time></trkpt><trkpt lat="45.36028635303836" lon="11.298281670334806"><ele>27.0</ele><time>2026-04-04T11:58:12.17Z</time></trkpt><trkpt lat="45.36050043858494" lon="11.298165936373023"><ele>26.0</ele><time>2026-04-04T11:58:13.17Z</time></trkpt><trkpt lat="45.36070457155205" lon="11.29804547713651"><ele>25.0</ele><time>2026-04-04T11:58:14.17Z</time></trkpt><trkpt lat="45.36090965129594" lon="11.297891051994407"><ele>25.0</ele><time>2026-04-04T11:58:15.17Z</time></trkpt><trkpt lat="45.36110748503803" lon="11.2977101026168"><ele>25.0</ele><time>2026-04-04T11:58:16.17Z</time></trkpt><trkpt lat="45.361304977306446" lon="11.297519211625147"><ele>25.5</ele><time>2026-04-04T11:58:17.17Z</time></trkpt><trkpt lat="45.361501268007515" lon="11.297331668526997"><ele>26.0</ele><time>2026-04-04T11:58:18.17Z</time></trkpt><trkpt lat="45.36169460598873" lon="11.297130502887258"><ele>26.0</ele><time>2026-04-04T11:58:19.17Z</time></trkpt><trkpt lat="45.3618842640298" lon="11.296931353959232"><ele>26.0</ele><time>2026-04-04T11:58:20.17Z</time></trkpt><trkpt lat="45.362088373137226" lon="11.296748640501757"><ele>26.5</ele><time>2026-04-04T11:58:21.17Z</time></trkpt><trkpt lat="45.36227334303782" lon="11.296561606020829"><ele>27.0</ele><time>2026-04-04T11:58:22.17Z</time></trkpt><trkpt lat="45.36245863593106" lon="11.2963538258692"><ele>27.0</ele><time>2026-04-04T11:58:23.17Z</time></trkpt><trkpt lat="45.36265091425406" lon="11.296155339176217"><ele>27.0</ele><time>2026-04-04T11:58:24.17Z</time></trkpt><trkpt lat="45.362846818853775" lon="11.29597083539139"><ele>26.5</ele><time>2026-04-04T11:58:25.17Z</time></trkpt><trkpt lat="45.363041176341014" lon="11.29578672743527"><ele>26.0</ele><time>2026-04-04T11:58:26.17Z</time></trkpt><trkpt lat="45.36323139794378" lon="11.295588047197253"><ele>26.333333333333332</ele><time>2026-04-04T11:58:27.17Z</time></trkpt><trkpt lat="45.36342160478119" lon="11.295397193404481"><ele>26.666666666666664</ele><time>2026-04-04T11:58:28.17Z</time></trkpt><trkpt lat="45.3635939706964" lon="11.295216462007016"><ele>27.0</ele><time>2026-04-04T11:58:29.17Z</time></trkpt><trkpt lat="45.36377046427752" lon="11.295030753029472"><ele>28.5</ele><time>2026-04-04T11:58:30.17Z</time></trkpt><trkpt lat="45.363960742993896" lon="11.29484349777891"><ele>30.0</ele><time>2026-04-04T11:58:31.17Z</time></trkpt><trkpt lat="45.36415634076977" lon="11.294658200144733"><ele>30.0</ele><time>2026-04-04T11:58:32.17Z</time></trkpt><trkpt lat="45.3643659162994" lon="11.294459383048473"><ele>30.0</ele><time>2026-04-04T11:58:33.17Z</time></trkpt><trkpt lat="45.36456854330717" lon="11.294273786550509"><ele>29.5</ele><time>2026-04-04T11:58:34.17Z</time></trkpt><trkpt lat="45.364782592736745" lon="11.29406425696388"><ele>29.0</ele><time>2026-04-04T11:58:35.17Z</time></trkpt><trkpt lat="45.365000142423405" lon="11.293833644420525"><ele>28.5</ele><time>2026-04-04T11:58:36.17Z</time></trkpt><trkpt lat="45.36523105246689" lon="11.293598369710587"><ele>28.0</ele><time>2026-04-04T11:58:37.17Z</time></trkpt><trkpt lat="45.36545545682037" lon="11.293372404753264"><ele>28.0</ele><time>2026-04-04T11:58:38.17Z</time></trkpt><trkpt lat="45.365678835061736" lon="11.293155385697252"><ele>28.0</ele><time>2026-04-04T11:58:39.17Z</time></trkpt><trkpt lat="45.36587905415741" lon="11.292949480649783"><ele>28.0</ele><time>2026-04-04T11:58:40.17Z</time></trkpt><trkpt lat="45.3660647489902" lon="11.29275572907065"><ele>28.0</ele><time>2026-04-04T11:58:41.17Z</time></trkpt><trkpt lat="45.3662567423769" lon="11.292576428008632"><ele>28.333333333333336</ele><time>2026-04-04T11:58:42.17Z</time></trkpt><trkpt lat="45.36643820964673" lon="11.292393005860783"><ele>28.666666666666664</ele><time>2026-04-04T11:58:43.17Z</time></trkpt><trkpt lat="45.36661429208351" lon="11.29219568401504"><ele>29.0</ele><time>2026-04-04T11:58:44.17Z</time></trkpt><trkpt lat="45.366801086539" lon="11.29201289148299"><ele>28.333333333333332</ele><time>2026-04-04T11:58:45.17Z</time></trkpt><trkpt lat="45.36698742674832" lon="11.291834431223052"><ele>27.666666666666664</ele><time>2026-04-04T11:58:46.17Z</time></trkpt><trkpt lat="45.36717387886468" lon="11.291664353451916"><ele>27.0</ele><time>2026-04-04T11:58:47.17Z</time></trkpt><trkpt lat="45.367359693356" lon="11.291492371913723"><ele>26.333333333333336</ele><time>2026-04-04T11:58:48.17Z</time></trkpt><trkpt lat="45.367551143635914" lon="11.291326714457037"><ele>25.666666666666668</ele><time>2026-04-04T11:58:49.17Z</time></trkpt><trkpt lat="45.3677217285978" lon="11.291166109376295"><ele>25.0</ele><time>2026-04-04T11:58:50.17Z</time></trkpt><trkpt lat="45.36789349389634" lon="11.291007772955195"><ele>25.333333333333336</ele><time>2026-04-04T11:58:51.17Z</time></trkpt><trkpt lat="45.36806734986938" lon="11.29084695806088"><ele>25.666666666666664</ele><time>2026-04-04T11:58:52.17Z</time></trkpt><trkpt lat="45.368238313859514" lon="11.29069690843673"><ele>26.0</ele><time>2026-04-04T11:58:53.17Z</time></trkpt><trkpt lat="45.36840620690086" lon="11.29054093276461"><ele>26.0</ele><time>2026-04-04T11:58:54.17Z</time></trkpt><trkpt lat="45.36857623583948" lon="11.290381720093137"><ele>26.0</ele><time>2026-04-04T11:58:55.17Z</time></trkpt><trkpt lat="45.36875346870237" lon="11.290236589017926"><ele>26.0</ele><time>2026-04-04T11:58:56.17Z</time></trkpt><trkpt lat="45.36892532527089" lon="11.290078316344566"><ele>26.666666666666664</ele><time>2026-04-04T11:58:57.17Z</time></trkpt><trkpt lat="45.369092345315224" lon="11.289925270587638"><ele>27.333333333333336</ele><time>2026-04-04T11:58:58.17Z</time></trkpt><trkpt lat="45.36925724131097" lon="11.289789140609319"><ele>28.0</ele><time>2026-04-04T11:58:59.17Z</time></trkpt><trkpt lat="45.36941551680375" lon="11.28962942558188"><ele>28.0</ele><time>2026-04-04T11:59:00.17Z</time></trkpt><trkpt lat="45.36957971920803" lon="11.289475346594731"><ele>28.0</ele><time>2026-04-04T11:59:01.17Z</time></trkpt><trkpt lat="45.3697525093555" lon="11.2893248233746"><ele>28.0</ele><time>2026-04-04T11:59:02.17Z</time></trkpt><trkpt lat="45.369936518178946" lon="11.289190738261883"><ele>27.666666666666668</ele><time>2026-04-04T11:59:03.17Z</time></trkpt><trkpt lat="45.37010907218985" lon="11.28904450608247"><ele>27.333333333333336</ele><time>2026-04-04T11:59:04.17Z</time></trkpt><trkpt lat="45.370275796552455" lon="11.28891705936183"><ele>27.0</ele><time>2026-04-04T11:59:05.17Z</time></trkpt><trkpt lat="45.37044733923336" lon="11.288767358864005"><ele>26.666666666666664</ele><time>2026-04-04T11:59:06.17Z</time></trkpt><trkpt lat="45.37061196102757" lon="11.28861242314011"><ele>26.333333333333332</ele><time>2026-04-04T11:59:07.17Z</time></trkpt><trkpt lat="45.37078961070465" lon="11.288468586836773"><ele>26.0</ele><time>2026-04-04T11:59:08.17Z</time></trkpt><trkpt lat="45.37096803692117" lon="11.288314224610277"><ele>26.0</ele><time>2026-04-04T11:59:09.17Z</time></trkpt><trkpt lat="45.37113866126852" lon="11.288169558259384"><ele>26.0</ele><time>2026-04-04T11:59:10.17Z</time></trkpt><trkpt lat="45.37130297598043" lon="11.288028802262996"><ele>26.0</ele><time>2026-04-04T11:59:11.17Z</time></trkpt><trkpt lat="45.37148052460073" lon="11.287881166307738"><ele>26.666666666666664</ele><time>2026-04-04T11:59:12.17Z</time></trkpt><trkpt lat="45.37166354987189" lon="11.28773766045083"><ele>27.333333333333336</ele><time>2026-04-04T11:59:13.17Z</time></trkpt><trkpt lat="45.37184527232587" lon="11.287599766294168"><ele>28.0</ele><time>2026-04-04T11:59:14.17Z</time></trkpt><trkpt lat="45.37203323464268" lon="11.287459549698857"><ele>28.0</ele><time>2026-04-04T11:59:15.17Z</time></trkpt><trkpt lat="45.372224835096915" lon="11.287312042007528"><ele>28.0</ele><time>2026-04-04T11:59:16.17Z</time></trkpt><trkpt lat="45.372408361590296" lon="11.287186297934714"><ele>28.0</ele><time>2026-04-04T11:59:17.17Z</time></trkpt><trkpt lat="45.37257865407529" lon="11.287071498372509"><ele>28.0</ele><time>2026-04-04T11:59:18.17Z</time></trkpt><trkpt lat="45.37273192721341" lon="11.286962610497689"><ele>28.0</ele><time>2026-04-04T11:59:19.17Z</time></trkpt><trkpt lat="45.37289095830597" lon="11.286862759084322"><ele>28.0</ele><time>2026-04-04T11:59:20.17Z</time></trkpt><trkpt lat="45.37304019626016" lon="11.286773609475164"><ele>28.0</ele><time>2026-04-04T11:59:21.17Z</time></trkpt><trkpt lat="45.373176805122796" lon="11.286671578708336"><ele>28.0</ele><time>2026-04-04T11:59:22.17Z</time></trkpt><trkpt lat="45.373299840181254" lon="11.28658968508901"><ele>28.0</ele><time>2026-04-04T11:59:23.17Z</time></trkpt><trkpt lat="45.37341854204598" lon="11.286523987955555"><ele>28.0</ele><time>2026-04-04T11:59:24.17Z</time></trkpt><trkpt lat="45.3735179264374" lon="11.286469253765476"><ele>27.799999999999997</ele><time>2026-04-04T11:59:25.17Z</time></trkpt><trkpt lat="45.37359725669709" lon="11.286424433496205"><ele>27.599999999999998</ele><time>2026-04-04T11:59:26.17Z</time></trkpt><trkpt lat="45.37368491261654" lon="11.28640724243413"><ele>27.400000000000002</ele><time>2026-04-04T11:59:27.17Z</time></trkpt><trkpt lat="45.373775614496665" lon="11.286420501808196"><ele>27.200000000000003</ele><time>2026-04-04T11:59:28.17Z</time></trkpt><trkpt lat="45.373873730504506" lon="11.286466563422433"><ele>27.0</ele><time>2026-04-04T11:59:29.17Z</time></trkpt><trkpt lat="45.373959314298524" lon="11.286539254589224"><ele>26.833333333333332</ele><time>2026-04-04T11:59:30.17Z</time></trkpt><trkpt lat="45.37402355810762" lon="11.286576589122896"><ele>26.666666666666664</ele><time>2026-04-04T11:59:31.17Z</time></trkpt><trkpt lat="45.37410347118738" lon="11.28659301654172"><ele>26.5</ele><time>2026-04-04T11:59:32.17Z</time></trkpt><trkpt lat="45.37418835534542" lon="11.286572774773306"><ele>26.333333333333332</ele><time>2026-04-04T11:59:33.17Z</time></trkpt><trkpt lat="45.37425242280675" lon="11.286531734511968"><ele>26.166666666666664</ele><time>2026-04-04T11:59:34.17Z</time></trkpt><trkpt lat="45.374334015601136" lon="11.28640072533561"><ele>26.0</ele><time>2026-04-04T11:59:36.17Z</time></trkpt><trkpt lat="45.3743447610295" lon="11.286295725425699"><ele>25.999999999999996</ele><time>2026-04-04T11:59:37.17Z</time></trkpt><trkpt lat="45.37436024548903" lon="11.286182745662376"><ele>26.0</ele><time>2026-04-04T11:59:38.17Z</time></trkpt><trkpt lat="45.374396105086305" lon="11.286080516119931"><ele>26.0</ele><time>2026-04-04T11:59:39.17Z</time></trkpt><trkpt lat="45.37445059654166" lon="11.28598677196665"><ele>26.0</ele><time>2026-04-04T11:59:40.17Z</time></trkpt><trkpt lat="45.37451669913988" lon="11.285896342430188"><ele>25.999999999999996</ele><time>2026-04-04T11:59:41.17Z</time></trkpt><trkpt lat="45.374608303722496" lon="11.285810014880068"><ele>26.0</ele><time>2026-04-04T11:59:42.17Z</time></trkpt><trkpt lat="45.37472517110225" lon="11.285726958893433"><ele>26.0</ele><time>2026-04-04T11:59:43.17Z</time></trkpt><trkpt lat="45.37490235069199" lon="11.285622175696938"><ele>26.0</ele><time>2026-04-04T11:59:44.17Z</time></trkpt><trkpt lat="45.37512837484109" lon="11.285502582974527"><ele>26.0</ele><time>2026-04-04T11:59:45.17Z</time></trkpt><trkpt lat="45.37536717481855" lon="11.28538453517508"><ele>26.0</ele><time>2026-04-04T11:59:46.17Z</time></trkpt><trkpt lat="45.37562740169285" lon="11.285263000459612"><ele>26.0</ele><time>2026-04-04T11:59:47.17Z</time></trkpt><trkpt lat="45.37587063321491" lon="11.285167977868992"><ele>26.0</ele><time>2026-04-04T11:59:48.17Z</time></trkpt><trkpt lat="45.37610377853297" lon="11.285085027080488"><ele>26.0</ele><time>2026-04-04T11:59:49.17Z</time></trkpt><trkpt lat="45.37633749500488" lon="11.28500297238671"><ele>27.0</ele><time>2026-04-04T11:59:50.17Z</time></trkpt><trkpt lat="45.37657893322107" lon="11.28491042164618"><ele>28.0</ele><time>2026-04-04T11:59:51.17Z</time></trkpt><trkpt lat="45.37684980251591" lon="11.2848200494099"><ele>28.0</ele><time>2026-04-04T11:59:52.17Z</time></trkpt><trkpt lat="45.37714807221195" lon="11.284726478950681"><ele>28.0</ele><time>2026-04-04T11:59:53.17Z</time></trkpt><trkpt lat="45.377476852958694" lon="11.284620480110915"><ele>28.0</ele><time>2026-04-04T11:59:54.17Z</time></trkpt><trkpt lat="45.37779858741128" lon="11.284502944403439"><ele>28.0</ele><time>2026-04-04T11:59:55.17Z</time></trkpt><trkpt lat="45.37808575837915" lon="11.284401597365273"><ele>27.0</ele><time>2026-04-04T11:59:56.17Z</time></trkpt><trkpt lat="45.3783534366278" lon="11.284310858422891"><ele>26.0</ele><time>2026-04-04T11:59:57.17Z</time></trkpt><trkpt lat="45.37859846615358" lon="11.284224037207615"><ele>26.0</ele><time>2026-04-04T11:59:58.17Z</time></trkpt><trkpt lat="45.378836276149464" lon="11.284137634911115"><ele>26.0</ele><time>2026-04-04T11:59:59.17Z</time></trkpt><trkpt lat="45.379080766329594" lon="11.284052473887451"><ele>25.5</ele><time>2026-04-04T12:00:00.17Z</time></trkpt><trkpt lat="45.37933035634178" lon="11.283965162773397"><ele>25.0</ele><time>2026-04-04T12:00:01.17Z</time></trkpt><trkpt lat="45.37958576553739" lon="11.283878457259496"><ele>25.5</ele><time>2026-04-04T12:00:02.17Z</time></trkpt><trkpt lat="45.37982784820845" lon="11.283795822416788"><ele>26.0</ele><time>2026-04-04T12:00:03.17Z</time></trkpt><trkpt lat="45.380076520804245" lon="11.283705600209931"><ele>26.0</ele><time>2026-04-04T12:00:04.17Z</time></trkpt><trkpt lat="45.380329442931284" lon="11.283614426210171"><ele>26.0</ele><time>2026-04-04T12:00:05.17Z</time></trkpt><trkpt lat="45.38058071005225" lon="11.283533159020369"><ele>26.0</ele><time>2026-04-04T12:00:06.17Z</time></trkpt><trkpt lat="45.38081162072144" lon="11.283453673550683"><ele>26.0</ele><time>2026-04-04T12:00:07.17Z</time></trkpt><trkpt lat="45.38102722268794" lon="11.283377103522781"><ele>26.0</ele><time>2026-04-04T12:00:08.171Z</time></trkpt><trkpt lat="45.381220536882395" lon="11.283304390852674"><ele>26.0</ele><time>2026-04-04T12:00:09.171Z</time></trkpt><trkpt lat="45.3814110521357" lon="11.283234614587318"><ele>26.0</ele><time>2026-04-04T12:00:10.171Z</time></trkpt><trkpt lat="45.38160523777137" lon="11.283173421026993"><ele>26.333333333333332</ele><time>2026-04-04T12:00:11.171Z</time></trkpt><trkpt lat="45.38178408526164" lon="11.283104635632638"><ele>26.666666666666664</ele><time>2026-04-04T12:00:12.171Z</time></trkpt><trkpt lat="45.38195189615927" lon="11.283048858540761"><ele>27.0</ele><time>2026-04-04T12:00:13.171Z</time></trkpt><trkpt lat="45.38210569684479" lon="11.28299798102804"><ele>27.0</ele><time>2026-04-04T12:00:14.171Z</time></trkpt><trkpt lat="45.38224685802181" lon="11.282950442715077"><ele>27.0</ele><time>2026-04-04T12:00:15.171Z</time></trkpt><trkpt lat="45.382400566579165" lon="11.282894411333883"><ele>27.0</ele><time>2026-04-04T12:00:16.171Z</time></trkpt><trkpt lat="45.38255948400538" lon="11.28283869656755"><ele>27.0</ele><time>2026-04-04T12:00:17.171Z</time></trkpt><trkpt lat="45.38271095265182" lon="11.282804829958597"><ele>27.0</ele><time>2026-04-04T12:00:18.171Z</time></trkpt><trkpt lat="45.38285560740926" lon="11.282740834865315"><ele>27.0</ele><time>2026-04-04T12:00:19.171Z</time></trkpt><trkpt lat="45.38301032148645" lon="11.282683821255855"><ele>27.0</ele><time>2026-04-04T12:00:20.171Z</time></trkpt><trkpt lat="45.383165974260265" lon="11.28262700935369"><ele>27.0</ele><time>2026-04-04T12:00:21.171Z</time></trkpt><trkpt lat="45.383323176273045" lon="11.282566115363801"><ele>27.0</ele><time>2026-04-04T12:00:22.171Z</time></trkpt><trkpt lat="45.383481753363" lon="11.282514518784966"><ele>27.0</ele><time>2026-04-04T12:00:23.171Z</time></trkpt><trkpt lat="45.383636324546885" lon="11.28246773907203"><ele>27.0</ele><time>2026-04-04T12:00:24.171Z</time></trkpt><trkpt lat="45.38379047057842" lon="11.282411514157921"><ele>27.0</ele><time>2026-04-04T12:00:25.171Z</time></trkpt><trkpt lat="45.38394001856638" lon="11.28235254798557"><ele>27.0</ele><time>2026-04-04T12:00:26.171Z</time></trkpt><trkpt lat="45.38408522353854" lon="11.282299312880902"><ele>27.0</ele><time>2026-04-04T12:00:27.171Z</time></trkpt><trkpt lat="45.384246522817726" lon="11.28224933023128"><ele>27.0</ele><time>2026-04-04T12:00:28.171Z</time></trkpt><trkpt lat="45.38441053418315" lon="11.282189587490624"><ele>27.0</ele><time>2026-04-04T12:00:29.171Z</time></trkpt><trkpt lat="45.38456857392656" lon="11.282130081866747"><ele>27.0</ele><time>2026-04-04T12:00:30.171Z</time></trkpt><trkpt lat="45.38472564659532" lon="11.282076242398041"><ele>27.0</ele><time>2026-04-04T12:00:31.171Z</time></trkpt><trkpt lat="45.38487176847335" lon="11.282019952810314"><ele>26.75</ele><time>2026-04-04T12:00:32.171Z</time></trkpt><trkpt lat="45.385015585104696" lon="11.281960811101799"><ele>26.5</ele><time>2026-04-04T12:00:33.171Z</time></trkpt><trkpt lat="45.38514933053657" lon="11.281919391567731"><ele>26.25</ele><time>2026-04-04T12:00:34.171Z</time></trkpt><trkpt lat="45.385299787111755" lon="11.281872459432508"><ele>26.0</ele><time>2026-04-04T12:00:35.171Z</time></trkpt><trkpt lat="45.38541482230898" lon="11.281830846239732"><ele>26.0</ele><time>2026-04-04T12:00:36.171Z</time></trkpt><trkpt lat="45.38553809372077" lon="11.281786304657137"><ele>26.0</ele><time>2026-04-04T12:00:37.171Z</time></trkpt><trkpt lat="45.38567331393378" lon="11.28173679065686"><ele>26.0</ele><time>2026-04-04T12:00:38.171Z</time></trkpt><trkpt lat="45.38580004068848" lon="11.281697195055372"><ele>26.0</ele><time>2026-04-04T12:00:39.171Z</time></trkpt><trkpt lat="45.385917924612365" lon="11.281662443655053"><ele>25.999999999999996</ele><time>2026-04-04T12:00:40.171Z</time></trkpt><trkpt lat="45.38602413228904" lon="11.281632351401704"><ele>26.0</ele><time>2026-04-04T12:00:41.171Z</time></trkpt><trkpt lat="45.38611385869977" lon="11.281605399373545"><ele>26.0</ele><time>2026-04-04T12:00:42.171Z</time></trkpt><trkpt lat="45.38618674670104" lon="11.281584295227457"><ele>26.0</ele><time>2026-04-04T12:00:43.171Z</time></trkpt><trkpt lat="45.386268860321294" lon="11.281577711264983"><ele>25.999999999999996</ele><time>2026-04-04T12:00:44.171Z</time></trkpt><trkpt lat="45.38635778294456" lon="11.281595787202848"><ele>26.0</ele><time>2026-04-04T12:00:45.171Z</time></trkpt><trkpt lat="45.38646548692187" lon="11.281626842903519"><ele>26.0</ele><time>2026-04-04T12:00:46.171Z</time></trkpt><trkpt lat="45.386575290017255" lon="11.2816519891911"><ele>26.0</ele><time>2026-04-04T12:00:47.171Z</time></trkpt><trkpt lat="45.38666904164062" lon="11.281725398066554"><ele>26.0</ele><time>2026-04-04T12:00:48.171Z</time></trkpt><trkpt lat="45.38676842277285" lon="11.281741655670459"><ele>26.0</ele><time>2026-04-04T12:00:49.171Z</time></trkpt><trkpt lat="45.386857384531154" lon="11.281739637414466"><ele>26.0</ele><time>2026-04-04T12:00:50.171Z</time></trkpt><trkpt lat="45.386930410995596" lon="11.281687427510818"><ele>25.999999999999996</ele><time>2026-04-04T12:00:51.171Z</time></trkpt><trkpt lat="45.386984715566086" lon="11.281590245655234"><ele>26.0</ele><time>2026-04-04T12:00:52.171Z</time></trkpt><trkpt lat="45.387039011611975" lon="11.281482745711463"><ele>26.0</ele><time>2026-04-04T12:00:53.171Z</time></trkpt><trkpt lat="45.38705077741645" lon="11.281356759453855"><ele>26.0</ele><time>2026-04-04T12:00:54.171Z</time></trkpt><trkpt lat="45.38703942305181" lon="11.281240471613431"><ele>25.999999999999996</ele><time>2026-04-04T12:00:55.171Z</time></trkpt><trkpt lat="45.38700210325643" lon="11.281116125491481"><ele>26.0</ele><time>2026-04-04T12:00:56.171Z</time></trkpt><trkpt lat="45.386937301949224" lon="11.281003163567815"><ele>26.0</ele><time>2026-04-04T12:00:57.171Z</time></trkpt><trkpt lat="45.38685418025982" lon="11.280900420307686"><ele>26.0</ele><time>2026-04-04T12:00:58.171Z</time></trkpt><trkpt lat="45.386768971006454" lon="11.280783723672986"><ele>26.0</ele><time>2026-04-04T12:00:59.171Z</time></trkpt><trkpt lat="45.38668688431336" lon="11.280630843906962"><ele>26.0</ele><time>2026-04-04T12:01:00.171Z</time></trkpt><trkpt lat="45.38659795439555" lon="11.280450327856421"><ele>25.75</ele><time>2026-04-04T12:01:01.171Z</time></trkpt><trkpt lat="45.38651594933879" lon="11.280296932185797"><ele>25.5</ele><time>2026-04-04T12:01:02.171Z</time></trkpt><trkpt lat="45.38642690030374" lon="11.280149516233319"><ele>25.25</ele><time>2026-04-04T12:01:03.171Z</time></trkpt><trkpt lat="45.386329384105004" lon="11.280005997529564"><ele>25.0</ele><time>2026-04-04T12:01:04.171Z</time></trkpt><trkpt lat="45.38623356124814" lon="11.279859959348354"><ele>25.25</ele><time>2026-04-04T12:01:05.171Z</time></trkpt><trkpt lat="45.3861390857653" lon="11.279712842815426"><ele>25.5</ele><time>2026-04-04T12:01:06.171Z</time></trkpt><trkpt lat="45.38605687234176" lon="11.279543017073443"><ele>25.75</ele><time>2026-04-04T12:01:07.171Z</time></trkpt><trkpt lat="45.38597520771587" lon="11.279359634048848"><ele>26.0</ele><time>2026-04-04T12:01:08.171Z</time></trkpt><trkpt lat="45.385907133295476" lon="11.279183887510364"><ele>26.0</ele><time>2026-04-04T12:01:09.171Z</time></trkpt><trkpt lat="45.38585696044086" lon="11.279010991749832"><ele>26.0</ele><time>2026-04-04T12:01:10.171Z</time></trkpt><trkpt lat="45.38582316986373" lon="11.27879077567017"><ele>26.0</ele><time>2026-04-04T12:01:11.171Z</time></trkpt><trkpt lat="45.38581092367349" lon="11.278561825791572"><ele>25.333333333333332</ele><time>2026-04-04T12:01:12.171Z</time></trkpt><trkpt lat="45.38580681224672" lon="11.278298881582906"><ele>24.666666666666664</ele><time>2026-04-04T12:01:13.171Z</time></trkpt><trkpt lat="45.385825324989774" lon="11.278032519862466"><ele>24.0</ele><time>2026-04-04T12:01:14.171Z</time></trkpt><trkpt lat="45.38583224408054" lon="11.277749883731534"><ele>24.0</ele><time>2026-04-04T12:01:15.171Z</time></trkpt><trkpt lat="45.385845826585644" lon="11.277432268480702"><ele>24.0</ele><time>2026-04-04T12:01:16.171Z</time></trkpt><trkpt lat="45.3858576072417" lon="11.277088170982902"><ele>24.5</ele><time>2026-04-04T12:01:17.171Z</time></trkpt><trkpt lat="45.38587159743581" lon="11.276733469547265"><ele>25.0</ele><time>2026-04-04T12:01:18.171Z</time></trkpt><trkpt lat="45.38587939143198" lon="11.276344158659825"><ele>24.0</ele><time>2026-04-04T12:01:19.171Z</time></trkpt><trkpt lat="45.38588719458285" lon="11.275939409746002"><ele>23.0</ele><time>2026-04-04T12:01:20.171Z</time></trkpt><trkpt lat="45.38588443898421" lon="11.275513904733442"><ele>21.5</ele><time>2026-04-04T12:01:21.171Z</time></trkpt><trkpt lat="45.38588624927638" lon="11.275109606367609"><ele>20.0</ele><time>2026-04-04T12:01:22.171Z</time></trkpt><trkpt lat="45.385889334616834" lon="11.274743519298132"><ele>20.0</ele><time>2026-04-04T12:01:23.171Z</time></trkpt><trkpt lat="45.38589769261123" lon="11.274375923792737"><ele>20.0</ele><time>2026-04-04T12:01:24.171Z</time></trkpt><trkpt lat="45.3858846387444" lon="11.274015459864293"><ele>20.5</ele><time>2026-04-04T12:01:25.171Z</time></trkpt><trkpt lat="45.38588388788722" lon="11.273647491616222"><ele>21.0</ele><time>2026-04-04T12:01:26.171Z</time></trkpt><trkpt lat="45.38588277178548" lon="11.273284401172402"><ele>22.0</ele><time>2026-04-04T12:01:27.171Z</time></trkpt><trkpt lat="45.385879050857916" lon="11.272916264050426"><ele>23.0</ele><time>2026-04-04T12:01:28.171Z</time></trkpt><trkpt lat="45.38587058100128" lon="11.27254618181617"><ele>24.0</ele><time>2026-04-04T12:01:29.171Z</time></trkpt><trkpt lat="45.38586836666006" lon="11.272201147888214"><ele>25.0</ele><time>2026-04-04T12:01:30.171Z</time></trkpt><trkpt lat="45.385872178857085" lon="11.271858918923915"><ele>25.0</ele><time>2026-04-04T12:01:31.171Z</time></trkpt><trkpt lat="45.38586622924421" lon="11.271521400631785"><ele>25.0</ele><time>2026-04-04T12:01:32.171Z</time></trkpt><trkpt lat="45.38585629587996" lon="11.271197982220393"><ele>24.666666666666668</ele><time>2026-04-04T12:01:33.171Z</time></trkpt><trkpt lat="45.38585807236635" lon="11.270873627458823"><ele>24.333333333333336</ele><time>2026-04-04T12:01:34.171Z</time></trkpt><trkpt lat="45.3858683977037" lon="11.270563273146891"><ele>24.0</ele><time>2026-04-04T12:01:35.171Z</time></trkpt><trkpt lat="45.385875926515354" lon="11.270251920677913"><ele>24.666666666666664</ele><time>2026-04-04T12:01:36.171Z</time></trkpt><trkpt lat="45.38588931017425" lon="11.26993934270981"><ele>25.333333333333332</ele><time>2026-04-04T12:01:37.171Z</time></trkpt><trkpt lat="45.38590694722688" lon="11.269627315659228"><ele>26.0</ele><time>2026-04-04T12:01:38.171Z</time></trkpt><trkpt lat="45.38593981797" lon="11.2693183274273"><ele>27.0</ele><time>2026-04-04T12:01:39.171Z</time></trkpt><trkpt lat="45.38597366109977" lon="11.26900443168183"><ele>28.0</ele><time>2026-04-04T12:01:40.171Z</time></trkpt><trkpt lat="45.386029495505404" lon="11.268667146730227"><ele>28.0</ele><time>2026-04-04T12:01:41.171Z</time></trkpt><trkpt lat="45.38608685064715" lon="11.268328002170172"><ele>28.0</ele><time>2026-04-04T12:01:42.171Z</time></trkpt><trkpt lat="45.3861395147751" lon="11.268012020843168"><ele>27.0</ele><time>2026-04-04T12:01:43.171Z</time></trkpt><trkpt lat="45.38619662608767" lon="11.267712702727186"><ele>26.0</ele><time>2026-04-04T12:01:44.171Z</time></trkpt><trkpt lat="45.38624415561921" lon="11.267412735251687"><ele>25.0</ele><time>2026-04-04T12:01:45.171Z</time></trkpt><trkpt lat="45.38629423135247" lon="11.267100112594425"><ele>24.666666666666668</ele><time>2026-04-04T12:01:46.171Z</time></trkpt><trkpt lat="45.386352388792844" lon="11.266794552072778"><ele>24.333333333333336</ele><time>2026-04-04T12:01:47.171Z</time></trkpt><trkpt lat="45.38640889690838" lon="11.266489114842638"><ele>24.0</ele><time>2026-04-04T12:01:48.171Z</time></trkpt><trkpt lat="45.386466508554086" lon="11.266177675205862"><ele>24.0</ele><time>2026-04-04T12:01:49.171Z</time></trkpt><trkpt lat="45.38652363634957" lon="11.265856106690958"><ele>24.0</ele><time>2026-04-04T12:01:50.171Z</time></trkpt><trkpt lat="45.386581897899305" lon="11.265525148315739"><ele>23.0</ele><time>2026-04-04T12:01:51.171Z</time></trkpt><trkpt lat="45.3866371784072" lon="11.265190135458816"><ele>22.0</ele><time>2026-04-04T12:01:52.171Z</time></trkpt><trkpt lat="45.38669239267151" lon="11.264853891884076"><ele>21.0</ele><time>2026-04-04T12:01:53.171Z</time></trkpt><trkpt lat="45.3867421693465" lon="11.26451067134756"><ele>20.0</ele><time>2026-04-04T12:01:54.171Z</time></trkpt><trkpt lat="45.386800678514916" lon="11.26416054187205"><ele>19.0</ele><time>2026-04-04T12:01:55.171Z</time></trkpt><trkpt lat="45.386849782439526" lon="11.263828749743517"><ele>18.0</ele><time>2026-04-04T12:01:56.171Z</time></trkpt><trkpt lat="45.38689953866627" lon="11.26351496313859"><ele>18.0</ele><time>2026-04-04T12:01:57.171Z</time></trkpt><trkpt lat="45.386943801042406" lon="11.26320405881392"><ele>18.0</ele><time>2026-04-04T12:01:58.171Z</time></trkpt><trkpt lat="45.38699763710356" lon="11.262887765721446"><ele>19.666666666666668</ele><time>2026-04-04T12:01:59.171Z</time></trkpt><trkpt lat="45.38704740281412" lon="11.262577179659067"><ele>21.333333333333336</ele><time>2026-04-04T12:02:00.171Z</time></trkpt><trkpt lat="45.38708644142391" lon="11.262281013465099"><ele>23.0</ele><time>2026-04-04T12:02:01.171Z</time></trkpt><trkpt lat="45.387123507370156" lon="11.261990163635165"><ele>23.333333333333336</ele><time>2026-04-04T12:02:02.171Z</time></trkpt><trkpt lat="45.38716985919506" lon="11.261701132108085"><ele>23.666666666666668</ele><time>2026-04-04T12:02:03.171Z</time></trkpt><trkpt lat="45.38721306562212" lon="11.2614152696698"><ele>24.0</ele><time>2026-04-04T12:02:04.171Z</time></trkpt><trkpt lat="45.38725533363851" lon="11.26112974724998"><ele>22.666666666666668</ele><time>2026-04-04T12:02:05.171Z</time></trkpt><trkpt lat="45.38730023240563" lon="11.260835408835915"><ele>21.333333333333336</ele><time>2026-04-04T12:02:06.171Z</time></trkpt><trkpt lat="45.38735075065613" lon="11.260530941295185"><ele>20.0</ele><time>2026-04-04T12:02:07.171Z</time></trkpt><trkpt lat="45.38740487605975" lon="11.260229721851635"><ele>20.0</ele><time>2026-04-04T12:02:08.171Z</time></trkpt><trkpt lat="45.387445260647866" lon="11.25993055768046"><ele>20.0</ele><time>2026-04-04T12:02:09.171Z</time></trkpt><trkpt lat="45.38747910236871" lon="11.25962608704007"><ele>20.0</ele><time>2026-04-04T12:02:10.171Z</time></trkpt><trkpt lat="45.387517588721366" lon="11.259308755440014"><ele>20.0</ele><time>2026-04-04T12:02:11.171Z</time></trkpt><trkpt lat="45.38755772139732" lon="11.25900264720456"><ele>20.0</ele><time>2026-04-04T12:02:12.171Z</time></trkpt><trkpt lat="45.387588304331906" lon="11.258712766722388"><ele>20.0</ele><time>2026-04-04T12:02:13.171Z</time></trkpt><trkpt lat="45.38762601702857" lon="11.25841380293032"><ele>20.0</ele><time>2026-04-04T12:02:14.172Z</time></trkpt><trkpt lat="45.38766492433678" lon="11.258108227322115"><ele>20.0</ele><time>2026-04-04T12:02:15.172Z</time></trkpt><trkpt lat="45.3876964786911" lon="11.257804692392137"><ele>20.0</ele><time>2026-04-04T12:02:16.172Z</time></trkpt><trkpt lat="45.38773070831905" lon="11.257504014411236"><ele>19.666666666666668</ele><time>2026-04-04T12:02:17.172Z</time></trkpt><trkpt lat="45.387761163278256" lon="11.257199214430555"><ele>19.333333333333332</ele><time>2026-04-04T12:02:18.172Z</time></trkpt><trkpt lat="45.38778625010393" lon="11.25689659008437"><ele>19.0</ele><time>2026-04-04T12:02:19.172Z</time></trkpt><trkpt lat="45.38780721771908" lon="11.25659520487955"><ele>20.0</ele><time>2026-04-04T12:02:20.172Z</time></trkpt><trkpt lat="45.38783977825842" lon="11.25628411188558"><ele>21.0</ele><time>2026-04-04T12:02:21.172Z</time></trkpt><trkpt lat="45.38786949554034" lon="11.255983455680884"><ele>22.0</ele><time>2026-04-04T12:02:22.172Z</time></trkpt><trkpt lat="45.38790458973276" lon="11.255677486231582"><ele>21.666666666666664</ele><time>2026-04-04T12:02:23.172Z</time></trkpt><trkpt lat="45.38792902400607" lon="11.255378958041652"><ele>21.333333333333332</ele><time>2026-04-04T12:02:24.172Z</time></trkpt><trkpt lat="45.38795733242037" lon="11.25506456043892"><ele>21.0</ele><time>2026-04-04T12:02:25.172Z</time></trkpt><trkpt lat="45.387990937905506" lon="11.25476759648909"><ele>20.666666666666668</ele><time>2026-04-04T12:02:26.172Z</time></trkpt><trkpt lat="45.388021157163706" lon="11.254485786180009"><ele>20.333333333333336</ele><time>2026-04-04T12:02:27.172Z</time></trkpt><trkpt lat="45.38804961693585" lon="11.254204109015667"><ele>20.0</ele><time>2026-04-04T12:02:28.172Z</time></trkpt><trkpt lat="45.3880776753939" lon="11.253918550686304"><ele>20.0</ele><time>2026-04-04T12:02:29.172Z</time></trkpt><trkpt lat="45.38810290321144" lon="11.253625083192206"><ele>20.0</ele><time>2026-04-04T12:02:30.172Z</time></trkpt><trkpt lat="45.388120561942145" lon="11.253328700984444"><ele>20.0</ele><time>2026-04-04T12:02:31.172Z</time></trkpt><trkpt lat="45.38813046782626" lon="11.253042570530942"><ele>20.0</ele><time>2026-04-04T12:02:32.172Z</time></trkpt><trkpt lat="45.38814205742736" lon="11.252766767845957"><ele>20.0</ele><time>2026-04-04T12:02:33.172Z</time></trkpt><trkpt lat="45.38815067940007" lon="11.25250456267004"><ele>20.0</ele><time>2026-04-04T12:02:34.172Z</time></trkpt><trkpt lat="45.38815403751842" lon="11.25223138031422"><ele>20.0</ele><time>2026-04-04T12:02:35.172Z</time></trkpt><trkpt lat="45.388154062547365" lon="11.251949599119321"><ele>20.0</ele><time>2026-04-04T12:02:36.172Z</time></trkpt><trkpt lat="45.38815888075642" lon="11.251656316503936"><ele>20.0</ele><time>2026-04-04T12:02:37.172Z</time></trkpt><trkpt lat="45.38817358041211" lon="11.25135873389368"><ele>20.0</ele><time>2026-04-04T12:02:38.172Z</time></trkpt><trkpt lat="45.38818358829155" lon="11.251052957735283"><ele>20.0</ele><time>2026-04-04T12:02:39.172Z</time></trkpt><trkpt lat="45.388188164555665" lon="11.250738569082388"><ele>20.0</ele><time>2026-04-04T12:02:40.172Z</time></trkpt><trkpt lat="45.388199752625425" lon="11.250417011551189"><ele>20.0</ele><time>2026-04-04T12:02:41.172Z</time></trkpt><trkpt lat="45.38820891553317" lon="11.250104066700919"><ele>20.0</ele><time>2026-04-04T12:02:42.172Z</time></trkpt><trkpt lat="45.38821562671406" lon="11.249817904342583"><ele>20.0</ele><time>2026-04-04T12:02:43.172Z</time></trkpt><trkpt lat="45.38822111650212" lon="11.249541970152956"><ele>20.333333333333336</ele><time>2026-04-04T12:02:44.172Z</time></trkpt><trkpt lat="45.38822510004265" lon="11.249283821915396"><ele>20.666666666666668</ele><time>2026-04-04T12:02:45.172Z</time></trkpt><trkpt lat="45.38823006610663" lon="11.24903887038115"><ele>21.0</ele><time>2026-04-04T12:02:46.172Z</time></trkpt><trkpt lat="45.388238216070334" lon="11.248802483371186"><ele>21.333333333333332</ele><time>2026-04-04T12:02:47.172Z</time></trkpt><trkpt lat="45.38823668754925" lon="11.248580633016374"><ele>21.666666666666664</ele><time>2026-04-04T12:02:48.172Z</time></trkpt><trkpt lat="45.38823943813786" lon="11.248365494432344"><ele>22.0</ele><time>2026-04-04T12:02:49.172Z</time></trkpt><trkpt lat="45.38824911512697" lon="11.248157103033977"><ele>21.5</ele><time>2026-04-04T12:02:50.172Z</time></trkpt><trkpt lat="45.38825517913773" lon="11.247956693152647"><ele>21.0</ele><time>2026-04-04T12:02:51.172Z</time></trkpt><trkpt lat="45.38825689353519" lon="11.24776072276263"><ele>20.5</ele><time>2026-04-04T12:02:52.172Z</time></trkpt><trkpt lat="45.38826022956896" lon="11.247579954895519"><ele>20.0</ele><time>2026-04-04T12:02:53.172Z</time></trkpt><trkpt lat="45.38825826314585" lon="11.247410408376968"><ele>20.2</ele><time>2026-04-04T12:02:54.172Z</time></trkpt><trkpt lat="45.388274734390315" lon="11.24726418885206"><ele>20.4</ele><time>2026-04-04T12:02:55.172Z</time></trkpt><trkpt lat="45.38831287244142" lon="11.247132435758509"><ele>20.6</ele><time>2026-04-04T12:02:56.172Z</time></trkpt><trkpt lat="45.388357206542864" lon="11.24699828452461"><ele>20.8</ele><time>2026-04-04T12:02:57.172Z</time></trkpt><trkpt lat="45.388415770448795" lon="11.246883562449096"><ele>21.0</ele><time>2026-04-04T12:02:58.172Z</time></trkpt><trkpt lat="45.38849507383765" lon="11.246781683666688"><ele>21.0</ele><time>2026-04-04T12:02:59.172Z</time></trkpt><trkpt lat="45.38857363841635" lon="11.24667987330295"><ele>21.0</ele><time>2026-04-04T12:03:00.172Z</time></trkpt><trkpt lat="45.38866385446372" lon="11.246590956323173"><ele>21.0</ele><time>2026-04-04T12:03:01.172Z</time></trkpt><trkpt lat="45.3887608687274" lon="11.246528243480958"><ele>21.0</ele><time>2026-04-04T12:03:02.172Z</time></trkpt><trkpt lat="45.38886364275209" lon="11.246499971711396"><ele>21.0</ele><time>2026-04-04T12:03:03.172Z</time></trkpt><trkpt lat="45.388987169040334" lon="11.24650515563332"><ele>21.25</ele><time>2026-04-04T12:03:04.172Z</time></trkpt><trkpt lat="45.38911552724996" lon="11.246536151238963"><ele>21.5</ele><time>2026-04-04T12:03:05.172Z</time></trkpt><trkpt lat="45.389252263577966" lon="11.24658560460653"><ele>21.75</ele><time>2026-04-04T12:03:06.172Z</time></trkpt><trkpt lat="45.389405786625694" lon="11.246624413743582"><ele>22.0</ele><time>2026-04-04T12:03:07.172Z</time></trkpt><trkpt lat="45.38955124907866" lon="11.246641928861512"><ele>22.0</ele><time>2026-04-04T12:03:08.172Z</time></trkpt><trkpt lat="45.389688563550344" lon="11.246667463733733"><ele>22.0</ele><time>2026-04-04T12:03:09.172Z</time></trkpt><trkpt lat="45.38983379524851" lon="11.246689086673973"><ele>22.0</ele><time>2026-04-04T12:03:10.172Z</time></trkpt><trkpt lat="45.38998221168318" lon="11.246715215084498"><ele>22.0</ele><time>2026-04-04T12:03:11.172Z</time></trkpt><trkpt lat="45.390145004433776" lon="11.246749859365355"><ele>22.0</ele><time>2026-04-04T12:03:12.172Z</time></trkpt><trkpt lat="45.39030184239825" lon="11.246783807327775"><ele>22.0</ele><time>2026-04-04T12:03:13.172Z</time></trkpt><trkpt lat="45.39046452548968" lon="11.24682184419035"><ele>22.0</ele><time>2026-04-04T12:03:14.172Z</time></trkpt><trkpt lat="45.39064412700544" lon="11.246850757325578"><ele>21.666666666666664</ele><time>2026-04-04T12:03:15.172Z</time></trkpt><trkpt lat="45.39082920796562" lon="11.246891845684921"><ele>21.333333333333332</ele><time>2026-04-04T12:03:16.172Z</time></trkpt><trkpt lat="45.39100699646956" lon="11.246916942777151"><ele>21.0</ele><time>2026-04-04T12:03:17.172Z</time></trkpt><trkpt lat="45.39117605912863" lon="11.24694691885518"><ele>20.666666666666668</ele><time>2026-04-04T12:03:18.172Z</time></trkpt><trkpt lat="45.391352641434715" lon="11.246970128821017"><ele>20.333333333333336</ele><time>2026-04-04T12:03:19.172Z</time></trkpt><trkpt lat="45.39153429546791" lon="11.247023936895411"><ele>20.0</ele><time>2026-04-04T12:03:20.172Z</time></trkpt><trkpt lat="45.39171717705431" lon="11.247053821568075"><ele>20.0</ele><time>2026-04-04T12:03:21.172Z</time></trkpt><trkpt lat="45.39191038718171" lon="11.247090208966991"><ele>20.0</ele><time>2026-04-04T12:03:22.172Z</time></trkpt><trkpt lat="45.3921087542455" lon="11.24712554449864"><ele>20.0</ele><time>2026-04-04T12:03:23.172Z</time></trkpt><trkpt lat="45.39231360815099" lon="11.247175179318619"><ele>21.5</ele><time>2026-04-04T12:03:24.172Z</time></trkpt><trkpt lat="45.392532092618936" lon="11.24721743897027"><ele>23.0</ele><time>2026-04-04T12:03:25.172Z</time></trkpt><trkpt lat="45.392770633129764" lon="11.247268967550825"><ele>21.5</ele><time>2026-04-04T12:03:26.172Z</time></trkpt><trkpt lat="45.393005927176475" lon="11.247314677617577"><ele>20.0</ele><time>2026-04-04T12:03:27.172Z</time></trkpt><trkpt lat="45.393230601533055" lon="11.24734494000553"><ele>20.0</ele><time>2026-04-04T12:03:28.172Z</time></trkpt><trkpt lat="45.393437848843675" lon="11.247397201051312"><ele>20.0</ele><time>2026-04-04T12:03:29.172Z</time></trkpt><trkpt lat="45.39363685139075" lon="11.247444535215926"><ele>20.0</ele><time>2026-04-04T12:03:30.172Z</time></trkpt><trkpt lat="45.39383728756713" lon="11.247477005242068"><ele>20.333333333333336</ele><time>2026-04-04T12:03:31.172Z</time></trkpt><trkpt lat="45.394046871265544" lon="11.247512125501608"><ele>20.666666666666668</ele><time>2026-04-04T12:03:32.172Z</time></trkpt><trkpt lat="45.39426111867135" lon="11.2475492631755"><ele>21.0</ele><time>2026-04-04T12:03:33.172Z</time></trkpt><trkpt lat="45.39447484706623" lon="11.247588247490794"><ele>21.333333333333332</ele><time>2026-04-04T12:03:34.172Z</time></trkpt><trkpt lat="45.39469217860422" lon="11.24763139146645"><ele>21.666666666666664</ele><time>2026-04-04T12:03:35.172Z</time></trkpt><trkpt lat="45.39490912235165" lon="11.247677028583402"><ele>22.0</ele><time>2026-04-04T12:03:36.172Z</time></trkpt><trkpt lat="45.395131781224464" lon="11.247722172038417"><ele>22.0</ele><time>2026-04-04T12:03:37.172Z</time></trkpt><trkpt lat="45.39536426214476" lon="11.24774970483603"><ele>22.0</ele><time>2026-04-04T12:03:38.172Z</time></trkpt><trkpt lat="45.3955987435789" lon="11.247795054371045"><ele>21.0</ele><time>2026-04-04T12:03:39.172Z</time></trkpt><trkpt lat="45.395841632241705" lon="11.24783923577552"><ele>20.0</ele><time>2026-04-04T12:03:40.172Z</time></trkpt><trkpt lat="45.39608849023059" lon="11.247878303619517"><ele>20.5</ele><time>2026-04-04T12:03:41.172Z</time></trkpt><trkpt lat="45.39635232597747" lon="11.247926731320794"><ele>21.0</ele><time>2026-04-04T12:03:42.172Z</time></trkpt><trkpt lat="45.396631551765886" lon="11.247970995788926"><ele>21.0</ele><time>2026-04-04T12:03:43.172Z</time></trkpt><trkpt lat="45.39691862305633" lon="11.248013602644194"><ele>21.0</ele><time>2026-04-04T12:03:44.172Z</time></trkpt><trkpt lat="45.39721341492264" lon="11.248058442283233"><ele>22.0</ele><time>2026-04-04T12:03:45.172Z</time></trkpt><trkpt lat="45.397495317364196" lon="11.248089098029242"><ele>23.0</ele><time>2026-04-04T12:03:46.172Z</time></trkpt><trkpt lat="45.39775772268182" lon="11.24812362829262"><ele>23.0</ele><time>2026-04-04T12:03:47.172Z</time></trkpt><trkpt lat="45.39800514713954" lon="11.248163569617638"><ele>23.0</ele><time>2026-04-04T12:03:48.172Z</time></trkpt><trkpt lat="45.39823782073812" lon="11.248213654270932"><ele>23.0</ele><time>2026-04-04T12:03:49.172Z</time></trkpt><trkpt lat="45.398466640517725" lon="11.24823675075556"><ele>23.0</ele><time>2026-04-04T12:03:50.172Z</time></trkpt><trkpt lat="45.39868323544236" lon="11.248252980037062"><ele>23.0</ele><time>2026-04-04T12:03:51.172Z</time></trkpt><trkpt lat="45.398884995262996" lon="11.248274317230536"><ele>23.0</ele><time>2026-04-04T12:03:52.172Z</time></trkpt><trkpt lat="45.39908132462639" lon="11.24830809405693"><ele>23.0</ele><time>2026-04-04T12:03:53.172Z</time></trkpt><trkpt lat="45.399267656976114" lon="11.248362228472496"><ele>23.0</ele><time>2026-04-04T12:03:54.172Z</time></trkpt><trkpt lat="45.39944954477025" lon="11.24842286954864"><ele>23.0</ele><time>2026-04-04T12:03:55.172Z</time></trkpt><trkpt lat="45.39961335207469" lon="11.248511062875595"><ele>23.0</ele><time>2026-04-04T12:03:56.172Z</time></trkpt><trkpt lat="45.39976197207042" lon="11.248618890915512"><ele>23.0</ele><time>2026-04-04T12:03:57.172Z</time></trkpt><trkpt lat="45.399902214875965" lon="11.248743490341782"><ele>23.0</ele><time>2026-04-04T12:03:58.172Z</time></trkpt><trkpt lat="45.40003643687161" lon="11.248895165300103"><ele>23.0</ele><time>2026-04-04T12:03:59.172Z</time></trkpt><trkpt lat="45.4001665922378" lon="11.249073169472274"><ele>23.0</ele><time>2026-04-04T12:04:00.172Z</time></trkpt><trkpt lat="45.40028803183783" lon="11.249266464249942"><ele>23.0</ele><time>2026-04-04T12:04:01.172Z</time></trkpt><trkpt lat="45.40039717772592" lon="11.24947466638603"><ele>23.0</ele><time>2026-04-04T12:04:02.172Z</time></trkpt><trkpt lat="45.40048850828858" lon="11.249708296077555"><ele>23.0</ele><time>2026-04-04T12:04:03.172Z</time></trkpt><trkpt lat="45.400567332235184" lon="11.249960661408702"><ele>23.333333333333336</ele><time>2026-04-04T12:04:04.172Z</time></trkpt><trkpt lat="45.40063384238762" lon="11.250218132604902"><ele>23.666666666666668</ele><time>2026-04-04T12:04:05.172Z</time></trkpt><trkpt lat="45.400689802925825" lon="11.250481271882666"><ele>24.0</ele><time>2026-04-04T12:04:06.172Z</time></trkpt><trkpt lat="45.400751477308795" lon="11.250744354097673"><ele>24.333333333333336</ele><time>2026-04-04T12:04:07.172Z</time></trkpt><trkpt lat="45.40081003551745" lon="11.250992430742167"><ele>24.666666666666668</ele><time>2026-04-04T12:04:08.172Z</time></trkpt><trkpt lat="45.400865457730646" lon="11.251237469828528"><ele>25.0</ele><time>2026-04-04T12:04:09.172Z</time></trkpt><trkpt lat="45.40091730037728" lon="11.251469907698901"><ele>25.0</ele><time>2026-04-04T12:04:10.172Z</time></trkpt><trkpt lat="45.400963715230965" lon="11.25168942338966"><ele>25.0</ele><time>2026-04-04T12:04:11.172Z</time></trkpt><trkpt lat="45.4010247955235" lon="11.251881223391404"><ele>25.0</ele><time>2026-04-04T12:04:12.172Z</time></trkpt><trkpt lat="45.40109823072687" lon="11.25206449325448"><ele>25.0</ele><time>2026-04-04T12:04:13.172Z</time></trkpt><trkpt lat="45.401185674850964" lon="11.252262766075262"><ele>25.0</ele><time>2026-04-04T12:04:14.172Z</time></trkpt><trkpt lat="45.401287860734364" lon="11.252431188137834"><ele>25.0</ele><time>2026-04-04T12:04:15.172Z</time></trkpt><trkpt lat="45.40140990853713" lon="11.252585299131693"><ele>25.666666666666668</ele><time>2026-04-04T12:04:16.172Z</time></trkpt><trkpt lat="45.40153975040692" lon="11.252739557041691"><ele>26.333333333333336</ele><time>2026-04-04T12:04:17.172Z</time></trkpt><trkpt lat="45.40168472664593" lon="11.252878378530966"><ele>27.0</ele><time>2026-04-04T12:04:18.172Z</time></trkpt><trkpt lat="45.40183811654913" lon="11.253018100957052"><ele>26.666666666666664</ele><time>2026-04-04T12:04:19.172Z</time></trkpt><trkpt lat="45.402011351646735" lon="11.253164533178587"><ele>26.333333333333332</ele><time>2026-04-04T12:04:20.172Z</time></trkpt><trkpt lat="45.40219612046073" lon="11.253316105073639"><ele>26.0</ele><time>2026-04-04T12:04:21.172Z</time></trkpt><trkpt lat="45.402365467167606" lon="11.25344930751471"><ele>25.333333333333332</ele><time>2026-04-04T12:04:22.172Z</time></trkpt><trkpt lat="45.40252391859116" lon="11.253572705968384"><ele>24.666666666666664</ele><time>2026-04-04T12:04:23.172Z</time></trkpt><trkpt lat="45.40268910169969" lon="11.253686860893248"><ele>24.0</ele><time>2026-04-04T12:04:24.172Z</time></trkpt><trkpt lat="45.402842705059285" lon="11.253802955461119"><ele>24.0</ele><time>2026-04-04T12:04:25.172Z</time></trkpt><trkpt lat="45.402998215217686" lon="11.253937613966393"><ele>24.0</ele><time>2026-04-04T12:04:26.172Z</time></trkpt><trkpt lat="45.40316056660633" lon="11.254066800710339"><ele>24.0</ele><time>2026-04-04T12:04:27.172Z</time></trkpt><trkpt lat="45.40330192930833" lon="11.254188249108289"><ele>23.5</ele><time>2026-04-04T12:04:28.172Z</time></trkpt><trkpt lat="45.403432964779896" lon="11.2542995437091"><ele>23.0</ele><time>2026-04-04T12:04:29.172Z</time></trkpt><trkpt lat="45.403553176313494" lon="11.254396813675909"><ele>22.5</ele><time>2026-04-04T12:04:30.172Z</time></trkpt><trkpt lat="45.403648353153365" lon="11.25447961425181"><ele>22.0</ele><time>2026-04-04T12:04:31.172Z</time></trkpt><trkpt lat="45.40372078497835" lon="11.25455654087909"><ele>22.0</ele><time>2026-04-04T12:04:32.172Z</time></trkpt><trkpt lat="45.40379122380162" lon="11.254612700532242"><ele>22.0</ele><time>2026-04-04T12:04:33.172Z</time></trkpt><trkpt lat="45.40384212413405" lon="11.254667975776947"><ele>22.0</ele><time>2026-04-04T12:04:34.172Z</time></trkpt><trkpt lat="45.40391320420999" lon="11.254781255844414"><ele>22.0</ele><time>2026-04-04T12:04:36.172Z</time></trkpt><trkpt lat="45.403991102145866" lon="11.254908002451348"><ele>22.0</ele><time>2026-04-04T12:04:38.172Z</time></trkpt><trkpt lat="45.40404005001229" lon="11.255054134968901"><ele>22.0</ele><time>2026-04-04T12:04:39.172Z</time></trkpt><trkpt lat="45.40408534855987" lon="11.255186398650123"><ele>22.0</ele><time>2026-04-04T12:04:40.172Z</time></trkpt><trkpt lat="45.40414474489024" lon="11.255275636553206"><ele>22.0</ele><time>2026-04-04T12:04:41.172Z</time></trkpt><trkpt lat="45.404222047743154" lon="11.25535665308551"><ele>22.0</ele><time>2026-04-04T12:04:42.172Z</time></trkpt><trkpt lat="45.40432526752529" lon="11.25541874159737"><ele>22.0</ele><time>2026-04-04T12:04:43.172Z</time></trkpt><trkpt lat="45.40442670184185" lon="11.255417366043439"><ele>22.0</ele><time>2026-04-04T12:04:44.172Z</time></trkpt><trkpt lat="45.404531480192375" lon="11.255371500852183"><ele>22.0</ele><time>2026-04-04T12:04:45.172Z</time></trkpt><trkpt lat="45.40463270029727" lon="11.255378615400344"><ele>22.0</ele><time>2026-04-04T12:04:46.172Z</time></trkpt><trkpt lat="45.40473335021591" lon="11.255409143923949"><ele>22.0</ele><time>2026-04-04T12:04:47.172Z</time></trkpt><trkpt lat="45.40483559206285" lon="11.255435557272076"><ele>22.0</ele><time>2026-04-04T12:04:48.172Z</time></trkpt><trkpt lat="45.40493566568395" lon="11.255558984387026"><ele>23.333333333333332</ele><time>2026-04-04T12:04:49.172Z</time></trkpt><trkpt lat="45.40505736478624" lon="11.255685365661758"><ele>24.666666666666664</ele><time>2026-04-04T12:04:50.172Z</time></trkpt><trkpt lat="45.4051960162545" lon="11.255839565794535"><ele>26.0</ele><time>2026-04-04T12:04:51.172Z</time></trkpt><trkpt lat="45.4053602661988" lon="11.255991494953829"><ele>25.0</ele><time>2026-04-04T12:04:52.172Z</time></trkpt><trkpt lat="45.40554318143965" lon="11.256162864386637"><ele>24.0</ele><time>2026-04-04T12:04:53.172Z</time></trkpt><trkpt lat="45.40574976421409" lon="11.256364679316306"><ele>25.0</ele><time>2026-04-04T12:04:54.172Z</time></trkpt><trkpt lat="45.40593928232251" lon="11.256545973902636"><ele>26.0</ele><time>2026-04-04T12:04:55.172Z</time></trkpt><trkpt lat="45.40611425948725" lon="11.256715939309059"><ele>27.0</ele><time>2026-04-04T12:04:56.172Z</time></trkpt><trkpt lat="45.406276358998525" lon="11.256866145230811"><ele>27.0</ele><time>2026-04-04T12:04:57.172Z</time></trkpt><trkpt lat="45.40644325935121" lon="11.257021802664292"><ele>27.0</ele><time>2026-04-04T12:04:58.172Z</time></trkpt><trkpt lat="45.40662560335863" lon="11.257171331455693"><ele>27.0</ele><time>2026-04-04T12:04:59.172Z</time></trkpt><trkpt lat="45.40683338911752" lon="11.257314266517572"><ele>27.0</ele><time>2026-04-04T12:05:00.172Z</time></trkpt><trkpt lat="45.40702880651916" lon="11.257430737389583"><ele>27.0</ele><time>2026-04-04T12:05:01.172Z</time></trkpt><trkpt lat="45.407208074065096" lon="11.257552007317402"><ele>27.0</ele><time>2026-04-04T12:05:02.172Z</time></trkpt><trkpt lat="45.40737704706852" lon="11.257664293216367"><ele>27.0</ele><time>2026-04-04T12:05:03.172Z</time></trkpt><trkpt lat="45.407547362298565" lon="11.25775830596253"><ele>27.0</ele><time>2026-04-04T12:05:04.172Z</time></trkpt><trkpt lat="45.40770030430592" lon="11.257846161817877"><ele>27.0</ele><time>2026-04-04T12:05:05.172Z</time></trkpt><trkpt lat="45.4078478353843" lon="11.25792348758712"><ele>28.0</ele><time>2026-04-04T12:05:06.172Z</time></trkpt><trkpt lat="45.407995210547845" lon="11.257993346028629"><ele>29.0</ele><time>2026-04-04T12:05:07.172Z</time></trkpt><trkpt lat="45.4081593460232" lon="11.25803459291611"><ele>30.0</ele><time>2026-04-04T12:05:08.172Z</time></trkpt><trkpt lat="45.40831674163884" lon="11.258072432610247"><ele>30.0</ele><time>2026-04-04T12:05:09.172Z</time></trkpt><trkpt lat="45.408480312072385" lon="11.258090078396881"><ele>30.0</ele><time>2026-04-04T12:05:10.172Z</time></trkpt><trkpt lat="45.40862746537904" lon="11.258104468019413"><ele>30.0</ele><time>2026-04-04T12:05:11.172Z</time></trkpt><trkpt lat="45.408754769568816" lon="11.258115481642006"><ele>30.0</ele><time>2026-04-04T12:05:12.172Z</time></trkpt><trkpt lat="45.40886498456546" lon="11.25812019164799"><ele>29.8</ele><time>2026-04-04T12:05:13.172Z</time></trkpt><trkpt lat="45.408961848267964" lon="11.258116917428614"><ele>29.6</ele><time>2026-04-04T12:05:14.172Z</time></trkpt><trkpt lat="45.40903523104025" lon="11.258157017037359"><ele>29.4</ele><time>2026-04-04T12:05:15.172Z</time></trkpt><trkpt lat="45.4091257583685" lon="11.25814773075866"><ele>29.2</ele><time>2026-04-04T12:05:16.172Z</time></trkpt><trkpt lat="45.409226628806124" lon="11.258208288658102"><ele>29.0</ele><time>2026-04-04T12:05:17.172Z</time></trkpt><trkpt lat="45.40932039852416" lon="11.258185304779495"><ele>29.0</ele><time>2026-04-04T12:05:18.172Z</time></trkpt><trkpt lat="45.40941689528195" lon="11.25812130028059"><ele>29.0</ele><time>2026-04-04T12:05:19.172Z</time></trkpt><trkpt lat="45.40950247121651" lon="11.258008187127482"><ele>29.0</ele><time>2026-04-04T12:05:20.172Z</time></trkpt><trkpt lat="45.40958725385811" lon="11.257858144811188"><ele>29.0</ele><time>2026-04-04T12:05:21.172Z</time></trkpt><trkpt lat="45.40967491173291" lon="11.257647515977935"><ele>30.5</ele><time>2026-04-04T12:05:22.172Z</time></trkpt><trkpt lat="45.40977266566614" lon="11.257387059099383"><ele>32.0</ele><time>2026-04-04T12:05:23.172Z</time></trkpt><trkpt lat="45.40987542929103" lon="11.257070602857326"><ele>32.0</ele><time>2026-04-04T12:05:24.172Z</time></trkpt><trkpt lat="45.4099699602618" lon="11.256758917779672"><ele>32.0</ele><time>2026-04-04T12:05:25.172Z</time></trkpt><trkpt lat="45.4100611230029" lon="11.256481279153434"><ele>31.666666666666664</ele><time>2026-04-04T12:05:26.172Z</time></trkpt><trkpt lat="45.41014576522398" lon="11.25622936078549"><ele>31.333333333333336</ele><time>2026-04-04T12:05:27.172Z</time></trkpt><trkpt lat="45.41023887726224" lon="11.256003815925189"><ele>31.0</ele><time>2026-04-04T12:05:28.172Z</time></trkpt><trkpt lat="45.41031934102071" lon="11.255798081611957"><ele>30.25</ele><time>2026-04-04T12:05:29.172Z</time></trkpt><trkpt lat="45.41039835055169" lon="11.255612197471802"><ele>29.5</ele><time>2026-04-04T12:05:30.172Z</time></trkpt><trkpt lat="45.41048025650411" lon="11.255435718440832"><ele>28.75</ele><time>2026-04-04T12:05:31.172Z</time></trkpt><trkpt lat="45.41057158496379" lon="11.255287690037456"><ele>28.0</ele><time>2026-04-04T12:05:32.172Z</time></trkpt><trkpt lat="45.410690904034325" lon="11.255143795967832"><ele>28.333333333333336</ele><time>2026-04-04T12:05:33.172Z</time></trkpt><trkpt lat="45.41084207219478" lon="11.254997498645494"><ele>28.666666666666664</ele><time>2026-04-04T12:05:34.172Z</time></trkpt><trkpt lat="45.41099715269769" lon="11.254862239886396"><ele>29.0</ele><time>2026-04-04T12:05:35.172Z</time></trkpt><trkpt lat="45.41113104344117" lon="11.254754562082278"><ele>29.0</ele><time>2026-04-04T12:05:36.172Z</time></trkpt><trkpt lat="45.41127014854714" lon="11.254662512075557"><ele>29.0</ele><time>2026-04-04T12:05:37.172Z</time></trkpt><trkpt lat="45.411414522454244" lon="11.254571096267854"><ele>29.0</ele><time>2026-04-04T12:05:38.172Z</time></trkpt><trkpt lat="45.41156145792456" lon="11.254515595426355"><ele>30.666666666666664</ele><time>2026-04-04T12:05:39.172Z</time></trkpt><trkpt lat="45.41172035078335" lon="11.254479956208677"><ele>32.333333333333336</ele><time>2026-04-04T12:05:40.172Z</time></trkpt><trkpt lat="45.41189723008467" lon="11.2544647346863"><ele>34.0</ele><time>2026-04-04T12:05:41.172Z</time></trkpt><trkpt lat="45.41207990736726" lon="11.254456304321527"><ele>34.333333333333336</ele><time>2026-04-04T12:05:42.172Z</time></trkpt><trkpt lat="45.412284452238474" lon="11.254441483258642"><ele>34.666666666666664</ele><time>2026-04-04T12:05:43.172Z</time></trkpt><trkpt lat="45.412500669633275" lon="11.254435058605132"><ele>35.0</ele><time>2026-04-04T12:05:44.172Z</time></trkpt><trkpt lat="45.41269364121218" lon="11.254419625672663"><ele>35.0</ele><time>2026-04-04T12:05:45.172Z</time></trkpt><trkpt lat="45.41286837175194" lon="11.254415831487666"><ele>35.0</ele><time>2026-04-04T12:05:46.172Z</time></trkpt><trkpt lat="45.41304396955065" lon="11.254415243435908"><ele>35.0</ele><time>2026-04-04T12:05:47.172Z</time></trkpt><trkpt lat="45.41321787312161" lon="11.254402583686117"><ele>35.33333333333333</ele><time>2026-04-04T12:05:48.172Z</time></trkpt><trkpt lat="45.41339578613984" lon="11.254391035353015"><ele>35.666666666666664</ele><time>2026-04-04T12:05:49.172Z</time></trkpt><trkpt lat="45.41357861073423" lon="11.254388928898909"><ele>36.0</ele><time>2026-04-04T12:05:50.172Z</time></trkpt><trkpt lat="45.41374713764782" lon="11.254375523589296"><ele>35.666666666666664</ele><time>2026-04-04T12:05:51.172Z</time></trkpt><trkpt lat="45.41390710497523" lon="11.254371703747049"><ele>35.33333333333333</ele><time>2026-04-04T12:05:52.172Z</time></trkpt><trkpt lat="45.41405446920292" lon="11.254388664062756"><ele>35.0</ele><time>2026-04-04T12:05:53.172Z</time></trkpt><trkpt lat="45.414214354689975" lon="11.254381572817504"><ele>35.0</ele><time>2026-04-04T12:05:54.172Z</time></trkpt><trkpt lat="45.41437849117723" lon="11.254410035625776"><ele>35.0</ele><time>2026-04-04T12:05:55.172Z</time></trkpt><trkpt lat="45.41454388927842" lon="11.25442100665446"><ele>35.0</ele><time>2026-04-04T12:05:56.172Z</time></trkpt><trkpt lat="45.41469432746483" lon="11.254423015894462"><ele>35.2</ele><time>2026-04-04T12:05:57.172Z</time></trkpt><trkpt lat="45.41483462906351" lon="11.254455129351618"><ele>35.4</ele><time>2026-04-04T12:05:58.172Z</time></trkpt><trkpt lat="45.41493965722115" lon="11.254454381702036"><ele>35.6</ele><time>2026-04-04T12:05:59.172Z</time></trkpt><trkpt lat="45.41502980512232" lon="11.254450402869018"><ele>35.8</ele><time>2026-04-04T12:06:00.172Z</time></trkpt><trkpt lat="45.415134366764114" lon="11.254440308558815"><ele>36.0</ele><time>2026-04-04T12:06:02.172Z</time></trkpt><trkpt lat="45.41521585260659" lon="11.254469981242593"><ele>36.0</ele><time>2026-04-04T12:06:04.172Z</time></trkpt><trkpt lat="45.415285943124765" lon="11.254472451931036"><ele>36.0</ele><time>2026-04-04T12:06:05.172Z</time></trkpt><trkpt lat="45.415355247462536" lon="11.254468007165045"><ele>36.0</ele><time>2026-04-04T12:06:06.172Z</time></trkpt><trkpt lat="45.41544891902832" lon="11.254459745986649"><ele>36.0</ele><time>2026-04-04T12:06:07.172Z</time></trkpt><trkpt lat="45.41556129430325" lon="11.254424060649617"><ele>36.0</ele><time>2026-04-04T12:06:08.172Z</time></trkpt><trkpt lat="45.41567483282882" lon="11.254390538183035"><ele>36.2</ele><time>2026-04-04T12:06:09.172Z</time></trkpt><trkpt lat="45.41577651495938" lon="11.25435716927286"><ele>36.400000000000006</ele><time>2026-04-04T12:06:10.172Z</time></trkpt><trkpt lat="45.415869001031446" lon="11.254335546084679"><ele>36.6</ele><time>2026-04-04T12:06:11.172Z</time></trkpt><trkpt lat="45.415973726757336" lon="11.25429261550848"><ele>36.800000000000004</ele><time>2026-04-04T12:06:12.172Z</time></trkpt><trkpt lat="45.41609905158189" lon="11.254217768371147"><ele>37.0</ele><time>2026-04-04T12:06:13.172Z</time></trkpt><trkpt lat="45.41621444196169" lon="11.254142631990836"><ele>36.5</ele><time>2026-04-04T12:06:14.172Z</time></trkpt><trkpt lat="45.416324084259436" lon="11.2540680663977"><ele>36.0</ele><time>2026-04-04T12:06:15.172Z</time></trkpt><trkpt lat="45.41641298163154" lon="11.253971515265327"><ele>35.5</ele><time>2026-04-04T12:06:16.172Z</time></trkpt><trkpt lat="45.41651051597463" lon="11.253877271319391"><ele>35.0</ele><time>2026-04-04T12:06:17.172Z</time></trkpt><trkpt lat="45.416616034160306" lon="11.253774219221043"><ele>34.5</ele><time>2026-04-04T12:06:18.172Z</time></trkpt><trkpt lat="45.41671205981949" lon="11.25363336782429"><ele>34.0</ele><time>2026-04-04T12:06:19.172Z</time></trkpt><trkpt lat="45.41681997559005" lon="11.25350008863888"><ele>33.5</ele><time>2026-04-04T12:06:20.172Z</time></trkpt><trkpt lat="45.41691250789556" lon="11.253305034812012"><ele>33.0</ele><time>2026-04-04T12:06:21.172Z</time></trkpt><trkpt lat="45.417016136574674" lon="11.25316374740194"><ele>33.0</ele><time>2026-04-04T12:06:22.172Z</time></trkpt><trkpt lat="45.41708877944051" lon="11.25300422697619"><ele>33.0</ele><time>2026-04-04T12:06:23.172Z</time></trkpt><trkpt lat="45.41717903875186" lon="11.252850202339205"><ele>33.0</ele><time>2026-04-04T12:06:24.172Z</time></trkpt><trkpt lat="45.417279041758604" lon="11.252699035860791"><ele>33.0</ele><time>2026-04-04T12:06:25.172Z</time></trkpt><trkpt lat="45.41735302025314" lon="11.252527693464083"><ele>32.75</ele><time>2026-04-04T12:06:26.173Z</time></trkpt><trkpt lat="45.41744578362849" lon="11.252361339450804"><ele>32.5</ele><time>2026-04-04T12:06:27.173Z</time></trkpt><trkpt lat="45.417545000268774" lon="11.252208958314096"><ele>32.25</ele><time>2026-04-04T12:06:28.173Z</time></trkpt><trkpt lat="45.41763157749684" lon="11.25204770275477"><ele>32.0</ele><time>2026-04-04T12:06:29.173Z</time></trkpt><trkpt lat="45.41772014032754" lon="11.25188274870671"><ele>32.0</ele><time>2026-04-04T12:06:30.173Z</time></trkpt><trkpt lat="45.417805148919896" lon="11.251724414760691"><ele>32.0</ele><time>2026-04-04T12:06:31.173Z</time></trkpt><trkpt lat="45.417886348309764" lon="11.25157317574827"><ele>32.0</ele><time>2026-04-04T12:06:32.173Z</time></trkpt><trkpt lat="45.41796913610353" lon="11.251420180372962"><ele>32.0</ele><time>2026-04-04T12:06:33.173Z</time></trkpt><trkpt lat="45.41804351441345" lon="11.251286644802512"><ele>32.0</ele><time>2026-04-04T12:06:34.173Z</time></trkpt><trkpt lat="45.41812632825341" lon="11.25117149001283"><ele>32.0</ele><time>2026-04-04T12:06:35.173Z</time></trkpt><trkpt lat="45.41824609832474" lon="11.251039873232205"><ele>32.0</ele><time>2026-04-04T12:06:36.173Z</time></trkpt><trkpt lat="45.418374985825906" lon="11.25094876674441"><ele>32.0</ele><time>2026-04-04T12:06:37.173Z</time></trkpt><trkpt lat="45.418520839388954" lon="11.250833665693845"><ele>32.0</ele><time>2026-04-04T12:06:38.173Z</time></trkpt><trkpt lat="45.418650084014644" lon="11.250723820641767"><ele>32.0</ele><time>2026-04-04T12:06:39.173Z</time></trkpt><trkpt lat="45.41878121724296" lon="11.250629949478048"><ele>32.0</ele><time>2026-04-04T12:06:40.173Z</time></trkpt><trkpt lat="45.41889429661362" lon="11.250545124456862"><ele>32.0</ele><time>2026-04-04T12:06:41.173Z</time></trkpt><trkpt lat="45.41900634095896" lon="11.250457563570906"><ele>31.8</ele><time>2026-04-04T12:06:42.173Z</time></trkpt><trkpt lat="45.41911774561746" lon="11.250370438738747"><ele>31.6</ele><time>2026-04-04T12:06:43.173Z</time></trkpt><trkpt lat="45.41921838364227" lon="11.25028879071072"><ele>31.400000000000002</ele><time>2026-04-04T12:06:44.173Z</time></trkpt><trkpt lat="45.419303145751236" lon="11.25022678749963"><ele>31.200000000000003</ele><time>2026-04-04T12:06:45.173Z</time></trkpt><trkpt lat="45.41936655646583" lon="11.25017168278602"><ele>31.0</ele><time>2026-04-04T12:06:46.173Z</time></trkpt><trkpt lat="45.41945584696537" lon="11.250157227194926"><ele>31.000000000000004</ele><time>2026-04-04T12:06:47.173Z</time></trkpt><trkpt lat="45.41953489546423" lon="11.250170498137937"><ele>31.0</ele><time>2026-04-04T12:06:48.173Z</time></trkpt><trkpt lat="45.419612425398654" lon="11.250166365515796"><ele>31.0</ele><time>2026-04-04T12:06:49.173Z</time></trkpt><trkpt lat="45.41969022083488" lon="11.250110166499399"><ele>31.0</ele><time>2026-04-04T12:06:50.173Z</time></trkpt><trkpt lat="45.419738166926656" lon="11.25001100411286"><ele>31.000000000000004</ele><time>2026-04-04T12:06:51.173Z</time></trkpt><trkpt lat="45.41976252945178" lon="11.249869175549179"><ele>31.0</ele><time>2026-04-04T12:06:52.173Z</time></trkpt><trkpt lat="45.419769427014565" lon="11.249700891882885"><ele>31.666666666666668</ele><time>2026-04-04T12:06:53.173Z</time></trkpt><trkpt lat="45.4197676072317" lon="11.24950070874523"><ele>32.333333333333336</ele><time>2026-04-04T12:06:54.173Z</time></trkpt><trkpt lat="45.41978669560888" lon="11.2492569780792"><ele>33.0</ele><time>2026-04-04T12:06:55.173Z</time></trkpt><trkpt lat="45.41979794681725" lon="11.249011603935685"><ele>33.25</ele><time>2026-04-04T12:06:56.173Z</time></trkpt><trkpt lat="45.419805686397815" lon="11.24880302858374"><ele>33.5</ele><time>2026-04-04T12:06:57.173Z</time></trkpt><trkpt lat="45.41981792779158" lon="11.248626841612417"><ele>33.75</ele><time>2026-04-04T12:06:58.173Z</time></trkpt><trkpt lat="45.419833035794106" lon="11.24847428816304"><ele>34.0</ele><time>2026-04-04T12:06:59.173Z</time></trkpt><trkpt lat="45.419843856515286" lon="11.248345383762105"><ele>34.0</ele><time>2026-04-04T12:07:00.173Z</time></trkpt><trkpt lat="45.41984445719061" lon="11.248248536856822"><ele>34.0</ele><time>2026-04-04T12:07:01.173Z</time></trkpt><trkpt lat="45.41982332505319" lon="11.248088472701355"><ele>34.0</ele><time>2026-04-04T12:07:03.173Z</time></trkpt><trkpt lat="45.41979676280532" lon="11.24794557368426"><ele>34.0</ele><time>2026-04-04T12:07:05.173Z</time></trkpt><trkpt lat="45.41968814588099" lon="11.247895247336091"><ele>34.0</ele><time>2026-04-04T12:07:07.173Z</time></trkpt><trkpt lat="45.41961438478459" lon="11.24792177968576"><ele>33.66666666666667</ele><time>2026-04-04T12:07:08.173Z</time></trkpt><trkpt lat="45.41950803547741" lon="11.247830626736521"><ele>33.333333333333336</ele><time>2026-04-04T12:07:10.173Z</time></trkpt><trkpt lat="45.41942867488814" lon="11.247723211946942"><ele>33.0</ele><time>2026-04-04T12:07:12.173Z</time></trkpt><trkpt lat="45.419436245222826" lon="11.24763105699765"><ele>32.666666666666664</ele><time>2026-04-04T12:07:13.173Z</time></trkpt><trkpt lat="45.41943551686084" lon="11.247527684080385"><ele>32.33333333333333</ele><time>2026-04-04T12:07:14.173Z</time></trkpt><trkpt lat="45.41943523298755" lon="11.247429067380855"><ele>32.0</ele><time>2026-04-04T12:07:15.173Z</time></trkpt><trkpt lat="45.419418763295944" lon="11.247337190871379"><ele>31.833333333333332</ele><time>2026-04-04T12:07:16.173Z</time></trkpt><trkpt lat="45.4194183032347" lon="11.247232642232001"><ele>31.666666666666664</ele><time>2026-04-04T12:07:17.173Z</time></trkpt><trkpt lat="45.41943565527126" lon="11.247136664696505"><ele>31.5</ele><time>2026-04-04T12:07:18.173Z</time></trkpt><trkpt lat="45.419437190808544" lon="11.247042218246323"><ele>31.333333333333336</ele><time>2026-04-04T12:07:19.173Z</time></trkpt><trkpt lat="45.41943914602861" lon="11.246930770292375"><ele>31.166666666666668</ele><time>2026-04-04T12:07:20.173Z</time></trkpt><trkpt lat="45.41944130460588" lon="11.246811966373192"><ele>31.0</ele><time>2026-04-04T12:07:21.173Z</time></trkpt><trkpt lat="45.41944202781821" lon="11.246692636845657"><ele>31.0</ele><time>2026-04-04T12:07:22.173Z</time></trkpt><trkpt lat="45.419439635454985" lon="11.246577682645881"><ele>31.0</ele><time>2026-04-04T12:07:23.173Z</time></trkpt><trkpt lat="45.4194208195605" lon="11.24644931816356"><ele>31.0</ele><time>2026-04-04T12:07:24.173Z</time></trkpt><trkpt lat="45.41936358610946" lon="11.246350015616985"><ele>31.0</ele><time>2026-04-04T12:07:25.173Z</time></trkpt><trkpt lat="45.41933166842741" lon="11.246231781067257"><ele>31.0</ele><time>2026-04-04T12:07:26.173Z</time></trkpt><trkpt lat="45.41923365794805" lon="11.246142616538274"><ele>31.0</ele><time>2026-04-04T12:07:27.173Z</time></trkpt><trkpt lat="45.419155113173964" lon="11.24606421080912"><ele>31.0</ele><time>2026-04-04T12:07:28.173Z</time></trkpt><trkpt lat="45.41905558340413" lon="11.245940205029308"><ele>31.0</ele><time>2026-04-04T12:07:29.173Z</time></trkpt><trkpt lat="45.41895941086598" lon="11.245835150084268"><ele>31.0</ele><time>2026-04-04T12:07:30.173Z</time></trkpt><trkpt lat="45.41886050052329" lon="11.245747544673014"><ele>31.0</ele><time>2026-04-04T12:07:31.173Z</time></trkpt><trkpt lat="45.4187951668965" lon="11.245637849819309"><ele>31.0</ele><time>2026-04-04T12:07:32.173Z</time></trkpt><trkpt lat="45.41871863673487" lon="11.245547956925904"><ele>31.0</ele><time>2026-04-04T12:07:33.173Z</time></trkpt><trkpt lat="45.41864942843688" lon="11.245465418083288"><ele>31.0</ele><time>2026-04-04T12:07:34.173Z</time></trkpt><trkpt lat="45.41860725368589" lon="11.245370737025887"><ele>31.0</ele><time>2026-04-04T12:07:35.173Z</time></trkpt><trkpt lat="45.41848829214491" lon="11.24533853804727"><ele>31.0</ele><time>2026-04-04T12:07:37.173Z</time></trkpt><trkpt lat="45.41842093205212" lon="11.245313533883433"><ele>31.0</ele><time>2026-04-04T12:07:38.173Z</time></trkpt><trkpt lat="45.41833809898846" lon="11.245278995653168"><ele>31.0</ele><time>2026-04-04T12:07:39.173Z</time></trkpt><trkpt lat="45.418518499181" lon="11.244785508522641"><ele>30.75</ele><time>2026-04-04T12:07:40.173Z</time></trkpt><trkpt lat="45.41872832816027" lon="11.244585418127231"><ele>30.5</ele><time>2026-04-04T12:07:41.173Z</time></trkpt><trkpt lat="45.41876800694768" lon="11.244454187269739"><ele>30.25</ele><time>2026-04-04T12:07:42.173Z</time></trkpt><trkpt lat="45.41879371428924" lon="11.244323762022995"><ele>30.0</ele><time>2026-04-04T12:07:43.173Z</time></trkpt><trkpt lat="45.418811946000936" lon="11.244194589144115"><ele>30.0</ele><time>2026-04-04T12:07:44.173Z</time></trkpt><trkpt lat="45.41882957205967" lon="11.24408615854101"><ele>30.0</ele><time>2026-04-04T12:07:45.173Z</time></trkpt><trkpt lat="45.41884938223646" lon="11.243983281494627"><ele>30.0</ele><time>2026-04-04T12:07:46.173Z</time></trkpt><trkpt lat="45.41888036275339" lon="11.24390110267296"><ele>30.0</ele><time>2026-04-04T12:07:47.173Z</time></trkpt><trkpt lat="45.41889772067397" lon="11.243805026582141"><ele>30.0</ele><time>2026-04-04T12:07:49.173Z</time></trkpt><trkpt lat="45.41892768790373" lon="11.243690915145885"><ele>30.0</ele><time>2026-04-04T12:07:53.173Z</time></trkpt><trkpt lat="45.41900776743983" lon="11.243676131510123"><ele>30.333333333333336</ele><time>2026-04-04T12:07:55.173Z</time></trkpt><trkpt lat="45.41919880069844" lon="11.243689004574149"><ele>30.666666666666668</ele><time>2026-04-04T12:07:56.173Z</time></trkpt><trkpt lat="45.41938251031165" lon="11.243732808818136"><ele>31.0</ele><time>2026-04-04T12:07:57.173Z</time></trkpt><trkpt lat="45.419521369282066" lon="11.243750162393187"><ele>31.0</ele><time>2026-04-04T12:07:58.173Z</time></trkpt><trkpt lat="45.41964910234737" lon="11.243766125551128"><ele>31.0</ele><time>2026-04-04T12:07:59.173Z</time></trkpt><trkpt lat="45.41976001580096" lon="11.243779986691548"><ele>31.0</ele><time>2026-04-04T12:08:00.173Z</time></trkpt><trkpt lat="45.41985295468605" lon="11.243791601493877"><ele>31.0</ele><time>2026-04-04T12:08:01.173Z</time></trkpt><trkpt lat="45.41991806297998" lon="11.243799738255388"><ele>31.0</ele><time>2026-04-04T12:08:02.173Z</time></trkpt><trkpt lat="45.41998657257335" lon="11.243801006796126"><ele>30.75</ele><time>2026-04-04T12:08:03.173Z</time></trkpt><trkpt lat="45.42006695978713" lon="11.243818346258935"><ele>30.5</ele><time>2026-04-04T12:08:05.173Z</time></trkpt><trkpt lat="45.420093028560444" lon="11.243543307808643"><ele>30.25</ele><time>2026-04-04T12:08:07.173Z</time></trkpt><trkpt lat="45.4200902245712" lon="11.243359893666442"><ele>30.0</ele><time>2026-04-04T12:08:08.173Z</time></trkpt><trkpt lat="45.42008531039931" lon="11.243110655390625"><ele>30.666666666666664</ele><time>2026-04-04T12:08:09.173Z</time></trkpt><trkpt lat="45.420093104927034" lon="11.242859753728728"><ele>31.333333333333332</ele><time>2026-04-04T12:08:10.173Z</time></trkpt><trkpt lat="45.420104776223425" lon="11.242631754229409"><ele>32.0</ele><time>2026-04-04T12:08:11.173Z</time></trkpt><trkpt lat="45.42009181573858" lon="11.2424349605886"><ele>31.75</ele><time>2026-04-04T12:08:12.173Z</time></trkpt><trkpt lat="45.42010829985741" lon="11.242244427537706"><ele>31.5</ele><time>2026-04-04T12:08:13.173Z</time></trkpt><trkpt lat="45.42010869432945" lon="11.242072839137656"><ele>31.25</ele><time>2026-04-04T12:08:14.173Z</time></trkpt><trkpt lat="45.42011143791792" lon="11.241926431638362"><ele>31.0</ele><time>2026-04-04T12:08:15.173Z</time></trkpt><trkpt lat="45.42012362772145" lon="11.241786652986407"><ele>31.0</ele><time>2026-04-04T12:08:16.173Z</time></trkpt><trkpt lat="45.42013644829883" lon="11.241693515593177"><ele>31.0</ele><time>2026-04-04T12:08:17.173Z</time></trkpt><trkpt lat="45.420132787635396" lon="11.241573371984314"><ele>31.0</ele><time>2026-04-04T12:08:21.173Z</time></trkpt><trkpt lat="45.420260156745705" lon="11.24155902952926"><ele>31.0</ele><time>2026-04-04T12:08:22.173Z</time></trkpt><trkpt lat="45.42032662685537" lon="11.241566889099573"><ele>31.0</ele><time>2026-04-04T12:08:23.173Z</time></trkpt><trkpt lat="45.42043372493623" lon="11.241558330153776"><ele>30.75</ele><time>2026-04-04T12:08:24.173Z</time></trkpt><trkpt lat="45.42053710223135" lon="11.241571448282114"><ele>30.5</ele><time>2026-04-04T12:08:25.173Z</time></trkpt><trkpt lat="45.42066070924488" lon="11.241571567698758"><ele>30.25</ele><time>2026-04-04T12:08:26.173Z</time></trkpt><trkpt lat="45.42083158786142" lon="11.241583809666484"><ele>30.0</ele><time>2026-04-04T12:08:27.173Z</time></trkpt><trkpt lat="45.42104770377816" lon="11.24157740710588"><ele>30.0</ele><time>2026-04-04T12:08:28.173Z</time></trkpt><trkpt lat="45.4212601478117" lon="11.241586685246936"><ele>30.0</ele><time>2026-04-04T12:08:29.173Z</time></trkpt><trkpt lat="45.421451990117774" lon="11.241574384280723"><ele>30.0</ele><time>2026-04-04T12:08:30.173Z</time></trkpt><trkpt lat="45.421680178611936" lon="11.241559839003372"><ele>30.0</ele><time>2026-04-04T12:08:31.173Z</time></trkpt><trkpt lat="45.42190848415052" lon="11.241563786167506"><ele>30.0</ele><time>2026-04-04T12:08:32.174Z</time></trkpt><trkpt lat="45.42215950211819" lon="11.24155473058287"><ele>30.0</ele><time>2026-04-04T12:08:33.174Z</time></trkpt><trkpt lat="45.42243304023017" lon="11.241527850014812"><ele>30.0</ele><time>2026-04-04T12:08:34.174Z</time></trkpt><trkpt lat="45.42267025447871" lon="11.241520214272061"><ele>30.0</ele><time>2026-04-04T12:08:35.174Z</time></trkpt><trkpt lat="45.42289537826246" lon="11.24150521200867"><ele>30.0</ele><time>2026-04-04T12:08:36.174Z</time></trkpt><trkpt lat="45.42310779314852" lon="11.241500524352631"><ele>30.0</ele><time>2026-04-04T12:08:37.174Z</time></trkpt><trkpt lat="45.42330655173916" lon="11.241492023773432"><ele>29.666666666666664</ele><time>2026-04-04T12:08:38.174Z</time></trkpt><trkpt lat="45.42349672280499" lon="11.241485138973445"><ele>29.333333333333332</ele><time>2026-04-04T12:08:39.174Z</time></trkpt><trkpt lat="45.42367518292767" lon="11.241470600840321"><ele>29.0</ele><time>2026-04-04T12:08:40.174Z</time></trkpt><trkpt lat="45.423843599638886" lon="11.241467659321847"><ele>29.0</ele><time>2026-04-04T12:08:41.174Z</time></trkpt><trkpt lat="45.42401014074694" lon="11.241468574686216"><ele>29.0</ele><time>2026-04-04T12:08:42.174Z</time></trkpt><trkpt lat="45.424163577679735" lon="11.241452039696378"><ele>29.0</ele><time>2026-04-04T12:08:43.174Z</time></trkpt><trkpt lat="45.42432658330139" lon="11.241454089040756"><ele>29.333333333333332</ele><time>2026-04-04T12:08:44.174Z</time></trkpt><trkpt lat="45.424486487236884" lon="11.24144000307711"><ele>29.666666666666664</ele><time>2026-04-04T12:08:45.174Z</time></trkpt><trkpt lat="45.42465112883069" lon="11.241450812338261"><ele>30.0</ele><time>2026-04-04T12:08:46.174Z</time></trkpt><trkpt lat="45.42480960864743" lon="11.241456784319682"><ele>30.0</ele><time>2026-04-04T12:08:47.174Z</time></trkpt><trkpt lat="45.42497311936732" lon="11.241439683605579"><ele>30.0</ele><time>2026-04-04T12:08:48.174Z</time></trkpt><trkpt lat="45.4251253742531" lon="11.241448212388283"><ele>30.0</ele><time>2026-04-04T12:08:49.174Z</time></trkpt><trkpt lat="45.425282955670404" lon="11.241470242138748"><ele>30.0</ele><time>2026-04-04T12:08:50.174Z</time></trkpt><trkpt lat="45.42542595163185" lon="11.241482794037145"><ele>30.0</ele><time>2026-04-04T12:08:51.174Z</time></trkpt><trkpt lat="45.4255631690174" lon="11.241493456746456"><ele>30.0</ele><time>2026-04-04T12:08:52.174Z</time></trkpt><trkpt lat="45.42568980242991" lon="11.241503202690476"><ele>30.0</ele><time>2026-04-04T12:08:53.174Z</time></trkpt><trkpt lat="45.42579866606551" lon="11.2415085632365"><ele>30.166666666666668</ele><time>2026-04-04T12:08:54.174Z</time></trkpt><trkpt lat="45.425890576805145" lon="11.241500350739766"><ele>30.333333333333336</ele><time>2026-04-04T12:08:55.174Z</time></trkpt><trkpt lat="45.4259823389446" lon="11.24151517033849"><ele>30.5</ele><time>2026-04-04T12:08:56.174Z</time></trkpt><trkpt lat="45.426055190953555" lon="11.241514793113813"><ele>30.666666666666668</ele><time>2026-04-04T12:08:57.174Z</time></trkpt><trkpt lat="45.42612214571852" lon="11.24158913009883"><ele>30.833333333333336</ele><time>2026-04-04T12:08:58.174Z</time></trkpt><trkpt lat="45.42620958706057" lon="11.241569628772194"><ele>31.0</ele><time>2026-04-04T12:08:59.174Z</time></trkpt><trkpt lat="45.42630585128551" lon="11.241506773629828"><ele>31.0</ele><time>2026-04-04T12:09:00.174Z</time></trkpt><trkpt lat="45.42640737853659" lon="11.241458011349339"><ele>31.0</ele><time>2026-04-04T12:09:01.174Z</time></trkpt><trkpt lat="45.42653811019945" lon="11.241451989023222"><ele>31.0</ele><time>2026-04-04T12:09:02.174Z</time></trkpt><trkpt lat="45.4267034720377" lon="11.241466660495156"><ele>31.0</ele><time>2026-04-04T12:09:03.174Z</time></trkpt><trkpt lat="45.42686547389758" lon="11.24148101306839"><ele>31.0</ele><time>2026-04-04T12:09:04.174Z</time></trkpt><trkpt lat="45.42700466917605" lon="11.24147445638626"><ele>31.0</ele><time>2026-04-04T12:09:05.174Z</time></trkpt><trkpt lat="45.4271326318583" lon="11.241480171783975"><ele>31.0</ele><time>2026-04-04T12:09:06.174Z</time></trkpt><trkpt lat="45.42726153643051" lon="11.241457555802006"><ele>31.0</ele><time>2026-04-04T12:09:07.174Z</time></trkpt><trkpt lat="45.4273789805937" lon="11.24144791221223"><ele>30.75</ele><time>2026-04-04T12:09:08.174Z</time></trkpt><trkpt lat="45.42748751357366" lon="11.241445726842919"><ele>30.5</ele><time>2026-04-04T12:09:09.174Z</time></trkpt><trkpt lat="45.42759457385156" lon="11.241445075759568"><ele>30.25</ele><time>2026-04-04T12:09:10.174Z</time></trkpt><trkpt lat="45.427715270593296" lon="11.241435297394515"><ele>30.0</ele><time>2026-04-04T12:09:11.174Z</time></trkpt><trkpt lat="45.427846524990954" lon="11.241430955672651"><ele>30.0</ele><time>2026-04-04T12:09:12.174Z</time></trkpt><trkpt lat="45.42796826625239" lon="11.24142988056329"><ele>30.0</ele><time>2026-04-04T12:09:13.174Z</time></trkpt><trkpt lat="45.42808513931995" lon="11.241425976603315"><ele>30.0</ele><time>2026-04-04T12:09:14.174Z</time></trkpt><trkpt lat="45.4281959947486" lon="11.24142440989997"><ele>30.0</ele><time>2026-04-04T12:09:15.174Z</time></trkpt><trkpt lat="45.42830933550402" lon="11.241428485182137"><ele>30.333333333333336</ele><time>2026-04-04T12:09:16.174Z</time></trkpt><trkpt lat="45.42842372449048" lon="11.24142740660672"><ele>30.666666666666668</ele><time>2026-04-04T12:09:17.174Z</time></trkpt><trkpt lat="45.42865582412287" lon="11.241415997585543"><ele>31.0</ele><time>2026-04-04T12:09:19.174Z</time></trkpt><trkpt lat="45.42877072724887" lon="11.241423834568085"><ele>30.8</ele><time>2026-04-04T12:09:20.174Z</time></trkpt><trkpt lat="45.4288848673581" lon="11.241426449078244"><ele>30.6</ele><time>2026-04-04T12:09:21.174Z</time></trkpt><trkpt lat="45.428995595650484" lon="11.241422830966446"><ele>30.4</ele><time>2026-04-04T12:09:22.174Z</time></trkpt><trkpt lat="45.42910580058842" lon="11.241415846506486"><ele>30.2</ele><time>2026-04-04T12:09:23.174Z</time></trkpt><trkpt lat="45.429212804252685" lon="11.24141805036914"><ele>30.0</ele><time>2026-04-04T12:09:24.174Z</time></trkpt><trkpt lat="45.42931527579733" lon="11.241427595680495"><ele>30.0</ele><time>2026-04-04T12:09:25.174Z</time></trkpt><trkpt lat="45.42940958349647" lon="11.241414520111535"><ele>30.0</ele><time>2026-04-04T12:09:26.174Z</time></trkpt><trkpt lat="45.42950389090688" lon="11.241396556937262"><ele>30.0</ele><time>2026-04-04T12:09:27.174Z</time></trkpt><trkpt lat="45.429602157283284" lon="11.241359987392503"><ele>30.0</ele><time>2026-04-04T12:09:28.174Z</time></trkpt><trkpt lat="45.42969935314418" lon="11.241306575592171"><ele>30.0</ele><time>2026-04-04T12:09:29.174Z</time></trkpt><trkpt lat="45.42979248276913" lon="11.241224511051266"><ele>30.2</ele><time>2026-04-04T12:09:30.174Z</time></trkpt><trkpt lat="45.42987810671749" lon="11.241126439070621"><ele>30.4</ele><time>2026-04-04T12:09:31.174Z</time></trkpt><trkpt lat="45.42996774162164" lon="11.241029537436557"><ele>30.6</ele><time>2026-04-04T12:09:32.174Z</time></trkpt><trkpt lat="45.430052029039125" lon="11.240919931741205"><ele>30.8</ele><time>2026-04-04T12:09:33.174Z</time></trkpt><trkpt lat="45.43013329009262" lon="11.240809474728353"><ele>31.0</ele><time>2026-04-04T12:09:34.174Z</time></trkpt><trkpt lat="45.43021632699393" lon="11.24069482986394"><ele>31.0</ele><time>2026-04-04T12:09:35.174Z</time></trkpt><trkpt lat="45.43030086123179" lon="11.240577107261725"><ele>31.0</ele><time>2026-04-04T12:09:36.174Z</time></trkpt><trkpt lat="45.4303871124939" lon="11.24045699524867"><ele>31.0</ele><time>2026-04-04T12:09:37.174Z</time></trkpt><trkpt lat="45.430459759760545" lon="11.240316253923268"><ele>31.0</ele><time>2026-04-04T12:09:38.174Z</time></trkpt><trkpt lat="45.43054469285642" lon="11.240193229401832"><ele>31.0</ele><time>2026-04-04T12:09:39.174Z</time></trkpt><trkpt lat="45.43062729569422" lon="11.240068461579863"><ele>31.0</ele><time>2026-04-04T12:09:40.174Z</time></trkpt><trkpt lat="45.43071336158331" lon="11.239951970887077"><ele>31.0</ele><time>2026-04-04T12:09:41.174Z</time></trkpt><trkpt lat="45.430814542967845" lon="11.239861344780875"><ele>31.0</ele><time>2026-04-04T12:09:42.174Z</time></trkpt><trkpt lat="45.43089723980981" lon="11.23974405721379"><ele>30.75</ele><time>2026-04-04T12:09:43.174Z</time></trkpt><trkpt lat="45.43097742907872" lon="11.239627828012262"><ele>30.5</ele><time>2026-04-04T12:09:44.174Z</time></trkpt><trkpt lat="45.43105453355513" lon="11.239513204134175"><ele>30.25</ele><time>2026-04-04T12:09:45.174Z</time></trkpt><trkpt lat="45.43113171479008" lon="11.239394934700275"><ele>30.0</ele><time>2026-04-04T12:09:46.174Z</time></trkpt><trkpt lat="45.43120661787422" lon="11.239269575514912"><ele>30.0</ele><time>2026-04-04T12:09:47.174Z</time></trkpt><trkpt lat="45.43127705714564" lon="11.239137879430077"><ele>30.0</ele><time>2026-04-04T12:09:48.174Z</time></trkpt><trkpt lat="45.43134385017626" lon="11.238998094581836"><ele>30.0</ele><time>2026-04-04T12:09:49.174Z</time></trkpt><trkpt lat="45.43140322440687" lon="11.238850057457134"><ele>30.0</ele><time>2026-04-04T12:09:50.174Z</time></trkpt><trkpt lat="45.4314496221545" lon="11.238687502177408"><ele>30.0</ele><time>2026-04-04T12:09:51.174Z</time></trkpt><trkpt lat="45.43147393620458" lon="11.238510881565754"><ele>30.0</ele><time>2026-04-04T12:09:52.174Z</time></trkpt><trkpt lat="45.43148977663765" lon="11.23832083974683"><ele>30.0</ele><time>2026-04-04T12:09:53.174Z</time></trkpt><trkpt lat="45.43150475907986" lon="11.238120753680215"><ele>30.0</ele><time>2026-04-04T12:09:54.174Z</time></trkpt><trkpt lat="45.43151653087808" lon="11.237923602516467"><ele>30.0</ele><time>2026-04-04T12:09:55.174Z</time></trkpt><trkpt lat="45.43151358525049" lon="11.237736527302214"><ele>30.0</ele><time>2026-04-04T12:09:56.174Z</time></trkpt><trkpt lat="45.43153295254165" lon="11.237559715142165"><ele>30.0</ele><time>2026-04-04T12:09:57.174Z</time></trkpt><trkpt lat="45.43155547277309" lon="11.237392837933076"><ele>30.0</ele><time>2026-04-04T12:09:58.174Z</time></trkpt><trkpt lat="45.431574352196236" lon="11.237226552144556"><ele>30.25</ele><time>2026-04-04T12:09:59.174Z</time></trkpt><trkpt lat="45.4315754158753" lon="11.237050666089354"><ele>30.5</ele><time>2026-04-04T12:10:00.174Z</time></trkpt><trkpt lat="45.43158059020119" lon="11.236855674497965"><ele>30.75</ele><time>2026-04-04T12:10:01.174Z</time></trkpt><trkpt lat="45.43159170146676" lon="11.236636988143788"><ele>31.0</ele><time>2026-04-04T12:10:02.174Z</time></trkpt><trkpt lat="45.43161271156066" lon="11.236393278789283"><ele>31.0</ele><time>2026-04-04T12:10:03.174Z</time></trkpt><trkpt lat="45.431627663699835" lon="11.23617121691247"><ele>31.0</ele><time>2026-04-04T12:10:04.174Z</time></trkpt><trkpt lat="45.43164815982232" lon="11.235973275815242"><ele>31.0</ele><time>2026-04-04T12:10:05.174Z</time></trkpt><trkpt lat="45.43167984042921" lon="11.235773728356065"><ele>31.0</ele><time>2026-04-04T12:10:06.174Z</time></trkpt><trkpt lat="45.431704030013265" lon="11.235577730867156"><ele>31.333333333333336</ele><time>2026-04-04T12:10:07.174Z</time></trkpt><trkpt lat="45.43176340710137" lon="11.235356411220295"><ele>31.666666666666664</ele><time>2026-04-04T12:10:08.174Z</time></trkpt><trkpt lat="45.43181375106767" lon="11.23516919209107"><ele>32.0</ele><time>2026-04-04T12:10:09.174Z</time></trkpt><trkpt lat="45.43189509975328" lon="11.234965748140974"><ele>32.0</ele><time>2026-04-04T12:10:10.174Z</time></trkpt><trkpt lat="45.43199456045097" lon="11.234745198745898"><ele>32.0</ele><time>2026-04-04T12:10:11.174Z</time></trkpt><trkpt lat="45.43210643431909" lon="11.234528722579093"><ele>32.0</ele><time>2026-04-04T12:10:12.174Z</time></trkpt><trkpt lat="45.43224184360895" lon="11.234314007304167"><ele>32.0</ele><time>2026-04-04T12:10:13.174Z</time></trkpt><trkpt lat="45.43242381432033" lon="11.234113649920578"><ele>32.0</ele><time>2026-04-04T12:10:14.174Z</time></trkpt><trkpt lat="45.43260036130508" lon="11.23387740053819"><ele>32.5</ele><time>2026-04-04T12:10:15.174Z</time></trkpt><trkpt lat="45.432814534420466" lon="11.233648777104781"><ele>33.0</ele><time>2026-04-04T12:10:16.174Z</time></trkpt><trkpt lat="45.43303225994327" lon="11.233385680944478"><ele>32.5</ele><time>2026-04-04T12:10:17.174Z</time></trkpt><trkpt lat="45.43326980486666" lon="11.233099699024478"><ele>32.0</ele><time>2026-04-04T12:10:18.174Z</time></trkpt><trkpt lat="45.43351372803969" lon="11.232803291709292"><ele>32.0</ele><time>2026-04-04T12:10:19.174Z</time></trkpt><trkpt lat="45.43373820258366" lon="11.232526430549783"><ele>32.0</ele><time>2026-04-04T12:10:20.174Z</time></trkpt><trkpt lat="45.433947628991135" lon="11.232271868653074"><ele>32.0</ele><time>2026-04-04T12:10:21.174Z</time></trkpt><trkpt lat="45.43414918799744" lon="11.232033259935024"><ele>32.0</ele><time>2026-04-04T12:10:22.174Z</time></trkpt><trkpt lat="45.43435033379758" lon="11.231785720975275"><ele>32.0</ele><time>2026-04-04T12:10:23.174Z</time></trkpt><trkpt lat="45.43455206641998" lon="11.231544525391897"><ele>32.0</ele><time>2026-04-04T12:10:24.174Z</time></trkpt><trkpt lat="45.43475455195325" lon="11.23130329046975"><ele>32.0</ele><time>2026-04-04T12:10:25.174Z</time></trkpt><trkpt lat="45.43494875810961" lon="11.231057179218373"><ele>32.0</ele><time>2026-04-04T12:10:26.174Z</time></trkpt><trkpt lat="45.43514488219705" lon="11.230816384457361"><ele>31.5</ele><time>2026-04-04T12:10:27.174Z</time></trkpt><trkpt lat="45.43534159057822" lon="11.230572965056805"><ele>31.0</ele><time>2026-04-04T12:10:28.174Z</time></trkpt><trkpt lat="45.4355437164301" lon="11.230330568758134"><ele>32.5</ele><time>2026-04-04T12:10:29.174Z</time></trkpt><trkpt lat="45.43575039517969" lon="11.230083372219678"><ele>34.0</ele><time>2026-04-04T12:10:30.174Z</time></trkpt><trkpt lat="45.435965223428795" lon="11.229828607668578"><ele>34.0</ele><time>2026-04-04T12:10:31.174Z</time></trkpt><trkpt lat="45.43619393247013" lon="11.22956116478198"><ele>34.0</ele><time>2026-04-04T12:10:32.174Z</time></trkpt><trkpt lat="45.436426234251236" lon="11.229279542901107"><ele>34.0</ele><time>2026-04-04T12:10:33.174Z</time></trkpt><trkpt lat="45.43667276186201" lon="11.228993458921959"><ele>34.0</ele><time>2026-04-04T12:10:34.174Z</time></trkpt><trkpt lat="45.436914808015025" lon="11.228698313493513"><ele>34.5</ele><time>2026-04-04T12:10:35.174Z</time></trkpt><trkpt lat="45.43713759166016" lon="11.228428645918724"><ele>35.0</ele><time>2026-04-04T12:10:36.174Z</time></trkpt><trkpt lat="45.43734277212278" lon="11.228190767157564"><ele>35.5</ele><time>2026-04-04T12:10:37.174Z</time></trkpt><trkpt lat="45.437528359674076" lon="11.227973312962522"><ele>36.0</ele><time>2026-04-04T12:10:38.174Z</time></trkpt><trkpt lat="45.43769977383606" lon="11.22777462765533"><ele>36.0</ele><time>2026-04-04T12:10:39.174Z</time></trkpt><trkpt lat="45.43786049336584" lon="11.227578263956635"><ele>36.0</ele><time>2026-04-04T12:10:40.174Z</time></trkpt><trkpt lat="45.438017344803875" lon="11.227408865659841"><ele>36.0</ele><time>2026-04-04T12:10:41.174Z</time></trkpt><trkpt lat="45.43817968019394" lon="11.227257917053485"><ele>36.0</ele><time>2026-04-04T12:10:42.174Z</time></trkpt><trkpt lat="45.438360621384525" lon="11.227136397371341"><ele>36.0</ele><time>2026-04-04T12:10:43.174Z</time></trkpt><trkpt lat="45.438548180884986" lon="11.22703227234922"><ele>36.0</ele><time>2026-04-04T12:10:44.174Z</time></trkpt><trkpt lat="45.43875896146806" lon="11.2269442957472"><ele>36.0</ele><time>2026-04-04T12:10:45.174Z</time></trkpt><trkpt lat="45.43900283923516" lon="11.226856461561773"><ele>36.0</ele><time>2026-04-04T12:10:46.174Z</time></trkpt><trkpt lat="45.43923106986302" lon="11.226752372315225"><ele>36.0</ele><time>2026-04-04T12:10:47.174Z</time></trkpt><trkpt lat="45.43947984550606" lon="11.226642395689053"><ele>36.0</ele><time>2026-04-04T12:10:48.174Z</time></trkpt><trkpt lat="45.439701701498336" lon="11.22653314304725"><ele>36.666666666666664</ele><time>2026-04-04T12:10:49.174Z</time></trkpt><trkpt lat="45.43990757640727" lon="11.22643013656719"><ele>37.33333333333333</ele><time>2026-04-04T12:10:50.174Z</time></trkpt><trkpt lat="45.44010203915755" lon="11.22633834915708"><ele>38.0</ele><time>2026-04-04T12:10:51.174Z</time></trkpt><trkpt lat="45.440272959413626" lon="11.226248754515069"><ele>38.0</ele><time>2026-04-04T12:10:52.174Z</time></trkpt><trkpt lat="45.44043325694329" lon="11.226162321012035"><ele>38.0</ele><time>2026-04-04T12:10:53.174Z</time></trkpt><trkpt lat="45.44058210157361" lon="11.226055670297585"><ele>38.0</ele><time>2026-04-04T12:10:54.174Z</time></trkpt><trkpt lat="45.44072655579013" lon="11.225913744893099"><ele>39.33333333333333</ele><time>2026-04-04T12:10:55.174Z</time></trkpt><trkpt lat="45.440870179636434" lon="11.225750012644419"><ele>40.666666666666664</ele><time>2026-04-04T12:10:56.174Z</time></trkpt><trkpt lat="45.44100684350098" lon="11.22557502775645"><ele>42.0</ele><time>2026-04-04T12:10:57.174Z</time></trkpt><trkpt lat="45.44113575092155" lon="11.2253666633724"><ele>42.333333333333336</ele><time>2026-04-04T12:10:58.174Z</time></trkpt><trkpt lat="45.44125917076562" lon="11.225127317088862"><ele>42.66666666666667</ele><time>2026-04-04T12:10:59.174Z</time></trkpt><trkpt lat="45.44139389843288" lon="11.224861673980499"><ele>43.0</ele><time>2026-04-04T12:11:00.174Z</time></trkpt><trkpt lat="45.44152875717808" lon="11.224590494173686"><ele>42.66666666666667</ele><time>2026-04-04T12:11:01.174Z</time></trkpt><trkpt lat="45.4416577469544" lon="11.224353773938804"><ele>42.333333333333336</ele><time>2026-04-04T12:11:02.174Z</time></trkpt><trkpt lat="45.441775410329164" lon="11.224124697898796"><ele>42.0</ele><time>2026-04-04T12:11:03.174Z</time></trkpt><trkpt lat="45.4418875863451" lon="11.22389200692359"><ele>42.0</ele><time>2026-04-04T12:11:04.174Z</time></trkpt><trkpt lat="45.44199022081982" lon="11.223645635152257"><ele>42.0</ele><time>2026-04-04T12:11:05.174Z</time></trkpt><trkpt lat="45.442076519569824" lon="11.223391711611109"><ele>42.0</ele><time>2026-04-04T12:11:06.174Z</time></trkpt><trkpt lat="45.4421735606752" lon="11.223139737032584"><ele>42.666666666666664</ele><time>2026-04-04T12:11:07.174Z</time></trkpt><trkpt lat="45.442271035711926" lon="11.222898633770464"><ele>43.33333333333333</ele><time>2026-04-04T12:11:08.174Z</time></trkpt><trkpt lat="45.442346800436944" lon="11.222697260187712"><ele>44.0</ele><time>2026-04-04T12:11:09.174Z</time></trkpt><trkpt lat="45.44242405833247" lon="11.222500967293056"><ele>44.0</ele><time>2026-04-04T12:11:10.174Z</time></trkpt><trkpt lat="45.442506376044165" lon="11.222329544587334"><ele>44.0</ele><time>2026-04-04T12:11:11.174Z</time></trkpt><trkpt lat="45.44259340671068" lon="11.222183588142322"><ele>44.0</ele><time>2026-04-04T12:11:12.174Z</time></trkpt><trkpt lat="45.44270148518671" lon="11.22205366097731"><ele>44.0</ele><time>2026-04-04T12:11:13.174Z</time></trkpt><trkpt lat="45.44283370084648" lon="11.221921478422543"><ele>44.33333333333333</ele><time>2026-04-04T12:11:14.174Z</time></trkpt><trkpt lat="45.4429663148976" lon="11.22179009500023"><ele>44.666666666666664</ele><time>2026-04-04T12:11:15.174Z</time></trkpt><trkpt lat="45.44313190817556" lon="11.221639084132716"><ele>45.0</ele><time>2026-04-04T12:11:16.174Z</time></trkpt><trkpt lat="45.44331323005891" lon="11.221475225783848"><ele>45.0</ele><time>2026-04-04T12:11:17.174Z</time></trkpt><trkpt lat="45.44351070056184" lon="11.221320206233345"><ele>45.0</ele><time>2026-04-04T12:11:18.174Z</time></trkpt><trkpt lat="45.44368796890071" lon="11.22118203129428"><ele>45.0</ele><time>2026-04-04T12:11:19.174Z</time></trkpt><trkpt lat="45.44384506233566" lon="11.221057386979068"><ele>46.0</ele><time>2026-04-04T12:11:20.174Z</time></trkpt><trkpt lat="45.444001222133" lon="11.22096085436146"><ele>47.0</ele><time>2026-04-04T12:11:21.174Z</time></trkpt><trkpt lat="45.44416734359514" lon="11.22088680649318"><ele>48.0</ele><time>2026-04-04T12:11:22.174Z</time></trkpt><trkpt lat="45.444348721570485" lon="11.220825062545806"><ele>48.0</ele><time>2026-04-04T12:11:23.174Z</time></trkpt><trkpt lat="45.444546265540744" lon="11.220757193770712"><ele>48.0</ele><time>2026-04-04T12:11:24.174Z</time></trkpt><trkpt lat="45.44475849409357" lon="11.220689456365395"><ele>48.0</ele><time>2026-04-04T12:11:25.174Z</time></trkpt><trkpt lat="45.444944186514455" lon="11.220629248256918"><ele>49.0</ele><time>2026-04-04T12:11:26.174Z</time></trkpt><trkpt lat="45.44511752755885" lon="11.220566520678599"><ele>50.0</ele><time>2026-04-04T12:11:27.174Z</time></trkpt><trkpt lat="45.44527356469516" lon="11.2205125760323"><ele>51.0</ele><time>2026-04-04T12:11:28.174Z</time></trkpt><trkpt lat="45.445435835472665" lon="11.220466128653777"><ele>52.0</ele><time>2026-04-04T12:11:29.174Z</time></trkpt><trkpt lat="45.445574898325255" lon="11.220414884911246"><ele>53.0</ele><time>2026-04-04T12:11:30.174Z</time></trkpt><trkpt lat="45.445718348562835" lon="11.220360805395558"><ele>54.0</ele><time>2026-04-04T12:11:31.174Z</time></trkpt><trkpt lat="45.44586726246667" lon="11.220317563611552"><ele>55.0</ele><time>2026-04-04T12:11:32.174Z</time></trkpt><trkpt lat="45.44602249205367" lon="11.220296522830795"><ele>55.0</ele><time>2026-04-04T12:11:33.174Z</time></trkpt><trkpt lat="45.446188680066506" lon="11.220292891095298"><ele>55.0</ele><time>2026-04-04T12:11:34.174Z</time></trkpt><trkpt lat="45.44636745736256" lon="11.220297740852304"><ele>55.0</ele><time>2026-04-04T12:11:35.174Z</time></trkpt><trkpt lat="45.44655634350977" lon="11.22029585518624"><ele>54.666666666666664</ele><time>2026-04-04T12:11:36.174Z</time></trkpt><trkpt lat="45.4467618354059" lon="11.220294541487283"><ele>54.33333333333333</ele><time>2026-04-04T12:11:37.174Z</time></trkpt><trkpt lat="45.446988337442384" lon="11.220300962941494"><ele>54.0</ele><time>2026-04-04T12:11:38.174Z</time></trkpt><trkpt lat="45.44721195874442" lon="11.220319303130937"><ele>54.0</ele><time>2026-04-04T12:11:39.174Z</time></trkpt><trkpt lat="45.44741783661986" lon="11.22033840739924"><ele>54.0</ele><time>2026-04-04T12:11:40.174Z</time></trkpt><trkpt lat="45.44760956774169" lon="11.220331471218408"><ele>54.0</ele><time>2026-04-04T12:11:41.174Z</time></trkpt><trkpt lat="45.447769179528876" lon="11.220329777673516"><ele>54.0</ele><time>2026-04-04T12:11:42.174Z</time></trkpt><trkpt lat="45.44790512416099" lon="11.220328880570845"><ele>54.0</ele><time>2026-04-04T12:11:43.174Z</time></trkpt><trkpt lat="45.448024488340174" lon="11.22033329345539"><ele>54.0</ele><time>2026-04-04T12:11:44.174Z</time></trkpt><trkpt lat="45.44813563689292" lon="11.220314325198357"><ele>54.0</ele><time>2026-04-04T12:11:45.174Z</time></trkpt><trkpt lat="45.44823889894924" lon="11.2202496219578"><ele>54.2</ele><time>2026-04-04T12:11:46.174Z</time></trkpt><trkpt lat="45.44832494088819" lon="11.22016324621014"><ele>54.400000000000006</ele><time>2026-04-04T12:11:47.174Z</time></trkpt><trkpt lat="45.44838970782922" lon="11.220069307257408"><ele>54.6</ele><time>2026-04-04T12:11:48.174Z</time></trkpt><trkpt lat="45.44841734895925" lon="11.219952265160307"><ele>54.8</ele><time>2026-04-04T12:11:49.174Z</time></trkpt><trkpt lat="45.448434882301214" lon="11.219790451725075"><ele>55.0</ele><time>2026-04-04T12:11:50.174Z</time></trkpt><trkpt lat="45.448464574323026" lon="11.219617959277596"><ele>55.0</ele><time>2026-04-04T12:11:51.174Z</time></trkpt><trkpt lat="45.448501775873396" lon="11.219419416635715"><ele>55.0</ele><time>2026-04-04T12:11:52.174Z</time></trkpt><trkpt lat="45.44854404048352" lon="11.21919704408592"><ele>55.0</ele><time>2026-04-04T12:11:53.174Z</time></trkpt><trkpt lat="45.44857590636243" lon="11.219009131506072"><ele>55.0</ele><time>2026-04-04T12:11:54.174Z</time></trkpt><trkpt lat="45.44862173251061" lon="11.21882826690642"><ele>55.0</ele><time>2026-04-04T12:11:55.174Z</time></trkpt><trkpt lat="45.44868822748918" lon="11.21866957700334"><ele>55.0</ele><time>2026-04-04T12:11:56.174Z</time></trkpt><trkpt lat="45.448778631165524" lon="11.218523751684081"><ele>55.0</ele><time>2026-04-04T12:11:57.174Z</time></trkpt><trkpt lat="45.44889513470744" lon="11.218394337451272"><ele>55.0</ele><time>2026-04-04T12:11:58.174Z</time></trkpt><trkpt lat="45.44904224263959" lon="11.218290466194276"><ele>55.0</ele><time>2026-04-04T12:11:59.174Z</time></trkpt><trkpt lat="45.449209764801125" lon="11.218188654879581"><ele>55.0</ele><time>2026-04-04T12:12:00.174Z</time></trkpt><trkpt lat="45.449403859600515" lon="11.218091196429533"><ele>55.0</ele><time>2026-04-04T12:12:01.174Z</time></trkpt><trkpt lat="45.44960878262247" lon="11.21798097062289"><ele>56.0</ele><time>2026-04-04T12:12:02.174Z</time></trkpt><trkpt lat="45.449833925102155" lon="11.217863715830712"><ele>57.0</ele><time>2026-04-04T12:12:03.174Z</time></trkpt><trkpt lat="45.450089792842995" lon="11.217738916387836"><ele>57.0</ele><time>2026-04-04T12:12:04.174Z</time></trkpt><trkpt lat="45.45031834183484" lon="11.217617279735363"><ele>57.0</ele><time>2026-04-04T12:12:05.174Z</time></trkpt><trkpt lat="45.450535216961455" lon="11.217509132990157"><ele>56.0</ele><time>2026-04-04T12:12:06.174Z</time></trkpt><trkpt lat="45.45073979612347" lon="11.21740565866688"><ele>55.0</ele><time>2026-04-04T12:12:07.174Z</time></trkpt><trkpt lat="45.450942276367144" lon="11.217305031514233"><ele>54.0</ele><time>2026-04-04T12:12:08.174Z</time></trkpt><trkpt lat="45.45113091591928" lon="11.217189771120491"><ele>55.33333333333333</ele><time>2026-04-04T12:12:09.174Z</time></trkpt><trkpt lat="45.45130784541735" lon="11.217069295457499"><ele>56.666666666666664</ele><time>2026-04-04T12:12:10.174Z</time></trkpt><trkpt lat="45.451485402190656" lon="11.21696656107097"><ele>58.0</ele><time>2026-04-04T12:12:11.174Z</time></trkpt><trkpt lat="45.45163981847589" lon="11.216841277950323"><ele>58.0</ele><time>2026-04-04T12:12:12.174Z</time></trkpt><trkpt lat="45.45179210360971" lon="11.216685434941912"><ele>58.0</ele><time>2026-04-04T12:12:13.174Z</time></trkpt><trkpt lat="45.451935815045644" lon="11.216492825048784"><ele>58.0</ele><time>2026-04-04T12:12:14.174Z</time></trkpt><trkpt lat="45.45208340926305" lon="11.21627796928963"><ele>58.0</ele><time>2026-04-04T12:12:15.174Z</time></trkpt><trkpt lat="45.452245444438596" lon="11.216037124579547"><ele>58.0</ele><time>2026-04-04T12:12:16.174Z</time></trkpt><trkpt lat="45.452418653157444" lon="11.215791337671162"><ele>57.0</ele><time>2026-04-04T12:12:17.174Z</time></trkpt><trkpt lat="45.452605710735135" lon="11.21553309891781"><ele>56.0</ele><time>2026-04-04T12:12:18.174Z</time></trkpt><trkpt lat="45.45279802486499" lon="11.21525829131523"><ele>57.0</ele><time>2026-04-04T12:12:19.174Z</time></trkpt><trkpt lat="45.45300435359983" lon="11.214982272912366"><ele>58.0</ele><time>2026-04-04T12:12:20.174Z</time></trkpt><trkpt lat="45.45320892338315" lon="11.21469318510326"><ele>58.0</ele><time>2026-04-04T12:12:21.174Z</time></trkpt><trkpt lat="45.45339183430494" lon="11.214431195671196"><ele>58.0</ele><time>2026-04-04T12:12:22.174Z</time></trkpt><trkpt lat="45.45356780493969" lon="11.214180550664885"><ele>58.0</ele><time>2026-04-04T12:12:23.174Z</time></trkpt><trkpt lat="45.45373559064731" lon="11.213953273847531"><ele>58.0</ele><time>2026-04-04T12:12:24.174Z</time></trkpt><trkpt lat="45.453889280171026" lon="11.213723779482768"><ele>58.666666666666664</ele><time>2026-04-04T12:12:25.174Z</time></trkpt><trkpt lat="45.45404496842473" lon="11.213505350366836"><ele>59.33333333333333</ele><time>2026-04-04T12:12:26.174Z</time></trkpt><trkpt lat="45.454186680698605" lon="11.21330009691707"><ele>60.0</ele><time>2026-04-04T12:12:27.174Z</time></trkpt><trkpt lat="45.45432661199076" lon="11.213098611458229"><ele>60.33333333333333</ele><time>2026-04-04T12:12:28.174Z</time></trkpt><trkpt lat="45.45446435333289" lon="11.212903768735922"><ele>60.666666666666664</ele><time>2026-04-04T12:12:29.174Z</time></trkpt><trkpt lat="45.454610160431926" lon="11.212700568628135"><ele>61.0</ele><time>2026-04-04T12:12:30.174Z</time></trkpt><trkpt lat="45.45476006442624" lon="11.21249753270661"><ele>60.666666666666664</ele><time>2026-04-04T12:12:31.174Z</time></trkpt><trkpt lat="45.45490362849456" lon="11.212298026816024"><ele>60.33333333333333</ele><time>2026-04-04T12:12:32.174Z</time></trkpt><trkpt lat="45.45503829771608" lon="11.21211119525667"><ele>60.0</ele><time>2026-04-04T12:12:33.174Z</time></trkpt><trkpt lat="45.45515949820039" lon="11.211937317720071"><ele>60.0</ele><time>2026-04-04T12:12:34.174Z</time></trkpt><trkpt lat="45.455294827394255" lon="11.211763025379991"><ele>60.0</ele><time>2026-04-04T12:12:35.174Z</time></trkpt><trkpt lat="45.45543886350996" lon="11.211598105025628"><ele>60.0</ele><time>2026-04-04T12:12:36.174Z</time></trkpt><trkpt lat="45.455592522122316" lon="11.211447436992712"><ele>60.0</ele><time>2026-04-04T12:12:37.174Z</time></trkpt><trkpt lat="45.455746099259144" lon="11.21130741915927"><ele>60.0</ele><time>2026-04-04T12:12:38.174Z</time></trkpt><trkpt lat="45.45590664825988" lon="11.211168579471483"><ele>60.0</ele><time>2026-04-04T12:12:39.174Z</time></trkpt><trkpt lat="45.45605853519235" lon="11.211021102848834"><ele>60.0</ele><time>2026-04-04T12:12:40.174Z</time></trkpt><trkpt lat="45.45621921416457" lon="11.21087026799915"><ele>60.0</ele><time>2026-04-04T12:12:41.174Z</time></trkpt><trkpt lat="45.45637876914332" lon="11.210717378973314"><ele>60.0</ele><time>2026-04-04T12:12:42.174Z</time></trkpt><trkpt lat="45.45654791112476" lon="11.210565077077375"><ele>61.0</ele><time>2026-04-04T12:12:43.174Z</time></trkpt><trkpt lat="45.456719193442936" lon="11.210406967452752"><ele>62.0</ele><time>2026-04-04T12:12:44.174Z</time></trkpt><trkpt lat="45.45689333011868" lon="11.210247425681995"><ele>63.0</ele><time>2026-04-04T12:12:45.174Z</time></trkpt><trkpt lat="45.457075415788466" lon="11.210088119879098"><ele>63.33333333333333</ele><time>2026-04-04T12:12:46.174Z</time></trkpt><trkpt lat="45.45726170177734" lon="11.209919741380874"><ele>63.666666666666664</ele><time>2026-04-04T12:12:47.174Z</time></trkpt><trkpt lat="45.45744041126995" lon="11.20974935933852"><ele>64.0</ele><time>2026-04-04T12:12:48.174Z</time></trkpt><trkpt lat="45.45760038257685" lon="11.209574228890126"><ele>64.33333333333333</ele><time>2026-04-04T12:12:49.174Z</time></trkpt><trkpt lat="45.45774550956311" lon="11.209409453335695"><ele>64.66666666666667</ele><time>2026-04-04T12:12:50.174Z</time></trkpt><trkpt lat="45.45789560298117" lon="11.20922850227208"><ele>65.0</ele><time>2026-04-04T12:12:51.174Z</time></trkpt><trkpt lat="45.458039019146376" lon="11.209039759291642"><ele>65.33333333333334</ele><time>2026-04-04T12:12:52.174Z</time></trkpt><trkpt lat="45.4581996290399" lon="11.20886688447866"><ele>65.66666666666667</ele><time>2026-04-04T12:12:53.174Z</time></trkpt><trkpt lat="45.45835132912123" lon="11.208677906559737"><ele>66.0</ele><time>2026-04-04T12:12:54.174Z</time></trkpt><trkpt lat="45.45850545335997" lon="11.20848370753992"><ele>66.0</ele><time>2026-04-04T12:12:55.174Z</time></trkpt><trkpt lat="45.45865260587249" lon="11.208265346409535"><ele>66.0</ele><time>2026-04-04T12:12:56.174Z</time></trkpt><trkpt lat="45.45881135228511" lon="11.208065200704345"><ele>66.0</ele><time>2026-04-04T12:12:57.174Z</time></trkpt><trkpt lat="45.458969836001714" lon="11.207877007316135"><ele>66.66666666666667</ele><time>2026-04-04T12:12:58.174Z</time></trkpt><trkpt lat="45.45911243716013" lon="11.207692378276704"><ele>67.33333333333334</ele><time>2026-04-04T12:12:59.174Z</time></trkpt><trkpt lat="45.45925440233258" lon="11.207535450586764"><ele>68.0</ele><time>2026-04-04T12:13:00.174Z</time></trkpt><trkpt lat="45.45938436312039" lon="11.20737301118503"><ele>69.0</ele><time>2026-04-04T12:13:01.174Z</time></trkpt><trkpt lat="45.45951554792042" lon="11.207209894758567"><ele>70.0</ele><time>2026-04-04T12:13:02.174Z</time></trkpt><trkpt lat="45.459652309270325" lon="11.207039844812641"><ele>71.0</ele><time>2026-04-04T12:13:03.174Z</time></trkpt><trkpt lat="45.45979677808008" lon="11.206857733716474"><ele>71.33333333333334</ele><time>2026-04-04T12:13:04.174Z</time></trkpt><trkpt lat="45.459967995063124" lon="11.206715343786653"><ele>71.66666666666667</ele><time>2026-04-04T12:13:05.174Z</time></trkpt><trkpt lat="45.460148106008646" lon="11.206593300005133"><ele>72.0</ele><time>2026-04-04T12:13:06.174Z</time></trkpt><trkpt lat="45.460325001921" lon="11.206486162216054"><ele>72.66666666666667</ele><time>2026-04-04T12:13:07.174Z</time></trkpt><trkpt lat="45.46050048456399" lon="11.206404566171694"><ele>73.33333333333334</ele><time>2026-04-04T12:13:08.174Z</time></trkpt><trkpt lat="45.460696473871664" lon="11.206338765939892"><ele>74.0</ele><time>2026-04-04T12:13:09.174Z</time></trkpt><trkpt lat="45.46091031898793" lon="11.20628188244811"><ele>74.0</ele><time>2026-04-04T12:13:10.174Z</time></trkpt><trkpt lat="45.461130872826104" lon="11.206217391894981"><ele>74.0</ele><time>2026-04-04T12:13:11.174Z</time></trkpt><trkpt lat="45.461359127645075" lon="11.206142757114717"><ele>76.0</ele><time>2026-04-04T12:13:12.174Z</time></trkpt><trkpt lat="45.461592535540724" lon="11.206072193742397"><ele>78.0</ele><time>2026-04-04T12:13:13.174Z</time></trkpt><trkpt lat="45.461801049182014" lon="11.206007350054872"><ele>78.0</ele><time>2026-04-04T12:13:14.174Z</time></trkpt><trkpt lat="45.46199797075112" lon="11.205950852430773"><ele>78.0</ele><time>2026-04-04T12:13:15.174Z</time></trkpt><trkpt lat="45.4621861246019" lon="11.20590270422763"><ele>78.0</ele><time>2026-04-04T12:13:16.174Z</time></trkpt><trkpt lat="45.46236784611934" lon="11.205850751328285"><ele>78.33333333333333</ele><time>2026-04-04T12:13:17.174Z</time></trkpt><trkpt lat="45.462553440676054" lon="11.205781542733785"><ele>78.66666666666666</ele><time>2026-04-04T12:13:18.174Z</time></trkpt><trkpt lat="45.46274081809964" lon="11.205728322708389"><ele>79.0</ele><time>2026-04-04T12:13:19.174Z</time></trkpt><trkpt lat="45.462934471700855" lon="11.205689944970032"><ele>78.66666666666666</ele><time>2026-04-04T12:13:20.174Z</time></trkpt><trkpt lat="45.46311133927233" lon="11.205663790005813"><ele>78.33333333333333</ele><time>2026-04-04T12:13:21.174Z</time></trkpt><trkpt lat="45.46330133699413" lon="11.205649827309564"><ele>78.0</ele><time>2026-04-04T12:13:22.174Z</time></trkpt><trkpt lat="45.46348836085727" lon="11.205657201589373"><ele>78.0</ele><time>2026-04-04T12:13:23.174Z</time></trkpt><trkpt lat="45.463693038536" lon="11.205696209441978"><ele>78.0</ele><time>2026-04-04T12:13:24.174Z</time></trkpt><trkpt lat="45.46388506753168" lon="11.20575240214856"><ele>78.0</ele><time>2026-04-04T12:13:25.174Z</time></trkpt><trkpt lat="45.46406497060153" lon="11.205821609579644"><ele>79.0</ele><time>2026-04-04T12:13:26.174Z</time></trkpt><trkpt lat="45.46423572614529" lon="11.205895347251376"><ele>80.0</ele><time>2026-04-04T12:13:27.174Z</time></trkpt><trkpt lat="45.46440028597428" lon="11.205969161240356"><ele>81.0</ele><time>2026-04-04T12:13:28.174Z</time></trkpt><trkpt lat="45.46455550991391" lon="11.206061104453909"><ele>81.33333333333333</ele><time>2026-04-04T12:13:29.174Z</time></trkpt><trkpt lat="45.464702470912506" lon="11.206146731665301"><ele>81.66666666666666</ele><time>2026-04-04T12:13:30.174Z</time></trkpt><trkpt lat="45.46484535190366" lon="11.206228424527726"><ele>82.0</ele><time>2026-04-04T12:13:31.174Z</time></trkpt><trkpt lat="45.46498480687347" lon="11.20629720944355"><ele>82.0</ele><time>2026-04-04T12:13:32.174Z</time></trkpt><trkpt lat="45.465133032108305" lon="11.206341685523912"><ele>82.0</ele><time>2026-04-04T12:13:33.174Z</time></trkpt><trkpt lat="45.46527586628073" lon="11.206379342096252"><ele>82.0</ele><time>2026-04-04T12:13:34.174Z</time></trkpt><trkpt lat="45.465427110527145" lon="11.206396394033197"><ele>82.0</ele><time>2026-04-04T12:13:35.174Z</time></trkpt><trkpt lat="45.465587800941385" lon="11.206409902221921"><ele>82.25</ele><time>2026-04-04T12:13:36.174Z</time></trkpt><trkpt lat="45.46573731658665" lon="11.20640178440571"><ele>82.5</ele><time>2026-04-04T12:13:37.174Z</time></trkpt><trkpt lat="45.4658775527573" lon="11.20639994925843"><ele>82.75</ele><time>2026-04-04T12:13:38.174Z</time></trkpt><trkpt lat="45.46601524178325" lon="11.20639578277477"><ele>83.0</ele><time>2026-04-04T12:13:39.174Z</time></trkpt><trkpt lat="45.466147682588435" lon="11.206389742493515"><ele>83.0</ele><time>2026-04-04T12:13:40.174Z</time></trkpt><trkpt lat="45.466289004633325" lon="11.20639098296414"><ele>83.0</ele><time>2026-04-04T12:13:41.174Z</time></trkpt><trkpt lat="45.46643736565368" lon="11.206379056531398"><ele>83.0</ele><time>2026-04-04T12:13:42.174Z</time></trkpt><trkpt lat="45.4665915020365" lon="11.206398543790382"><ele>83.0</ele><time>2026-04-04T12:13:43.174Z</time></trkpt><trkpt lat="45.466752856449375" lon="11.206432466680997"><ele>83.0</ele><time>2026-04-04T12:13:44.174Z</time></trkpt><trkpt lat="45.46692601645368" lon="11.206477020990343"><ele>83.0</ele><time>2026-04-04T12:13:45.174Z</time></trkpt><trkpt lat="45.46711791616201" lon="11.206536916049036"><ele>83.0</ele><time>2026-04-04T12:13:46.174Z</time></trkpt><trkpt lat="45.4673183777914" lon="11.206628007569002"><ele>83.5</ele><time>2026-04-04T12:13:47.174Z</time></trkpt><trkpt lat="45.46754180395295" lon="11.20672465494794"><ele>84.0</ele><time>2026-04-04T12:13:48.174Z</time></trkpt><trkpt lat="45.46775187278835" lon="11.206819005768004"><ele>84.0</ele><time>2026-04-04T12:13:49.174Z</time></trkpt><trkpt lat="45.467943347439125" lon="11.20690598742066"><ele>84.0</ele><time>2026-04-04T12:13:50.174Z</time></trkpt><trkpt lat="45.468123898949266" lon="11.206967409547234"><ele>84.0</ele><time>2026-04-04T12:13:51.174Z</time></trkpt><trkpt lat="45.46829636107767" lon="11.207017492497117"><ele>85.0</ele><time>2026-04-04T12:13:52.174Z</time></trkpt><trkpt lat="45.46846234124144" lon="11.207050044445099"><ele>86.0</ele><time>2026-04-04T12:13:53.174Z</time></trkpt><trkpt lat="45.468621950906105" lon="11.207055699623949"><ele>87.0</ele><time>2026-04-04T12:13:54.174Z</time></trkpt><trkpt lat="45.46877093633879" lon="11.207042968098895"><ele>87.75</ele><time>2026-04-04T12:13:55.174Z</time></trkpt><trkpt lat="45.46890944595073" lon="11.20701738683324"><ele>88.5</ele><time>2026-04-04T12:13:56.174Z</time></trkpt><trkpt lat="45.46904070850593" lon="11.206969781388816"><ele>89.25</ele><time>2026-04-04T12:13:57.174Z</time></trkpt><trkpt lat="45.46916819125303" lon="11.206918490548286"><ele>90.0</ele><time>2026-04-04T12:13:58.174Z</time></trkpt><trkpt lat="45.46929643840577" lon="11.206832163911185"><ele>90.0</ele><time>2026-04-04T12:13:59.174Z</time></trkpt><trkpt lat="45.46941575394427" lon="11.206740810448268"><ele>90.0</ele><time>2026-04-04T12:14:00.174Z</time></trkpt><trkpt lat="45.46953351559817" lon="11.206623906674407"><ele>90.0</ele><time>2026-04-04T12:14:01.174Z</time></trkpt><trkpt lat="45.46963369404087" lon="11.206502502636459"><ele>90.0</ele><time>2026-04-04T12:14:02.174Z</time></trkpt><trkpt lat="45.469739471351936" lon="11.206375941979438"><ele>91.33333333333333</ele><time>2026-04-04T12:14:03.174Z</time></trkpt><trkpt lat="45.469842804382814" lon="11.206234404992506"><ele>92.66666666666666</ele><time>2026-04-04T12:14:04.174Z</time></trkpt><trkpt lat="45.46993198716297" lon="11.206064733966105"><ele>94.0</ele><time>2026-04-04T12:14:05.174Z</time></trkpt><trkpt lat="45.470051191953345" lon="11.205904916432702"><ele>94.0</ele><time>2026-04-04T12:14:06.174Z</time></trkpt><trkpt lat="45.470158221149184" lon="11.205753605073385"><ele>94.0</ele><time>2026-04-04T12:14:07.174Z</time></trkpt><trkpt lat="45.47026534065275" lon="11.205624745420398"><ele>94.0</ele><time>2026-04-04T12:14:08.174Z</time></trkpt><trkpt lat="45.47035400688404" lon="11.205495322945996"><ele>94.0</ele><time>2026-04-04T12:14:09.174Z</time></trkpt><trkpt lat="45.47044883049423" lon="11.205388150575537"><ele>94.25</ele><time>2026-04-04T12:14:10.174Z</time></trkpt><trkpt lat="45.47055296568145" lon="11.205303739776884"><ele>94.5</ele><time>2026-04-04T12:14:11.174Z</time></trkpt><trkpt lat="45.47063242626516" lon="11.20518763194627"><ele>94.75</ele><time>2026-04-04T12:14:12.174Z</time></trkpt><trkpt lat="45.4707117784801" lon="11.2050427924793"><ele>95.0</ele><time>2026-04-04T12:14:13.174Z</time></trkpt><trkpt lat="45.47078534142868" lon="11.204913601209231"><ele>95.0</ele><time>2026-04-04T12:14:14.174Z</time></trkpt><trkpt lat="45.47091145494565" lon="11.204720513913413"><ele>95.0</ele><time>2026-04-04T12:14:15.174Z</time></trkpt><trkpt lat="45.47101050156384" lon="11.20459380147237"><ele>95.0</ele><time>2026-04-04T12:14:16.174Z</time></trkpt><trkpt lat="45.47112435316882" lon="11.2044751220045"><ele>95.0</ele><time>2026-04-04T12:14:17.174Z</time></trkpt><trkpt lat="45.471253878096185" lon="11.204379650081078"><ele>95.0</ele><time>2026-04-04T12:14:18.174Z</time></trkpt><trkpt lat="45.471377068451964" lon="11.204285675710707"><ele>95.0</ele><time>2026-04-04T12:14:19.174Z</time></trkpt><trkpt lat="45.47148968706952" lon="11.204198560460394"><ele>95.0</ele><time>2026-04-04T12:14:20.174Z</time></trkpt><trkpt lat="45.471589317710176" lon="11.20410804182145"><ele>95.5</ele><time>2026-04-04T12:14:21.174Z</time></trkpt><trkpt lat="45.47166784748283" lon="11.203991207523787"><ele>96.0</ele><time>2026-04-04T12:14:22.174Z</time></trkpt><trkpt lat="45.47175876044973" lon="11.20389489592184"><ele>96.5</ele><time>2026-04-04T12:14:23.174Z</time></trkpt><trkpt lat="45.47187080563111" lon="11.203809903367677"><ele>97.0</ele><time>2026-04-04T12:14:24.174Z</time></trkpt><trkpt lat="45.471999886186616" lon="11.203717341408783"><ele>98.0</ele><time>2026-04-04T12:14:25.174Z</time></trkpt><trkpt lat="45.47214019294481" lon="11.203629527804987"><ele>99.0</ele><time>2026-04-04T12:14:26.174Z</time></trkpt><trkpt lat="45.472300033786" lon="11.203536600800692"><ele>100.0</ele><time>2026-04-04T12:14:27.174Z</time></trkpt><trkpt lat="45.472469124816065" lon="11.203461316064578"><ele>100.0</ele><time>2026-04-04T12:14:28.174Z</time></trkpt><trkpt lat="45.47262659388692" lon="11.203385835509193"><ele>100.0</ele><time>2026-04-04T12:14:29.174Z</time></trkpt><trkpt lat="45.47276597081554" lon="11.20329735172053"><ele>100.0</ele><time>2026-04-04T12:14:30.174Z</time></trkpt><trkpt lat="45.47289681440506" lon="11.203243752570712"><ele>100.5</ele><time>2026-04-04T12:14:31.174Z</time></trkpt><trkpt lat="45.47302906359853" lon="11.203169042384275"><ele>101.0</ele><time>2026-04-04T12:14:32.174Z</time></trkpt><trkpt lat="45.47316543954361" lon="11.203111826358011"><ele>101.5</ele><time>2026-04-04T12:14:33.174Z</time></trkpt><trkpt lat="45.473305690198934" lon="11.203049227400568"><ele>102.0</ele><time>2026-04-04T12:14:34.174Z</time></trkpt><trkpt lat="45.473464307566466" lon="11.203015300805609"><ele>102.0</ele><time>2026-04-04T12:14:35.174Z</time></trkpt><trkpt lat="45.47362738528583" lon="11.202951191325594"><ele>102.0</ele><time>2026-04-04T12:14:36.174Z</time></trkpt><trkpt lat="45.4737908007808" lon="11.202911270469498"><ele>102.0</ele><time>2026-04-04T12:14:37.174Z</time></trkpt><trkpt lat="45.4739488943095" lon="11.2028897760834"><ele>102.66666666666666</ele><time>2026-04-04T12:14:38.174Z</time></trkpt><trkpt lat="45.47410404048343" lon="11.202871979414951"><ele>103.33333333333333</ele><time>2026-04-04T12:14:39.174Z</time></trkpt><trkpt lat="45.47425041521427" lon="11.202845643442402"><ele>104.0</ele><time>2026-04-04T12:14:40.174Z</time></trkpt><trkpt lat="45.47440108437436" lon="11.202812129175346"><ele>104.0</ele><time>2026-04-04T12:14:41.174Z</time></trkpt><trkpt lat="45.47455592005054" lon="11.202772515561174"><ele>104.0</ele><time>2026-04-04T12:14:42.174Z</time></trkpt><trkpt lat="45.47470377133863" lon="11.202709768190559"><ele>104.0</ele><time>2026-04-04T12:14:43.174Z</time></trkpt><trkpt lat="45.474864828394004" lon="11.202649574175313"><ele>104.0</ele><time>2026-04-04T12:14:44.174Z</time></trkpt><trkpt lat="45.47502500051511" lon="11.202566835215599"><ele>104.0</ele><time>2026-04-04T12:14:45.174Z</time></trkpt><trkpt lat="45.47516956193134" lon="11.202521114051946"><ele>104.0</ele><time>2026-04-04T12:14:46.174Z</time></trkpt><trkpt lat="45.47533901283886" lon="11.20248527781354"><ele>104.66666666666666</ele><time>2026-04-04T12:14:47.174Z</time></trkpt><trkpt lat="45.4755015802017" lon="11.20242476909577"><ele>105.33333333333334</ele><time>2026-04-04T12:14:48.174Z</time></trkpt><trkpt lat="45.4756643888697" lon="11.20234672726613"><ele>106.0</ele><time>2026-04-04T12:14:49.174Z</time></trkpt><trkpt lat="45.47583883462645" lon="11.20224956464609"><ele>106.0</ele><time>2026-04-04T12:14:50.175Z</time></trkpt><trkpt lat="45.47604442034119" lon="11.202143546906328"><ele>106.0</ele><time>2026-04-04T12:14:51.175Z</time></trkpt><trkpt lat="45.47622128104016" lon="11.202070414631338"><ele>106.0</ele><time>2026-04-04T12:14:52.175Z</time></trkpt><trkpt lat="45.476398498092735" lon="11.201999089096788"><ele>106.66666666666667</ele><time>2026-04-04T12:14:53.175Z</time></trkpt><trkpt lat="45.47655078453383" lon="11.201933959776671"><ele>107.33333333333334</ele><time>2026-04-04T12:14:54.175Z</time></trkpt><trkpt lat="45.476704665706514" lon="11.201866380628037"><ele>108.0</ele><time>2026-04-04T12:14:55.175Z</time></trkpt><trkpt lat="45.47684908227584" lon="11.201792612046088"><ele>108.0</ele><time>2026-04-04T12:14:56.175Z</time></trkpt><trkpt lat="45.47699205955746" lon="11.20170126184021"><ele>108.0</ele><time>2026-04-04T12:14:57.175Z</time></trkpt><trkpt lat="45.477135912012955" lon="11.20160714902446"><ele>108.0</ele><time>2026-04-04T12:14:58.175Z</time></trkpt><trkpt lat="45.47731339701442" lon="11.201495114188901"><ele>108.66666666666666</ele><time>2026-04-04T12:14:59.175Z</time></trkpt><trkpt lat="45.4774867027018" lon="11.201405547749587"><ele>109.33333333333333</ele><time>2026-04-04T12:15:00.175Z</time></trkpt><trkpt lat="45.47765580568104" lon="11.201329468273341"><ele>110.0</ele><time>2026-04-04T12:15:01.175Z</time></trkpt><trkpt lat="45.477819467766835" lon="11.201220256764698"><ele>110.25</ele><time>2026-04-04T12:15:02.175Z</time></trkpt><trkpt lat="45.4779726648377" lon="11.20114872721684"><ele>110.5</ele><time>2026-04-04T12:15:03.175Z</time></trkpt><trkpt lat="45.47811179248703" lon="11.2010991207877"><ele>110.75</ele><time>2026-04-04T12:15:04.175Z</time></trkpt><trkpt lat="45.47824658291098" lon="11.201056980992162"><ele>111.0</ele><time>2026-04-04T12:15:05.175Z</time></trkpt><trkpt lat="45.47836051769873" lon="11.201014129742102"><ele>111.0</ele><time>2026-04-04T12:15:06.175Z</time></trkpt><trkpt lat="45.4784592679893" lon="11.200970696171712"><ele>111.0</ele><time>2026-04-04T12:15:07.175Z</time></trkpt><trkpt lat="45.478574248451885" lon="11.200955887262559"><ele>111.0</ele><time>2026-04-04T12:15:08.175Z</time></trkpt><trkpt lat="45.47869786682178" lon="11.200988054294296"><ele>111.0</ele><time>2026-04-04T12:15:09.175Z</time></trkpt><trkpt lat="45.47883037010139" lon="11.201046679083078"><ele>112.66666666666666</ele><time>2026-04-04T12:15:10.175Z</time></trkpt><trkpt lat="45.47897539861326" lon="11.201077866930147"><ele>114.33333333333333</ele><time>2026-04-04T12:15:11.175Z</time></trkpt><trkpt lat="45.479141085510754" lon="11.201093342011806"><ele>116.0</ele><time>2026-04-04T12:15:12.175Z</time></trkpt><trkpt lat="45.47930312236434" lon="11.201099564884377"><ele>116.0</ele><time>2026-04-04T12:15:13.175Z</time></trkpt><trkpt lat="45.47943395664141" lon="11.201093785442563"><ele>116.0</ele><time>2026-04-04T12:15:14.175Z</time></trkpt><trkpt lat="45.47955758978041" lon="11.201072317683701"><ele>116.0</ele><time>2026-04-04T12:15:15.175Z</time></trkpt><trkpt lat="45.47962554655209" lon="11.201046515305894"><ele>116.0</ele><time>2026-04-04T12:15:16.175Z</time></trkpt><trkpt lat="45.479708148798736" lon="11.200990477638928"><ele>116.0</ele><time>2026-04-04T12:15:17.175Z</time></trkpt><trkpt lat="45.47977467087671" lon="11.200895237266709"><ele>117.0</ele><time>2026-04-04T12:15:18.175Z</time></trkpt><trkpt lat="45.47980465932031" lon="11.200768697702745"><ele>118.0</ele><time>2026-04-04T12:15:19.175Z</time></trkpt><trkpt lat="45.47977360857301" lon="11.200632231436474"><ele>119.0</ele><time>2026-04-04T12:15:20.175Z</time></trkpt><trkpt lat="45.47975919731177" lon="11.200482239740204"><ele>120.0</ele><time>2026-04-04T12:15:21.175Z</time></trkpt><trkpt lat="45.4797316040997" lon="11.200293720901476"><ele>121.0</ele><time>2026-04-04T12:15:22.175Z</time></trkpt><trkpt lat="45.47970397435528" lon="11.200119218254933"><ele>121.0</ele><time>2026-04-04T12:15:23.175Z</time></trkpt><trkpt lat="45.479680971033396" lon="11.199987325275977"><ele>121.0</ele><time>2026-04-04T12:15:24.175Z</time></trkpt><trkpt lat="45.47970712120957" lon="11.19984290944684"><ele>121.0</ele><time>2026-04-04T12:15:26.175Z</time></trkpt><trkpt lat="45.479822921577316" lon="11.199814448108791"><ele>121.0</ele><time>2026-04-04T12:15:28.175Z</time></trkpt><trkpt lat="45.479921811225964" lon="11.199813022117821"><ele>121.0</ele><time>2026-04-04T12:15:29.175Z</time></trkpt><trkpt lat="45.48005107740658" lon="11.199788122780609"><ele>120.33333333333334</ele><time>2026-04-04T12:15:30.175Z</time></trkpt><trkpt lat="45.480221158644255" lon="11.199765721284132"><ele>119.66666666666666</ele><time>2026-04-04T12:15:31.175Z</time></trkpt><trkpt lat="45.480443841091365" lon="11.199722815927606"><ele>119.0</ele><time>2026-04-04T12:15:32.175Z</time></trkpt><trkpt lat="45.480635001643115" lon="11.199679743498006"><ele>120.0</ele><time>2026-04-04T12:15:33.175Z</time></trkpt><trkpt lat="45.48076275268935" lon="11.19965888360414"><ele>121.0</ele><time>2026-04-04T12:15:34.175Z</time></trkpt><trkpt lat="45.4808559432625" lon="11.199632818043431"><ele>122.0</ele><time>2026-04-04T12:15:35.175Z</time></trkpt><trkpt lat="45.48092338358359" lon="11.199621143642792"><ele>123.0</ele><time>2026-04-04T12:15:36.175Z</time></trkpt><trkpt lat="45.481020528447296" lon="11.199464509309173"><ele>124.0</ele><time>2026-04-04T12:15:38.175Z</time></trkpt><trkpt lat="45.481044849593836" lon="11.199324457249944"><ele>124.0</ele><time>2026-04-04T12:15:39.175Z</time></trkpt><trkpt lat="45.48105582756204" lon="11.199126768123488"><ele>124.0</ele><time>2026-04-04T12:15:40.175Z</time></trkpt><trkpt lat="45.481095668074076" lon="11.198890262257683"><ele>124.0</ele><time>2026-04-04T12:15:41.175Z</time></trkpt><trkpt lat="45.48115326879179" lon="11.198594213896603"><ele>124.66666666666667</ele><time>2026-04-04T12:15:42.175Z</time></trkpt><trkpt lat="45.48118894599345" lon="11.198333680878546"><ele>125.33333333333334</ele><time>2026-04-04T12:15:43.175Z</time></trkpt><trkpt lat="45.48121644912078" lon="11.198114130120304"><ele>126.0</ele><time>2026-04-04T12:15:44.175Z</time></trkpt><trkpt lat="45.481243524461945" lon="11.197961914990804"><ele>127.8</ele><time>2026-04-04T12:15:45.175Z</time></trkpt><trkpt lat="45.481260351885915" lon="11.19784363426001"><ele>129.6</ele><time>2026-04-04T12:15:46.175Z</time></trkpt><trkpt lat="45.48127393938893" lon="11.197718023203711"><ele>131.4</ele><time>2026-04-04T12:15:47.175Z</time></trkpt><trkpt lat="45.481265999337325" lon="11.197608531983837"><ele>133.2</ele><time>2026-04-04T12:15:48.175Z</time></trkpt><trkpt lat="45.48121161506899" lon="11.197497386888788"><ele>135.0</ele><time>2026-04-04T12:15:49.175Z</time></trkpt><trkpt lat="45.481106207259025" lon="11.19740384066761"><ele>140.33333333333334</ele><time>2026-04-04T12:15:50.175Z</time></trkpt><trkpt lat="45.48099104267306" lon="11.197306086093159"><ele>145.66666666666669</ele><time>2026-04-04T12:15:51.175Z</time></trkpt><trkpt lat="45.48083963001793" lon="11.197263744159464"><ele>151.0</ele><time>2026-04-04T12:15:52.175Z</time></trkpt><trkpt lat="45.48064324178233" lon="11.19724672760507"><ele>151.0</ele><time>2026-04-04T12:15:53.175Z</time></trkpt><trkpt lat="45.48048762663537" lon="11.197249169273585"><ele>151.0</ele><time>2026-04-04T12:15:54.175Z</time></trkpt><trkpt lat="45.4803464896396" lon="11.197255982157436"><ele>151.0</ele><time>2026-04-04T12:15:55.175Z</time></trkpt><trkpt lat="45.480236081088925" lon="11.197267241594755"><ele>151.0</ele><time>2026-04-04T12:15:56.175Z</time></trkpt><trkpt lat="45.480155162618686" lon="11.197275168114102"><ele>151.6</ele><time>2026-04-04T12:15:57.175Z</time></trkpt><trkpt lat="45.48009119909235" lon="11.19727312563055"><ele>152.2</ele><time>2026-04-04T12:15:58.175Z</time></trkpt><trkpt lat="45.48002708865502" lon="11.19718634727789"><ele>152.8</ele><time>2026-04-04T12:16:00.175Z</time></trkpt><trkpt lat="45.480128716280454" lon="11.1970554999543"><ele>153.4</ele><time>2026-04-04T12:16:02.175Z</time></trkpt><trkpt lat="45.48023035746002" lon="11.197047915903779"><ele>154.0</ele><time>2026-04-04T12:16:03.175Z</time></trkpt><trkpt lat="45.48033025944663" lon="11.19704498643807"><ele>153.0</ele><time>2026-04-04T12:16:04.175Z</time></trkpt><trkpt lat="45.480471817334745" lon="11.19699406944962"><ele>152.0</ele><time>2026-04-04T12:16:05.175Z</time></trkpt><trkpt lat="45.48063253712246" lon="11.196934334088075"><ele>151.0</ele><time>2026-04-04T12:16:06.175Z</time></trkpt><trkpt lat="45.48084198806038" lon="11.196851388418777"><ele>151.0</ele><time>2026-04-04T12:16:07.175Z</time></trkpt><trkpt lat="45.48102117548927" lon="11.196780888378761"><ele>151.0</ele><time>2026-04-04T12:16:08.175Z</time></trkpt><trkpt lat="45.48119631865391" lon="11.196736902456063"><ele>151.0</ele><time>2026-04-04T12:16:09.175Z</time></trkpt><trkpt lat="45.48139527390403" lon="11.19670724298139"><ele>150.66666666666669</ele><time>2026-04-04T12:16:10.175Z</time></trkpt><trkpt lat="45.48162317491396" lon="11.196705676193252"><ele>150.33333333333334</ele><time>2026-04-04T12:16:11.175Z</time></trkpt><trkpt lat="45.481813427527086" lon="11.196722322923643"><ele>150.0</ele><time>2026-04-04T12:16:12.175Z</time></trkpt><trkpt lat="45.4819804875388" lon="11.19670976039385"><ele>150.6</ele><time>2026-04-04T12:16:13.175Z</time></trkpt><trkpt lat="45.48211480949601" lon="11.196679211786126"><ele>151.2</ele><time>2026-04-04T12:16:14.175Z</time></trkpt><trkpt lat="45.482229674406945" lon="11.196669586486944"><ele>151.8</ele><time>2026-04-04T12:16:15.175Z</time></trkpt><trkpt lat="45.48233143035965" lon="11.196658236747167"><ele>152.4</ele><time>2026-04-04T12:16:16.175Z</time></trkpt><trkpt lat="45.48240727367153" lon="11.196607040922144"><ele>153.0</ele><time>2026-04-04T12:16:17.175Z</time></trkpt><trkpt lat="45.48246964735201" lon="11.196523244046583"><ele>156.2</ele><time>2026-04-04T12:16:18.175Z</time></trkpt><trkpt lat="45.482505238240044" lon="11.19642391553638"><ele>159.4</ele><time>2026-04-04T12:16:19.175Z</time></trkpt><trkpt lat="45.48249171425563" lon="11.196307255372764"><ele>162.6</ele><time>2026-04-04T12:16:20.175Z</time></trkpt><trkpt lat="45.48243728699025" lon="11.196212407994002"><ele>165.79999999999998</ele><time>2026-04-04T12:16:21.175Z</time></trkpt><trkpt lat="45.48234254180756" lon="11.196173210972988"><ele>169.0</ele><time>2026-04-04T12:16:22.175Z</time></trkpt><trkpt lat="45.48222749582598" lon="11.196153329124272"><ele>170.0</ele><time>2026-04-04T12:16:23.175Z</time></trkpt><trkpt lat="45.482097224075154" lon="11.196126254551254"><ele>171.0</ele><time>2026-04-04T12:16:24.175Z</time></trkpt><trkpt lat="45.481950034372765" lon="11.196098879952773"><ele>172.0</ele><time>2026-04-04T12:16:25.175Z</time></trkpt><trkpt lat="45.48177291978941" lon="11.196074647438975"><ele>172.0</ele><time>2026-04-04T12:16:26.175Z</time></trkpt><trkpt lat="45.48155069228711" lon="11.196062739451435"><ele>172.0</ele><time>2026-04-04T12:16:27.175Z</time></trkpt><trkpt lat="45.481314882614384" lon="11.196089286120642"><ele>174.33333333333334</ele><time>2026-04-04T12:16:28.175Z</time></trkpt><trkpt lat="45.48110197296323" lon="11.196120436723783"><ele>176.66666666666666</ele><time>2026-04-04T12:16:29.175Z</time></trkpt><trkpt lat="45.480906501367485" lon="11.196140418832876"><ele>179.0</ele><time>2026-04-04T12:16:30.175Z</time></trkpt><trkpt lat="45.480730765114274" lon="11.196155745563342"><ele>179.0</ele><time>2026-04-04T12:16:31.175Z</time></trkpt><trkpt lat="45.480569497981584" lon="11.196166224583846"><ele>179.0</ele><time>2026-04-04T12:16:32.175Z</time></trkpt><trkpt lat="45.480409733369726" lon="11.196171221134403"><ele>179.0</ele><time>2026-04-04T12:16:33.175Z</time></trkpt><trkpt lat="45.48024394543813" lon="11.196174039479967"><ele>180.33333333333331</ele><time>2026-04-04T12:16:34.175Z</time></trkpt><trkpt lat="45.48007087890016" lon="11.196173263553435"><ele>181.66666666666666</ele><time>2026-04-04T12:16:35.175Z</time></trkpt><trkpt lat="45.47990376777876" lon="11.19618687578796"><ele>183.0</ele><time>2026-04-04T12:16:36.175Z</time></trkpt><trkpt lat="45.47975867836135" lon="11.19617509660003"><ele>183.0</ele><time>2026-04-04T12:16:37.175Z</time></trkpt><trkpt lat="45.479627874743024" lon="11.196136706357956"><ele>183.0</ele><time>2026-04-04T12:16:38.175Z</time></trkpt><trkpt lat="45.479511493842494" lon="11.19613322585311"><ele>183.0</ele><time>2026-04-04T12:16:39.175Z</time></trkpt><trkpt lat="45.479380435975095" lon="11.19608368585955"><ele>183.0</ele><time>2026-04-04T12:16:40.175Z</time></trkpt><trkpt lat="45.47922743506952" lon="11.19603540078233"><ele>182.0</ele><time>2026-04-04T12:16:41.175Z</time></trkpt><trkpt lat="45.47906118093968" lon="11.195971275594925"><ele>181.0</ele><time>2026-04-04T12:16:42.175Z</time></trkpt><trkpt lat="45.478903031120225" lon="11.195895357597175"><ele>180.0</ele><time>2026-04-04T12:16:43.175Z</time></trkpt><trkpt lat="45.47877556092747" lon="11.19581746556737"><ele>180.25</ele><time>2026-04-04T12:16:44.175Z</time></trkpt><trkpt lat="45.47864633894737" lon="11.195757805468038"><ele>180.5</ele><time>2026-04-04T12:16:45.175Z</time></trkpt><trkpt lat="45.478513448468206" lon="11.195757116664927"><ele>180.75</ele><time>2026-04-04T12:16:46.175Z</time></trkpt><trkpt lat="45.478356025614524" lon="11.195800384061513"><ele>181.0</ele><time>2026-04-04T12:16:47.175Z</time></trkpt><trkpt lat="45.47818170716778" lon="11.195839523977527"><ele>181.0</ele><time>2026-04-04T12:16:48.175Z</time></trkpt><trkpt lat="45.47798930867688" lon="11.19586163787005"><ele>181.0</ele><time>2026-04-04T12:16:49.175Z</time></trkpt><trkpt lat="45.477759097906365" lon="11.19589173735848"><ele>181.0</ele><time>2026-04-04T12:16:50.175Z</time></trkpt><trkpt lat="45.47753271170773" lon="11.195914821234341"><ele>182.66666666666669</ele><time>2026-04-04T12:16:51.175Z</time></trkpt><trkpt lat="45.47734464116854" lon="11.195948748779834"><ele>184.33333333333334</ele><time>2026-04-04T12:16:52.175Z</time></trkpt><trkpt lat="45.47717794205781" lon="11.195945406620442"><ele>186.0</ele><time>2026-04-04T12:16:53.175Z</time></trkpt><trkpt lat="45.47701504225708" lon="11.195979396389061"><ele>188.0</ele><time>2026-04-04T12:16:54.175Z</time></trkpt><trkpt lat="45.4768728829858" lon="11.195974686090128"><ele>190.0</ele><time>2026-04-04T12:16:55.175Z</time></trkpt><trkpt lat="45.47673783326782" lon="11.196015904625007"><ele>192.0</ele><time>2026-04-04T12:16:56.176Z</time></trkpt><trkpt lat="45.47662561550607" lon="11.196020437163178"><ele>194.0</ele><time>2026-04-04T12:16:57.176Z</time></trkpt><trkpt lat="45.47653696307954" lon="11.196030987504415"><ele>194.0</ele><time>2026-04-04T12:16:58.176Z</time></trkpt><trkpt lat="45.476475912709006" lon="11.196053778565345"><ele>194.0</ele><time>2026-04-04T12:16:59.176Z</time></trkpt><trkpt lat="45.476405590426964" lon="11.195988264611428"><ele>194.0</ele><time>2026-04-04T12:17:01.176Z</time></trkpt><trkpt lat="45.47645214101404" lon="11.195845870753304"><ele>194.0</ele><time>2026-04-04T12:17:03.176Z</time></trkpt><trkpt lat="45.47656319410136" lon="11.195889210956084"><ele>194.0</ele><time>2026-04-04T12:17:04.176Z</time></trkpt><trkpt lat="45.47668401496979" lon="11.195841003328448"><ele>194.0</ele><time>2026-04-04T12:17:05.176Z</time></trkpt><trkpt lat="45.4768372871261" lon="11.195797111387046"><ele>194.0</ele><time>2026-04-04T12:17:06.176Z</time></trkpt><trkpt lat="45.477032547461235" lon="11.195728657871632"><ele>194.0</ele><time>2026-04-04T12:17:07.176Z</time></trkpt><trkpt lat="45.47725669872134" lon="11.195642527217558"><ele>199.33333333333334</ele><time>2026-04-04T12:17:08.176Z</time></trkpt><trkpt lat="45.47744195555892" lon="11.195555935025578"><ele>204.66666666666669</ele><time>2026-04-04T12:17:09.176Z</time></trkpt><trkpt lat="45.47762600618038" lon="11.19547918552108"><ele>210.0</ele><time>2026-04-04T12:17:10.176Z</time></trkpt><trkpt lat="45.47782814304994" lon="11.195376815514427"><ele>207.66666666666669</ele><time>2026-04-04T12:17:11.176Z</time></trkpt><trkpt lat="45.47801980061259" lon="11.195287350354796"><ele>205.33333333333334</ele><time>2026-04-04T12:17:12.176Z</time></trkpt><trkpt lat="45.47817176876666" lon="11.195212433328413"><ele>203.0</ele><time>2026-04-04T12:17:13.176Z</time></trkpt><trkpt lat="45.478302866024805" lon="11.19515534917188"><ele>203.0</ele><time>2026-04-04T12:17:14.176Z</time></trkpt><trkpt lat="45.47839998833858" lon="11.195105395477269"><ele>203.0</ele><time>2026-04-04T12:17:15.176Z</time></trkpt><trkpt lat="45.47848598142313" lon="11.195058788252117"><ele>203.0</ele><time>2026-04-04T12:17:16.176Z</time></trkpt><trkpt lat="45.47856460181425" lon="11.195028280505905"><ele>203.0</ele><time>2026-04-04T12:17:17.176Z</time></trkpt><trkpt lat="45.47865966136478" lon="11.194982118957748"><ele>203.0</ele><time>2026-04-04T12:17:18.176Z</time></trkpt><trkpt lat="45.478744437613216" lon="11.194925030042903"><ele>203.2</ele><time>2026-04-04T12:17:19.176Z</time></trkpt><trkpt lat="45.47882435400621" lon="11.194907713207888"><ele>203.4</ele><time>2026-04-04T12:17:20.176Z</time></trkpt><trkpt lat="45.478917589282375" lon="11.194793602403818"><ele>203.6</ele><time>2026-04-04T12:17:22.176Z</time></trkpt><trkpt lat="45.47889506139589" lon="11.19466983642134"><ele>203.79999999999998</ele><time>2026-04-04T12:17:23.176Z</time></trkpt><trkpt lat="45.4788300050723" lon="11.194577849425519"><ele>204.0</ele><time>2026-04-04T12:17:24.176Z</time></trkpt><trkpt lat="45.47872774976452" lon="11.194491793663348"><ele>206.5</ele><time>2026-04-04T12:17:25.176Z</time></trkpt><trkpt lat="45.478614901864624" lon="11.194372140986221"><ele>209.0</ele><time>2026-04-04T12:17:26.176Z</time></trkpt><trkpt lat="45.47852467834398" lon="11.194188629215441"><ele>211.5</ele><time>2026-04-04T12:17:27.176Z</time></trkpt><trkpt lat="45.47843960783963" lon="11.194018605764583"><ele>214.0</ele><time>2026-04-04T12:17:28.176Z</time></trkpt><trkpt lat="45.47836910474919" lon="11.19384104809276"><ele>214.2</ele><time>2026-04-04T12:17:29.176Z</time></trkpt><trkpt lat="45.47832801750953" lon="11.193674220117414"><ele>214.39999999999998</ele><time>2026-04-04T12:17:30.176Z</time></trkpt><trkpt lat="45.47831603578404" lon="11.193559673137733"><ele>214.6</ele><time>2026-04-04T12:17:31.176Z</time></trkpt><trkpt lat="45.478307744943294" lon="11.193439863127441"><ele>214.8</ele><time>2026-04-04T12:17:32.176Z</time></trkpt><trkpt lat="45.478332563048" lon="11.193307988770858"><ele>215.0</ele><time>2026-04-04T12:17:34.176Z</time></trkpt><trkpt lat="45.47833529914585" lon="11.193208390944177"><ele>214.6</ele><time>2026-04-04T12:17:36.176Z</time></trkpt><trkpt lat="45.478291287595525" lon="11.193123924773003"><ele>214.2</ele><time>2026-04-04T12:17:38.176Z</time></trkpt><trkpt lat="45.478298412831585" lon="11.192938616993658"><ele>213.8</ele><time>2026-04-04T12:17:40.176Z</time></trkpt><trkpt lat="45.47828772358427" lon="11.192814688380924"><ele>213.4</ele><time>2026-04-04T12:17:41.176Z</time></trkpt><trkpt lat="45.47829107302527" lon="11.192678896150195"><ele>213.0</ele><time>2026-04-04T12:17:42.176Z</time></trkpt><trkpt lat="45.478297058615055" lon="11.1925586655392"><ele>213.0</ele><time>2026-04-04T12:17:43.176Z</time></trkpt><trkpt lat="45.4783014737747" lon="11.192425916198486"><ele>213.0</ele><time>2026-04-04T12:17:44.176Z</time></trkpt><trkpt lat="45.47829624395908" lon="11.192281048968251"><ele>213.0</ele><time>2026-04-04T12:17:45.176Z</time></trkpt><trkpt lat="45.47833070980029" lon="11.192147128825523"><ele>213.0</ele><time>2026-04-04T12:17:46.176Z</time></trkpt><trkpt lat="45.4783729257265" lon="11.192006363062955"><ele>213.0</ele><time>2026-04-04T12:17:47.176Z</time></trkpt><trkpt lat="45.47841358177172" lon="11.191874081334717"><ele>211.25</ele><time>2026-04-04T12:17:48.176Z</time></trkpt><trkpt lat="45.47846019104715" lon="11.191740662231561"><ele>209.5</ele><time>2026-04-04T12:17:49.176Z</time></trkpt><trkpt lat="45.478512463307254" lon="11.191556039770132"><ele>207.75</ele><time>2026-04-04T12:17:50.176Z</time></trkpt><trkpt lat="45.47857491816449" lon="11.191414148099115"><ele>206.0</ele><time>2026-04-04T12:17:51.176Z</time></trkpt><trkpt lat="45.478613094311484" lon="11.191286891204202"><ele>207.0</ele><time>2026-04-04T12:17:52.176Z</time></trkpt><trkpt lat="45.478674159719766" lon="11.191130464645342"><ele>208.0</ele><time>2026-04-04T12:17:53.176Z</time></trkpt><trkpt lat="45.47872564980941" lon="11.190983185750497"><ele>209.0</ele><time>2026-04-04T12:17:54.176Z</time></trkpt><trkpt lat="45.4787849835311" lon="11.19082536860587"><ele>210.0</ele><time>2026-04-04T12:17:55.176Z</time></trkpt><trkpt lat="45.4788474971541" lon="11.19066940951517"><ele>210.0</ele><time>2026-04-04T12:17:56.176Z</time></trkpt><trkpt lat="45.478905222765455" lon="11.190516022691254"><ele>210.0</ele><time>2026-04-04T12:17:57.176Z</time></trkpt><trkpt lat="45.478951352153004" lon="11.19035695397435"><ele>210.0</ele><time>2026-04-04T12:17:58.176Z</time></trkpt><trkpt lat="45.478986978707944" lon="11.190193720043222"><ele>210.0</ele><time>2026-04-04T12:17:59.176Z</time></trkpt><trkpt lat="45.47903028521593" lon="11.19004534694183"><ele>210.0</ele><time>2026-04-04T12:18:00.176Z</time></trkpt><trkpt lat="45.47905978681827" lon="11.189878039834714"><ele>210.0</ele><time>2026-04-04T12:18:01.176Z</time></trkpt><trkpt lat="45.47908492887175" lon="11.189725569057826"><ele>210.0</ele><time>2026-04-04T12:18:02.176Z</time></trkpt><trkpt lat="45.47909469575714" lon="11.189535129490014"><ele>210.0</ele><time>2026-04-04T12:18:03.176Z</time></trkpt><trkpt lat="45.47909351063624" lon="11.189410835595837"><ele>208.8</ele><time>2026-04-04T12:18:04.176Z</time></trkpt><trkpt lat="45.479116443663536" lon="11.189257451743915"><ele>207.6</ele><time>2026-04-04T12:18:05.176Z</time></trkpt><trkpt lat="45.47911944982629" lon="11.189093981023635"><ele>206.39999999999998</ele><time>2026-04-04T12:18:06.176Z</time></trkpt><trkpt lat="45.4791174832309" lon="11.188966977577149"><ele>205.2</ele><time>2026-04-04T12:18:07.176Z</time></trkpt><trkpt lat="45.47910886151754" lon="11.188793856411007"><ele>204.0</ele><time>2026-04-04T12:18:08.176Z</time></trkpt><trkpt lat="45.47909882865909" lon="11.188661886681675"><ele>203.2</ele><time>2026-04-04T12:18:09.176Z</time></trkpt><trkpt lat="45.4790792113478" lon="11.188528764381994"><ele>202.39999999999998</ele><time>2026-04-04T12:18:10.176Z</time></trkpt><trkpt lat="45.47905408197613" lon="11.188389722559428"><ele>201.6</ele><time>2026-04-04T12:18:11.176Z</time></trkpt><trkpt lat="45.47901637326545" lon="11.18827004366964"><ele>200.8</ele><time>2026-04-04T12:18:12.176Z</time></trkpt><trkpt lat="45.47901408926095" lon="11.188111421274503"><ele>200.0</ele><time>2026-04-04T12:18:13.176Z</time></trkpt><trkpt lat="45.47896958633805" lon="11.187986960731367"><ele>199.2</ele><time>2026-04-04T12:18:14.176Z</time></trkpt><trkpt lat="45.47892758692917" lon="11.187865356529098"><ele>198.4</ele><time>2026-04-04T12:18:15.176Z</time></trkpt><trkpt lat="45.47888765954286" lon="11.18775007009462"><ele>197.60000000000002</ele><time>2026-04-04T12:18:16.176Z</time></trkpt><trkpt lat="45.47882927096362" lon="11.187640318014031"><ele>196.8</ele><time>2026-04-04T12:18:17.176Z</time></trkpt><trkpt lat="45.478777299053" lon="11.187521023478173"><ele>196.0</ele><time>2026-04-04T12:18:18.176Z</time></trkpt><trkpt lat="45.47874421116702" lon="11.187394237537806"><ele>195.49999999999997</ele><time>2026-04-04T12:18:19.176Z</time></trkpt><trkpt lat="45.47871506924275" lon="11.1872573917703"><ele>195.0</ele><time>2026-04-04T12:18:20.176Z</time></trkpt><trkpt lat="45.47870500919084" lon="11.187133717479197"><ele>194.5</ele><time>2026-04-04T12:18:21.176Z</time></trkpt><trkpt lat="45.47868234090916" lon="11.18701994624246"><ele>194.0</ele><time>2026-04-04T12:18:22.176Z</time></trkpt><trkpt lat="45.47865482315264" lon="11.186905368999602"><ele>193.49999999999997</ele><time>2026-04-04T12:18:23.176Z</time></trkpt><trkpt lat="45.478625658803374" lon="11.186789996976644"><ele>193.0</ele><time>2026-04-04T12:18:24.176Z</time></trkpt><trkpt lat="45.47859236064735" lon="11.186677558965398"><ele>193.0</ele><time>2026-04-04T12:18:25.176Z</time></trkpt><trkpt lat="45.4785615342248" lon="11.186554412616855"><ele>193.0</ele><time>2026-04-04T12:18:26.176Z</time></trkpt><trkpt lat="45.47857575112062" lon="11.186418862774778"><ele>193.0</ele><time>2026-04-04T12:18:27.176Z</time></trkpt><trkpt lat="45.478583411588616" lon="11.186275524308119"><ele>193.0</ele><time>2026-04-04T12:18:28.176Z</time></trkpt><trkpt lat="45.47857305117853" lon="11.186127850309498"><ele>193.0</ele><time>2026-04-04T12:18:29.176Z</time></trkpt><trkpt lat="45.47855097359518" lon="11.185994580955315"><ele>193.0</ele><time>2026-04-04T12:18:30.176Z</time></trkpt><trkpt lat="45.478506203690166" lon="11.185840991387211"><ele>193.0</ele><time>2026-04-04T12:18:31.176Z</time></trkpt><trkpt lat="45.47845118182529" lon="11.185677753376147"><ele>193.0</ele><time>2026-04-04T12:18:32.176Z</time></trkpt><trkpt lat="45.47839657694477" lon="11.185524928689064"><ele>193.0</ele><time>2026-04-04T12:18:33.176Z</time></trkpt><trkpt lat="45.47834913372541" lon="11.185383635283813"><ele>193.0</ele><time>2026-04-04T12:18:34.176Z</time></trkpt><trkpt lat="45.47830477416004" lon="11.185241346341513"><ele>193.0</ele><time>2026-04-04T12:18:35.176Z</time></trkpt><trkpt lat="45.47826705345649" lon="11.185100303191096"><ele>193.0</ele><time>2026-04-04T12:18:36.176Z</time></trkpt><trkpt lat="45.47823539065836" lon="11.184957177541541"><ele>193.0</ele><time>2026-04-04T12:18:37.176Z</time></trkpt><trkpt lat="45.47821006721404" lon="11.18480421576178"><ele>193.0</ele><time>2026-04-04T12:18:38.176Z</time></trkpt><trkpt lat="45.478190731453154" lon="11.18463563520369"><ele>193.0</ele><time>2026-04-04T12:18:39.176Z</time></trkpt><trkpt lat="45.47818168967017" lon="11.1844512997448"><ele>193.0</ele><time>2026-04-04T12:18:40.176Z</time></trkpt><trkpt lat="45.4781773537419" lon="11.184256027793193"><ele>193.0</ele><time>2026-04-04T12:18:41.176Z</time></trkpt><trkpt lat="45.478164396613515" lon="11.184052721570119"><ele>193.0</ele><time>2026-04-04T12:18:42.176Z</time></trkpt><trkpt lat="45.478136483773504" lon="11.18383976540845"><ele>193.75</ele><time>2026-04-04T12:18:43.176Z</time></trkpt><trkpt lat="45.47811009154088" lon="11.183644841827684"><ele>194.5</ele><time>2026-04-04T12:18:44.176Z</time></trkpt><trkpt lat="45.47808554254329" lon="11.183456118508259"><ele>195.25</ele><time>2026-04-04T12:18:45.176Z</time></trkpt><trkpt lat="45.47806395798978" lon="11.183277950322564"><ele>196.0</ele><time>2026-04-04T12:18:46.176Z</time></trkpt><trkpt lat="45.47804423498197" lon="11.183094293037497"><ele>196.5</ele><time>2026-04-04T12:18:47.176Z</time></trkpt><trkpt lat="45.478016476076704" lon="11.182905564901462"><ele>197.0</ele><time>2026-04-04T12:18:48.176Z</time></trkpt><trkpt lat="45.47798030905848" lon="11.182720861570859"><ele>197.5</ele><time>2026-04-04T12:18:49.176Z</time></trkpt><trkpt lat="45.47794210676028" lon="11.182535461393858"><ele>198.0</ele><time>2026-04-04T12:18:50.176Z</time></trkpt><trkpt lat="45.47790407166276" lon="11.182351428815139"><ele>196.75</ele><time>2026-04-04T12:18:51.176Z</time></trkpt><trkpt lat="45.47786688620143" lon="11.182170251345386"><ele>195.5</ele><time>2026-04-04T12:18:52.176Z</time></trkpt><trkpt lat="45.47783166745947" lon="11.181998613232592"><ele>194.25</ele><time>2026-04-04T12:18:53.176Z</time></trkpt><trkpt lat="45.47780194862163" lon="11.181840489371396"><ele>193.0</ele><time>2026-04-04T12:18:54.176Z</time></trkpt><trkpt lat="45.47777659241941" lon="11.18168369032382"><ele>193.0</ele><time>2026-04-04T12:18:55.176Z</time></trkpt><trkpt lat="45.4777612553633" lon="11.181538891095453"><ele>193.0</ele><time>2026-04-04T12:18:56.176Z</time></trkpt><trkpt lat="45.47775287141096" lon="11.181396542735333"><ele>193.0</ele><time>2026-04-04T12:18:57.176Z</time></trkpt><trkpt lat="45.477735359860674" lon="11.181255945034074"><ele>193.0</ele><time>2026-04-04T12:18:58.176Z</time></trkpt><trkpt lat="45.477748282530364" lon="11.181119111650503"><ele>193.0</ele><time>2026-04-04T12:18:59.176Z</time></trkpt><trkpt lat="45.47775375216808" lon="11.18100165783766"><ele>193.4</ele><time>2026-04-04T12:19:00.176Z</time></trkpt><trkpt lat="45.47776134001552" lon="11.180891592355756"><ele>193.8</ele><time>2026-04-04T12:19:01.176Z</time></trkpt><trkpt lat="45.47777124156062" lon="11.180794228025253"><ele>194.2</ele><time>2026-04-04T12:19:02.177Z</time></trkpt><trkpt lat="45.47779583577803" lon="11.180686325794248"><ele>194.6</ele><time>2026-04-04T12:19:04.177Z</time></trkpt><trkpt lat="45.47784241636809" lon="11.180541856125304"><ele>195.0</ele><time>2026-04-04T12:19:06.177Z</time></trkpt><trkpt lat="45.47796138190373" lon="11.18049893783312"><ele>195.66666666666669</ele><time>2026-04-04T12:19:07.177Z</time></trkpt><trkpt lat="45.47807990946612" lon="11.180411388330013"><ele>196.33333333333334</ele><time>2026-04-04T12:19:08.177Z</time></trkpt><trkpt lat="45.47822981630393" lon="11.180283507418148"><ele>197.0</ele><time>2026-04-04T12:19:09.177Z</time></trkpt><trkpt lat="45.47839577998842" lon="11.180122574974444"><ele>197.0</ele><time>2026-04-04T12:19:10.177Z</time></trkpt><trkpt lat="45.47857541109754" lon="11.179952297902723"><ele>197.0</ele><time>2026-04-04T12:19:11.177Z</time></trkpt><trkpt lat="45.47874868399393" lon="11.179811356360611"><ele>197.0</ele><time>2026-04-04T12:19:12.177Z</time></trkpt><trkpt lat="45.47891881468449" lon="11.179672040850175"><ele>198.0</ele><time>2026-04-04T12:19:13.177Z</time></trkpt><trkpt lat="45.47909134446909" lon="11.179521453966133"><ele>199.0</ele><time>2026-04-04T12:19:14.177Z</time></trkpt><trkpt lat="45.4792758249035" lon="11.17934112266856"><ele>200.0</ele><time>2026-04-04T12:19:15.177Z</time></trkpt><trkpt lat="45.47946789612455" lon="11.179169284786411"><ele>201.0</ele><time>2026-04-04T12:19:16.177Z</time></trkpt><trkpt lat="45.479672460497355" lon="11.178978874555353"><ele>202.0</ele><time>2026-04-04T12:19:17.177Z</time></trkpt><trkpt lat="45.479863287227396" lon="11.178801821727495"><ele>202.0</ele><time>2026-04-04T12:19:18.177Z</time></trkpt><trkpt lat="45.4800295139392" lon="11.178642054960498"><ele>202.0</ele><time>2026-04-04T12:19:19.177Z</time></trkpt><trkpt lat="45.48018753152333" lon="11.178488822061377"><ele>202.0</ele><time>2026-04-04T12:19:20.177Z</time></trkpt><trkpt lat="45.48032868433607" lon="11.178359280888788"><ele>203.33333333333331</ele><time>2026-04-04T12:19:21.177Z</time></trkpt><trkpt lat="45.48046563566867" lon="11.178248625013783"><ele>204.66666666666669</ele><time>2026-04-04T12:19:22.177Z</time></trkpt><trkpt lat="45.480611599541874" lon="11.17815985339508"><ele>206.0</ele><time>2026-04-04T12:19:23.177Z</time></trkpt><trkpt lat="45.48078069219323" lon="11.178083870795014"><ele>206.66666666666669</ele><time>2026-04-04T12:19:24.177Z</time></trkpt><trkpt lat="45.48096939522335" lon="11.178025779543978"><ele>207.33333333333331</ele><time>2026-04-04T12:19:25.177Z</time></trkpt><trkpt lat="45.481187547829485" lon="11.177973873417386"><ele>208.0</ele><time>2026-04-04T12:19:26.177Z</time></trkpt><trkpt lat="45.48142285478462" lon="11.177945665342047"><ele>209.0</ele><time>2026-04-04T12:19:27.177Z</time></trkpt><trkpt lat="45.481671523919054" lon="11.177920039303853"><ele>210.0</ele><time>2026-04-04T12:19:28.177Z</time></trkpt><trkpt lat="45.48192170947396" lon="11.177887343817941"><ele>210.66666666666669</ele><time>2026-04-04T12:19:29.177Z</time></trkpt><trkpt lat="45.48214805977328" lon="11.177850891286306"><ele>211.33333333333334</ele><time>2026-04-04T12:19:30.177Z</time></trkpt><trkpt lat="45.48236082623518" lon="11.17782460498638"><ele>212.0</ele><time>2026-04-04T12:19:31.177Z</time></trkpt><trkpt lat="45.48257791562038" lon="11.177792881805805"><ele>212.0</ele><time>2026-04-04T12:19:32.177Z</time></trkpt><trkpt lat="45.48279035474214" lon="11.177761795548966"><ele>212.0</ele><time>2026-04-04T12:19:33.177Z</time></trkpt><trkpt lat="45.483013338903454" lon="11.177706043817565"><ele>212.0</ele><time>2026-04-04T12:19:34.177Z</time></trkpt><trkpt lat="45.48322352417341" lon="11.177658691143316"><ele>213.0</ele><time>2026-04-04T12:19:35.177Z</time></trkpt><trkpt lat="45.48341928686177" lon="11.177627688074411"><ele>214.0</ele><time>2026-04-04T12:19:36.177Z</time></trkpt><trkpt lat="45.48359912309144" lon="11.177579539245745"><ele>215.0</ele><time>2026-04-04T12:19:37.177Z</time></trkpt><trkpt lat="45.4837792816748" lon="11.177529447146654"><ele>215.66666666666669</ele><time>2026-04-04T12:19:38.177Z</time></trkpt><trkpt lat="45.48396619835394" lon="11.177470059616063"><ele>216.33333333333331</ele><time>2026-04-04T12:19:39.177Z</time></trkpt><trkpt lat="45.48417367054301" lon="11.177413128671086"><ele>217.0</ele><time>2026-04-04T12:19:40.177Z</time></trkpt><trkpt lat="45.48439099728983" lon="11.177363116385349"><ele>218.5</ele><time>2026-04-04T12:19:41.177Z</time></trkpt><trkpt lat="45.48462482111898" lon="11.177321459130486"><ele>220.0</ele><time>2026-04-04T12:19:42.177Z</time></trkpt><trkpt lat="45.484875582918185" lon="11.177280691518733"><ele>220.0</ele><time>2026-04-04T12:19:43.177Z</time></trkpt><trkpt lat="45.48513793319796" lon="11.177234800947916"><ele>220.0</ele><time>2026-04-04T12:19:44.177Z</time></trkpt><trkpt lat="45.485407952991956" lon="11.177158949454668"><ele>220.5</ele><time>2026-04-04T12:19:45.177Z</time></trkpt><trkpt lat="45.485658760000845" lon="11.177067011836279"><ele>221.0</ele><time>2026-04-04T12:19:46.177Z</time></trkpt><trkpt lat="45.48589007353147" lon="11.177018775622736"><ele>221.0</ele><time>2026-04-04T12:19:47.177Z</time></trkpt><trkpt lat="45.486098989270694" lon="11.176978636804561"><ele>221.0</ele><time>2026-04-04T12:19:48.177Z</time></trkpt><trkpt lat="45.48631656015741" lon="11.176923451569799"><ele>221.0</ele><time>2026-04-04T12:19:49.177Z</time></trkpt><trkpt lat="45.48650893494057" lon="11.176879993927425"><ele>222.0</ele><time>2026-04-04T12:19:50.177Z</time></trkpt><trkpt lat="45.48671237739033" lon="11.176820318795258"><ele>223.0</ele><time>2026-04-04T12:19:51.177Z</time></trkpt><trkpt lat="45.48692660168386" lon="11.176729784044639"><ele>224.0</ele><time>2026-04-04T12:19:52.177Z</time></trkpt><trkpt lat="45.48714884486869" lon="11.17664178272539"><ele>225.5</ele><time>2026-04-04T12:19:53.177Z</time></trkpt><trkpt lat="45.487368743771256" lon="11.176555208698787"><ele>227.0</ele><time>2026-04-04T12:19:54.177Z</time></trkpt><trkpt lat="45.487591206249384" lon="11.176451293921"><ele>227.5</ele><time>2026-04-04T12:19:55.177Z</time></trkpt><trkpt lat="45.487813827450694" lon="11.176345517129324"><ele>228.0</ele><time>2026-04-04T12:19:56.177Z</time></trkpt><trkpt lat="45.48805164181831" lon="11.176246578140073"><ele>229.0</ele><time>2026-04-04T12:19:57.177Z</time></trkpt><trkpt lat="45.488284957627485" lon="11.176144881456661"><ele>230.0</ele><time>2026-04-04T12:19:58.177Z</time></trkpt><trkpt lat="45.48851344164168" lon="11.176047201930302"><ele>230.0</ele><time>2026-04-04T12:19:59.177Z</time></trkpt><trkpt lat="45.488718976933946" lon="11.175962950839935"><ele>230.0</ele><time>2026-04-04T12:20:00.177Z</time></trkpt><trkpt lat="45.488908955134455" lon="11.175876868847931"><ele>230.0</ele><time>2026-04-04T12:20:01.177Z</time></trkpt><trkpt lat="45.4890867922535" lon="11.175807698051887"><ele>231.0</ele><time>2026-04-04T12:20:02.177Z</time></trkpt><trkpt lat="45.48926065501056" lon="11.175745415497362"><ele>232.0</ele><time>2026-04-04T12:20:03.177Z</time></trkpt><trkpt lat="45.4894230366085" lon="11.175687489427263"><ele>233.0</ele><time>2026-04-04T12:20:04.177Z</time></trkpt><trkpt lat="45.489584914722265" lon="11.175623249273787"><ele>233.66666666666669</ele><time>2026-04-04T12:20:05.177Z</time></trkpt><trkpt lat="45.48974112162267" lon="11.175554850278568"><ele>234.33333333333331</ele><time>2026-04-04T12:20:06.177Z</time></trkpt><trkpt lat="45.48989020865647" lon="11.175483272820776"><ele>235.0</ele><time>2026-04-04T12:20:07.177Z</time></trkpt><trkpt lat="45.49002894745835" lon="11.175421039871088"><ele>235.0</ele><time>2026-04-04T12:20:08.177Z</time></trkpt><trkpt lat="45.49017439526962" lon="11.175360794102998"><ele>235.0</ele><time>2026-04-04T12:20:09.177Z</time></trkpt><trkpt lat="45.49033398617693" lon="11.17529623975757"><ele>235.0</ele><time>2026-04-04T12:20:10.177Z</time></trkpt><trkpt lat="45.49049203948094" lon="11.175255575483694"><ele>235.66666666666666</ele><time>2026-04-04T12:20:11.177Z</time></trkpt><trkpt lat="45.49065972193691" lon="11.175230749127278"><ele>236.33333333333331</ele><time>2026-04-04T12:20:12.177Z</time></trkpt><trkpt lat="45.490819807254454" lon="11.175211186068992"><ele>237.0</ele><time>2026-04-04T12:20:13.177Z</time></trkpt><trkpt lat="45.490994580469575" lon="11.175222675952865"><ele>237.0</ele><time>2026-04-04T12:20:14.177Z</time></trkpt><trkpt lat="45.49118316599412" lon="11.175259797975217"><ele>237.0</ele><time>2026-04-04T12:20:15.177Z</time></trkpt><trkpt lat="45.49138217374878" lon="11.175328628507751"><ele>237.0</ele><time>2026-04-04T12:20:16.177Z</time></trkpt><trkpt lat="45.491580918792465" lon="11.175409426939677"><ele>238.0</ele><time>2026-04-04T12:20:17.177Z</time></trkpt><trkpt lat="45.4917699010795" lon="11.175461508642618"><ele>239.0</ele><time>2026-04-04T12:20:18.177Z</time></trkpt><trkpt lat="45.49195409735562" lon="11.175507317831055"><ele>240.0</ele><time>2026-04-04T12:20:19.177Z</time></trkpt><trkpt lat="45.49215127265613" lon="11.175528393145072"><ele>241.0</ele><time>2026-04-04T12:20:20.177Z</time></trkpt><trkpt lat="45.492364035408194" lon="11.175506448510887"><ele>242.0</ele><time>2026-04-04T12:20:21.177Z</time></trkpt><trkpt lat="45.49257743312671" lon="11.17546499331632"><ele>243.0</ele><time>2026-04-04T12:20:22.177Z</time></trkpt><trkpt lat="45.49280148393509" lon="11.175402320212557"><ele>243.5</ele><time>2026-04-04T12:20:23.177Z</time></trkpt><trkpt lat="45.493028861627955" lon="11.175330561194315"><ele>244.0</ele><time>2026-04-04T12:20:24.177Z</time></trkpt><trkpt lat="45.49326862526027" lon="11.17526458511898"><ele>244.0</ele><time>2026-04-04T12:20:25.177Z</time></trkpt><trkpt lat="45.4934827990133" lon="11.175211479232873"><ele>244.0</ele><time>2026-04-04T12:20:26.177Z</time></trkpt><trkpt lat="45.49367267784402" lon="11.175167952588485"><ele>244.0</ele><time>2026-04-04T12:20:27.177Z</time></trkpt><trkpt lat="45.49386535396993" lon="11.175118240132605"><ele>244.33333333333331</ele><time>2026-04-04T12:20:28.177Z</time></trkpt><trkpt lat="45.49404228054817" lon="11.1750712303829"><ele>244.66666666666669</ele><time>2026-04-04T12:20:29.177Z</time></trkpt><trkpt lat="45.49421888340867" lon="11.17502808050871"><ele>245.0</ele><time>2026-04-04T12:20:30.177Z</time></trkpt><trkpt lat="45.49438347333079" lon="11.174982036356681"><ele>245.0</ele><time>2026-04-04T12:20:31.177Z</time></trkpt><trkpt lat="45.49454270331812" lon="11.174916611900507"><ele>245.0</ele><time>2026-04-04T12:20:32.177Z</time></trkpt><trkpt lat="45.49471396100697" lon="11.174836945771856"><ele>245.0</ele><time>2026-04-04T12:20:33.177Z</time></trkpt><trkpt lat="45.494881063649224" lon="11.174732214625612"><ele>246.0</ele><time>2026-04-04T12:20:34.177Z</time></trkpt><trkpt lat="45.495045938652616" lon="11.174621024072842"><ele>247.0</ele><time>2026-04-04T12:20:35.177Z</time></trkpt><trkpt lat="45.49522725116296" lon="11.174475568638526"><ele>248.0</ele><time>2026-04-04T12:20:36.177Z</time></trkpt><trkpt lat="45.49541913143896" lon="11.17432275345303"><ele>249.33333333333334</ele><time>2026-04-04T12:20:37.177Z</time></trkpt><trkpt lat="45.49561421218702" lon="11.174165469248189"><ele>250.66666666666669</ele><time>2026-04-04T12:20:38.177Z</time></trkpt><trkpt lat="45.495797747882314" lon="11.17400818034374"><ele>252.0</ele><time>2026-04-04T12:20:39.177Z</time></trkpt><trkpt lat="45.49597296554985" lon="11.173874906103086"><ele>252.33333333333331</ele><time>2026-04-04T12:20:40.177Z</time></trkpt><trkpt lat="45.49614405530127" lon="11.173750287154423"><ele>252.66666666666666</ele><time>2026-04-04T12:20:41.177Z</time></trkpt><trkpt lat="45.49631888098569" lon="11.1736117355021"><ele>253.0</ele><time>2026-04-04T12:20:42.177Z</time></trkpt><trkpt lat="45.496487196789765" lon="11.173472730582095"><ele>253.66666666666666</ele><time>2026-04-04T12:20:43.177Z</time></trkpt><trkpt lat="45.49665804655922" lon="11.173336139918362"><ele>254.33333333333331</ele><time>2026-04-04T12:20:44.177Z</time></trkpt><trkpt lat="45.496827241682055" lon="11.173209251098157"><ele>255.0</ele><time>2026-04-04T12:20:45.177Z</time></trkpt><trkpt lat="45.49698717627675" lon="11.173081834046055"><ele>256.0</ele><time>2026-04-04T12:20:46.177Z</time></trkpt><trkpt lat="45.49715560549639" lon="11.172945140360353"><ele>257.0</ele><time>2026-04-04T12:20:47.177Z</time></trkpt><trkpt lat="45.49732705183463" lon="11.172803420266707"><ele>258.0</ele><time>2026-04-04T12:20:48.177Z</time></trkpt><trkpt lat="45.49750802315516" lon="11.172658563127749"><ele>258.0</ele><time>2026-04-04T12:20:49.177Z</time></trkpt><trkpt lat="45.49769181983014" lon="11.172516181736288"><ele>258.0</ele><time>2026-04-04T12:20:50.177Z</time></trkpt><trkpt lat="45.49788043362508" lon="11.17236137957041"><ele>258.0</ele><time>2026-04-04T12:20:51.177Z</time></trkpt><trkpt lat="45.49804976891239" lon="11.17222489509202"><ele>258.6666666666667</ele><time>2026-04-04T12:20:52.177Z</time></trkpt><trkpt lat="45.49821122700255" lon="11.172099019060935"><ele>259.33333333333337</ele><time>2026-04-04T12:20:53.177Z</time></trkpt><trkpt lat="45.49837616665151" lon="11.171970972978883"><ele>260.0</ele><time>2026-04-04T12:20:54.177Z</time></trkpt><trkpt lat="45.49854141010361" lon="11.171853634565675"><ele>260.0</ele><time>2026-04-04T12:20:55.177Z</time></trkpt><trkpt lat="45.49870520762509" lon="11.171715142683778"><ele>260.0</ele><time>2026-04-04T12:20:56.177Z</time></trkpt><trkpt lat="45.49886492389071" lon="11.171578867466387"><ele>260.0</ele><time>2026-04-04T12:20:57.177Z</time></trkpt><trkpt lat="45.49903735672203" lon="11.171445056851766"><ele>261.33333333333337</ele><time>2026-04-04T12:20:58.177Z</time></trkpt><trkpt lat="45.49920624749548" lon="11.171312581739775"><ele>262.6666666666667</ele><time>2026-04-04T12:20:59.177Z</time></trkpt><trkpt lat="45.49938340310508" lon="11.171175734493607"><ele>264.0</ele><time>2026-04-04T12:21:00.177Z</time></trkpt><trkpt lat="45.49954924302793" lon="11.171045098256085"><ele>264.6666666666667</ele><time>2026-04-04T12:21:01.177Z</time></trkpt><trkpt lat="45.49973196917068" lon="11.170916755033208"><ele>265.33333333333337</ele><time>2026-04-04T12:21:02.177Z</time></trkpt><trkpt lat="45.49990256927552" lon="11.170787348026705"><ele>266.0</ele><time>2026-04-04T12:21:03.177Z</time></trkpt><trkpt lat="45.500070468412225" lon="11.170653949708212"><ele>266.33333333333337</ele><time>2026-04-04T12:21:04.177Z</time></trkpt><trkpt lat="45.500241219890775" lon="11.170513059040825"><ele>266.6666666666667</ele><time>2026-04-04T12:21:05.177Z</time></trkpt><trkpt lat="45.50041258370457" lon="11.17037887939508"><ele>267.0</ele><time>2026-04-04T12:21:06.177Z</time></trkpt><trkpt lat="45.50059088843578" lon="11.170240695378887"><ele>267.6666666666667</ele><time>2026-04-04T12:21:07.177Z</time></trkpt><trkpt lat="45.50076035889608" lon="11.170110413496765"><ele>268.33333333333337</ele><time>2026-04-04T12:21:08.178Z</time></trkpt><trkpt lat="45.50092933229306" lon="11.16997209839066"><ele>269.0</ele><time>2026-04-04T12:21:09.178Z</time></trkpt><trkpt lat="45.501096065004205" lon="11.169831607026145"><ele>270.0</ele><time>2026-04-04T12:21:10.178Z</time></trkpt><trkpt lat="45.50126791824014" lon="11.169697748457786"><ele>271.0</ele><time>2026-04-04T12:21:11.178Z</time></trkpt><trkpt lat="45.50142803980085" lon="11.169567708935539"><ele>272.0</ele><time>2026-04-04T12:21:12.178Z</time></trkpt><trkpt lat="45.50158050444653" lon="11.16944191180398"><ele>272.0</ele><time>2026-04-04T12:21:13.178Z</time></trkpt><trkpt lat="45.50173699972906" lon="11.169308916905125"><ele>272.0</ele><time>2026-04-04T12:21:14.178Z</time></trkpt><trkpt lat="45.50189563816856" lon="11.169173933432923"><ele>272.0</ele><time>2026-04-04T12:21:15.178Z</time></trkpt><trkpt lat="45.50203476934513" lon="11.169020415190612"><ele>273.0</ele><time>2026-04-04T12:21:16.178Z</time></trkpt><trkpt lat="45.50216764079937" lon="11.168857780066476"><ele>274.0</ele><time>2026-04-04T12:21:17.178Z</time></trkpt><trkpt lat="45.50229753175492" lon="11.168672894152108"><ele>275.0</ele><time>2026-04-04T12:21:18.178Z</time></trkpt><trkpt lat="45.50242763072395" lon="11.168472317723657"><ele>275.0</ele><time>2026-04-04T12:21:19.178Z</time></trkpt><trkpt lat="45.502553264359214" lon="11.168250059738737"><ele>275.0</ele><time>2026-04-04T12:21:20.178Z</time></trkpt><trkpt lat="45.50268053609" lon="11.168002969600794"><ele>275.0</ele><time>2026-04-04T12:21:21.178Z</time></trkpt><trkpt lat="45.50281277389017" lon="11.16774442431028"><ele>276.5</ele><time>2026-04-04T12:21:22.178Z</time></trkpt><trkpt lat="45.50297291684196" lon="11.167478116277511"><ele>278.0</ele><time>2026-04-04T12:21:23.178Z</time></trkpt><trkpt lat="45.50313153186828" lon="11.16719291273215"><ele>278.0</ele><time>2026-04-04T12:21:24.178Z</time></trkpt><trkpt lat="45.503286104635926" lon="11.166894502595278"><ele>278.0</ele><time>2026-04-04T12:21:25.178Z</time></trkpt><trkpt lat="45.50341656473357" lon="11.166623885976923"><ele>277.6666666666667</ele><time>2026-04-04T12:21:26.178Z</time></trkpt><trkpt lat="45.50356428735372" lon="11.166370856632662"><ele>277.3333333333333</ele><time>2026-04-04T12:21:27.178Z</time></trkpt><trkpt lat="45.50370752278132" lon="11.166135848310358"><ele>277.0</ele><time>2026-04-04T12:21:28.178Z</time></trkpt><trkpt lat="45.50382300795934" lon="11.165916047626494"><ele>278.66666666666663</ele><time>2026-04-04T12:21:29.178Z</time></trkpt><trkpt lat="45.503956993783866" lon="11.165685448354456"><ele>280.3333333333333</ele><time>2026-04-04T12:21:30.178Z</time></trkpt><trkpt lat="45.50407295295154" lon="11.165443694947164"><ele>282.0</ele><time>2026-04-04T12:21:31.178Z</time></trkpt><trkpt lat="45.5041937221578" lon="11.165212018728795"><ele>282.0</ele><time>2026-04-04T12:21:32.178Z</time></trkpt><trkpt lat="45.5043378998025" lon="11.165008045584374"><ele>282.0</ele><time>2026-04-04T12:21:33.178Z</time></trkpt><trkpt lat="45.504444787735764" lon="11.164824185738002"><ele>282.0</ele><time>2026-04-04T12:21:34.178Z</time></trkpt><trkpt lat="45.50457464372548" lon="11.164642748213884"><ele>283.0</ele><time>2026-04-04T12:21:35.178Z</time></trkpt><trkpt lat="45.50471071851292" lon="11.164476694132517"><ele>284.0</ele><time>2026-04-04T12:21:36.178Z</time></trkpt><trkpt lat="45.504856172538474" lon="11.164336951967314"><ele>285.0</ele><time>2026-04-04T12:21:37.178Z</time></trkpt><trkpt lat="45.50499852490751" lon="11.164198236022573"><ele>285.0</ele><time>2026-04-04T12:21:38.178Z</time></trkpt><trkpt lat="45.505155207634424" lon="11.164044116198573"><ele>285.0</ele><time>2026-04-04T12:21:39.178Z</time></trkpt><trkpt lat="45.50532360604062" lon="11.163908801240856"><ele>285.0</ele><time>2026-04-04T12:21:40.178Z</time></trkpt><trkpt lat="45.505483067157286" lon="11.163792124920986"><ele>285.0</ele><time>2026-04-04T12:21:41.178Z</time></trkpt><trkpt lat="45.50566000887808" lon="11.163698090136096"><ele>285.0</ele><time>2026-04-04T12:21:42.178Z</time></trkpt><trkpt lat="45.50584903833073" lon="11.163630004328041"><ele>285.0</ele><time>2026-04-04T12:21:43.178Z</time></trkpt><trkpt lat="45.5060520985529" lon="11.163567336107635"><ele>287.5</ele><time>2026-04-04T12:21:44.178Z</time></trkpt><trkpt lat="45.506256785623954" lon="11.163522057324256"><ele>290.0</ele><time>2026-04-04T12:21:45.178Z</time></trkpt><trkpt lat="45.506506250523486" lon="11.163448149257672"><ele>290.0</ele><time>2026-04-04T12:21:46.178Z</time></trkpt><trkpt lat="45.50673224510087" lon="11.163369743899544"><ele>290.0</ele><time>2026-04-04T12:21:47.178Z</time></trkpt><trkpt lat="45.5069752160456" lon="11.163280183798845"><ele>290.5</ele><time>2026-04-04T12:21:48.178Z</time></trkpt><trkpt lat="45.50724063878911" lon="11.163205048392628"><ele>291.0</ele><time>2026-04-04T12:21:49.178Z</time></trkpt><trkpt lat="45.507510184726364" lon="11.163139271527303"><ele>291.0</ele><time>2026-04-04T12:21:50.178Z</time></trkpt><trkpt lat="45.50774480856326" lon="11.163076220728708"><ele>291.0</ele><time>2026-04-04T12:21:51.178Z</time></trkpt><trkpt lat="45.50796509986125" lon="11.163008462477157"><ele>291.6666666666667</ele><time>2026-04-04T12:21:52.178Z</time></trkpt><trkpt lat="45.508171101410234" lon="11.162965427545087"><ele>292.33333333333337</ele><time>2026-04-04T12:21:53.178Z</time></trkpt><trkpt lat="45.50837050766034" lon="11.162902061309008"><ele>293.0</ele><time>2026-04-04T12:21:54.178Z</time></trkpt><trkpt lat="45.50856876101252" lon="11.162838226962661"><ele>294.33333333333337</ele><time>2026-04-04T12:21:55.178Z</time></trkpt><trkpt lat="45.508761727946215" lon="11.162780641788098"><ele>295.6666666666667</ele><time>2026-04-04T12:21:56.178Z</time></trkpt><trkpt lat="45.508968789325245" lon="11.16273222970302"><ele>297.0</ele><time>2026-04-04T12:21:57.178Z</time></trkpt><trkpt lat="45.50916982198647" lon="11.162672306454011"><ele>297.0</ele><time>2026-04-04T12:21:58.178Z</time></trkpt><trkpt lat="45.50936338303291" lon="11.16262230246182"><ele>297.0</ele><time>2026-04-04T12:21:59.178Z</time></trkpt><trkpt lat="45.509565433244866" lon="11.162552931431899"><ele>297.0</ele><time>2026-04-04T12:22:00.178Z</time></trkpt><trkpt lat="45.50976550434918" lon="11.16249001833184"><ele>297.3333333333333</ele><time>2026-04-04T12:22:01.178Z</time></trkpt><trkpt lat="45.50996598052302" lon="11.16242254502957"><ele>297.66666666666663</ele><time>2026-04-04T12:22:02.178Z</time></trkpt><trkpt lat="45.51017192897533" lon="11.162347466673252"><ele>298.0</ele><time>2026-04-04T12:22:03.178Z</time></trkpt><trkpt lat="45.51037079677828" lon="11.162277502149816"><ele>298.66666666666663</ele><time>2026-04-04T12:22:04.178Z</time></trkpt><trkpt lat="45.510580287916035" lon="11.162212574680717"><ele>299.3333333333333</ele><time>2026-04-04T12:22:05.178Z</time></trkpt><trkpt lat="45.510789144364765" lon="11.162150571785116"><ele>300.0</ele><time>2026-04-04T12:22:06.178Z</time></trkpt><trkpt lat="45.51099966740166" lon="11.16209426047061"><ele>300.0</ele><time>2026-04-04T12:22:07.178Z</time></trkpt><trkpt lat="45.511217684780235" lon="11.162042462501338"><ele>300.0</ele><time>2026-04-04T12:22:08.178Z</time></trkpt><trkpt lat="45.51143106894034" lon="11.161975361527874"><ele>300.0</ele><time>2026-04-04T12:22:09.178Z</time></trkpt><trkpt lat="45.51164387794759" lon="11.161899427272743"><ele>301.3333333333333</ele><time>2026-04-04T12:22:10.178Z</time></trkpt><trkpt lat="45.51185533310403" lon="11.16183264845706"><ele>302.66666666666663</ele><time>2026-04-04T12:22:11.178Z</time></trkpt><trkpt lat="45.51207330231027" lon="11.161758990013539"><ele>304.0</ele><time>2026-04-04T12:22:12.178Z</time></trkpt><trkpt lat="45.512291834555626" lon="11.161685232519067"><ele>304.3333333333333</ele><time>2026-04-04T12:22:13.178Z</time></trkpt><trkpt lat="45.512496519121065" lon="11.161608859054695"><ele>304.6666666666667</ele><time>2026-04-04T12:22:14.178Z</time></trkpt><trkpt lat="45.51269644779465" lon="11.161547655429862"><ele>305.0</ele><time>2026-04-04T12:22:15.178Z</time></trkpt><trkpt lat="45.512885643085525" lon="11.161477560209843"><ele>305.6666666666667</ele><time>2026-04-04T12:22:16.178Z</time></trkpt><trkpt lat="45.51307460432613" lon="11.161412008836384"><ele>306.3333333333333</ele><time>2026-04-04T12:22:17.178Z</time></trkpt><trkpt lat="45.51327152174663" lon="11.161346520953686"><ele>307.0</ele><time>2026-04-04T12:22:18.178Z</time></trkpt><trkpt lat="45.51346100199682" lon="11.161296091218906"><ele>307.0</ele><time>2026-04-04T12:22:19.178Z</time></trkpt><trkpt lat="45.51365556257103" lon="11.161238001757438"><ele>307.0</ele><time>2026-04-04T12:22:20.178Z</time></trkpt><trkpt lat="45.513859915175665" lon="11.161180234650478"><ele>307.0</ele><time>2026-04-04T12:22:21.178Z</time></trkpt><trkpt lat="45.51407188577506" lon="11.161129448575762"><ele>309.0</ele><time>2026-04-04T12:22:22.178Z</time></trkpt><trkpt lat="45.51430114541851" lon="11.161092361959811"><ele>311.0</ele><time>2026-04-04T12:22:23.178Z</time></trkpt><trkpt lat="45.514548822566" lon="11.161043512913578"><ele>312.5</ele><time>2026-04-04T12:22:24.178Z</time></trkpt><trkpt lat="45.514793621604554" lon="11.160992455227737"><ele>314.0</ele><time>2026-04-04T12:22:25.178Z</time></trkpt><trkpt lat="45.515021885150674" lon="11.160956381929141"><ele>314.0</ele><time>2026-04-04T12:22:26.178Z</time></trkpt><trkpt lat="45.51523983607116" lon="11.16092507046893"><ele>314.0</ele><time>2026-04-04T12:22:27.178Z</time></trkpt><trkpt lat="45.515434478836504" lon="11.160894038797412"><ele>314.0</ele><time>2026-04-04T12:22:28.178Z</time></trkpt><trkpt lat="45.51563048447654" lon="11.160871904646363"><ele>314.0</ele><time>2026-04-04T12:22:29.178Z</time></trkpt><trkpt lat="45.51582423987728" lon="11.160835022685918"><ele>314.0</ele><time>2026-04-04T12:22:30.178Z</time></trkpt><trkpt lat="45.516029541123196" lon="11.160814017018739"><ele>314.0</ele><time>2026-04-04T12:22:31.178Z</time></trkpt><trkpt lat="45.51622414652572" lon="11.16077860742568"><ele>314.6666666666667</ele><time>2026-04-04T12:22:32.178Z</time></trkpt><trkpt lat="45.51642057385141" lon="11.160726706139487"><ele>315.3333333333333</ele><time>2026-04-04T12:22:33.178Z</time></trkpt><trkpt lat="45.51661063176933" lon="11.160669964814762"><ele>316.0</ele><time>2026-04-04T12:22:34.178Z</time></trkpt><trkpt lat="45.51680329554467" lon="11.160599160974884"><ele>316.0</ele><time>2026-04-04T12:22:35.178Z</time></trkpt><trkpt lat="45.51699730777956" lon="11.160518014849835"><ele>316.0</ele><time>2026-04-04T12:22:36.178Z</time></trkpt><trkpt lat="45.51719364176477" lon="11.160420914773649"><ele>316.0</ele><time>2026-04-04T12:22:37.178Z</time></trkpt><trkpt lat="45.51738822951465" lon="11.160341287272681"><ele>317.0</ele><time>2026-04-04T12:22:38.178Z</time></trkpt><trkpt lat="45.51757828844712" lon="11.160260933404778"><ele>318.0</ele><time>2026-04-04T12:22:39.178Z</time></trkpt><trkpt lat="45.517784381343894" lon="11.160155915375174"><ele>319.0</ele><time>2026-04-04T12:22:40.178Z</time></trkpt><trkpt lat="45.518000594945136" lon="11.160049424099705"><ele>319.5</ele><time>2026-04-04T12:22:41.178Z</time></trkpt><trkpt lat="45.5182268821611" lon="11.159905623418153"><ele>320.0</ele><time>2026-04-04T12:22:42.178Z</time></trkpt><trkpt lat="45.518463251269864" lon="11.159764621173055"><ele>320.0</ele><time>2026-04-04T12:22:43.178Z</time></trkpt><trkpt lat="45.51870115389473" lon="11.159660928324106"><ele>320.0</ele><time>2026-04-04T12:22:44.178Z</time></trkpt><trkpt lat="45.518916608098934" lon="11.159549386043318"><ele>322.5</ele><time>2026-04-04T12:22:45.178Z</time></trkpt><trkpt lat="45.51914002867592" lon="11.159449912955004"><ele>325.0</ele><time>2026-04-04T12:22:46.178Z</time></trkpt><trkpt lat="45.51936389098412" lon="11.159346833729044"><ele>326.0</ele><time>2026-04-04T12:22:47.178Z</time></trkpt><trkpt lat="45.51956932224576" lon="11.159257892033956"><ele>327.0</ele><time>2026-04-04T12:22:48.178Z</time></trkpt><trkpt lat="45.51977529533848" lon="11.159160801868998"><ele>328.0</ele><time>2026-04-04T12:22:49.178Z</time></trkpt><trkpt lat="45.5199684483134" lon="11.15908340550066"><ele>328.0</ele><time>2026-04-04T12:22:50.178Z</time></trkpt><trkpt lat="45.52015908843376" lon="11.159034600782725"><ele>328.0</ele><time>2026-04-04T12:22:51.178Z</time></trkpt><trkpt lat="45.52034864218002" lon="11.15899525668609"><ele>328.0</ele><time>2026-04-04T12:22:52.178Z</time></trkpt><trkpt lat="45.5205106876556" lon="11.158979873828205"><ele>328.3333333333333</ele><time>2026-04-04T12:22:53.178Z</time></trkpt><trkpt lat="45.52067393751853" lon="11.158959693795039"><ele>328.6666666666667</ele><time>2026-04-04T12:22:54.178Z</time></trkpt><trkpt lat="45.52081279168387" lon="11.1589454044857"><ele>329.0</ele><time>2026-04-04T12:22:55.178Z</time></trkpt><trkpt lat="45.520957723920866" lon="11.158980314851801"><ele>329.5</ele><time>2026-04-04T12:22:56.178Z</time></trkpt><trkpt lat="45.52108012393917" lon="11.159046866402807"><ele>330.0</ele><time>2026-04-04T12:22:57.178Z</time></trkpt><trkpt lat="45.521178645117516" lon="11.15913833594167"><ele>330.5</ele><time>2026-04-04T12:22:58.178Z</time></trkpt><trkpt lat="45.521272605191314" lon="11.159269710720444"><ele>331.0</ele><time>2026-04-04T12:22:59.178Z</time></trkpt><trkpt lat="45.521359846084685" lon="11.159418980529345"><ele>331.3333333333333</ele><time>2026-04-04T12:23:00.178Z</time></trkpt><trkpt lat="45.521440774593344" lon="11.159596991100754"><ele>331.6666666666667</ele><time>2026-04-04T12:23:01.178Z</time></trkpt><trkpt lat="45.5215066734819" lon="11.159794720702694"><ele>332.0</ele><time>2026-04-04T12:23:02.178Z</time></trkpt><trkpt lat="45.52156365048551" lon="11.160040950256406"><ele>332.33333333333337</ele><time>2026-04-04T12:23:03.178Z</time></trkpt><trkpt lat="45.52161117101355" lon="11.160301323553588"><ele>332.6666666666667</ele><time>2026-04-04T12:23:04.178Z</time></trkpt><trkpt lat="45.521648817655446" lon="11.160577667041725"><ele>333.0</ele><time>2026-04-04T12:23:05.178Z</time></trkpt><trkpt lat="45.52170231465287" lon="11.160796934189202"><ele>333.0</ele><time>2026-04-04T12:23:06.178Z</time></trkpt><trkpt lat="45.52174620064579" lon="11.161025844953643"><ele>333.0</ele><time>2026-04-04T12:23:07.178Z</time></trkpt><trkpt lat="45.52179292924646" lon="11.161222962557371"><ele>333.0</ele><time>2026-04-04T12:23:08.178Z</time></trkpt><trkpt lat="45.52183016468694" lon="11.161444647873289"><ele>333.0</ele><time>2026-04-04T12:23:09.178Z</time></trkpt><trkpt lat="45.52185652516514" lon="11.16165397125214"><ele>333.0</ele><time>2026-04-04T12:23:10.178Z</time></trkpt><trkpt lat="45.52188429073794" lon="11.161835836108928"><ele>333.0</ele><time>2026-04-04T12:23:11.178Z</time></trkpt><trkpt lat="45.521917726863364" lon="11.161998472708605"><ele>333.0</ele><time>2026-04-04T12:23:12.178Z</time></trkpt><trkpt lat="45.52194572231115" lon="11.162140607284437"><ele>333.0</ele><time>2026-04-04T12:23:13.178Z</time></trkpt><trkpt lat="45.52195066595817" lon="11.16224705861472"><ele>333.0</ele><time>2026-04-04T12:23:14.178Z</time></trkpt><trkpt lat="45.52194816369347" lon="11.162357723891164"><ele>333.0</ele><time>2026-04-04T12:23:15.178Z</time></trkpt><trkpt lat="45.52192785480749" lon="11.162472909526775"><ele>333.0</ele><time>2026-04-04T12:23:16.178Z</time></trkpt><trkpt lat="45.52191480639978" lon="11.162586288322128"><ele>333.0</ele><time>2026-04-04T12:23:17.178Z</time></trkpt><trkpt lat="45.5219450556349" lon="11.162683094254858"><ele>333.0</ele><time>2026-04-04T12:23:18.178Z</time></trkpt><trkpt lat="45.52199425459037" lon="11.162762464156629"><ele>334.0</ele><time>2026-04-04T12:23:19.178Z</time></trkpt><trkpt lat="45.52207081924635" lon="11.162811920490872"><ele>335.0</ele><time>2026-04-04T12:23:20.178Z</time></trkpt><trkpt lat="45.522185199700594" lon="11.162847427592116"><ele>336.0</ele><time>2026-04-04T12:23:21.178Z</time></trkpt><trkpt lat="45.522304605941216" lon="11.162884237971912"><ele>337.0</ele><time>2026-04-04T12:23:22.178Z</time></trkpt><trkpt lat="45.52244530731931" lon="11.162939020393752"><ele>337.0</ele><time>2026-04-04T12:23:23.178Z</time></trkpt><trkpt lat="45.52258965058939" lon="11.162943630829211"><ele>337.0</ele><time>2026-04-04T12:23:24.179Z</time></trkpt><trkpt lat="45.52272486618598" lon="11.162949398566102"><ele>337.0</ele><time>2026-04-04T12:23:25.179Z</time></trkpt><trkpt lat="45.522855840185045" lon="11.162948702478522"><ele>337.0</ele><time>2026-04-04T12:23:26.179Z</time></trkpt><trkpt lat="45.52300339693783" lon="11.162918813983561"><ele>337.0</ele><time>2026-04-04T12:23:27.179Z</time></trkpt><trkpt lat="45.52315197232932" lon="11.16286562267772"><ele>337.0</ele><time>2026-04-04T12:23:28.179Z</time></trkpt><trkpt lat="45.5233141917644" lon="11.162813627539624"><ele>337.0</ele><time>2026-04-04T12:23:29.179Z</time></trkpt><trkpt lat="45.52349229971785" lon="11.162755148873932"><ele>337.0</ele><time>2026-04-04T12:23:30.179Z</time></trkpt><trkpt lat="45.52369387008344" lon="11.162685156796444"><ele>337.0</ele><time>2026-04-04T12:23:31.179Z</time></trkpt><trkpt lat="45.52391194138689" lon="11.162608391621605"><ele>337.0</ele><time>2026-04-04T12:23:32.179Z</time></trkpt><trkpt lat="45.52414574413295" lon="11.16252242121917"><ele>339.0</ele><time>2026-04-04T12:23:33.179Z</time></trkpt><trkpt lat="45.52439128470186" lon="11.162430487263222"><ele>341.0</ele><time>2026-04-04T12:23:34.179Z</time></trkpt><trkpt lat="45.52465508251849" lon="11.162342441363764"><ele>342.0</ele><time>2026-04-04T12:23:35.179Z</time></trkpt><trkpt lat="45.52493766571893" lon="11.162237213035278"><ele>343.0</ele><time>2026-04-04T12:23:36.179Z</time></trkpt><trkpt lat="45.52523817561086" lon="11.162128141331397"><ele>344.0</ele><time>2026-04-04T12:23:37.179Z</time></trkpt><trkpt lat="45.52550126169029" lon="11.162019490762288"><ele>345.0</ele><time>2026-04-04T12:23:38.179Z</time></trkpt><trkpt lat="45.52576460947259" lon="11.161928478972287"><ele>345.0</ele><time>2026-04-04T12:23:39.179Z</time></trkpt><trkpt lat="45.526035878468335" lon="11.161836474907703"><ele>345.0</ele><time>2026-04-04T12:23:40.179Z</time></trkpt><trkpt lat="45.52631343419453" lon="11.161719189027083"><ele>346.5</ele><time>2026-04-04T12:23:41.179Z</time></trkpt><trkpt lat="45.52657927009462" lon="11.161620301030268"><ele>348.0</ele><time>2026-04-04T12:23:42.179Z</time></trkpt><trkpt lat="45.52681644775816" lon="11.161530666573125"><ele>348.5</ele><time>2026-04-04T12:23:43.179Z</time></trkpt><trkpt lat="45.527045034297934" lon="11.161447217746552"><ele>349.0</ele><time>2026-04-04T12:23:44.179Z</time></trkpt><trkpt lat="45.52726122025512" lon="11.161364208807509"><ele>350.5</ele><time>2026-04-04T12:23:45.179Z</time></trkpt><trkpt lat="45.52747169482999" lon="11.16127626857178"><ele>352.0</ele><time>2026-04-04T12:23:46.179Z</time></trkpt><trkpt lat="45.527702492840355" lon="11.161193003710453"><ele>353.5</ele><time>2026-04-04T12:23:47.179Z</time></trkpt><trkpt lat="45.527923280959115" lon="11.161108753340347"><ele>355.0</ele><time>2026-04-04T12:23:48.179Z</time></trkpt><trkpt lat="45.52816860699635" lon="11.161018075726156"><ele>355.0</ele><time>2026-04-04T12:23:49.179Z</time></trkpt><trkpt lat="45.52842329677784" lon="11.160927306939945"><ele>355.0</ele><time>2026-04-04T12:23:50.179Z</time></trkpt><trkpt lat="45.528684632257445" lon="11.160831626650397"><ele>355.5</ele><time>2026-04-04T12:23:51.179Z</time></trkpt><trkpt lat="45.52892335976634" lon="11.16074712962418"><ele>356.0</ele><time>2026-04-04T12:23:52.179Z</time></trkpt><trkpt lat="45.52915628707193" lon="11.160645184373196"><ele>356.5</ele><time>2026-04-04T12:23:53.179Z</time></trkpt><trkpt lat="45.5293921396374" lon="11.160555878502262"><ele>357.0</ele><time>2026-04-04T12:23:54.179Z</time></trkpt><trkpt lat="45.52963681717245" lon="11.160473601092185"><ele>357.0</ele><time>2026-04-04T12:23:55.179Z</time></trkpt><trkpt lat="45.52988559264098" lon="11.160394081539163"><ele>357.0</ele><time>2026-04-04T12:23:56.179Z</time></trkpt><trkpt lat="45.53014457134369" lon="11.16029683392312"><ele>357.5</ele><time>2026-04-04T12:23:57.179Z</time></trkpt><trkpt lat="45.53040249913523" lon="11.160196340535743"><ele>358.0</ele><time>2026-04-04T12:23:58.179Z</time></trkpt><trkpt lat="45.530654067540254" lon="11.16010922855378"><ele>358.0</ele><time>2026-04-04T12:23:59.179Z</time></trkpt><trkpt lat="45.530887760916485" lon="11.160012087670598"><ele>358.0</ele><time>2026-04-04T12:24:00.179Z</time></trkpt><trkpt lat="45.53110685501312" lon="11.15993057745572"><ele>358.5</ele><time>2026-04-04T12:24:01.179Z</time></trkpt><trkpt lat="45.53132759537415" lon="11.159845868237491"><ele>359.0</ele><time>2026-04-04T12:24:02.179Z</time></trkpt><trkpt lat="45.53154794794546" lon="11.159764547926942"><ele>359.0</ele><time>2026-04-04T12:24:03.179Z</time></trkpt><trkpt lat="45.53176441539673" lon="11.159697921062273"><ele>359.0</ele><time>2026-04-04T12:24:04.179Z</time></trkpt><trkpt lat="45.53198482599043" lon="11.159613311482763"><ele>360.0</ele><time>2026-04-04T12:24:05.179Z</time></trkpt><trkpt lat="45.532209268785905" lon="11.159536211627957"><ele>361.0</ele><time>2026-04-04T12:24:06.179Z</time></trkpt><trkpt lat="45.532433708967346" lon="11.159449998610375"><ele>361.0</ele><time>2026-04-04T12:24:07.179Z</time></trkpt><trkpt lat="45.532664975292036" lon="11.159373475584305"><ele>361.0</ele><time>2026-04-04T12:24:08.179Z</time></trkpt><trkpt lat="45.5329010291664" lon="11.159302389968023"><ele>364.5</ele><time>2026-04-04T12:24:09.179Z</time></trkpt><trkpt lat="45.53314367912022" lon="11.159210683740879"><ele>368.0</ele><time>2026-04-04T12:24:10.179Z</time></trkpt><trkpt lat="45.53338457759003" lon="11.159108813200902"><ele>367.0</ele><time>2026-04-04T12:24:11.179Z</time></trkpt><trkpt lat="45.533623935635156" lon="11.159015799122466"><ele>366.0</ele><time>2026-04-04T12:24:12.179Z</time></trkpt><trkpt lat="45.53383765956931" lon="11.158916405241792"><ele>366.0</ele><time>2026-04-04T12:24:13.179Z</time></trkpt><trkpt lat="45.534023924957744" lon="11.158807731341211"><ele>366.0</ele><time>2026-04-04T12:24:14.179Z</time></trkpt><trkpt lat="45.534225386262236" lon="11.158703120459052"><ele>366.0</ele><time>2026-04-04T12:24:15.179Z</time></trkpt><trkpt lat="45.53441584652957" lon="11.158594156086938"><ele>366.3333333333333</ele><time>2026-04-04T12:24:16.179Z</time></trkpt><trkpt lat="45.534611038403355" lon="11.158453453896167"><ele>366.66666666666663</ele><time>2026-04-04T12:24:17.179Z</time></trkpt><trkpt lat="45.534816606001044" lon="11.158313138506669"><ele>367.0</ele><time>2026-04-04T12:24:18.179Z</time></trkpt><trkpt lat="45.53503193392745" lon="11.158148629430546"><ele>367.0</ele><time>2026-04-04T12:24:19.179Z</time></trkpt><trkpt lat="45.53525192085221" lon="11.157970583156494"><ele>367.0</ele><time>2026-04-04T12:24:20.179Z</time></trkpt><trkpt lat="45.535483146251295" lon="11.157796182031447"><ele>370.0</ele><time>2026-04-04T12:24:21.179Z</time></trkpt><trkpt lat="45.535712458270574" lon="11.157607230849798"><ele>373.0</ele><time>2026-04-04T12:24:22.179Z</time></trkpt><trkpt lat="45.5359431664511" lon="11.157428368746762"><ele>372.5</ele><time>2026-04-04T12:24:23.179Z</time></trkpt><trkpt lat="45.53616035977256" lon="11.157273549195063"><ele>372.0</ele><time>2026-04-04T12:24:24.179Z</time></trkpt><trkpt lat="45.53636087821494" lon="11.157114351158317"><ele>374.3333333333333</ele><time>2026-04-04T12:24:25.179Z</time></trkpt><trkpt lat="45.53654641546607" lon="11.156976038044613"><ele>376.66666666666663</ele><time>2026-04-04T12:24:26.179Z</time></trkpt><trkpt lat="45.53672954795483" lon="11.156835987059115"><ele>379.0</ele><time>2026-04-04T12:24:27.179Z</time></trkpt><trkpt lat="45.536900501574344" lon="11.15670397287367"><ele>380.0</ele><time>2026-04-04T12:24:28.179Z</time></trkpt><trkpt lat="45.53705569149125" lon="11.156572957501634"><ele>381.0</ele><time>2026-04-04T12:24:29.179Z</time></trkpt><trkpt lat="45.537208178424684" lon="11.15644648843561"><ele>382.0</ele><time>2026-04-04T12:24:30.179Z</time></trkpt><trkpt lat="45.537348376610396" lon="11.156337889701932"><ele>382.0</ele><time>2026-04-04T12:24:31.179Z</time></trkpt><trkpt lat="45.53748230458841" lon="11.156235107226772"><ele>382.0</ele><time>2026-04-04T12:24:32.179Z</time></trkpt><trkpt lat="45.53760946726414" lon="11.156133373329503"><ele>382.0</ele><time>2026-04-04T12:24:33.179Z</time></trkpt><trkpt lat="45.53775314181033" lon="11.156055320234657"><ele>382.3333333333333</ele><time>2026-04-04T12:24:34.179Z</time></trkpt><trkpt lat="45.53792287813948" lon="11.156001207056693"><ele>382.6666666666667</ele><time>2026-04-04T12:24:35.179Z</time></trkpt><trkpt lat="45.53810844596808" lon="11.155961847513323"><ele>383.0</ele><time>2026-04-04T12:24:36.179Z</time></trkpt><trkpt lat="45.53829979727404" lon="11.15591796167656"><ele>383.0</ele><time>2026-04-04T12:24:37.179Z</time></trkpt><trkpt lat="45.53851526015816" lon="11.155840753054814"><ele>383.0</ele><time>2026-04-04T12:24:38.179Z</time></trkpt><trkpt lat="45.53874819759937" lon="11.15578019157808"><ele>383.5</ele><time>2026-04-04T12:24:39.179Z</time></trkpt><trkpt lat="45.538996249429395" lon="11.155706831238799"><ele>384.0</ele><time>2026-04-04T12:24:40.179Z</time></trkpt><trkpt lat="45.53925729001745" lon="11.15561671144785"><ele>384.0</ele><time>2026-04-04T12:24:41.179Z</time></trkpt><trkpt lat="45.53952442334521" lon="11.155546853091064"><ele>384.0</ele><time>2026-04-04T12:24:42.179Z</time></trkpt><trkpt lat="45.539767809982095" lon="11.15546811315617"><ele>385.5</ele><time>2026-04-04T12:24:43.179Z</time></trkpt><trkpt lat="45.5400029878617" lon="11.155387142557318"><ele>387.0</ele><time>2026-04-04T12:24:44.179Z</time></trkpt><trkpt lat="45.5402093558704" lon="11.155300973844339"><ele>388.0</ele><time>2026-04-04T12:24:45.179Z</time></trkpt><trkpt lat="45.54040222770602" lon="11.155238643259349"><ele>389.0</ele><time>2026-04-04T12:24:46.179Z</time></trkpt><trkpt lat="45.5406018169119" lon="11.15519057361818"><ele>390.0</ele><time>2026-04-04T12:24:47.179Z</time></trkpt><trkpt lat="45.54078086632856" lon="11.155125861490896"><ele>390.0</ele><time>2026-04-04T12:24:48.179Z</time></trkpt><trkpt lat="45.54096937304506" lon="11.155078576757326"><ele>390.0</ele><time>2026-04-04T12:24:49.179Z</time></trkpt><trkpt lat="45.54115795509072" lon="11.155061760768184"><ele>390.0</ele><time>2026-04-04T12:24:50.179Z</time></trkpt><trkpt lat="45.54136361889302" lon="11.155064623961977"><ele>391.33333333333337</ele><time>2026-04-04T12:24:51.179Z</time></trkpt><trkpt lat="45.54157336041241" lon="11.155087493735401"><ele>392.6666666666667</ele><time>2026-04-04T12:24:52.179Z</time></trkpt><trkpt lat="45.541797209095016" lon="11.155106632263124"><ele>394.0</ele><time>2026-04-04T12:24:53.179Z</time></trkpt><trkpt lat="45.54203076090728" lon="11.155139131920984"><ele>394.33333333333337</ele><time>2026-04-04T12:24:54.179Z</time></trkpt><trkpt lat="45.54225800234064" lon="11.155153269156251"><ele>394.66666666666663</ele><time>2026-04-04T12:24:55.179Z</time></trkpt><trkpt lat="45.54247333876033" lon="11.155181511160068"><ele>395.0</ele><time>2026-04-04T12:24:56.179Z</time></trkpt><trkpt lat="45.542667436798965" lon="11.155213010053515"><ele>395.0</ele><time>2026-04-04T12:24:57.179Z</time></trkpt><trkpt lat="45.54285441886576" lon="11.155249266244224"><ele>395.0</ele><time>2026-04-04T12:24:58.179Z</time></trkpt><trkpt lat="45.54303186381235" lon="11.155277272576576"><ele>395.0</ele><time>2026-04-04T12:24:59.179Z</time></trkpt><trkpt lat="45.543199402993956" lon="11.155314815307989"><ele>395.5</ele><time>2026-04-04T12:25:00.179Z</time></trkpt><trkpt lat="45.54334894535092" lon="11.15535576321733"><ele>396.0</ele><time>2026-04-04T12:25:01.179Z</time></trkpt><trkpt lat="45.543477621516836" lon="11.155388970747355"><ele>396.5</ele><time>2026-04-04T12:25:02.179Z</time></trkpt><trkpt lat="45.54360169626738" lon="11.155410696016862"><ele>397.0</ele><time>2026-04-04T12:25:03.179Z</time></trkpt><trkpt lat="45.54372683322718" lon="11.155423968347801"><ele>397.8</ele><time>2026-04-04T12:25:04.179Z</time></trkpt><trkpt lat="45.54383320024274" lon="11.15545086360955"><ele>398.6</ele><time>2026-04-04T12:25:05.179Z</time></trkpt><trkpt lat="45.54392498921551" lon="11.155472188128831"><ele>399.40000000000003</ele><time>2026-04-04T12:25:06.179Z</time></trkpt><trkpt lat="45.544016510063116" lon="11.155475653666613"><ele>400.20000000000005</ele><time>2026-04-04T12:25:07.179Z</time></trkpt><trkpt lat="45.54413818689699" lon="11.155494673102785"><ele>401.0</ele><time>2026-04-04T12:25:09.179Z</time></trkpt><trkpt lat="45.54422235532821" lon="11.155534230313945"><ele>401.0</ele><time>2026-04-04T12:25:11.179Z</time></trkpt><trkpt lat="45.544305979410645" lon="11.155497239902939"><ele>401.0</ele><time>2026-04-04T12:25:13.179Z</time></trkpt><trkpt lat="45.54437866393491" lon="11.155499710737896"><ele>401.0</ele><time>2026-04-04T12:25:16.179Z</time></trkpt><trkpt lat="45.54464276858306" lon="11.155603371169073"><ele>401.0</ele><time>2026-04-04T12:25:54.179Z</time></trkpt><trkpt lat="45.54476615650722" lon="11.155607899456633"><ele>402.0</ele><time>2026-04-04T12:25:55.179Z</time></trkpt><trkpt lat="45.54494843760105" lon="11.155601513718088"><ele>403.0</ele><time>2026-04-04T12:25:56.179Z</time></trkpt><trkpt lat="45.54512523376276" lon="11.155540154269252"><ele>404.0</ele><time>2026-04-04T12:25:57.179Z</time></trkpt><trkpt lat="45.54527331487423" lon="11.155463395857124"><ele>404.75</ele><time>2026-04-04T12:25:58.179Z</time></trkpt><trkpt lat="45.545403337271054" lon="11.155430721416211"><ele>405.5</ele><time>2026-04-04T12:25:59.179Z</time></trkpt><trkpt lat="45.545548108384736" lon="11.155410466181104"><ele>406.25</ele><time>2026-04-04T12:26:00.179Z</time></trkpt><trkpt lat="45.54569434719981" lon="11.155385771600164"><ele>407.0</ele><time>2026-04-04T12:26:01.179Z</time></trkpt><trkpt lat="45.545841433535934" lon="11.155365009327369"><ele>407.0</ele><time>2026-04-04T12:26:02.179Z</time></trkpt><trkpt lat="45.54603642880941" lon="11.155302425954437"><ele>407.0</ele><time>2026-04-04T12:26:03.179Z</time></trkpt><trkpt lat="45.54619345228819" lon="11.155290387848588"><ele>407.0</ele><time>2026-04-04T12:26:04.179Z</time></trkpt><trkpt lat="45.546350769851834" lon="11.155250302888826"><ele>407.5</ele><time>2026-04-04T12:26:05.179Z</time></trkpt><trkpt lat="45.54650939417535" lon="11.15521582447123"><ele>408.0</ele><time>2026-04-04T12:26:06.179Z</time></trkpt><trkpt lat="45.546636949808295" lon="11.155170762270458"><ele>408.5</ele><time>2026-04-04T12:26:07.179Z</time></trkpt><trkpt lat="45.54675493978968" lon="11.155150548524539"><ele>409.0</ele><time>2026-04-04T12:26:08.179Z</time></trkpt><trkpt lat="45.5468927530972" lon="11.155117185274088"><ele>409.0</ele><time>2026-04-04T12:26:09.179Z</time></trkpt><trkpt lat="45.54703233102866" lon="11.155070803284563"><ele>409.0</ele><time>2026-04-04T12:26:10.179Z</time></trkpt><trkpt lat="45.54717934781485" lon="11.155005587942124"><ele>409.0</ele><time>2026-04-04T12:26:11.179Z</time></trkpt><trkpt lat="45.54732714757724" lon="11.15493469941089"><ele>408.5</ele><time>2026-04-04T12:26:12.179Z</time></trkpt><trkpt lat="45.547450328961425" lon="11.154779708998632"><ele>408.0</ele><time>2026-04-04T12:26:13.179Z</time></trkpt><trkpt lat="45.54757140437572" lon="11.154708149939674"><ele>407.5</ele><time>2026-04-04T12:26:14.179Z</time></trkpt><trkpt lat="45.547681480859325" lon="11.15467598342951"><ele>407.0</ele><time>2026-04-04T12:26:15.179Z</time></trkpt><trkpt lat="45.54776724508543" lon="11.154589432484904"><ele>407.0</ele><time>2026-04-04T12:26:16.179Z</time></trkpt><trkpt lat="45.547894614433595" lon="11.154536441173523"><ele>407.0</ele><time>2026-04-04T12:26:17.179Z</time></trkpt><trkpt lat="45.54810610944727" lon="11.154595103795192"><ele>407.0</ele><time>2026-04-04T12:26:18.179Z</time></trkpt><trkpt lat="45.548353753653664" lon="11.154728412995269"><ele>407.0</ele><time>2026-04-04T12:26:19.179Z</time></trkpt><trkpt lat="45.548553572227654" lon="11.154786372157112"><ele>407.0</ele><time>2026-04-04T12:26:20.179Z</time></trkpt><trkpt lat="45.54876431109084" lon="11.154870049889627"><ele>407.0</ele><time>2026-04-04T12:26:21.179Z</time></trkpt><trkpt lat="45.54897312653624" lon="11.154900431250041"><ele>408.0</ele><time>2026-04-04T12:26:22.179Z</time></trkpt><trkpt lat="45.54913658379918" lon="11.154926349609184"><ele>409.0</ele><time>2026-04-04T12:26:23.179Z</time></trkpt><trkpt lat="45.549295687349264" lon="11.154970530143157"><ele>410.0</ele><time>2026-04-04T12:26:24.179Z</time></trkpt><trkpt lat="45.54945915501881" lon="11.155029587576957"><ele>410.66666666666663</ele><time>2026-04-04T12:26:25.179Z</time></trkpt><trkpt lat="45.54963210389107" lon="11.15507809214616"><ele>411.33333333333337</ele><time>2026-04-04T12:26:26.179Z</time></trkpt><trkpt lat="45.54980972182484" lon="11.155139374039551"><ele>412.0</ele><time>2026-04-04T12:26:27.179Z</time></trkpt><trkpt lat="45.550007782406865" lon="11.155191606747772"><ele>412.0</ele><time>2026-04-04T12:26:28.179Z</time></trkpt><trkpt lat="45.55023236208349" lon="11.155246318952114"><ele>412.0</ele><time>2026-04-04T12:26:29.179Z</time></trkpt><trkpt lat="45.55044518661218" lon="11.155316187426173"><ele>412.0</ele><time>2026-04-04T12:26:30.179Z</time></trkpt><trkpt lat="45.550643930396866" lon="11.155370296411364"><ele>412.6666666666667</ele><time>2026-04-04T12:26:31.179Z</time></trkpt><trkpt lat="45.55083309380326" lon="11.155404158729535"><ele>413.33333333333337</ele><time>2026-04-04T12:26:32.179Z</time></trkpt><trkpt lat="45.551034607562315" lon="11.155407667126422"><ele>414.0</ele><time>2026-04-04T12:26:33.179Z</time></trkpt><trkpt lat="45.551232045079274" lon="11.155385214175288"><ele>414.33333333333337</ele><time>2026-04-04T12:26:34.179Z</time></trkpt><trkpt lat="45.55141788059462" lon="11.15539013044848"><ele>414.6666666666667</ele><time>2026-04-04T12:26:35.179Z</time></trkpt><trkpt lat="45.55159876092453" lon="11.155402674513699"><ele>415.0</ele><time>2026-04-04T12:26:36.179Z</time></trkpt><trkpt lat="45.551780941109605" lon="11.155411403282288"><ele>415.0</ele><time>2026-04-04T12:26:37.179Z</time></trkpt><trkpt lat="45.55195893677707" lon="11.155450207897298"><ele>415.0</ele><time>2026-04-04T12:26:38.179Z</time></trkpt><trkpt lat="45.55215450193455" lon="11.15552667696372"><ele>415.0</ele><time>2026-04-04T12:26:39.179Z</time></trkpt><trkpt lat="45.55234926752669" lon="11.155597849865314"><ele>415.0</ele><time>2026-04-04T12:26:40.179Z</time></trkpt><trkpt lat="45.55256620607482" lon="11.15563406148321"><ele>415.0</ele><time>2026-04-04T12:26:41.179Z</time></trkpt><trkpt lat="45.55279305663202" lon="11.155629905102078"><ele>415.0</ele><time>2026-04-04T12:26:42.179Z</time></trkpt><trkpt lat="45.553007781942185" lon="11.155598028077854"><ele>415.33333333333337</ele><time>2026-04-04T12:26:43.179Z</time></trkpt><trkpt lat="45.55320775040099" lon="11.155564753804521"><ele>415.66666666666663</ele><time>2026-04-04T12:26:44.179Z</time></trkpt><trkpt lat="45.55340378921651" lon="11.155539410424389"><ele>416.0</ele><time>2026-04-04T12:26:45.179Z</time></trkpt><trkpt lat="45.55359933409422" lon="11.155515247919348"><ele>417.0</ele><time>2026-04-04T12:26:46.179Z</time></trkpt><trkpt lat="45.553793885714185" lon="11.155480320600388"><ele>418.0</ele><time>2026-04-04T12:26:47.179Z</time></trkpt><trkpt lat="45.55399831530367" lon="11.1554389635511"><ele>419.0</ele><time>2026-04-04T12:26:48.179Z</time></trkpt><trkpt lat="45.55419922564122" lon="11.155410162468131"><ele>419.0</ele><time>2026-04-04T12:26:49.179Z</time></trkpt><trkpt lat="45.55439909569337" lon="11.15536502233618"><ele>419.0</ele><time>2026-04-04T12:26:50.179Z</time></trkpt><trkpt lat="45.55459811076221" lon="11.155330873433693"><ele>419.0</ele><time>2026-04-04T12:26:51.179Z</time></trkpt><trkpt lat="45.554800514223494" lon="11.15529987787607"><ele>420.3333333333333</ele><time>2026-04-04T12:26:52.179Z</time></trkpt><trkpt lat="45.55501009673493" lon="11.155274532929715"><ele>421.66666666666663</ele><time>2026-04-04T12:26:53.179Z</time></trkpt><trkpt lat="45.55522546759227" lon="11.155265415506394"><ele>423.0</ele><time>2026-04-04T12:26:54.179Z</time></trkpt><trkpt lat="45.55544751397037" lon="11.155265702415646"><ele>423.5</ele><time>2026-04-04T12:26:55.179Z</time></trkpt><trkpt lat="45.5556783330311" lon="11.155279643226825"><ele>424.0</ele><time>2026-04-04T12:26:56.179Z</time></trkpt><trkpt lat="45.555927004186394" lon="11.155290797080017"><ele>424.0</ele><time>2026-04-04T12:26:57.179Z</time></trkpt><trkpt lat="45.55618995048339" lon="11.155292475402447"><ele>424.0</ele><time>2026-04-04T12:26:58.179Z</time></trkpt><trkpt lat="45.55644802912429" lon="11.155268494553834"><ele>425.0</ele><time>2026-04-04T12:26:59.179Z</time></trkpt><trkpt lat="45.55667730496863" lon="11.15524342816951"><ele>426.0</ele><time>2026-04-04T12:27:00.179Z</time></trkpt><trkpt lat="45.55690127448029" lon="11.155210159253874"><ele>426.66666666666663</ele><time>2026-04-04T12:27:01.179Z</time></trkpt><trkpt lat="45.55711260554017" lon="11.155197608103121"><ele>427.3333333333333</ele><time>2026-04-04T12:27:02.179Z</time></trkpt><trkpt lat="45.557337704480624" lon="11.155184600526997"><ele>428.0</ele><time>2026-04-04T12:27:03.179Z</time></trkpt><trkpt lat="45.55757618787012" lon="11.155189484384719"><ele>428.0</ele><time>2026-04-04T12:27:04.179Z</time></trkpt><trkpt lat="45.55782481584863" lon="11.155207127095517"><ele>428.0</ele><time>2026-04-04T12:27:05.179Z</time></trkpt><trkpt lat="45.55807646953016" lon="11.155185496567732"><ele>428.0</ele><time>2026-04-04T12:27:06.179Z</time></trkpt><trkpt lat="45.55830079717055" lon="11.15518670731283"><ele>428.0</ele><time>2026-04-04T12:27:07.179Z</time></trkpt><trkpt lat="45.55852041149591" lon="11.15518941848908"><ele>428.0</ele><time>2026-04-04T12:27:08.179Z</time></trkpt><trkpt lat="45.55874599158684" lon="11.15519051142161"><ele>429.0</ele><time>2026-04-04T12:27:09.179Z</time></trkpt><trkpt lat="45.55895989415991" lon="11.155186830519881"><ele>430.0</ele><time>2026-04-04T12:27:10.179Z</time></trkpt><trkpt lat="45.559176019405626" lon="11.15519817179991"><ele>431.0</ele><time>2026-04-04T12:27:11.179Z</time></trkpt><trkpt lat="45.55939273916482" lon="11.155187073677432"><ele>432.0</ele><time>2026-04-04T12:27:12.179Z</time></trkpt><trkpt lat="45.559616064309395" lon="11.15519183590886"><ele>433.0</ele><time>2026-04-04T12:27:13.179Z</time></trkpt><trkpt lat="45.55983875706356" lon="11.155183308055715"><ele>434.0</ele><time>2026-04-04T12:27:14.179Z</time></trkpt><trkpt lat="45.56006293723513" lon="11.155171837097008"><ele>434.0</ele><time>2026-04-04T12:27:15.179Z</time></trkpt><trkpt lat="45.56028950006514" lon="11.155156049079729"><ele>434.0</ele><time>2026-04-04T12:27:16.179Z</time></trkpt><trkpt lat="45.56051002438728" lon="11.155128005331878"><ele>434.0</ele><time>2026-04-04T12:27:17.179Z</time></trkpt><trkpt lat="45.56071547059691" lon="11.155096316789841"><ele>434.3333333333333</ele><time>2026-04-04T12:27:18.179Z</time></trkpt><trkpt lat="45.560909208834616" lon="11.155061619359094"><ele>434.66666666666663</ele><time>2026-04-04T12:27:19.179Z</time></trkpt><trkpt lat="45.56109300337048" lon="11.155024660042471"><ele>435.0</ele><time>2026-04-04T12:27:20.179Z</time></trkpt><trkpt lat="45.56126845109675" lon="11.154984341059206"><ele>435.66666666666663</ele><time>2026-04-04T12:27:21.179Z</time></trkpt><trkpt lat="45.5614416904181" lon="11.154948189095759"><ele>436.3333333333333</ele><time>2026-04-04T12:27:22.179Z</time></trkpt><trkpt lat="45.561612185783915" lon="11.154917736714188"><ele>437.0</ele><time>2026-04-04T12:27:23.179Z</time></trkpt><trkpt lat="45.5617775127719" lon="11.154880708808214"><ele>436.66666666666663</ele><time>2026-04-04T12:27:24.179Z</time></trkpt><trkpt lat="45.56193025163752" lon="11.154856984912216"><ele>436.33333333333337</ele><time>2026-04-04T12:27:25.179Z</time></trkpt><trkpt lat="45.56208218624033" lon="11.154834079101407"><ele>436.0</ele><time>2026-04-04T12:27:26.18Z</time></trkpt><trkpt lat="45.562237833391926" lon="11.15481581002441"><ele>436.75</ele><time>2026-04-04T12:27:27.18Z</time></trkpt><trkpt lat="45.56238445451967" lon="11.154802312672603"><ele>437.5</ele><time>2026-04-04T12:27:28.18Z</time></trkpt><trkpt lat="45.56251822246058" lon="11.154815756116841"><ele>438.25</ele><time>2026-04-04T12:27:29.18Z</time></trkpt><trkpt lat="45.56264963953576" lon="11.154783714466605"><ele>439.0</ele><time>2026-04-04T12:27:30.18Z</time></trkpt><trkpt lat="45.562778737354705" lon="11.154708739011596"><ele>439.6666666666667</ele><time>2026-04-04T12:27:31.18Z</time></trkpt><trkpt lat="45.562913651860086" lon="11.154593685103778"><ele>440.33333333333337</ele><time>2026-04-04T12:27:32.18Z</time></trkpt><trkpt lat="45.56305015992246" lon="11.154489406544199"><ele>441.0</ele><time>2026-04-04T12:27:33.18Z</time></trkpt><trkpt lat="45.56320768712423" lon="11.154390690155736"><ele>441.0</ele><time>2026-04-04T12:27:34.18Z</time></trkpt><trkpt lat="45.563364490704366" lon="11.154279954878046"><ele>441.0</ele><time>2026-04-04T12:27:35.18Z</time></trkpt><trkpt lat="45.56351944088303" lon="11.154193901900024"><ele>441.0</ele><time>2026-04-04T12:27:36.18Z</time></trkpt><trkpt lat="45.563692907676106" lon="11.15412445692547"><ele>441.33333333333337</ele><time>2026-04-04T12:27:37.18Z</time></trkpt><trkpt lat="45.56386486146396" lon="11.154072648554916"><ele>441.6666666666667</ele><time>2026-04-04T12:27:38.18Z</time></trkpt><trkpt lat="45.564029813365174" lon="11.154003181004471"><ele>442.0</ele><time>2026-04-04T12:27:39.18Z</time></trkpt><trkpt lat="45.56420378338213" lon="11.153953249271156"><ele>442.0</ele><time>2026-04-04T12:27:40.18Z</time></trkpt><trkpt lat="45.5643847571988" lon="11.153900464935685"><ele>442.0</ele><time>2026-04-04T12:27:41.18Z</time></trkpt><trkpt lat="45.56456104096549" lon="11.153856845720906"><ele>442.0</ele><time>2026-04-04T12:27:42.18Z</time></trkpt><trkpt lat="45.56472638952581" lon="11.153803980059868"><ele>442.33333333333337</ele><time>2026-04-04T12:27:43.18Z</time></trkpt><trkpt lat="45.564898959874775" lon="11.153768086903028"><ele>442.66666666666663</ele><time>2026-04-04T12:27:44.18Z</time></trkpt><trkpt lat="45.56508384996986" lon="11.15373718799661"><ele>443.0</ele><time>2026-04-04T12:27:45.18Z</time></trkpt><trkpt lat="45.56527807187752" lon="11.153710907817599"><ele>444.0</ele><time>2026-04-04T12:27:46.18Z</time></trkpt><trkpt lat="45.565458330039604" lon="11.153687477103366"><ele>445.0</ele><time>2026-04-04T12:27:47.18Z</time></trkpt><trkpt lat="45.565625209414826" lon="11.153662791366445"><ele>446.0</ele><time>2026-04-04T12:27:48.18Z</time></trkpt><trkpt lat="45.56577316715422" lon="11.153638322907382"><ele>446.0</ele><time>2026-04-04T12:27:49.18Z</time></trkpt><trkpt lat="45.56594568208317" lon="11.153626591080748"><ele>446.0</ele><time>2026-04-04T12:27:50.18Z</time></trkpt><trkpt lat="45.56612154138072" lon="11.153604333986998"><ele>446.0</ele><time>2026-04-04T12:27:51.18Z</time></trkpt><trkpt lat="45.5663186647667" lon="11.153560712180091"><ele>446.3333333333333</ele><time>2026-04-04T12:27:52.18Z</time></trkpt><trkpt lat="45.56652931797752" lon="11.153525069508309"><ele>446.66666666666663</ele><time>2026-04-04T12:27:53.18Z</time></trkpt><trkpt lat="45.566727782766286" lon="11.15348568950762"><ele>447.0</ele><time>2026-04-04T12:27:54.18Z</time></trkpt><trkpt lat="45.566910901036806" lon="11.153451384795"><ele>447.33333333333337</ele><time>2026-04-04T12:27:55.18Z</time></trkpt><trkpt lat="45.56707816435011" lon="11.153421689863551"><ele>447.6666666666667</ele><time>2026-04-04T12:27:56.18Z</time></trkpt><trkpt lat="45.56723480447184" lon="11.153392868820351"><ele>448.0</ele><time>2026-04-04T12:27:57.18Z</time></trkpt><trkpt lat="45.56739478310025" lon="11.153354751314527"><ele>448.0</ele><time>2026-04-04T12:27:58.18Z</time></trkpt><trkpt lat="45.56755811882243" lon="11.153326489292263"><ele>448.0</ele><time>2026-04-04T12:27:59.18Z</time></trkpt><trkpt lat="45.56772423798215" lon="11.153283423525172"><ele>448.0</ele><time>2026-04-04T12:28:00.18Z</time></trkpt><trkpt lat="45.56789246574168" lon="11.153209750714403"><ele>448.33333333333337</ele><time>2026-04-04T12:28:01.18Z</time></trkpt><trkpt lat="45.56805581604267" lon="11.153155794571624"><ele>448.66666666666663</ele><time>2026-04-04T12:28:02.18Z</time></trkpt><trkpt lat="45.56819689022644" lon="11.15312060090816"><ele>449.0</ele><time>2026-04-04T12:28:03.18Z</time></trkpt><trkpt lat="45.56834767972365" lon="11.153114288884339"><ele>449.0</ele><time>2026-04-04T12:28:04.18Z</time></trkpt><trkpt lat="45.56850415127399" lon="11.153121645420365"><ele>449.0</ele><time>2026-04-04T12:28:05.18Z</time></trkpt><trkpt lat="45.56865741013888" lon="11.153142882442692"><ele>449.0</ele><time>2026-04-04T12:28:06.18Z</time></trkpt><trkpt lat="45.568806092563854" lon="11.153214598290441"><ele>449.66666666666663</ele><time>2026-04-04T12:28:07.18Z</time></trkpt><trkpt lat="45.56895171238644" lon="11.153325040341672"><ele>450.33333333333337</ele><time>2026-04-04T12:28:08.18Z</time></trkpt><trkpt lat="45.569085691699215" lon="11.15342603835623"><ele>451.0</ele><time>2026-04-04T12:28:09.18Z</time></trkpt><trkpt lat="45.56922122421091" lon="11.153494071191492"><ele>451.0</ele><time>2026-04-04T12:28:10.18Z</time></trkpt><trkpt lat="45.5693779360951" lon="11.153524446694675"><ele>451.0</ele><time>2026-04-04T12:28:11.18Z</time></trkpt><trkpt lat="45.56954674499174" lon="11.15353429645566"><ele>451.0</ele><time>2026-04-04T12:28:12.18Z</time></trkpt><trkpt lat="45.569725858547784" lon="11.153518387951308"><ele>452.0</ele><time>2026-04-04T12:28:13.18Z</time></trkpt><trkpt lat="45.56990494990754" lon="11.153513246644023"><ele>453.0</ele><time>2026-04-04T12:28:14.18Z</time></trkpt><trkpt lat="45.570068237550586" lon="11.153499990896353"><ele>454.0</ele><time>2026-04-04T12:28:15.18Z</time></trkpt><trkpt lat="45.57021989204159" lon="11.153497978303491"><ele>456.6666666666667</ele><time>2026-04-04T12:28:16.18Z</time></trkpt><trkpt lat="45.57037507019296" lon="11.153458036397131"><ele>459.33333333333337</ele><time>2026-04-04T12:28:17.18Z</time></trkpt><trkpt lat="45.57052905893225" lon="11.15341591673645"><ele>462.0</ele><time>2026-04-04T12:28:18.18Z</time></trkpt><trkpt lat="45.57067353424145" lon="11.153328585450344"><ele>462.0</ele><time>2026-04-04T12:28:19.18Z</time></trkpt><trkpt lat="45.57080808107522" lon="11.153236513037744"><ele>462.0</ele><time>2026-04-04T12:28:20.18Z</time></trkpt><trkpt lat="45.570938935485245" lon="11.153155026568514"><ele>462.0</ele><time>2026-04-04T12:28:21.18Z</time></trkpt><trkpt lat="45.571069829388634" lon="11.15307425833451"><ele>462.0</ele><time>2026-04-04T12:28:22.18Z</time></trkpt><trkpt lat="45.5712005281184" lon="11.152989303049813"><ele>461.25</ele><time>2026-04-04T12:28:23.18Z</time></trkpt><trkpt lat="45.571330651739196" lon="11.152908560858618"><ele>460.5</ele><time>2026-04-04T12:28:24.18Z</time></trkpt><trkpt lat="45.57145170187523" lon="11.152837013792308"><ele>459.75</ele><time>2026-04-04T12:28:25.18Z</time></trkpt><trkpt lat="45.57157637734341" lon="11.152763198895862"><ele>459.0</ele><time>2026-04-04T12:28:26.18Z</time></trkpt><trkpt lat="45.57169008881965" lon="11.152703129171423"><ele>459.0</ele><time>2026-04-04T12:28:27.18Z</time></trkpt><trkpt lat="45.57177579424378" lon="11.152651255839494"><ele>459.0</ele><time>2026-04-04T12:28:28.18Z</time></trkpt><trkpt lat="45.57190380384266" lon="11.152584407078319"><ele>459.0</ele><time>2026-04-04T12:28:29.18Z</time></trkpt><trkpt lat="45.572036663186076" lon="11.15253385857955"><ele>459.0</ele><time>2026-04-04T12:28:30.18Z</time></trkpt><trkpt lat="45.572172944848205" lon="11.152494844690558"><ele>458.75</ele><time>2026-04-04T12:28:31.18Z</time></trkpt><trkpt lat="45.57232094682435" lon="11.152464657245424"><ele>458.5</ele><time>2026-04-04T12:28:32.18Z</time></trkpt><trkpt lat="45.572441688132294" lon="11.152429864348555"><ele>458.25</ele><time>2026-04-04T12:28:33.18Z</time></trkpt><trkpt lat="45.572564504237135" lon="11.15238066429153"><ele>458.0</ele><time>2026-04-04T12:28:34.18Z</time></trkpt><trkpt lat="45.57269132459265" lon="11.152341249672345"><ele>458.0</ele><time>2026-04-04T12:28:35.18Z</time></trkpt><trkpt lat="45.57282641997063" lon="11.152280374259755"><ele>458.0</ele><time>2026-04-04T12:28:36.18Z</time></trkpt><trkpt lat="45.57294530187102" lon="11.152244738791088"><ele>458.0</ele><time>2026-04-04T12:28:37.18Z</time></trkpt><trkpt lat="45.573076366101944" lon="11.152229036938918"><ele>458.0</ele><time>2026-04-04T12:28:38.18Z</time></trkpt><trkpt lat="45.57321972685958" lon="11.152219367548824"><ele>458.75</ele><time>2026-04-04T12:28:39.18Z</time></trkpt><trkpt lat="45.57336628967594" lon="11.152204573109058"><ele>459.5</ele><time>2026-04-04T12:28:40.18Z</time></trkpt><trkpt lat="45.57351546658123" lon="11.152209728592762"><ele>460.25</ele><time>2026-04-04T12:28:41.18Z</time></trkpt><trkpt lat="45.573653954445426" lon="11.152223767706012"><ele>461.0</ele><time>2026-04-04T12:28:42.18Z</time></trkpt><trkpt lat="45.57379268399463" lon="11.152151782817763"><ele>462.3333333333333</ele><time>2026-04-04T12:28:43.18Z</time></trkpt><trkpt lat="45.57396436657771" lon="11.152118536524304"><ele>463.66666666666663</ele><time>2026-04-04T12:28:44.18Z</time></trkpt><trkpt lat="45.57414181548735" lon="11.152063349160363"><ele>465.0</ele><time>2026-04-04T12:28:45.18Z</time></trkpt><trkpt lat="45.57434785573932" lon="11.15199064317296"><ele>467.0</ele><time>2026-04-04T12:28:46.18Z</time></trkpt><trkpt lat="45.574575529080306" lon="11.151892003570449"><ele>469.0</ele><time>2026-04-04T12:28:47.18Z</time></trkpt><trkpt lat="45.574813312133514" lon="11.151778499893123"><ele>469.0</ele><time>2026-04-04T12:28:48.18Z</time></trkpt><trkpt lat="45.57504037968181" lon="11.15166561039919"><ele>469.0</ele><time>2026-04-04T12:28:49.18Z</time></trkpt><trkpt lat="45.57525560283733" lon="11.151567354103971"><ele>468.6666666666667</ele><time>2026-04-04T12:28:50.18Z</time></trkpt><trkpt lat="45.57544611845146" lon="11.151477044988818"><ele>468.33333333333337</ele><time>2026-04-04T12:28:51.18Z</time></trkpt><trkpt lat="45.57563435109824" lon="11.15140585505409"><ele>468.0</ele><time>2026-04-04T12:28:52.18Z</time></trkpt><trkpt lat="45.57583260636076" lon="11.15135669487449"><ele>468.0</ele><time>2026-04-04T12:28:53.18Z</time></trkpt><trkpt lat="45.576062969308914" lon="11.151329252788535"><ele>468.0</ele><time>2026-04-04T12:28:54.18Z</time></trkpt><trkpt lat="45.57630551800586" lon="11.151307412463035"><ele>469.33333333333337</ele><time>2026-04-04T12:28:55.18Z</time></trkpt><trkpt lat="45.576522171771494" lon="11.151282533479758"><ele>470.6666666666667</ele><time>2026-04-04T12:28:56.18Z</time></trkpt><trkpt lat="45.57672032787375" lon="11.151259984092984"><ele>472.0</ele><time>2026-04-04T12:28:57.18Z</time></trkpt><trkpt lat="45.576923479775985" lon="11.151242659870627"><ele>472.33333333333337</ele><time>2026-04-04T12:28:58.18Z</time></trkpt><trkpt lat="45.57712111335391" lon="11.151229673221417"><ele>472.66666666666663</ele><time>2026-04-04T12:28:59.18Z</time></trkpt><trkpt lat="45.57730991961729" lon="11.151208149890294"><ele>473.0</ele><time>2026-04-04T12:29:00.18Z</time></trkpt><trkpt lat="45.57753256074434" lon="11.151175878181231"><ele>473.0</ele><time>2026-04-04T12:29:01.18Z</time></trkpt><trkpt lat="45.577754785289315" lon="11.151151521276418"><ele>473.0</ele><time>2026-04-04T12:29:02.18Z</time></trkpt><trkpt lat="45.577956782080975" lon="11.151128112307175"><ele>473.0</ele><time>2026-04-04T12:29:03.18Z</time></trkpt><trkpt lat="45.57816145659176" lon="11.151103206418247"><ele>473.0</ele><time>2026-04-04T12:29:04.18Z</time></trkpt><trkpt lat="45.57834432129446" lon="11.151109070790902"><ele>473.0</ele><time>2026-04-04T12:29:05.18Z</time></trkpt><trkpt lat="45.57853970010764" lon="11.151142749825128"><ele>473.0</ele><time>2026-04-04T12:29:06.18Z</time></trkpt><trkpt lat="45.57872309734202" lon="11.151207892478459"><ele>473.3333333333333</ele><time>2026-04-04T12:29:07.18Z</time></trkpt><trkpt lat="45.57890069731231" lon="11.151260009581858"><ele>473.66666666666663</ele><time>2026-04-04T12:29:08.18Z</time></trkpt><trkpt lat="45.57906599424858" lon="11.151284458187463"><ele>474.0</ele><time>2026-04-04T12:29:09.18Z</time></trkpt><trkpt lat="45.57923108290017" lon="11.15134967115263"><ele>474.0</ele><time>2026-04-04T12:29:10.18Z</time></trkpt><trkpt lat="45.57940266547581" lon="11.151402057469792"><ele>474.0</ele><time>2026-04-04T12:29:11.18Z</time></trkpt><trkpt lat="45.57957019505521" lon="11.151409667479836"><ele>474.0</ele><time>2026-04-04T12:29:12.18Z</time></trkpt><trkpt lat="45.57973434009943" lon="11.1513862452617"><ele>475.33333333333337</ele><time>2026-04-04T12:29:13.18Z</time></trkpt><trkpt lat="45.57989670446386" lon="11.151362903098455"><ele>476.6666666666667</ele><time>2026-04-04T12:29:14.18Z</time></trkpt><trkpt lat="45.58005118351586" lon="11.151323761033463"><ele>478.0</ele><time>2026-04-04T12:29:15.18Z</time></trkpt><trkpt lat="45.58020943508913" lon="11.151280842095057"><ele>478.25</ele><time>2026-04-04T12:29:16.18Z</time></trkpt><trkpt lat="45.58035295823775" lon="11.151256118422092"><ele>478.5</ele><time>2026-04-04T12:29:17.18Z</time></trkpt><trkpt lat="45.580491471470914" lon="11.151237968514637"><ele>478.75</ele><time>2026-04-04T12:29:18.18Z</time></trkpt><trkpt lat="45.580620291025895" lon="11.151227468722555"><ele>479.0</ele><time>2026-04-04T12:29:19.18Z</time></trkpt><trkpt lat="45.58075971953591" lon="11.15120735210295"><ele>479.0</ele><time>2026-04-04T12:29:20.18Z</time></trkpt><trkpt lat="45.58089892873233" lon="11.15118902919844"><ele>479.0</ele><time>2026-04-04T12:29:21.18Z</time></trkpt><trkpt lat="45.58104675546367" lon="11.151197863697977"><ele>479.0</ele><time>2026-04-04T12:29:22.18Z</time></trkpt><trkpt lat="45.58119609035967" lon="11.15123197484883"><ele>479.0</ele><time>2026-04-04T12:29:23.18Z</time></trkpt><trkpt lat="45.581350397244854" lon="11.151279039298116"><ele>479.0</ele><time>2026-04-04T12:29:24.18Z</time></trkpt><trkpt lat="45.581503426335615" lon="11.151335234681826"><ele>479.0</ele><time>2026-04-04T12:29:25.18Z</time></trkpt><trkpt lat="45.581659526338726" lon="11.151423938908186"><ele>479.0</ele><time>2026-04-04T12:29:26.18Z</time></trkpt><trkpt lat="45.581799006863385" lon="11.151493875343284"><ele>479.75</ele><time>2026-04-04T12:29:27.18Z</time></trkpt><trkpt lat="45.58194248815263" lon="11.151557704688551"><ele>480.5</ele><time>2026-04-04T12:29:28.18Z</time></trkpt><trkpt lat="45.582091241722075" lon="11.15161194329406"><ele>481.25</ele><time>2026-04-04T12:29:29.18Z</time></trkpt><trkpt lat="45.58222761192684" lon="11.151677613216437"><ele>482.0</ele><time>2026-04-04T12:29:30.18Z</time></trkpt><trkpt lat="45.58236565440657" lon="11.151734759092674"><ele>482.3333333333333</ele><time>2026-04-04T12:29:31.18Z</time></trkpt><trkpt lat="45.58251411064093" lon="11.151797440534384"><ele>482.66666666666663</ele><time>2026-04-04T12:29:32.181Z</time></trkpt><trkpt lat="45.58266626879051" lon="11.151848420505527"><ele>483.0</ele><time>2026-04-04T12:29:33.181Z</time></trkpt><trkpt lat="45.58282198813033" lon="11.151895680466437"><ele>483.0</ele><time>2026-04-04T12:29:34.181Z</time></trkpt><trkpt lat="45.582974537209395" lon="11.151975895324988"><ele>483.0</ele><time>2026-04-04T12:29:35.181Z</time></trkpt><trkpt lat="45.58313494648311" lon="11.151998253483479"><ele>483.0</ele><time>2026-04-04T12:29:36.181Z</time></trkpt><trkpt lat="45.58328390429298" lon="11.152016328227814"><ele>483.0</ele><time>2026-04-04T12:29:37.181Z</time></trkpt><trkpt lat="45.58344287203598" lon="11.152056173003206"><ele>483.0</ele><time>2026-04-04T12:29:38.181Z</time></trkpt><trkpt lat="45.583581434897724" lon="11.152093190605052"><ele>483.0</ele><time>2026-04-04T12:29:39.181Z</time></trkpt><trkpt lat="45.58373168880209" lon="11.152114718369413"><ele>484.0</ele><time>2026-04-04T12:29:40.181Z</time></trkpt><trkpt lat="45.58386735590283" lon="11.152163705877895"><ele>485.0</ele><time>2026-04-04T12:29:41.181Z</time></trkpt><trkpt lat="45.58399198250475" lon="11.152223281275385"><ele>486.0</ele><time>2026-04-04T12:29:42.181Z</time></trkpt><trkpt lat="45.58410231704979" lon="11.152300115765025"><ele>487.0</ele><time>2026-04-04T12:29:43.181Z</time></trkpt><trkpt lat="45.584204778445894" lon="11.152384462227996"><ele>487.5</ele><time>2026-04-04T12:29:44.181Z</time></trkpt><trkpt lat="45.58430098663488" lon="11.152503189236663"><ele>488.0</ele><time>2026-04-04T12:29:45.181Z</time></trkpt><trkpt lat="45.58438059665721" lon="11.152643431212082"><ele>488.5</ele><time>2026-04-04T12:29:46.181Z</time></trkpt><trkpt lat="45.584432332266935" lon="11.152778597712521"><ele>489.0</ele><time>2026-04-04T12:29:47.181Z</time></trkpt><trkpt lat="45.58447113246711" lon="11.152935477192772"><ele>489.0</ele><time>2026-04-04T12:29:48.181Z</time></trkpt><trkpt lat="45.584502896296705" lon="11.15312034828635"><ele>489.0</ele><time>2026-04-04T12:29:49.181Z</time></trkpt><trkpt lat="45.584601037818025" lon="11.153258370226377"><ele>489.0</ele><time>2026-04-04T12:29:50.181Z</time></trkpt><trkpt lat="45.58471817569195" lon="11.153420554539684"><ele>489.0</ele><time>2026-04-04T12:29:51.181Z</time></trkpt><trkpt lat="45.58483682657737" lon="11.153618959893645"><ele>490.66666666666663</ele><time>2026-04-04T12:29:52.181Z</time></trkpt><trkpt lat="45.58497994066189" lon="11.15382201682419"><ele>492.3333333333333</ele><time>2026-04-04T12:29:53.181Z</time></trkpt><trkpt lat="45.58511129728068" lon="11.153992453658045"><ele>494.0</ele><time>2026-04-04T12:29:54.181Z</time></trkpt><trkpt lat="45.585212864604365" lon="11.154122814943658"><ele>495.3333333333333</ele><time>2026-04-04T12:29:55.181Z</time></trkpt><trkpt lat="45.58529666264155" lon="11.154229346832373"><ele>496.66666666666663</ele><time>2026-04-04T12:29:56.181Z</time></trkpt><trkpt lat="45.58536344208163" lon="11.15431696930196"><ele>498.0</ele><time>2026-04-04T12:29:57.181Z</time></trkpt><trkpt lat="45.58540326937986" lon="11.15439238886737"><ele>499.33333333333337</ele><time>2026-04-04T12:29:58.181Z</time></trkpt><trkpt lat="45.58544203921515" lon="11.154496697012211"><ele>500.6666666666667</ele><time>2026-04-04T12:29:59.181Z</time></trkpt><trkpt lat="45.585428042368854" lon="11.154585163414627"><ele>502.0</ele><time>2026-04-04T12:30:00.181Z</time></trkpt><trkpt lat="45.58536824006068" lon="11.154639409554889"><ele>502.20000000000005</ele><time>2026-04-04T12:30:01.181Z</time></trkpt><trkpt lat="45.585271735527485" lon="11.154681927339782"><ele>502.40000000000003</ele><time>2026-04-04T12:30:02.181Z</time></trkpt><trkpt lat="45.58514417007523" lon="11.15469920232065"><ele>502.59999999999997</ele><time>2026-04-04T12:30:03.181Z</time></trkpt><trkpt lat="45.585039732657634" lon="11.154768489967"><ele>502.79999999999995</ele><time>2026-04-04T12:30:04.181Z</time></trkpt><trkpt lat="45.584987139049005" lon="11.154874525607848"><ele>503.0</ele><time>2026-04-04T12:30:05.181Z</time></trkpt><trkpt lat="45.5849555070125" lon="11.155019089014138"><ele>505.25</ele><time>2026-04-04T12:30:06.181Z</time></trkpt><trkpt lat="45.58494056266234" lon="11.155175768953235"><ele>507.5</ele><time>2026-04-04T12:30:07.181Z</time></trkpt><trkpt lat="45.58495014672177" lon="11.155389917322148"><ele>509.75</ele><time>2026-04-04T12:30:08.181Z</time></trkpt><trkpt lat="45.58494644007761" lon="11.155634858032423"><ele>512.0</ele><time>2026-04-04T12:30:09.181Z</time></trkpt><trkpt lat="45.58492128934234" lon="11.155892822115586"><ele>514.5</ele><time>2026-04-04T12:30:10.181Z</time></trkpt><trkpt lat="45.584913852813656" lon="11.15613115533359"><ele>517.0</ele><time>2026-04-04T12:30:11.181Z</time></trkpt><trkpt lat="45.58489509890745" lon="11.156334139222748"><ele>519.5</ele><time>2026-04-04T12:30:12.181Z</time></trkpt><trkpt lat="45.58489944992078" lon="11.156516960635194"><ele>522.0</ele><time>2026-04-04T12:30:13.181Z</time></trkpt><trkpt lat="45.584909496931076" lon="11.156695420273024"><ele>522.4</ele><time>2026-04-04T12:30:14.181Z</time></trkpt><trkpt lat="45.5849315641651" lon="11.156838530481147"><ele>522.8000000000001</ele><time>2026-04-04T12:30:15.181Z</time></trkpt><trkpt lat="45.58494031170007" lon="11.156969432285694"><ele>523.2</ele><time>2026-04-04T12:30:16.181Z</time></trkpt><trkpt lat="45.584970153437624" lon="11.157114789039122"><ele>523.6</ele><time>2026-04-04T12:30:17.181Z</time></trkpt><trkpt lat="45.58502257336757" lon="11.157231871807593"><ele>524.0</ele><time>2026-04-04T12:30:18.181Z</time></trkpt><trkpt lat="45.58509702253493" lon="11.157358963969747"><ele>524.2</ele><time>2026-04-04T12:30:19.181Z</time></trkpt><trkpt lat="45.585160635516296" lon="11.157491739665158"><ele>524.4</ele><time>2026-04-04T12:30:20.181Z</time></trkpt><trkpt lat="45.585233617862315" lon="11.15762630337444"><ele>524.6</ele><time>2026-04-04T12:30:21.181Z</time></trkpt><trkpt lat="45.58527537437501" lon="11.157725824831102"><ele>524.8</ele><time>2026-04-04T12:30:22.181Z</time></trkpt><trkpt lat="45.58534142128389" lon="11.157803626831775"><ele>525.0</ele><time>2026-04-04T12:30:23.181Z</time></trkpt><trkpt lat="45.58541988186568" lon="11.157888331015686"><ele>527.8333333333334</ele><time>2026-04-04T12:30:24.181Z</time></trkpt><trkpt lat="45.58549964832197" lon="11.157961706848353"><ele>530.6666666666666</ele><time>2026-04-04T12:30:25.181Z</time></trkpt><trkpt lat="45.58557984428868" lon="11.157992042135161"><ele>533.5</ele><time>2026-04-04T12:30:26.181Z</time></trkpt><trkpt lat="45.585657274118894" lon="11.1579877999073"><ele>536.3333333333333</ele><time>2026-04-04T12:30:27.181Z</time></trkpt><trkpt lat="45.58573055504693" lon="11.157922051459224"><ele>539.1666666666666</ele><time>2026-04-04T12:30:28.181Z</time></trkpt><trkpt lat="45.58579223954331" lon="11.15781770706701"><ele>542.0</ele><time>2026-04-04T12:30:29.181Z</time></trkpt><trkpt lat="45.58584826755273" lon="11.157682796310388"><ele>542.0</ele><time>2026-04-04T12:30:30.181Z</time></trkpt><trkpt lat="45.585915360701115" lon="11.157527786876893"><ele>542.0</ele><time>2026-04-04T12:30:31.181Z</time></trkpt><trkpt lat="45.58596420402093" lon="11.157356708399151"><ele>542.0</ele><time>2026-04-04T12:30:32.181Z</time></trkpt><trkpt lat="45.585995705814334" lon="11.15721170842829"><ele>542.0</ele><time>2026-04-04T12:30:33.181Z</time></trkpt><trkpt lat="45.58603932584632" lon="11.15708377204987"><ele>542.0</ele><time>2026-04-04T12:30:34.181Z</time></trkpt><trkpt lat="45.5860781430637" lon="11.156977611335039"><ele>542.0</ele><time>2026-04-04T12:30:35.181Z</time></trkpt><trkpt lat="45.58612623399378" lon="11.156900141808569"><ele>542.0</ele><time>2026-04-04T12:30:36.181Z</time></trkpt><trkpt lat="45.58619839137646" lon="11.156869808254037"><ele>542.0</ele><time>2026-04-04T12:30:37.181Z</time></trkpt><trkpt lat="45.58627582299951" lon="11.156900549923732"><ele>542.0</ele><time>2026-04-04T12:30:38.181Z</time></trkpt><trkpt lat="45.5863188753265" lon="11.156997022524928"><ele>542.0</ele><time>2026-04-04T12:30:39.181Z</time></trkpt><trkpt lat="45.586338362862755" lon="11.15711802535864"><ele>548.75</ele><time>2026-04-04T12:30:40.181Z</time></trkpt><trkpt lat="45.5863489727702" lon="11.157274053879702"><ele>555.5</ele><time>2026-04-04T12:30:41.181Z</time></trkpt><trkpt lat="45.58635519562859" lon="11.157442972694087"><ele>562.25</ele><time>2026-04-04T12:30:42.181Z</time></trkpt><trkpt lat="45.58639354385334" lon="11.15762867083819"><ele>569.0</ele><time>2026-04-04T12:30:43.181Z</time></trkpt><trkpt lat="45.58644445865606" lon="11.15785124433344"><ele>568.6666666666666</ele><time>2026-04-04T12:30:44.181Z</time></trkpt><trkpt lat="45.586505434593874" lon="11.158115124138956"><ele>568.3333333333334</ele><time>2026-04-04T12:30:45.181Z</time></trkpt><trkpt lat="45.58657209887659" lon="11.158380334348907"><ele>568.0</ele><time>2026-04-04T12:30:46.181Z</time></trkpt><trkpt lat="45.5866407082854" lon="11.158605999857153"><ele>568.0</ele><time>2026-04-04T12:30:47.181Z</time></trkpt><trkpt lat="45.58667394658127" lon="11.158799581565168"><ele>568.0</ele><time>2026-04-04T12:30:48.181Z</time></trkpt><trkpt lat="45.586688565192134" lon="11.158979091225351"><ele>568.0</ele><time>2026-04-04T12:30:49.181Z</time></trkpt><trkpt lat="45.58668232944348" lon="11.159152370028217"><ele>568.0</ele><time>2026-04-04T12:30:50.181Z</time></trkpt><trkpt lat="45.586695733454334" lon="11.159358463008601"><ele>569.0</ele><time>2026-04-04T12:30:51.181Z</time></trkpt><trkpt lat="45.586727129639385" lon="11.159557187543175"><ele>570.0</ele><time>2026-04-04T12:30:52.181Z</time></trkpt><trkpt lat="45.58672731824673" lon="11.15975435299907"><ele>571.0</ele><time>2026-04-04T12:30:53.181Z</time></trkpt><trkpt lat="45.586702708190266" lon="11.15991783201507"><ele>572.0</ele><time>2026-04-04T12:30:54.181Z</time></trkpt><trkpt lat="45.586683433539015" lon="11.160080680878552"><ele>573.4</ele><time>2026-04-04T12:30:55.181Z</time></trkpt><trkpt lat="45.58664205403504" lon="11.16024111142419"><ele>574.8000000000001</ele><time>2026-04-04T12:30:56.181Z</time></trkpt><trkpt lat="45.58659876443156" lon="11.160373824627255"><ele>576.2</ele><time>2026-04-04T12:30:57.181Z</time></trkpt><trkpt lat="45.5865857917487" lon="11.16047753785489"><ele>577.6</ele><time>2026-04-04T12:30:58.181Z</time></trkpt><trkpt lat="45.58658039722017" lon="11.16057253960085"><ele>579.0</ele><time>2026-04-04T12:30:59.181Z</time></trkpt><trkpt lat="45.58660647676074" lon="11.160695679611685"><ele>579.5</ele><time>2026-04-04T12:31:00.181Z</time></trkpt><trkpt lat="45.586659445489545" lon="11.160833803146001"><ele>580.0</ele><time>2026-04-04T12:31:01.181Z</time></trkpt><trkpt lat="45.58672436242834" lon="11.160995947396273"><ele>580.5</ele><time>2026-04-04T12:31:02.181Z</time></trkpt><trkpt lat="45.58679699440343" lon="11.161220934263598"><ele>581.0</ele><time>2026-04-04T12:31:03.181Z</time></trkpt><trkpt lat="45.58684863379163" lon="11.161414039909326"><ele>582.0</ele><time>2026-04-04T12:31:04.181Z</time></trkpt><trkpt lat="45.58689333948791" lon="11.161578663472365"><ele>583.0</ele><time>2026-04-04T12:31:05.181Z</time></trkpt><trkpt lat="45.58693513070721" lon="11.161699589706254"><ele>584.0</ele><time>2026-04-04T12:31:06.181Z</time></trkpt><trkpt lat="45.58696836782001" lon="11.161806204574583"><ele>585.0</ele><time>2026-04-04T12:31:07.181Z</time></trkpt><trkpt lat="45.58693820619771" lon="11.161918754947257"><ele>586.0</ele><time>2026-04-04T12:31:08.181Z</time></trkpt><trkpt lat="45.58689752894244" lon="11.161998377094367"><ele>586.0</ele><time>2026-04-04T12:31:09.181Z</time></trkpt><trkpt lat="45.58681398593745" lon="11.162040100266195"><ele>586.0</ele><time>2026-04-04T12:31:10.181Z</time></trkpt><trkpt lat="45.58670515287782" lon="11.162059568438588"><ele>586.0</ele><time>2026-04-04T12:31:11.181Z</time></trkpt><trkpt lat="45.58659093281957" lon="11.162031176925732"><ele>586.0</ele><time>2026-04-04T12:31:12.181Z</time></trkpt><trkpt lat="45.586434970759285" lon="11.162043651247387"><ele>586.0</ele><time>2026-04-04T12:31:13.181Z</time></trkpt><trkpt lat="45.5863165701928" lon="11.16204660340154"><ele>586.0</ele><time>2026-04-04T12:31:14.181Z</time></trkpt><trkpt lat="45.586207858242496" lon="11.162065608369389"><ele>586.0</ele><time>2026-04-04T12:31:15.181Z</time></trkpt><trkpt lat="45.58608122076661" lon="11.162107271748555"><ele>586.0</ele><time>2026-04-04T12:31:16.181Z</time></trkpt><trkpt lat="45.58597699186106" lon="11.162127856230798"><ele>588.25</ele><time>2026-04-04T12:31:17.181Z</time></trkpt><trkpt lat="45.58589428577535" lon="11.16221075887178"><ele>590.5</ele><time>2026-04-04T12:31:18.181Z</time></trkpt><trkpt lat="45.58579937188006" lon="11.162295148984862"><ele>592.75</ele><time>2026-04-04T12:31:19.181Z</time></trkpt><trkpt lat="45.585707875744525" lon="11.162372558283241"><ele>595.0</ele><time>2026-04-04T12:31:20.181Z</time></trkpt><trkpt lat="45.5855925672703" lon="11.16247850938297"><ele>595.0</ele><time>2026-04-04T12:31:21.181Z</time></trkpt><trkpt lat="45.58554653243267" lon="11.162609081946762"><ele>595.0</ele><time>2026-04-04T12:31:22.181Z</time></trkpt><trkpt lat="45.58547870745853" lon="11.162731278890826"><ele>595.0</ele><time>2026-04-04T12:31:24.181Z</time></trkpt><trkpt lat="45.58548326535224" lon="11.162848306053972"><ele>595.0</ele><time>2026-04-04T12:31:26.181Z</time></trkpt><trkpt lat="45.58559797549333" lon="11.162850196943259"><ele>595.0</ele><time>2026-04-04T12:31:28.181Z</time></trkpt><trkpt lat="45.585669840193496" lon="11.162749120380635"><ele>595.0</ele><time>2026-04-04T12:31:29.181Z</time></trkpt><trkpt lat="45.58573030241579" lon="11.162684293056206"><ele>595.0</ele><time>2026-04-04T12:31:30.181Z</time></trkpt><trkpt lat="45.585826619570014" lon="11.162624127529002"><ele>595.0</ele><time>2026-04-04T12:31:31.181Z</time></trkpt><trkpt lat="45.58590736032257" lon="11.162582805092216"><ele>595.0</ele><time>2026-04-04T12:31:32.181Z</time></trkpt><trkpt lat="45.585993550666686" lon="11.162568587134437"><ele>595.0</ele><time>2026-04-04T12:31:33.181Z</time></trkpt><trkpt lat="45.586098558480614" lon="11.162571387625642"><ele>598.5</ele><time>2026-04-04T12:31:34.181Z</time></trkpt><trkpt lat="45.586209161429174" lon="11.162573936244073"><ele>602.0</ele><time>2026-04-04T12:31:35.181Z</time></trkpt><trkpt lat="45.586357150250514" lon="11.162563411034713"><ele>605.5</ele><time>2026-04-04T12:31:36.181Z</time></trkpt><trkpt lat="45.58647640031762" lon="11.16255604585714"><ele>609.0</ele><time>2026-04-04T12:31:37.181Z</time></trkpt><trkpt lat="45.586588000195896" lon="11.162567792270579"><ele>609.0</ele><time>2026-04-04T12:31:38.182Z</time></trkpt><trkpt lat="45.586682450624984" lon="11.162571157734005"><ele>609.0</ele><time>2026-04-04T12:31:39.182Z</time></trkpt><trkpt lat="45.586790523063975" lon="11.162572372391123"><ele>609.0</ele><time>2026-04-04T12:31:40.182Z</time></trkpt><trkpt lat="45.58687847701017" lon="11.162514886427166"><ele>609.0</ele><time>2026-04-04T12:31:41.182Z</time></trkpt><trkpt lat="45.58694556856374" lon="11.162563475250128"><ele>609.0</ele><time>2026-04-04T12:31:43.182Z</time></trkpt><trkpt lat="45.58688081936885" lon="11.162659421102775"><ele>609.0</ele><time>2026-04-04T12:31:45.182Z</time></trkpt><trkpt lat="45.586761093063544" lon="11.162585099364405"><ele>609.0</ele><time>2026-04-04T12:31:47.182Z</time></trkpt><trkpt lat="45.58667812625145" lon="11.162545293112771"><ele>609.0</ele><time>2026-04-04T12:31:48.182Z</time></trkpt><trkpt lat="45.58656187917209" lon="11.162565315849532"><ele>609.0</ele><time>2026-04-04T12:31:49.182Z</time></trkpt><trkpt lat="45.58644651978217" lon="11.162610055226386"><ele>609.0</ele><time>2026-04-04T12:31:50.182Z</time></trkpt><trkpt lat="45.58631648978556" lon="11.162664921262692"><ele>609.0</ele><time>2026-04-04T12:31:51.182Z</time></trkpt><trkpt lat="45.58618924473122" lon="11.162737046904411"><ele>609.0</ele><time>2026-04-04T12:31:52.182Z</time></trkpt><trkpt lat="45.586053196031" lon="11.162774642533849"><ele>609.0</ele><time>2026-04-04T12:31:53.182Z</time></trkpt><trkpt lat="45.58594854414682" lon="11.16282080755932"><ele>605.5</ele><time>2026-04-04T12:31:54.182Z</time></trkpt><trkpt lat="45.58584994849269" lon="11.16284281230785"><ele>602.0</ele><time>2026-04-04T12:31:55.182Z</time></trkpt><trkpt lat="45.58576030180459" lon="11.162969679858387"><ele>598.5</ele><time>2026-04-04T12:31:56.182Z</time></trkpt><trkpt lat="45.585654341936504" lon="11.163056872067846"><ele>595.0</ele><time>2026-04-04T12:31:57.182Z</time></trkpt><trkpt lat="45.58556317510273" lon="11.163241972327528"><ele>594.0</ele><time>2026-04-04T12:31:58.182Z</time></trkpt><trkpt lat="45.58544715628978" lon="11.16342031816978"><ele>593.0</ele><time>2026-04-04T12:31:59.182Z</time></trkpt><trkpt lat="45.585363640317745" lon="11.16358036550342"><ele>592.0</ele><time>2026-04-04T12:32:00.182Z</time></trkpt><trkpt lat="45.58527478410563" lon="11.163712073171194"><ele>591.0</ele><time>2026-04-04T12:32:01.182Z</time></trkpt><trkpt lat="45.58519893164626" lon="11.163862980657363"><ele>591.0</ele><time>2026-04-04T12:32:02.182Z</time></trkpt><trkpt lat="45.58516527079245" lon="11.164007004947656"><ele>591.0</ele><time>2026-04-04T12:32:03.182Z</time></trkpt><trkpt lat="45.58512691685657" lon="11.16413229934675"><ele>591.0</ele><time>2026-04-04T12:32:04.182Z</time></trkpt><trkpt lat="45.58511698592169" lon="11.164230086963379"><ele>591.0</ele><time>2026-04-04T12:32:05.182Z</time></trkpt><trkpt lat="45.58513936227306" lon="11.164352490864925"><ele>591.0</ele><time>2026-04-04T12:32:06.182Z</time></trkpt><trkpt lat="45.58514425614312" lon="11.164449349500746"><ele>591.0</ele><time>2026-04-04T12:32:07.182Z</time></trkpt><trkpt lat="45.58522198910251" lon="11.164617026412333"><ele>595.25</ele><time>2026-04-04T12:32:08.182Z</time></trkpt><trkpt lat="45.58529824822293" lon="11.164787442490464"><ele>599.5</ele><time>2026-04-04T12:32:09.182Z</time></trkpt><trkpt lat="45.58535918574527" lon="11.164994777870364"><ele>603.75</ele><time>2026-04-04T12:32:10.182Z</time></trkpt><trkpt lat="45.585401763656" lon="11.165185821057527"><ele>608.0</ele><time>2026-04-04T12:32:11.182Z</time></trkpt><trkpt lat="45.585415650528645" lon="11.16535780936549"><ele>618.2</ele><time>2026-04-04T12:32:12.182Z</time></trkpt><trkpt lat="45.5853756354911" lon="11.165546202978682"><ele>628.4</ele><time>2026-04-04T12:32:13.182Z</time></trkpt><trkpt lat="45.58535097467861" lon="11.165676290918991"><ele>638.6</ele><time>2026-04-04T12:32:14.182Z</time></trkpt><trkpt lat="45.58537428724348" lon="11.165778189710384"><ele>648.8000000000001</ele><time>2026-04-04T12:32:15.182Z</time></trkpt><trkpt lat="45.585417723058185" lon="11.165915058330459"><ele>659.0</ele><time>2026-04-04T12:32:16.182Z</time></trkpt><trkpt lat="45.58555151244558" lon="11.166128222006424"><ele>659.0</ele><time>2026-04-04T12:32:17.182Z</time></trkpt><trkpt lat="45.585740237018754" lon="11.166298829897586"><ele>659.0</ele><time>2026-04-04T12:32:18.182Z</time></trkpt><trkpt lat="45.58583164891765" lon="11.166414010786898"><ele>659.0</ele><time>2026-04-04T12:32:19.182Z</time></trkpt><trkpt lat="45.585855923262464" lon="11.16651637244647"><ele>659.0</ele><time>2026-04-04T12:32:20.182Z</time></trkpt><trkpt lat="45.585873319138734" lon="11.166629028117374"><ele>657.5</ele><time>2026-04-04T12:32:21.182Z</time></trkpt><trkpt lat="45.585855173962116" lon="11.166760902453824"><ele>656.0</ele><time>2026-04-04T12:32:22.182Z</time></trkpt><trkpt lat="45.58579190654393" lon="11.166939791657812"><ele>654.5</ele><time>2026-04-04T12:32:23.182Z</time></trkpt><trkpt lat="45.58574481665286" lon="11.167112296177999"><ele>653.0</ele><time>2026-04-04T12:32:24.182Z</time></trkpt><trkpt lat="45.5857423745182" lon="11.167269611915483"><ele>653.0</ele><time>2026-04-04T12:32:25.182Z</time></trkpt><trkpt lat="45.58578225030352" lon="11.167429723153022"><ele>653.0</ele><time>2026-04-04T12:32:26.182Z</time></trkpt><trkpt lat="45.58582629323392" lon="11.167590473930456"><ele>653.0</ele><time>2026-04-04T12:32:27.182Z</time></trkpt><trkpt lat="45.58587564724205" lon="11.167755633168646"><ele>653.0</ele><time>2026-04-04T12:32:28.182Z</time></trkpt><trkpt lat="45.58592158198376" lon="11.167899712678995"><ele>653.0</ele><time>2026-04-04T12:32:29.182Z</time></trkpt><trkpt lat="45.585917543904756" lon="11.16806561213641"><ele>653.0</ele><time>2026-04-04T12:32:30.182Z</time></trkpt><trkpt lat="45.58594312129255" lon="11.168206870255984"><ele>653.0</ele><time>2026-04-04T12:32:31.182Z</time></trkpt><trkpt lat="45.585959768360944" lon="11.168321103908426"><ele>653.0</ele><time>2026-04-04T12:32:32.182Z</time></trkpt><trkpt lat="45.58599623405729" lon="11.168457427008182"><ele>653.0</ele><time>2026-04-04T12:32:33.182Z</time></trkpt><trkpt lat="45.586064589742286" lon="11.168567819827633"><ele>661.0</ele><time>2026-04-04T12:32:34.182Z</time></trkpt><trkpt lat="45.586182389846186" lon="11.168665784530189"><ele>669.0</ele><time>2026-04-04T12:32:35.182Z</time></trkpt><trkpt lat="45.58629021912338" lon="11.16880064803211"><ele>677.0</ele><time>2026-04-04T12:32:36.182Z</time></trkpt><trkpt lat="45.58638771909376" lon="11.168951134251587"><ele>685.0</ele><time>2026-04-04T12:32:37.182Z</time></trkpt><trkpt lat="45.58645282531377" lon="11.169081103369026"><ele>685.0</ele><time>2026-04-04T12:32:38.182Z</time></trkpt><trkpt lat="45.58650418085332" lon="11.169201272752607"><ele>685.0</ele><time>2026-04-04T12:32:39.182Z</time></trkpt><trkpt lat="45.5865586268663" lon="11.169286835119088"><ele>685.0</ele><time>2026-04-04T12:32:40.182Z</time></trkpt><trkpt lat="45.586594572215915" lon="11.16941389807918"><ele>685.0</ele><time>2026-04-04T12:32:42.182Z</time></trkpt><trkpt lat="45.586677787826474" lon="11.169393190659461"><ele>685.0</ele><time>2026-04-04T12:32:44.182Z</time></trkpt><trkpt lat="45.586648853992365" lon="11.169254067068145"><ele>685.0</ele><time>2026-04-04T12:32:46.182Z</time></trkpt><trkpt lat="45.586567066326836" lon="11.169193248190275"><ele>685.0</ele><time>2026-04-04T12:32:47.182Z</time></trkpt><trkpt lat="45.58651736356535" lon="11.169094827884406"><ele>685.0</ele><time>2026-04-04T12:32:48.182Z</time></trkpt><trkpt lat="45.58645904024801" lon="11.16895298153845"><ele>685.0</ele><time>2026-04-04T12:32:49.182Z</time></trkpt><trkpt lat="45.58641021273422" lon="11.168833299098742"><ele>685.0</ele><time>2026-04-04T12:32:50.182Z</time></trkpt><trkpt lat="45.58637107460009" lon="11.16870835459506"><ele>687.8</ele><time>2026-04-04T12:32:51.182Z</time></trkpt><trkpt lat="45.58632753557501" lon="11.168554391009756"><ele>690.6</ele><time>2026-04-04T12:32:52.182Z</time></trkpt><trkpt lat="45.58633183763266" lon="11.168423432516974"><ele>693.4000000000001</ele><time>2026-04-04T12:32:53.182Z</time></trkpt><trkpt lat="45.58632554104897" lon="11.16831970553012"><ele>696.2</ele><time>2026-04-04T12:32:54.182Z</time></trkpt><trkpt lat="45.58634748768983" lon="11.16818001961789"><ele>699.0</ele><time>2026-04-04T12:32:55.182Z</time></trkpt><trkpt lat="45.58636858222114" lon="11.168034242887362"><ele>700.2</ele><time>2026-04-04T12:32:56.182Z</time></trkpt><trkpt lat="45.58637545277435" lon="11.167872941294194"><ele>701.4000000000001</ele><time>2026-04-04T12:32:57.182Z</time></trkpt><trkpt lat="45.586379686289504" lon="11.167698430239925"><ele>702.6</ele><time>2026-04-04T12:32:58.182Z</time></trkpt><trkpt lat="45.58638539018631" lon="11.167550700872969"><ele>703.8</ele><time>2026-04-04T12:32:59.182Z</time></trkpt><trkpt lat="45.58640364168115" lon="11.16742696843518"><ele>705.0</ele><time>2026-04-04T12:33:00.182Z</time></trkpt><trkpt lat="45.58645152125519" lon="11.167282260411163"><ele>706.0</ele><time>2026-04-04T12:33:01.182Z</time></trkpt><trkpt lat="45.58651619234437" lon="11.167106382612317"><ele>707.0</ele><time>2026-04-04T12:33:02.182Z</time></trkpt><trkpt lat="45.58651206367833" lon="11.166949783417298"><ele>708.0</ele><time>2026-04-04T12:33:03.182Z</time></trkpt><trkpt lat="45.5864602879601" lon="11.166799749505332"><ele>709.0</ele><time>2026-04-04T12:33:04.182Z</time></trkpt><trkpt lat="45.58647561644233" lon="11.166679540011943"><ele>709.0</ele><time>2026-04-04T12:33:05.182Z</time></trkpt><trkpt lat="45.58652587983136" lon="11.166575910935258"><ele>709.0</ele><time>2026-04-04T12:33:07.182Z</time></trkpt><trkpt lat="45.5865677448287" lon="11.166658587796224"><ele>709.0</ele><time>2026-04-04T12:33:09.182Z</time></trkpt><trkpt lat="45.5865559253102" lon="11.166763020714985"><ele>709.0</ele><time>2026-04-04T12:33:10.182Z</time></trkpt><trkpt lat="45.586514086841646" lon="11.166893821442164"><ele>709.0</ele><time>2026-04-04T12:33:11.182Z</time></trkpt><trkpt lat="45.58649744323605" lon="11.167012648204244"><ele>709.0</ele><time>2026-04-04T12:33:12.182Z</time></trkpt><trkpt lat="45.586494751283" lon="11.167185716724665"><ele>708.0</ele><time>2026-04-04T12:33:13.182Z</time></trkpt><trkpt lat="45.5864888314062" lon="11.167380475350578"><ele>707.0</ele><time>2026-04-04T12:33:14.182Z</time></trkpt><trkpt lat="45.58650574899649" lon="11.167566359917846"><ele>706.0</ele><time>2026-04-04T12:33:15.182Z</time></trkpt><trkpt lat="45.58651401124583" lon="11.167720561644012"><ele>705.0</ele><time>2026-04-04T12:33:16.182Z</time></trkpt><trkpt lat="45.58651360570299" lon="11.167856648344397"><ele>705.0</ele><time>2026-04-04T12:33:17.182Z</time></trkpt><trkpt lat="45.58652921828513" lon="11.167987752632238"><ele>705.0</ele><time>2026-04-04T12:33:18.182Z</time></trkpt><trkpt lat="45.58653177571129" lon="11.168098770676881"><ele>705.0</ele><time>2026-04-04T12:33:19.182Z</time></trkpt><trkpt lat="45.58654735682263" lon="11.1681965201745"><ele>705.0</ele><time>2026-04-04T12:33:20.182Z</time></trkpt><trkpt lat="45.58659220909384" lon="11.168298685510335"><ele>705.0</ele><time>2026-04-04T12:33:21.182Z</time></trkpt><trkpt lat="45.58667253578821" lon="11.16841173982214"><ele>705.0</ele><time>2026-04-04T12:33:22.182Z</time></trkpt><trkpt lat="45.58678079004765" lon="11.168555449051441"><ele>703.5</ele><time>2026-04-04T12:33:23.182Z</time></trkpt><trkpt lat="45.586862947842796" lon="11.16866812859706"><ele>702.0</ele><time>2026-04-04T12:33:24.182Z</time></trkpt><trkpt lat="45.587005824266846" lon="11.168808313800614"><ele>700.5</ele><time>2026-04-04T12:33:25.182Z</time></trkpt><trkpt lat="45.58710482540854" lon="11.168926793494936"><ele>699.0</ele><time>2026-04-04T12:33:26.182Z</time></trkpt><trkpt lat="45.587211611556135" lon="11.169035714772683"><ele>703.0</ele><time>2026-04-04T12:33:27.182Z</time></trkpt><trkpt lat="45.587295900316775" lon="11.169095480242662"><ele>707.0</ele><time>2026-04-04T12:33:28.182Z</time></trkpt><trkpt lat="45.58736929186775" lon="11.169115262012204"><ele>711.0</ele><time>2026-04-04T12:33:29.182Z</time></trkpt><trkpt lat="45.58743594841601" lon="11.169143867493155"><ele>715.0</ele><time>2026-04-04T12:33:30.182Z</time></trkpt><trkpt lat="45.587514068840186" lon="11.169179646563144"><ele>719.0</ele><time>2026-04-04T12:33:31.182Z</time></trkpt><trkpt lat="45.58755769341513" lon="11.169281082624028"><ele>723.0</ele><time>2026-04-04T12:33:32.182Z</time></trkpt><trkpt lat="45.58756871196292" lon="11.169425789247109"><ele>723.0</ele><time>2026-04-04T12:33:33.182Z</time></trkpt><trkpt lat="45.58755555342791" lon="11.169551215483917"><ele>723.0</ele><time>2026-04-04T12:33:34.182Z</time></trkpt><trkpt lat="45.5875038489929" lon="11.169660336627093"><ele>723.0</ele><time>2026-04-04T12:33:35.182Z</time></trkpt><trkpt lat="45.58742353638242" lon="11.169822232997847"><ele>723.0</ele><time>2026-04-04T12:33:36.182Z</time></trkpt><trkpt lat="45.587329491166415" lon="11.170004823380722"><ele>723.5</ele><time>2026-04-04T12:33:37.182Z</time></trkpt><trkpt lat="45.58724079359635" lon="11.17018006768975"><ele>724.0</ele><time>2026-04-04T12:33:38.182Z</time></trkpt><trkpt lat="45.58719526181143" lon="11.170341460461614"><ele>724.5</ele><time>2026-04-04T12:33:39.182Z</time></trkpt><trkpt lat="45.58714333677989" lon="11.170481807699"><ele>725.0</ele><time>2026-04-04T12:33:40.182Z</time></trkpt><trkpt lat="45.587088343945815" lon="11.170608678938793"><ele>725.0</ele><time>2026-04-04T12:33:41.182Z</time></trkpt><trkpt lat="45.58702566926512" lon="11.170670705570899"><ele>725.0</ele><time>2026-04-04T12:33:42.182Z</time></trkpt><trkpt lat="45.5869562577995" lon="11.170691254251011"><ele>725.0</ele><time>2026-04-04T12:33:43.182Z</time></trkpt><trkpt lat="45.58688428049676" lon="11.170682802115957"><ele>725.0</ele><time>2026-04-04T12:33:44.183Z</time></trkpt><trkpt lat="45.586795963827754" lon="11.170678849787262"><ele>725.0</ele><time>2026-04-04T12:33:45.183Z</time></trkpt><trkpt lat="45.58669936548143" lon="11.170694234861035"><ele>725.0</ele><time>2026-04-04T12:33:46.183Z</time></trkpt><trkpt lat="45.58660897620644" lon="11.170700822868309"><ele>723.3333333333333</ele><time>2026-04-04T12:33:47.183Z</time></trkpt><trkpt lat="45.586517403128354" lon="11.170716730556892"><ele>721.6666666666666</ele><time>2026-04-04T12:33:49.183Z</time></trkpt><trkpt lat="45.58651296309931" lon="11.170860946111054"><ele>720.0</ele><time>2026-04-04T12:33:51.183Z</time></trkpt><trkpt lat="45.58655201284607" lon="11.170973394150318"><ele>718.3333333333334</ele><time>2026-04-04T12:33:52.183Z</time></trkpt><trkpt lat="45.586598190308464" lon="11.171066053229763"><ele>716.6666666666667</ele><time>2026-04-04T12:33:53.183Z</time></trkpt><trkpt lat="45.58661844041079" lon="11.171185560381849"><ele>715.0</ele><time>2026-04-04T12:33:54.183Z</time></trkpt><trkpt lat="45.58662009569809" lon="11.17129139499952"><ele>715.0</ele><time>2026-04-04T12:33:55.183Z</time></trkpt><trkpt lat="45.5866897726041" lon="11.17135557447551"><ele>715.0</ele><time>2026-04-04T12:33:57.183Z</time></trkpt><trkpt lat="45.586737640632435" lon="11.171279152288895"><ele>715.0</ele><time>2026-04-04T12:33:59.183Z</time></trkpt><trkpt lat="45.58670581691661" lon="11.171199857976804"><ele>715.0</ele><time>2026-04-04T12:34:00.183Z</time></trkpt><trkpt lat="45.58663758364389" lon="11.17115573687683"><ele>715.0</ele><time>2026-04-04T12:34:01.183Z</time></trkpt><trkpt lat="45.58664380147637" lon="11.171033805322654"><ele>715.0</ele><time>2026-04-04T12:34:03.183Z</time></trkpt><trkpt lat="45.58676614577994" lon="11.171005550706006"><ele>715.0</ele><time>2026-04-04T12:34:05.183Z</time></trkpt><trkpt lat="45.5868370221305" lon="11.171031036574528"><ele>715.0</ele><time>2026-04-04T12:34:06.183Z</time></trkpt><trkpt lat="45.58692054866149" lon="11.171035667266194"><ele>715.0</ele><time>2026-04-04T12:34:07.183Z</time></trkpt><trkpt lat="45.587030762112434" lon="11.171035909612355"><ele>715.0</ele><time>2026-04-04T12:34:08.183Z</time></trkpt><trkpt lat="45.58712132263019" lon="11.171043300400859"><ele>715.0</ele><time>2026-04-04T12:34:09.183Z</time></trkpt><trkpt lat="45.58727467236736" lon="11.171064186237846"><ele>717.0</ele><time>2026-04-04T12:34:11.183Z</time></trkpt><trkpt lat="45.58737516926266" lon="11.171109299985456"><ele>719.0</ele><time>2026-04-04T12:34:12.183Z</time></trkpt><trkpt lat="45.587406483168536" lon="11.170992018436543"><ele>721.0</ele><time>2026-04-04T12:34:13.183Z</time></trkpt><trkpt lat="45.587398857484516" lon="11.170801602820475"><ele>723.0</ele><time>2026-04-04T12:34:14.183Z</time></trkpt><trkpt lat="45.587447706978026" lon="11.170703216580085"><ele>725.0</ele><time>2026-04-04T12:34:15.183Z</time></trkpt><trkpt lat="45.58752632481718" lon="11.1705688709505"><ele>725.0</ele><time>2026-04-04T12:34:16.183Z</time></trkpt><trkpt lat="45.587636574570716" lon="11.170393092193981"><ele>725.0</ele><time>2026-04-04T12:34:17.183Z</time></trkpt><trkpt lat="45.587698977706275" lon="11.170202847264946"><ele>725.0</ele><time>2026-04-04T12:34:18.183Z</time></trkpt><trkpt lat="45.587745979655224" lon="11.169991969990736"><ele>725.0</ele><time>2026-04-04T12:34:19.183Z</time></trkpt><trkpt lat="45.58781780430944" lon="11.169906203266539"><ele>725.0</ele><time>2026-04-04T12:34:20.183Z</time></trkpt><trkpt lat="45.58788158664765" lon="11.169783849434571"><ele>725.0</ele><time>2026-04-04T12:34:21.183Z</time></trkpt><trkpt lat="45.587948264480985" lon="11.169673511388345"><ele>725.0</ele><time>2026-04-04T12:34:22.183Z</time></trkpt><trkpt lat="45.588007604852244" lon="11.16958406076381"><ele>725.0</ele><time>2026-04-04T12:34:23.183Z</time></trkpt><trkpt lat="45.58807158759845" lon="11.16947095067922"><ele>731.0</ele><time>2026-04-04T12:34:24.183Z</time></trkpt><trkpt lat="45.588112586842946" lon="11.169371977761163"><ele>737.0</ele><time>2026-04-04T12:34:25.183Z</time></trkpt><trkpt lat="45.58816503889691" lon="11.16927221019507"><ele>743.0</ele><time>2026-04-04T12:34:26.183Z</time></trkpt><trkpt lat="45.58825226196517" lon="11.169108177834612"><ele>749.0</ele><time>2026-04-04T12:34:28.183Z</time></trkpt><trkpt lat="45.58832686664898" lon="11.169007858436157"><ele>755.0</ele><time>2026-04-04T12:34:29.183Z</time></trkpt><trkpt lat="45.58839775346333" lon="11.168967810293568"><ele>757.0</ele><time>2026-04-04T12:34:30.183Z</time></trkpt><trkpt lat="45.5885138248327" lon="11.168919002804621"><ele>759.0</ele><time>2026-04-04T12:34:31.183Z</time></trkpt><trkpt lat="45.58865429863472" lon="11.168886372947235"><ele>761.0</ele><time>2026-04-04T12:34:32.183Z</time></trkpt><trkpt lat="45.588730719370865" lon="11.168836293203158"><ele>763.0</ele><time>2026-04-04T12:34:33.183Z</time></trkpt><trkpt lat="45.58885606213599" lon="11.16871708538291"><ele>766.3333333333334</ele><time>2026-04-04T12:34:35.183Z</time></trkpt><trkpt lat="45.589009987136805" lon="11.168790884849054"><ele>769.6666666666667</ele><time>2026-04-04T12:34:37.183Z</time></trkpt><trkpt lat="45.58915995796878" lon="11.168627459409867"><ele>773.0</ele><time>2026-04-04T12:34:39.183Z</time></trkpt><trkpt lat="45.58908425840989" lon="11.168526375590838"><ele>773.0</ele><time>2026-04-04T12:34:40.183Z</time></trkpt><trkpt lat="45.58898196353535" lon="11.168354324604143"><ele>773.0</ele><time>2026-04-04T12:34:42.183Z</time></trkpt><trkpt lat="45.58888622650128" lon="11.168271421442887"><ele>773.0</ele><time>2026-04-04T12:34:43.183Z</time></trkpt><trkpt lat="45.58881824545713" lon="11.16818908849062"><ele>773.0</ele><time>2026-04-04T12:34:44.183Z</time></trkpt><trkpt lat="45.58874610098909" lon="11.168131983390252"><ele>773.0</ele><time>2026-04-04T12:34:45.183Z</time></trkpt><trkpt lat="45.588643319830645" lon="11.168238784748922"><ele>771.0</ele><time>2026-04-04T12:34:46.183Z</time></trkpt><trkpt lat="45.588545028576064" lon="11.16821878177734"><ele>769.0</ele><time>2026-04-04T12:34:47.183Z</time></trkpt><trkpt lat="45.58843368023766" lon="11.168174500651942"><ele>767.0</ele><time>2026-04-04T12:34:48.183Z</time></trkpt><trkpt lat="45.588334390602746" lon="11.1681522519433"><ele>765.0</ele><time>2026-04-04T12:34:49.183Z</time></trkpt><trkpt lat="45.58821632992003" lon="11.168124063834624"><ele>763.0</ele><time>2026-04-04T12:34:50.183Z</time></trkpt><trkpt lat="45.58811731382779" lon="11.168125062235081"><ele>761.8</ele><time>2026-04-04T12:34:51.183Z</time></trkpt><trkpt lat="45.587976789117626" lon="11.168120007246117"><ele>760.5999999999999</ele><time>2026-04-04T12:34:52.183Z</time></trkpt><trkpt lat="45.5878717287014" lon="11.168068523110728"><ele>759.4000000000001</ele><time>2026-04-04T12:34:53.183Z</time></trkpt><trkpt lat="45.58780124461545" lon="11.167989452783015"><ele>758.2</ele><time>2026-04-04T12:34:54.183Z</time></trkpt><trkpt lat="45.587727369356664" lon="11.167947345888265"><ele>757.0</ele><time>2026-04-04T12:34:55.183Z</time></trkpt><trkpt lat="45.587683102425736" lon="11.167874507621104"><ele>757.0</ele><time>2026-04-04T12:34:56.183Z</time></trkpt><trkpt lat="45.58767294980612" lon="11.16778149044235"><ele>757.0</ele><time>2026-04-04T12:34:57.183Z</time></trkpt><trkpt lat="45.58765415923567" lon="11.167670256804413"><ele>757.0</ele><time>2026-04-04T12:34:58.183Z</time></trkpt><trkpt lat="45.58767608404792" lon="11.167525971625302"><ele>757.0</ele><time>2026-04-04T12:34:59.183Z</time></trkpt><trkpt lat="45.58769668230305" lon="11.1673495324566"><ele>757.0</ele><time>2026-04-04T12:35:00.183Z</time></trkpt><trkpt lat="45.587760747701516" lon="11.167147582746194"><ele>757.75</ele><time>2026-04-04T12:35:01.183Z</time></trkpt><trkpt lat="45.58778510344569" lon="11.166908724539844"><ele>758.5</ele><time>2026-04-04T12:35:02.183Z</time></trkpt><trkpt lat="45.5877891538441" lon="11.16673297924247"><ele>759.25</ele><time>2026-04-04T12:35:03.183Z</time></trkpt><trkpt lat="45.58777636745519" lon="11.166579502891995"><ele>760.0</ele><time>2026-04-04T12:35:04.183Z</time></trkpt><trkpt lat="45.587744642532066" lon="11.166458650099266"><ele>759.0</ele><time>2026-04-04T12:35:05.183Z</time></trkpt><trkpt lat="45.58772760978684" lon="11.166366623600124"><ele>758.0</ele><time>2026-04-04T12:35:07.183Z</time></trkpt><trkpt lat="45.58781828290326" lon="11.166388486663866"><ele>757.0</ele><time>2026-04-04T12:35:09.183Z</time></trkpt><trkpt lat="45.587884941758524" lon="11.166458257546346"><ele>756.0</ele><time>2026-04-04T12:35:10.183Z</time></trkpt><trkpt lat="45.58785933812086" lon="11.166575286572428"><ele>755.0</ele><time>2026-04-04T12:35:11.183Z</time></trkpt><trkpt lat="45.58785420522934" lon="11.166741003376083"><ele>754.0</ele><time>2026-04-04T12:35:12.183Z</time></trkpt><trkpt lat="45.587895108574955" lon="11.166871614807155"><ele>759.1666666666667</ele><time>2026-04-04T12:35:13.183Z</time></trkpt><trkpt lat="45.58792595252076" lon="11.166978809302998"><ele>764.3333333333334</ele><time>2026-04-04T12:35:14.183Z</time></trkpt><trkpt lat="45.58795120242683" lon="11.167104927070334"><ele>769.5</ele><time>2026-04-04T12:35:15.183Z</time></trkpt><trkpt lat="45.58799613335099" lon="11.167247397027658"><ele>774.6666666666667</ele><time>2026-04-04T12:35:16.183Z</time></trkpt><trkpt lat="45.58804721555918" lon="11.167340138683066"><ele>779.8333333333334</ele><time>2026-04-04T12:35:17.183Z</time></trkpt><trkpt lat="45.58810146749064" lon="11.167427898404796"><ele>785.0</ele><time>2026-04-04T12:35:18.183Z</time></trkpt><trkpt lat="45.58817431548913" lon="11.167487813658253"><ele>785.0</ele><time>2026-04-04T12:35:19.183Z</time></trkpt><trkpt lat="45.5882684173912" lon="11.167503269853043"><ele>785.0</ele><time>2026-04-04T12:35:20.183Z</time></trkpt><trkpt lat="45.58836521983345" lon="11.167534596466453"><ele>785.0</ele><time>2026-04-04T12:35:21.183Z</time></trkpt><trkpt lat="45.5884865530098" lon="11.16756770335029"><ele>785.0</ele><time>2026-04-04T12:35:22.183Z</time></trkpt><trkpt lat="45.588633556463634" lon="11.167584655847197"><ele>788.3333333333334</ele><time>2026-04-04T12:35:23.183Z</time></trkpt><trkpt lat="45.58879480748806" lon="11.167604389694597"><ele>791.6666666666667</ele><time>2026-04-04T12:35:24.183Z</time></trkpt><trkpt lat="45.58895017095981" lon="11.167644134799547"><ele>795.0</ele><time>2026-04-04T12:35:25.183Z</time></trkpt><trkpt lat="45.58908407139274" lon="11.167705456851843"><ele>795.0</ele><time>2026-04-04T12:35:26.183Z</time></trkpt><trkpt lat="45.58921819678003" lon="11.167776071494483"><ele>795.0</ele><time>2026-04-04T12:35:27.183Z</time></trkpt><trkpt lat="45.58935727382997" lon="11.167860602181898"><ele>795.0</ele><time>2026-04-04T12:35:28.183Z</time></trkpt><trkpt lat="45.58951269241451" lon="11.167932107741297"><ele>795.5</ele><time>2026-04-04T12:35:29.183Z</time></trkpt><trkpt lat="45.589675003198096" lon="11.16799532271677"><ele>796.0</ele><time>2026-04-04T12:35:30.183Z</time></trkpt><trkpt lat="45.58980659888753" lon="11.168060543359573"><ele>796.5</ele><time>2026-04-04T12:35:31.183Z</time></trkpt><trkpt lat="45.5899281192359" lon="11.168124627608675"><ele>797.0</ele><time>2026-04-04T12:35:32.183Z</time></trkpt><trkpt lat="45.59006026858705" lon="11.16818327617325"><ele>797.0</ele><time>2026-04-04T12:35:33.183Z</time></trkpt><trkpt lat="45.59018449158751" lon="11.168272369118016"><ele>797.0</ele><time>2026-04-04T12:35:34.183Z</time></trkpt><trkpt lat="45.59028770146615" lon="11.168383020743267"><ele>797.0</ele><time>2026-04-04T12:35:35.183Z</time></trkpt><trkpt lat="45.59036751521349" lon="11.168512508768822"><ele>797.0</ele><time>2026-04-04T12:35:36.183Z</time></trkpt><trkpt lat="45.59043918436069" lon="11.16863807966956"><ele>797.0</ele><time>2026-04-04T12:35:37.183Z</time></trkpt><trkpt lat="45.590497396556486" lon="11.168791732832283"><ele>797.0</ele><time>2026-04-04T12:35:38.183Z</time></trkpt><trkpt lat="45.59056931850704" lon="11.168926331484675"><ele>797.0</ele><time>2026-04-04T12:35:39.183Z</time></trkpt><trkpt lat="45.59065579407585" lon="11.169069503001776"><ele>797.0</ele><time>2026-04-04T12:35:40.183Z</time></trkpt><trkpt lat="45.590723379460705" lon="11.169232553270673"><ele>799.0</ele><time>2026-04-04T12:35:41.183Z</time></trkpt><trkpt lat="45.590808459157785" lon="11.169384536717109"><ele>801.0</ele><time>2026-04-04T12:35:42.183Z</time></trkpt><trkpt lat="45.590912736439165" lon="11.169551892985831"><ele>803.0</ele><time>2026-04-04T12:35:43.183Z</time></trkpt><trkpt lat="45.59103344216146" lon="11.16970018584089"><ele>803.0</ele><time>2026-04-04T12:35:44.183Z</time></trkpt><trkpt lat="45.59113569130369" lon="11.169814461240906"><ele>803.0</ele><time>2026-04-04T12:35:45.183Z</time></trkpt><trkpt lat="45.591240901881015" lon="11.169916835035252"><ele>803.0</ele><time>2026-04-04T12:35:46.183Z</time></trkpt><trkpt lat="45.591378092932615" lon="11.169941425422358"><ele>803.0</ele><time>2026-04-04T12:35:47.183Z</time></trkpt><trkpt lat="45.59148001356265" lon="11.169962608979263"><ele>807.5</ele><time>2026-04-04T12:35:48.183Z</time></trkpt><trkpt lat="45.591578117850744" lon="11.17002481766169"><ele>812.0</ele><time>2026-04-04T12:35:49.183Z</time></trkpt><trkpt lat="45.59166883370863" lon="11.170115033550612"><ele>816.5</ele><time>2026-04-04T12:35:50.184Z</time></trkpt><trkpt lat="45.591764337634565" lon="11.170230384824048"><ele>821.0</ele><time>2026-04-04T12:35:51.184Z</time></trkpt><trkpt lat="45.59186899388328" lon="11.170362261982051"><ele>821.0</ele><time>2026-04-04T12:35:52.184Z</time></trkpt><trkpt lat="45.59197312921892" lon="11.17049423017391"><ele>821.0</ele><time>2026-04-04T12:35:53.184Z</time></trkpt><trkpt lat="45.592077717468506" lon="11.170615250528625"><ele>821.0</ele><time>2026-04-04T12:35:54.184Z</time></trkpt><trkpt lat="45.59214380365573" lon="11.17074210631077"><ele>821.0</ele><time>2026-04-04T12:35:55.184Z</time></trkpt><trkpt lat="45.592212022374085" lon="11.170774489670011"><ele>822.5000000000001</ele><time>2026-04-04T12:35:56.184Z</time></trkpt><trkpt lat="45.592271015156356" lon="11.170873451146457"><ele>824.0</ele><time>2026-04-04T12:35:58.184Z</time></trkpt><trkpt lat="45.59223625134592" lon="11.17097570588633"><ele>825.5</ele><time>2026-04-04T12:35:59.184Z</time></trkpt><trkpt lat="45.592174438024614" lon="11.171007246593625"><ele>827.0</ele><time>2026-04-04T12:36:00.184Z</time></trkpt><trkpt lat="45.59208587335553" lon="11.170997100338552"><ele>828.5000000000001</ele><time>2026-04-04T12:36:01.184Z</time></trkpt><trkpt lat="45.59200637215945" lon="11.17094212392013"><ele>830.0</ele><time>2026-04-04T12:36:02.184Z</time></trkpt><trkpt lat="45.59191826755173" lon="11.170896487039577"><ele>830.0000000000001</ele><time>2026-04-04T12:36:03.184Z</time></trkpt><trkpt lat="45.59184004512511" lon="11.170871217129752"><ele>830.0</ele><time>2026-04-04T12:36:04.184Z</time></trkpt><trkpt lat="45.59176938705918" lon="11.17088383140764"><ele>830.0</ele><time>2026-04-04T12:36:05.184Z</time></trkpt><trkpt lat="45.59171776327314" lon="11.170947361015543"><ele>830.0</ele><time>2026-04-04T12:36:06.184Z</time></trkpt><trkpt lat="45.59169291353202" lon="11.17105176705078"><ele>830.0000000000001</ele><time>2026-04-04T12:36:07.184Z</time></trkpt><trkpt lat="45.591706313377834" lon="11.171165299589598"><ele>830.0</ele><time>2026-04-04T12:36:08.184Z</time></trkpt><trkpt lat="45.591753825892795" lon="11.171286312593761"><ele>830.0</ele><time>2026-04-04T12:36:09.184Z</time></trkpt><trkpt lat="45.591819671855966" lon="11.171418966803925"><ele>830.0</ele><time>2026-04-04T12:36:10.184Z</time></trkpt><trkpt lat="45.59190792539646" lon="11.171553014094311"><ele>830.0</ele><time>2026-04-04T12:36:11.184Z</time></trkpt><trkpt lat="45.59198432659952" lon="11.171674234133565"><ele>830.0</ele><time>2026-04-04T12:36:12.184Z</time></trkpt><trkpt lat="45.59206480820618" lon="11.1717528831114"><ele>833.4</ele><time>2026-04-04T12:36:13.184Z</time></trkpt><trkpt lat="45.5921668498202" lon="11.171808875389939"><ele>836.8</ele><time>2026-04-04T12:36:14.184Z</time></trkpt><trkpt lat="45.592250556103245" lon="11.171867949266796"><ele>840.2</ele><time>2026-04-04T12:36:15.184Z</time></trkpt><trkpt lat="45.59232516568213" lon="11.171904922975392"><ele>843.6</ele><time>2026-04-04T12:36:17.184Z</time></trkpt><trkpt lat="45.59235547206204" lon="11.17175900126375"><ele>847.0</ele><time>2026-04-04T12:36:19.184Z</time></trkpt><trkpt lat="45.59228843545405" lon="11.171703913177122"><ele>846.9999999999999</ele><time>2026-04-04T12:36:20.184Z</time></trkpt><trkpt lat="45.59221105402893" lon="11.171704716443367"><ele>847.0</ele><time>2026-04-04T12:36:21.184Z</time></trkpt><trkpt lat="45.592145156118924" lon="11.171690990888639"><ele>847.0</ele><time>2026-04-04T12:36:22.184Z</time></trkpt><trkpt lat="45.592100191028315" lon="11.171585544887236"><ele>847.0</ele><time>2026-04-04T12:36:24.184Z</time></trkpt><trkpt lat="45.5921865011249" lon="11.171526386609447"><ele>846.9999999999999</ele><time>2026-04-04T12:36:26.184Z</time></trkpt><trkpt lat="45.59225866739734" lon="11.17158021336174"><ele>847.0</ele><time>2026-04-04T12:36:27.184Z</time></trkpt><trkpt lat="45.59232638256448" lon="11.17164908277715"><ele>846.9999999999999</ele><time>2026-04-04T12:36:28.184Z</time></trkpt><trkpt lat="45.59241932489355" lon="11.171704039937062"><ele>847.0</ele><time>2026-04-04T12:36:29.184Z</time></trkpt><trkpt lat="45.59251226422399" lon="11.17175801757056"><ele>847.0</ele><time>2026-04-04T12:36:30.184Z</time></trkpt><trkpt lat="45.59259121556604" lon="11.171808386883264"><ele>847.0</ele><time>2026-04-04T12:36:31.184Z</time></trkpt><trkpt lat="45.59265583209682" lon="11.171864744911877"><ele>846.9999999999999</ele><time>2026-04-04T12:36:32.184Z</time></trkpt><trkpt lat="45.59270362273929" lon="11.171946766996376"><ele>847.0</ele><time>2026-04-04T12:36:33.184Z</time></trkpt><trkpt lat="45.59273740929266" lon="11.172048936527514"><ele>847.0</ele><time>2026-04-04T12:36:34.184Z</time></trkpt><trkpt lat="45.59275150961344" lon="11.172168106151316"><ele>847.0</ele><time>2026-04-04T12:36:35.184Z</time></trkpt><trkpt lat="45.59272987818809" lon="11.17229300264826"><ele>847.0</ele><time>2026-04-04T12:36:36.184Z</time></trkpt><trkpt lat="45.59268113903441" lon="11.172415341760765"><ele>847.0</ele><time>2026-04-04T12:36:37.184Z</time></trkpt><trkpt lat="45.59260806464763" lon="11.172538576789352"><ele>847.0</ele><time>2026-04-04T12:36:38.184Z</time></trkpt><trkpt lat="45.59253134997605" lon="11.172620707465441"><ele>849.0</ele><time>2026-04-04T12:36:39.184Z</time></trkpt><trkpt lat="45.59239802178874" lon="11.172734187482446"><ele>851.0</ele><time>2026-04-04T12:36:40.184Z</time></trkpt><trkpt lat="45.592298951421185" lon="11.172772384911655"><ele>853.0</ele><time>2026-04-04T12:36:41.184Z</time></trkpt><trkpt lat="45.59222855463719" lon="11.172785560422442"><ele>855.0</ele><time>2026-04-04T12:36:42.184Z</time></trkpt><trkpt lat="45.59217274192851" lon="11.172838162980678"><ele>857.0</ele><time>2026-04-04T12:36:43.184Z</time></trkpt><trkpt lat="45.59215330325722" lon="11.173048405969864"><ele>857.0</ele><time>2026-04-04T12:36:45.184Z</time></trkpt><trkpt lat="45.59218454692858" lon="11.17318383885791"><ele>857.0</ele><time>2026-04-04T12:36:46.184Z</time></trkpt><trkpt lat="45.59223263082171" lon="11.17332775423013"><ele>857.0</ele><time>2026-04-04T12:36:47.184Z</time></trkpt><trkpt lat="45.59224145860449" lon="11.173463526583074"><ele>857.0</ele><time>2026-04-04T12:36:48.184Z</time></trkpt><trkpt lat="45.59222498686417" lon="11.173570379152041"><ele>857.0</ele><time>2026-04-04T12:36:49.184Z</time></trkpt><trkpt lat="45.592183531259074" lon="11.173644110994953"><ele>858.0</ele><time>2026-04-04T12:36:50.184Z</time></trkpt><trkpt lat="45.59212117514514" lon="11.173694764527008"><ele>859.0</ele><time>2026-04-04T12:36:51.184Z</time></trkpt><trkpt lat="45.59203950734085" lon="11.173689790573464"><ele>860.0</ele><time>2026-04-04T12:36:52.184Z</time></trkpt><trkpt lat="45.59197692751277" lon="11.173653219910205"><ele>861.0</ele><time>2026-04-04T12:36:53.184Z</time></trkpt><trkpt lat="45.591908960095196" lon="11.17365734245343"><ele>862.0</ele><time>2026-04-04T12:36:55.184Z</time></trkpt><trkpt lat="45.59191303791836" lon="11.173762994479928"><ele>863.0</ele><time>2026-04-04T12:36:57.184Z</time></trkpt><trkpt lat="45.591976240751094" lon="11.173809154365278"><ele>864.0</ele><time>2026-04-04T12:36:58.184Z</time></trkpt><trkpt lat="45.592048627756355" lon="11.173825534132286"><ele>865.0</ele><time>2026-04-04T12:36:59.184Z</time></trkpt><trkpt lat="45.59212442587276" lon="11.173852965248964"><ele>866.0</ele><time>2026-04-04T12:37:00.184Z</time></trkpt><trkpt lat="45.592217234047475" lon="11.173880992806055"><ele>867.0</ele><time>2026-04-04T12:37:01.184Z</time></trkpt><trkpt lat="45.59229693327794" lon="11.173907769832105"><ele>868.0</ele><time>2026-04-04T12:37:02.184Z</time></trkpt><trkpt lat="45.592366577858826" lon="11.173956590982295"><ele>869.0</ele><time>2026-04-04T12:37:03.184Z</time></trkpt><trkpt lat="45.59243252666203" lon="11.174053276207031"><ele>870.0</ele><time>2026-04-04T12:37:05.184Z</time></trkpt><trkpt lat="45.59237703204077" lon="11.17418107129701"><ele>868.5</ele><time>2026-04-04T12:37:07.184Z</time></trkpt><trkpt lat="45.592270170825266" lon="11.174195603116408"><ele>867.0</ele><time>2026-04-04T12:37:09.184Z</time></trkpt><trkpt lat="45.59219915737035" lon="11.174161086178815"><ele>865.5</ele><time>2026-04-04T12:37:10.184Z</time></trkpt><trkpt lat="45.59208851334729" lon="11.1740538534639"><ele>864.0</ele><time>2026-04-04T12:37:11.184Z</time></trkpt><trkpt lat="45.591942924972635" lon="11.173986274398297"><ele>864.0</ele><time>2026-04-04T12:37:12.184Z</time></trkpt><trkpt lat="45.59179021309427" lon="11.173928765150732"><ele>864.0</ele><time>2026-04-04T12:37:13.184Z</time></trkpt><trkpt lat="45.59165548351048" lon="11.17388014330447"><ele>864.0</ele><time>2026-04-04T12:37:14.184Z</time></trkpt><trkpt lat="45.591537644365616" lon="11.173851936798462"><ele>864.0</ele><time>2026-04-04T12:37:15.184Z</time></trkpt><trkpt lat="45.591428752927605" lon="11.173848846318329"><ele>864.0</ele><time>2026-04-04T12:37:16.184Z</time></trkpt><trkpt lat="45.59133368629289" lon="11.17388201335752"><ele>864.0000000000001</ele><time>2026-04-04T12:37:17.184Z</time></trkpt><trkpt lat="45.59126781910343" lon="11.173836786142472"><ele>864.0000000000001</ele><time>2026-04-04T12:37:18.184Z</time></trkpt><trkpt lat="45.59119419700901" lon="11.173844651504249"><ele>864.0</ele><time>2026-04-04T12:37:20.184Z</time></trkpt><trkpt lat="45.59117220652653" lon="11.174015154445408"><ele>864.0</ele><time>2026-04-04T12:37:22.184Z</time></trkpt><trkpt lat="45.59118930859009" lon="11.174156736468031"><ele>866.6</ele><time>2026-04-04T12:37:24.184Z</time></trkpt><trkpt lat="45.591207531588445" lon="11.17427027261946"><ele>869.2</ele><time>2026-04-04T12:37:25.184Z</time></trkpt><trkpt lat="45.59124603118278" lon="11.17440101656747"><ele>871.8000000000001</ele><time>2026-04-04T12:37:26.184Z</time></trkpt><trkpt lat="45.59127746897842" lon="11.174528581687738"><ele>874.4000000000001</ele><time>2026-04-04T12:37:27.184Z</time></trkpt><trkpt lat="45.591284935253995" lon="11.17466455639171"><ele>877.0</ele><time>2026-04-04T12:37:28.184Z</time></trkpt><trkpt lat="45.59128652454035" lon="11.174809667382874"><ele>877.8</ele><time>2026-04-04T12:37:29.184Z</time></trkpt><trkpt lat="45.59128854381241" lon="11.174954311760008"><ele>878.6</ele><time>2026-04-04T12:37:30.184Z</time></trkpt><trkpt lat="45.591299983561406" lon="11.175103256896628"><ele>879.3999999999999</ele><time>2026-04-04T12:37:31.184Z</time></trkpt><trkpt lat="45.59133782388813" lon="11.175219694941614"><ele>880.1999999999999</ele><time>2026-04-04T12:37:32.184Z</time></trkpt><trkpt lat="45.591392943043296" lon="11.175337761121355"><ele>881.0</ele><time>2026-04-04T12:37:33.184Z</time></trkpt><trkpt lat="45.591453575987785" lon="11.175450940351004"><ele>881.0</ele><time>2026-04-04T12:37:34.184Z</time></trkpt><trkpt lat="45.59154527363955" lon="11.175562055025553"><ele>881.0</ele><time>2026-04-04T12:37:35.184Z</time></trkpt><trkpt lat="45.591648728341596" lon="11.175677127571596"><ele>881.0</ele><time>2026-04-04T12:37:36.184Z</time></trkpt><trkpt lat="45.591753447318496" lon="11.175784533317143"><ele>881.0</ele><time>2026-04-04T12:37:37.184Z</time></trkpt><trkpt lat="45.59186681662806" lon="11.175876980689562"><ele>881.6666666666667</ele><time>2026-04-04T12:37:38.184Z</time></trkpt><trkpt lat="45.5919497348259" lon="11.175968592752962"><ele>882.3333333333334</ele><time>2026-04-04T12:37:39.184Z</time></trkpt><trkpt lat="45.59202107841069" lon="11.176055720499223"><ele>883.0</ele><time>2026-04-04T12:37:40.184Z</time></trkpt><trkpt lat="45.59206893620344" lon="11.176148234045232"><ele>883.6666666666667</ele><time>2026-04-04T12:37:41.184Z</time></trkpt><trkpt lat="45.59207378185725" lon="11.176263215983804"><ele>884.3333333333334</ele><time>2026-04-04T12:37:42.184Z</time></trkpt><trkpt lat="45.592066247309994" lon="11.176361875959117"><ele>885.0</ele><time>2026-04-04T12:37:43.184Z</time></trkpt><trkpt lat="45.59205146801762" lon="11.176476088841756"><ele>881.2</ele><time>2026-04-04T12:37:44.184Z</time></trkpt><trkpt lat="45.59204778097885" lon="11.176598729500643"><ele>877.4</ele><time>2026-04-04T12:37:45.184Z</time></trkpt><trkpt lat="45.5920268680346" lon="11.176737451431014"><ele>873.5999999999999</ele><time>2026-04-04T12:37:46.184Z</time></trkpt><trkpt lat="45.59198193952078" lon="11.176889977087864"><ele>869.8</ele><time>2026-04-04T12:37:47.184Z</time></trkpt><trkpt lat="45.59190883144088" lon="11.177072190312863"><ele>866.0</ele><time>2026-04-04T12:37:48.184Z</time></trkpt><trkpt lat="45.59182281421508" lon="11.177242129874317"><ele>863.0</ele><time>2026-04-04T12:37:49.184Z</time></trkpt><trkpt lat="45.591715581594826" lon="11.177375682277138"><ele>860.0</ele><time>2026-04-04T12:37:50.184Z</time></trkpt><trkpt lat="45.59159113974435" lon="11.177503950095522"><ele>857.0</ele><time>2026-04-04T12:37:51.184Z</time></trkpt><trkpt lat="45.591441655192234" lon="11.177619546813744"><ele>857.0</ele><time>2026-04-04T12:37:52.184Z</time></trkpt><trkpt lat="45.59128218355953" lon="11.17777171813042"><ele>857.0</ele><time>2026-04-04T12:37:53.184Z</time></trkpt><trkpt lat="45.59110144203148" lon="11.177928399187048"><ele>857.0</ele><time>2026-04-04T12:37:54.184Z</time></trkpt><trkpt lat="45.5909505168261" lon="11.178088784245714"><ele>858.3333333333334</ele><time>2026-04-04T12:37:55.184Z</time></trkpt><trkpt lat="45.59080705094454" lon="11.178249899116569"><ele>859.6666666666667</ele><time>2026-04-04T12:37:56.184Z</time></trkpt><trkpt lat="45.59067630657185" lon="11.178427897506257"><ele>861.0</ele><time>2026-04-04T12:37:57.184Z</time></trkpt><trkpt lat="45.59056082932077" lon="11.178600914023939"><ele>861.0</ele><time>2026-04-04T12:37:58.184Z</time></trkpt><trkpt lat="45.59046224856465" lon="11.178779009334216"><ele>861.0</ele><time>2026-04-04T12:37:59.184Z</time></trkpt><trkpt lat="45.590366094740816" lon="11.178937288812506"><ele>861.0</ele><time>2026-04-04T12:38:00.184Z</time></trkpt><trkpt lat="45.59026464299195" lon="11.179071007452995"><ele>861.0</ele><time>2026-04-04T12:38:01.184Z</time></trkpt><trkpt lat="45.59015456874498" lon="11.179198591231026"><ele>863.25</ele><time>2026-04-04T12:38:02.184Z</time></trkpt><trkpt lat="45.59002631086271" lon="11.179292054488833"><ele>865.5</ele><time>2026-04-04T12:38:03.184Z</time></trkpt><trkpt lat="45.58988694101646" lon="11.179356761078095"><ele>867.75</ele><time>2026-04-04T12:38:04.184Z</time></trkpt><trkpt lat="45.589739813011285" lon="11.179399802859097"><ele>870.0</ele><time>2026-04-04T12:38:05.184Z</time></trkpt><trkpt lat="45.58959841504211" lon="11.179428174696126"><ele>869.8333333333334</ele><time>2026-04-04T12:38:06.184Z</time></trkpt><trkpt lat="45.58949260171581" lon="11.179448014330315"><ele>869.6666666666667</ele><time>2026-04-04T12:38:07.184Z</time></trkpt><trkpt lat="45.58944998748918" lon="11.17952209752161"><ele>869.5</ele><time>2026-04-04T12:38:08.184Z</time></trkpt><trkpt lat="45.58939375971537" lon="11.179626558136091"><ele>869.3333333333334</ele><time>2026-04-04T12:38:09.184Z</time></trkpt><trkpt lat="45.589373018089205" lon="11.179744723912277"><ele>869.1666666666667</ele><time>2026-04-04T12:38:10.184Z</time></trkpt><trkpt lat="45.589344294523166" lon="11.179857850743385"><ele>869.0</ele><time>2026-04-04T12:38:11.184Z</time></trkpt><trkpt lat="45.58929263158865" lon="11.179964799512614"><ele>869.0</ele><time>2026-04-04T12:38:12.184Z</time></trkpt><trkpt lat="45.58925236829168" lon="11.180110357937814"><ele>869.0</ele><time>2026-04-04T12:38:13.184Z</time></trkpt><trkpt lat="45.58923217721423" lon="11.180278395482741"><ele>869.0</ele><time>2026-04-04T12:38:14.184Z</time></trkpt><trkpt lat="45.58922692305716" lon="11.180462922173339"><ele>869.0</ele><time>2026-04-04T12:38:15.184Z</time></trkpt><trkpt lat="45.589245098373745" lon="11.18063039525279"><ele>870.4000000000001</ele><time>2026-04-04T12:38:16.184Z</time></trkpt><trkpt lat="45.58928005828126" lon="11.180774766452895"><ele>871.8000000000001</ele><time>2026-04-04T12:38:17.184Z</time></trkpt><trkpt lat="45.589304634109716" lon="11.180909458064905"><ele>873.1999999999999</ele><time>2026-04-04T12:38:18.184Z</time></trkpt><trkpt lat="45.58930907810034" lon="11.181040331675867"><ele>874.5999999999999</ele><time>2026-04-04T12:38:19.184Z</time></trkpt><trkpt lat="45.58930533614281" lon="11.181168910515781"><ele>876.0</ele><time>2026-04-04T12:38:20.184Z</time></trkpt><trkpt lat="45.589272235566504" lon="11.181306159997266"><ele>876.0</ele><time>2026-04-04T12:38:21.184Z</time></trkpt><trkpt lat="45.58921628164628" lon="11.181451699217375"><ele>876.0</ele><time>2026-04-04T12:38:22.184Z</time></trkpt><trkpt lat="45.58917860120473" lon="11.181631606195635"><ele>876.0</ele><time>2026-04-04T12:38:23.184Z</time></trkpt><trkpt lat="45.58914332673525" lon="11.181827696039566"><ele>876.0</ele><time>2026-04-04T12:38:24.184Z</time></trkpt><trkpt lat="45.58910254979564" lon="11.182072753583814"><ele>875.3333333333333</ele><time>2026-04-04T12:38:25.184Z</time></trkpt><trkpt lat="45.58907465848763" lon="11.18233486861055"><ele>874.6666666666666</ele><time>2026-04-04T12:38:26.184Z</time></trkpt><trkpt lat="45.589050902181484" lon="11.182573935683234"><ele>874.0</ele><time>2026-04-04T12:38:27.184Z</time></trkpt><trkpt lat="45.58902232859769" lon="11.182781754058226"><ele>871.5</ele><time>2026-04-04T12:38:28.184Z</time></trkpt><trkpt lat="45.58900874161095" lon="11.18296411038271"><ele>869.0</ele><time>2026-04-04T12:38:29.184Z</time></trkpt><trkpt lat="45.585657274118894" lon="11.1579877999073"><ele>803.6</ele><time>2026-04-04T12:30:27.181Z</time></trkpt><trkpt lat="45.58573055504693" lon="11.157922051459224"><ele>738.2</ele><time>2026-04-04T12:30:28.181Z</time></trkpt><trkpt lat="45.58579223954331" lon="11.15781770706701"><ele>672.8000000000001</ele><time>2026-04-04T12:30:29.181Z</time></trkpt><trkpt lat="45.58584826755273" lon="11.157682796310388"><ele>607.4000000000001</ele><time>2026-04-04T12:30:30.181Z</time></trkpt><trkpt lat="45.585915360701115" lon="11.157527786876893"><ele>542.0</ele><time>2026-04-04T12:30:31.181Z</time></trkpt><trkpt lat="45.58596420402093" lon="11.157356708399151"><ele>542.0</ele><time>2026-04-04T12:30:32.181Z</time></trkpt><trkpt lat="45.585995705814334" lon="11.15721170842829"><ele>542.0</ele><time>2026-04-04T12:30:33.181Z</time></trkpt><trkpt lat="45.58603932584632" lon="11.15708377204987"><ele>542.0</ele><time>2026-04-04T12:30:34.181Z</time></trkpt><trkpt lat="45.5860781430637" lon="11.156977611335039"><ele>542.0</ele><time>2026-04-04T12:30:35.181Z</time></trkpt><trkpt lat="45.58612623399378" lon="11.156900141808569"><ele>542.0</ele><time>2026-04-04T12:30:36.181Z</time></trkpt><trkpt lat="45.58619839137646" lon="11.156869808254037"><ele>542.0</ele><time>2026-04-04T12:30:37.181Z</time></trkpt><trkpt lat="45.58627582299951" lon="11.156900549923732"><ele>547.4</ele><time>2026-04-04T12:30:38.181Z</time></trkpt><trkpt lat="45.5863188753265" lon="11.156997022524928"><ele>552.8000000000001</ele><time>2026-04-04T12:30:39.181Z</time></trkpt><trkpt lat="45.586338362862755" lon="11.15711802535864"><ele>558.2</ele><time>2026-04-04T12:30:40.181Z</time></trkpt><trkpt lat="45.5863489727702" lon="11.157274053879702"><ele>563.6</ele><time>2026-04-04T12:30:41.181Z</time></trkpt><trkpt lat="45.58635519562859" lon="11.157442972694087"><ele>569.0</ele><time>2026-04-04T12:30:42.181Z</time></trkpt><trkpt lat="45.58639354385334" lon="11.15762867083819"><ele>568.6666666666666</ele><time>2026-04-04T12:30:43.181Z</time></trkpt><trkpt lat="45.58644445865606" lon="11.15785124433344"><ele>568.3333333333334</ele><time>2026-04-04T12:30:44.181Z</time></trkpt><trkpt lat="45.586505434593874" lon="11.158115124138956"><ele>568.0</ele><time>2026-04-04T12:30:45.181Z</time></trkpt><trkpt lat="45.58657209887659" lon="11.158380334348907"><ele>568.0</ele><time>2026-04-04T12:30:46.181Z</time></trkpt><trkpt lat="45.5866407082854" lon="11.158605999857153"><ele>568.0</ele><time>2026-04-04T12:30:47.181Z</time></trkpt><trkpt lat="45.58667394658127" lon="11.158799581565168"><ele>568.0</ele><time>2026-04-04T12:30:48.181Z</time></trkpt><trkpt lat="45.586688565192134" lon="11.158979091225351"><ele>568.0</ele><time>2026-04-04T12:30:49.181Z</time></trkpt><trkpt lat="45.58668232944348" lon="11.159152370028217"><ele>569.0</ele><time>2026-04-04T12:30:50.181Z</time></trkpt><trkpt lat="45.586695733454334" lon="11.159358463008601"><ele>570.0</ele><time>2026-04-04T12:30:51.181Z</time></trkpt><trkpt lat="45.586727129639385" lon="11.159557187543175"><ele>571.0</ele><time>2026-04-04T12:30:52.181Z</time></trkpt><trkpt lat="45.58672731824673" lon="11.15975435299907"><ele>572.0</ele><time>2026-04-04T12:30:53.181Z</time></trkpt><trkpt lat="45.586702708190266" lon="11.15991783201507"><ele>573.4</ele><time>2026-04-04T12:30:54.181Z</time></trkpt><trkpt lat="45.586683433539015" lon="11.160080680878552"><ele>574.8000000000001</ele><time>2026-04-04T12:30:55.181Z</time></trkpt><trkpt lat="45.58664205403504" lon="11.16024111142419"><ele>576.2</ele><time>2026-04-04T12:30:56.181Z</time></trkpt><trkpt lat="45.58659876443156" lon="11.160373824627255"><ele>577.6</ele><time>2026-04-04T12:30:57.181Z</time></trkpt><trkpt lat="45.5865857917487" lon="11.16047753785489"><ele>579.0</ele><time>2026-04-04T12:30:58.181Z</time></trkpt><trkpt lat="45.58658039722017" lon="11.16057253960085"><ele>579.0</ele><time>2026-04-04T12:30:59.181Z</time></trkpt><trkpt lat="45.58660647676074" lon="11.160695679611685"><ele>579.0</ele><time>2026-04-04T12:31:00.181Z</time></trkpt><trkpt lat="45.586659445489545" lon="11.160833803146001"><ele>579.0</ele><time>2026-04-04T12:31:01.181Z</time></trkpt><trkpt lat="45.58672436242834" lon="11.160995947396273"><ele>579.0</ele><time>2026-04-04T12:31:02.181Z</time></trkpt><trkpt lat="45.58679699440343" lon="11.161220934263598"><ele>579.4</ele><time>2026-04-04T12:31:03.181Z</time></trkpt><trkpt lat="45.58684863379163" lon="11.161414039909326"><ele>579.8</ele><time>2026-04-04T12:31:04.181Z</time></trkpt><trkpt lat="45.58689333948791" lon="11.161578663472365"><ele>580.2</ele><time>2026-04-04T12:31:05.181Z</time></trkpt><trkpt lat="45.58693513070721" lon="11.161699589706254"><ele>580.6</ele><time>2026-04-04T12:31:06.181Z</time></trkpt><trkpt lat="45.58696836782001" lon="11.161806204574583"><ele>581.0</ele><time>2026-04-04T12:31:07.181Z</time></trkpt><trkpt lat="45.58693820619771" lon="11.161918754947257"><ele>582.0</ele><time>2026-04-04T12:31:08.181Z</time></trkpt><trkpt lat="45.58689752894244" lon="11.161998377094367"><ele>583.0</ele><time>2026-04-04T12:31:09.181Z</time></trkpt><trkpt lat="45.58681398593745" lon="11.162040100266195"><ele>584.0</ele><time>2026-04-04T12:31:10.181Z</time></trkpt><trkpt lat="45.58670515287782" lon="11.162059568438588"><ele>585.0</ele><time>2026-04-04T12:31:11.181Z</time></trkpt><trkpt lat="45.58659093281957" lon="11.162031176925732"><ele>586.0</ele><time>2026-04-04T12:31:12.181Z</time></trkpt><trkpt lat="45.586434970759285" lon="11.162043651247387"><ele>586.0</ele><time>2026-04-04T12:31:13.181Z</time></trkpt><trkpt lat="45.5863165701928" lon="11.16204660340154"><ele>586.0</ele><time>2026-04-04T12:31:14.181Z</time></trkpt><trkpt lat="45.586207858242496" lon="11.162065608369389"><ele>586.0</ele><time>2026-04-04T12:31:15.181Z</time></trkpt><trkpt lat="45.58608122076661" lon="11.162107271748555"><ele>586.0</ele><time>2026-04-04T12:31:16.181Z</time></trkpt><trkpt lat="45.58597699186106" lon="11.162127856230798"><ele>588.25</ele><time>2026-04-04T12:31:17.181Z</time></trkpt><trkpt lat="45.58589428577535" lon="11.16221075887178"><ele>590.5</ele><time>2026-04-04T12:31:18.181Z</time></trkpt><trkpt lat="45.58579937188006" lon="11.162295148984862"><ele>592.75</ele><time>2026-04-04T12:31:19.181Z</time></trkpt><trkpt lat="45.585707875744525" lon="11.162372558283241"><ele>595.0</ele><time>2026-04-04T12:31:20.181Z</time></trkpt><trkpt lat="45.5855925672703" lon="11.16247850938297"><ele>595.0</ele><time>2026-04-04T12:31:21.181Z</time></trkpt><trkpt lat="45.58554653243267" lon="11.162609081946762"><ele>595.0</ele><time>2026-04-04T12:31:22.181Z</time></trkpt><trkpt lat="45.58547870745853" lon="11.162731278890826"><ele>595.0</ele><time>2026-04-04T12:31:24.181Z</time></trkpt><trkpt lat="45.58548326535224" lon="11.162848306053972"><ele>595.0</ele><time>2026-04-04T12:31:26.181Z</time></trkpt><trkpt lat="45.58559797549333" lon="11.162850196943259"><ele>595.0</ele><time>2026-04-04T12:31:28.181Z</time></trkpt><trkpt lat="45.585669840193496" lon="11.162749120380635"><ele>595.0</ele><time>2026-04-04T12:31:29.181Z</time></trkpt><trkpt lat="45.58573030241579" lon="11.162684293056206"><ele>595.0</ele><time>2026-04-04T12:31:30.181Z</time></trkpt><trkpt lat="45.585826619570014" lon="11.162624127529002"><ele>595.0</ele><time>2026-04-04T12:31:31.181Z</time></trkpt><trkpt lat="45.58590736032257" lon="11.162582805092216"><ele>595.0</ele><time>2026-04-04T12:31:32.181Z</time></trkpt><trkpt lat="45.585993550666686" lon="11.162568587134437"><ele>595.0</ele><time>2026-04-04T12:31:33.181Z</time></trkpt><trkpt lat="45.586098558480614" lon="11.162571387625642"><ele>598.5</ele><time>2026-04-04T12:31:34.181Z</time></trkpt><trkpt lat="45.586209161429174" lon="11.162573936244073"><ele>602.0</ele><time>2026-04-04T12:31:35.181Z</time></trkpt><trkpt lat="45.586357150250514" lon="11.162563411034713"><ele>605.5</ele><time>2026-04-04T12:31:36.181Z</time></trkpt><trkpt lat="45.58647640031762" lon="11.16255604585714"><ele>609.0</ele><time>2026-04-04T12:31:37.181Z</time></trkpt><trkpt lat="45.586588000195896" lon="11.162567792270579"><ele>609.0</ele><time>2026-04-04T12:31:38.182Z</time></trkpt><trkpt lat="45.586682450624984" lon="11.162571157734005"><ele>609.0</ele><time>2026-04-04T12:31:39.182Z</time></trkpt><trkpt lat="45.586790523063975" lon="11.162572372391123"><ele>609.0</ele><time>2026-04-04T12:31:40.182Z</time></trkpt><trkpt lat="45.58687847701017" lon="11.162514886427166"><ele>609.0</ele><time>2026-04-04T12:31:41.182Z</time></trkpt><trkpt lat="45.58694556856374" lon="11.162563475250128"><ele>609.0</ele><time>2026-04-04T12:31:43.182Z</time></trkpt><trkpt lat="45.58688081936885" lon="11.162659421102775"><ele>609.0</ele><time>2026-04-04T12:31:45.182Z</time></trkpt><trkpt lat="45.586761093063544" lon="11.162585099364405"><ele>609.0</ele><time>2026-04-04T12:31:47.182Z</time></trkpt><trkpt lat="45.58667812625145" lon="11.162545293112771"><ele>609.0</ele><time>2026-04-04T12:31:48.182Z</time></trkpt><trkpt lat="45.58656187917209" lon="11.162565315849532"><ele>609.0</ele><time>2026-04-04T12:31:49.182Z</time></trkpt><trkpt lat="45.58644651978217" lon="11.162610055226386"><ele>609.0</ele><time>2026-04-04T12:31:50.182Z</time></trkpt><trkpt lat="45.58631648978556" lon="11.162664921262692"><ele>609.0</ele><time>2026-04-04T12:31:51.182Z</time></trkpt><trkpt lat="45.58618924473122" lon="11.162737046904411"><ele>609.0</ele><time>2026-04-04T12:31:52.182Z</time></trkpt><trkpt lat="45.586053196031" lon="11.162774642533849"><ele>609.0</ele><time>2026-04-04T12:31:53.182Z</time></trkpt><trkpt lat="45.58594854414682" lon="11.16282080755932"><ele>605.5</ele><time>2026-04-04T12:31:54.182Z</time></trkpt><trkpt lat="45.58584994849269" lon="11.16284281230785"><ele>602.0</ele><time>2026-04-04T12:31:55.182Z</time></trkpt><trkpt lat="45.58576030180459" lon="11.162969679858387"><ele>598.5</ele><time>2026-04-04T12:31:56.182Z</time></trkpt><trkpt lat="45.585654341936504" lon="11.163056872067846"><ele>595.0</ele><time>2026-04-04T12:31:57.182Z</time></trkpt><trkpt lat="45.58556317510273" lon="11.163241972327528"><ele>594.0</ele><time>2026-04-04T12:31:58.182Z</time></trkpt><trkpt lat="45.58544715628978" lon="11.16342031816978"><ele>593.0</ele><time>2026-04-04T12:31:59.182Z</time></trkpt><trkpt lat="45.585363640317745" lon="11.16358036550342"><ele>592.0</ele><time>2026-04-04T12:32:00.182Z</time></trkpt><trkpt lat="45.58527478410563" lon="11.163712073171194"><ele>591.0</ele><time>2026-04-04T12:32:01.182Z</time></trkpt><trkpt lat="45.58519893164626" lon="11.163862980657363"><ele>591.0</ele><time>2026-04-04T12:32:02.182Z</time></trkpt><trkpt lat="45.58516527079245" lon="11.164007004947656"><ele>591.0</ele><time>2026-04-04T12:32:03.182Z</time></trkpt><trkpt lat="45.58512691685657" lon="11.16413229934675"><ele>591.0</ele><time>2026-04-04T12:32:04.182Z</time></trkpt><trkpt lat="45.58511698592169" lon="11.164230086963379"><ele>591.0</ele><time>2026-04-04T12:32:05.182Z</time></trkpt><trkpt lat="45.58513936227306" lon="11.164352490864925"><ele>591.0</ele><time>2026-04-04T12:32:06.182Z</time></trkpt><trkpt lat="45.58514425614312" lon="11.164449349500746"><ele>591.0</ele><time>2026-04-04T12:32:07.182Z</time></trkpt><trkpt lat="45.58522198910251" lon="11.164617026412333"><ele>595.25</ele><time>2026-04-04T12:32:08.182Z</time></trkpt><trkpt lat="45.58529824822293" lon="11.164787442490464"><ele>599.5</ele><time>2026-04-04T12:32:09.182Z</time></trkpt><trkpt lat="45.58535918574527" lon="11.164994777870364"><ele>603.75</ele><time>2026-04-04T12:32:10.182Z</time></trkpt><trkpt lat="45.585401763656" lon="11.165185821057527"><ele>608.0</ele><time>2026-04-04T12:32:11.182Z</time></trkpt><trkpt lat="45.585415650528645" lon="11.16535780936549"><ele>618.2</ele><time>2026-04-04T12:32:12.182Z</time></trkpt><trkpt lat="45.5853756354911" lon="11.165546202978682"><ele>628.4</ele><time>2026-04-04T12:32:13.182Z</time></trkpt><trkpt lat="45.58535097467861" lon="11.165676290918991"><ele>638.6</ele><time>2026-04-04T12:32:14.182Z</time></trkpt><trkpt lat="45.58537428724348" lon="11.165778189710384"><ele>648.8000000000001</ele><time>2026-04-04T12:32:15.182Z</time></trkpt><trkpt lat="45.585417723058185" lon="11.165915058330459"><ele>659.0</ele><time>2026-04-04T12:32:16.182Z</time></trkpt><trkpt lat="45.58555151244558" lon="11.166128222006424"><ele>659.0</ele><time>2026-04-04T12:32:17.182Z</time></trkpt><trkpt lat="45.585740237018754" lon="11.166298829897586"><ele>659.0</ele><time>2026-04-04T12:32:18.182Z</time></trkpt><trkpt lat="45.58583164891765" lon="11.166414010786898"><ele>659.0</ele><time>2026-04-04T12:32:19.182Z</time></trkpt><trkpt lat="45.585855923262464" lon="11.16651637244647"><ele>659.0</ele><time>2026-04-04T12:32:20.182Z</time></trkpt><trkpt lat="45.585873319138734" lon="11.166629028117374"><ele>657.5</ele><time>2026-04-04T12:32:21.182Z</time></trkpt><trkpt lat="45.585855173962116" lon="11.166760902453824"><ele>656.0</ele><time>2026-04-04T12:32:22.182Z</time></trkpt><trkpt lat="45.58579190654393" lon="11.166939791657812"><ele>654.5</ele><time>2026-04-04T12:32:23.182Z</time></trkpt><trkpt lat="45.58574481665286" lon="11.167112296177999"><ele>653.0</ele><time>2026-04-04T12:32:24.182Z</time></trkpt><trkpt lat="45.5857423745182" lon="11.167269611915483"><ele>653.0</ele><time>2026-04-04T12:32:25.182Z</time></trkpt><trkpt lat="45.58578225030352" lon="11.167429723153022"><ele>653.0</ele><time>2026-04-04T12:32:26.182Z</time></trkpt><trkpt lat="45.58582629323392" lon="11.167590473930456"><ele>653.0</ele><time>2026-04-04T12:32:27.182Z</time></trkpt><trkpt lat="45.58587564724205" lon="11.167755633168646"><ele>653.0</ele><time>2026-04-04T12:32:28.182Z</time></trkpt><trkpt lat="45.58592158198376" lon="11.167899712678995"><ele>653.0</ele><time>2026-04-04T12:32:29.182Z</time></trkpt><trkpt lat="45.585917543904756" lon="11.16806561213641"><ele>653.0</ele><time>2026-04-04T12:32:30.182Z</time></trkpt><trkpt lat="45.58594312129255" lon="11.168206870255984"><ele>653.0</ele><time>2026-04-04T12:32:31.182Z</time></trkpt><trkpt lat="45.585959768360944" lon="11.168321103908426"><ele>653.0</ele><time>2026-04-04T12:32:32.182Z</time></trkpt><trkpt lat="45.58599623405729" lon="11.168457427008182"><ele>653.0</ele><time>2026-04-04T12:32:33.182Z</time></trkpt><trkpt lat="45.586064589742286" lon="11.168567819827633"><ele>661.0</ele><time>2026-04-04T12:32:34.182Z</time></trkpt><trkpt lat="45.586182389846186" lon="11.168665784530189"><ele>669.0</ele><time>2026-04-04T12:32:35.182Z</time></trkpt><trkpt lat="45.58629021912338" lon="11.16880064803211"><ele>677.0</ele><time>2026-04-04T12:32:36.182Z</time></trkpt><trkpt lat="45.58638771909376" lon="11.168951134251587"><ele>685.0</ele><time>2026-04-04T12:32:37.182Z</time></trkpt><trkpt lat="45.58645282531377" lon="11.169081103369026"><ele>685.0</ele><time>2026-04-04T12:32:38.182Z</time></trkpt><trkpt lat="45.58650418085332" lon="11.169201272752607"><ele>685.0</ele><time>2026-04-04T12:32:39.182Z</time></trkpt><trkpt lat="45.5865586268663" lon="11.169286835119088"><ele>685.0</ele><time>2026-04-04T12:32:40.182Z</time></trkpt><trkpt lat="45.586594572215915" lon="11.16941389807918"><ele>685.0</ele><time>2026-04-04T12:32:42.182Z</time></trkpt><trkpt lat="45.586677787826474" lon="11.169393190659461"><ele>685.0</ele><time>2026-04-04T12:32:44.182Z</time></trkpt><trkpt lat="45.586648853992365" lon="11.169254067068145"><ele>685.0</ele><time>2026-04-04T12:32:46.182Z</time></trkpt><trkpt lat="45.586567066326836" lon="11.169193248190275"><ele>685.0</ele><time>2026-04-04T12:32:47.182Z</time></trkpt><trkpt lat="45.58651736356535" lon="11.169094827884406"><ele>685.0</ele><time>2026-04-04T12:32:48.182Z</time></trkpt><trkpt lat="45.58645904024801" lon="11.16895298153845"><ele>685.0</ele><time>2026-04-04T12:32:49.182Z</time></trkpt><trkpt lat="45.58641021273422" lon="11.168833299098742"><ele>685.0</ele><time>2026-04-04T12:32:50.182Z</time></trkpt><trkpt lat="45.58637107460009" lon="11.16870835459506"><ele>687.8</ele><time>2026-04-04T12:32:51.182Z</time></trkpt><trkpt lat="45.58632753557501" lon="11.168554391009756"><ele>690.6</ele><time>2026-04-04T12:32:52.182Z</time></trkpt><trkpt lat="45.58633183763266" lon="11.168423432516974"><ele>693.4000000000001</ele><time>2026-04-04T12:32:53.182Z</time></trkpt><trkpt lat="45.58632554104897" lon="11.16831970553012"><ele>696.2</ele><time>2026-04-04T12:32:54.182Z</time></trkpt><trkpt lat="45.58634748768983" lon="11.16818001961789"><ele>699.0</ele><time>2026-04-04T12:32:55.182Z</time></trkpt><trkpt lat="45.58636858222114" lon="11.168034242887362"><ele>700.2</ele><time>2026-04-04T12:32:56.182Z</time></trkpt><trkpt lat="45.58637545277435" lon="11.167872941294194"><ele>701.4000000000001</ele><time>2026-04-04T12:32:57.182Z</time></trkpt><trkpt lat="45.586379686289504" lon="11.167698430239925"><ele>702.6</ele><time>2026-04-04T12:32:58.182Z</time></trkpt><trkpt lat="45.58638539018631" lon="11.167550700872969"><ele>703.8</ele><time>2026-04-04T12:32:59.182Z</time></trkpt><trkpt lat="45.58640364168115" lon="11.16742696843518"><ele>705.0</ele><time>2026-04-04T12:33:00.182Z</time></trkpt><trkpt lat="45.58645152125519" lon="11.167282260411163"><ele>706.0</ele><time>2026-04-04T12:33:01.182Z</time></trkpt><trkpt lat="45.58651619234437" lon="11.167106382612317"><ele>707.0</ele><time>2026-04-04T12:33:02.182Z</time></trkpt><trkpt lat="45.58651206367833" lon="11.166949783417298"><ele>708.0</ele><time>2026-04-04T12:33:03.182Z</time></trkpt><trkpt lat="45.5864602879601" lon="11.166799749505332"><ele>709.0</ele><time>2026-04-04T12:33:04.182Z</time></trkpt><trkpt lat="45.58647561644233" lon="11.166679540011943"><ele>709.0</ele><time>2026-04-04T12:33:05.182Z</time></trkpt><trkpt lat="45.58652587983136" lon="11.166575910935258"><ele>709.0</ele><time>2026-04-04T12:33:07.182Z</time></trkpt><trkpt lat="45.5865677448287" lon="11.166658587796224"><ele>709.0</ele><time>2026-04-04T12:33:09.182Z</time></trkpt><trkpt lat="45.5865559253102" lon="11.166763020714985"><ele>709.0</ele><time>2026-04-04T12:33:10.182Z</time></trkpt><trkpt lat="45.586514086841646" lon="11.166893821442164"><ele>709.0</ele><time>2026-04-04T12:33:11.182Z</time></trkpt><trkpt lat="45.58649744323605" lon="11.167012648204244"><ele>709.0</ele><time>2026-04-04T12:33:12.182Z</time></trkpt><trkpt lat="45.586494751283" lon="11.167185716724665"><ele>708.0</ele><time>2026-04-04T12:33:13.182Z</time></trkpt><trkpt lat="45.5864888314062" lon="11.167380475350578"><ele>707.0</ele><time>2026-04-04T12:33:14.182Z</time></trkpt><trkpt lat="45.58650574899649" lon="11.167566359917846"><ele>706.0</ele><time>2026-04-04T12:33:15.182Z</time></trkpt><trkpt lat="45.58651401124583" lon="11.167720561644012"><ele>705.0</ele><time>2026-04-04T12:33:16.182Z</time></trkpt><trkpt lat="45.58651360570299" lon="11.167856648344397"><ele>705.0</ele><time>2026-04-04T12:33:17.182Z</time></trkpt><trkpt lat="45.58652921828513" lon="11.167987752632238"><ele>705.0</ele><time>2026-04-04T12:33:18.182Z</time></trkpt><trkpt lat="45.58653177571129" lon="11.168098770676881"><ele>705.0</ele><time>2026-04-04T12:33:19.182Z</time></trkpt><trkpt lat="45.58654735682263" lon="11.1681965201745"><ele>705.0</ele><time>2026-04-04T12:33:20.182Z</time></trkpt><trkpt lat="45.58659220909384" lon="11.168298685510335"><ele>705.0</ele><time>2026-04-04T12:33:21.182Z</time></trkpt><trkpt lat="45.58667253578821" lon="11.16841173982214"><ele>705.0</ele><time>2026-04-04T12:33:22.182Z</time></trkpt><trkpt lat="45.58678079004765" lon="11.168555449051441"><ele>703.5</ele><time>2026-04-04T12:33:23.182Z</time></trkpt><trkpt lat="45.586862947842796" lon="11.16866812859706"><ele>702.0</ele><time>2026-04-04T12:33:24.182Z</time></trkpt><trkpt lat="45.587005824266846" lon="11.168808313800614"><ele>700.5</ele><time>2026-04-04T12:33:25.182Z</time></trkpt><trkpt lat="45.58710482540854" lon="11.168926793494936"><ele>699.0</ele><time>2026-04-04T12:33:26.182Z</time></trkpt><trkpt lat="45.587211611556135" lon="11.169035714772683"><ele>703.0</ele><time>2026-04-04T12:33:27.182Z</time></trkpt><trkpt lat="45.587295900316775" lon="11.169095480242662"><ele>707.0</ele><time>2026-04-04T12:33:28.182Z</time></trkpt><trkpt lat="45.58736929186775" lon="11.169115262012204"><ele>711.0</ele><time>2026-04-04T12:33:29.182Z</time></trkpt><trkpt lat="45.58743594841601" lon="11.169143867493155"><ele>715.0</ele><time>2026-04-04T12:33:30.182Z</time></trkpt><trkpt lat="45.587514068840186" lon="11.169179646563144"><ele>719.0</ele><time>2026-04-04T12:33:31.182Z</time></trkpt><trkpt lat="45.58755769341513" lon="11.169281082624028"><ele>723.0</ele><time>2026-04-04T12:33:32.182Z</time></trkpt><trkpt lat="45.58756871196292" lon="11.169425789247109"><ele>723.0</ele><time>2026-04-04T12:33:33.182Z</time></trkpt><trkpt lat="45.58755555342791" lon="11.169551215483917"><ele>723.0</ele><time>2026-04-04T12:33:34.182Z</time></trkpt><trkpt lat="45.5875038489929" lon="11.169660336627093"><ele>723.0</ele><time>2026-04-04T12:33:35.182Z</time></trkpt><trkpt lat="45.58742353638242" lon="11.169822232997847"><ele>723.0</ele><time>2026-04-04T12:33:36.182Z</time></trkpt><trkpt lat="45.587329491166415" lon="11.170004823380722"><ele>723.5</ele><time>2026-04-04T12:33:37.182Z</time></trkpt><trkpt lat="45.58724079359635" lon="11.17018006768975"><ele>724.0</ele><time>2026-04-04T12:33:38.182Z</time></trkpt><trkpt lat="45.58719526181143" lon="11.170341460461614"><ele>724.5</ele><time>2026-04-04T12:33:39.182Z</time></trkpt><trkpt lat="45.58714333677989" lon="11.170481807699"><ele>725.0</ele><time>2026-04-04T12:33:40.182Z</time></trkpt><trkpt lat="45.587088343945815" lon="11.170608678938793"><ele>725.0</ele><time>2026-04-04T12:33:41.182Z</time></trkpt><trkpt lat="45.58702566926512" lon="11.170670705570899"><ele>725.0</ele><time>2026-04-04T12:33:42.182Z</time></trkpt><trkpt lat="45.5869562577995" lon="11.170691254251011"><ele>725.0</ele><time>2026-04-04T12:33:43.182Z</time></trkpt><trkpt lat="45.58688428049676" lon="11.170682802115957"><ele>725.0</ele><time>2026-04-04T12:33:44.183Z</time></trkpt><trkpt lat="45.586795963827754" lon="11.170678849787262"><ele>725.0</ele><time>2026-04-04T12:33:45.183Z</time></trkpt><trkpt lat="45.58669936548143" lon="11.170694234861035"><ele>725.0</ele><time>2026-04-04T12:33:46.183Z</time></trkpt><trkpt lat="45.58660897620644" lon="11.170700822868309"><ele>723.3333333333333</ele><time>2026-04-04T12:33:47.183Z</time></trkpt><trkpt lat="45.586517403128354" lon="11.170716730556892"><ele>721.6666666666666</ele><time>2026-04-04T12:33:49.183Z</time></trkpt><trkpt lat="45.58651296309931" lon="11.170860946111054"><ele>720.0</ele><time>2026-04-04T12:33:51.183Z</time></trkpt><trkpt lat="45.58655201284607" lon="11.170973394150318"><ele>718.3333333333334</ele><time>2026-04-04T12:33:52.183Z</time></trkpt><trkpt lat="45.586598190308464" lon="11.171066053229763"><ele>716.6666666666667</ele><time>2026-04-04T12:33:53.183Z</time></trkpt><trkpt lat="45.58661844041079" lon="11.171185560381849"><ele>715.0</ele><time>2026-04-04T12:33:54.183Z</time></trkpt><trkpt lat="45.58662009569809" lon="11.17129139499952"><ele>715.0</ele><time>2026-04-04T12:33:55.183Z</time></trkpt><trkpt lat="45.5866897726041" lon="11.17135557447551"><ele>715.0</ele><time>2026-04-04T12:33:57.183Z</time></trkpt><trkpt lat="45.586737640632435" lon="11.171279152288895"><ele>715.0</ele><time>2026-04-04T12:33:59.183Z</time></trkpt><trkpt lat="45.58670581691661" lon="11.171199857976804"><ele>715.0</ele><time>2026-04-04T12:34:00.183Z</time></trkpt><trkpt lat="45.58663758364389" lon="11.17115573687683"><ele>715.0</ele><time>2026-04-04T12:34:01.183Z</time></trkpt><trkpt lat="45.58664380147637" lon="11.171033805322654"><ele>715.0</ele><time>2026-04-04T12:34:03.183Z</time></trkpt><trkpt lat="45.58676614577994" lon="11.171005550706006"><ele>715.0</ele><time>2026-04-04T12:34:05.183Z</time></trkpt><trkpt lat="45.5868370221305" lon="11.171031036574528"><ele>715.0</ele><time>2026-04-04T12:34:06.183Z</time></trkpt><trkpt lat="45.58692054866149" lon="11.171035667266194"><ele>715.0</ele><time>2026-04-04T12:34:07.183Z</time></trkpt><trkpt lat="45.587030762112434" lon="11.171035909612355"><ele>715.0</ele><time>2026-04-04T12:34:08.183Z</time></trkpt><trkpt lat="45.58712132263019" lon="11.171043300400859"><ele>715.0</ele><time>2026-04-04T12:34:09.183Z</time></trkpt><trkpt lat="45.58727467236736" lon="11.171064186237846"><ele>717.0</ele><time>2026-04-04T12:34:11.183Z</time></trkpt><trkpt lat="45.58737516926266" lon="11.171109299985456"><ele>719.0</ele><time>2026-04-04T12:34:12.183Z</time></trkpt><trkpt lat="45.587406483168536" lon="11.170992018436543"><ele>721.0</ele><time>2026-04-04T12:34:13.183Z</time></trkpt><trkpt lat="45.587398857484516" lon="11.170801602820475"><ele>723.0</ele><time>2026-04-04T12:34:14.183Z</time></trkpt><trkpt lat="45.587447706978026" lon="11.170703216580085"><ele>725.0</ele><time>2026-04-04T12:34:15.183Z</time></trkpt><trkpt lat="45.58752632481718" lon="11.1705688709505"><ele>725.0</ele><time>2026-04-04T12:34:16.183Z</time></trkpt><trkpt lat="45.587636574570716" lon="11.170393092193981"><ele>725.0</ele><time>2026-04-04T12:34:17.183Z</time></trkpt><trkpt lat="45.587698977706275" lon="11.170202847264946"><ele>725.0</ele><time>2026-04-04T12:34:18.183Z</time></trkpt><trkpt lat="45.587745979655224" lon="11.169991969990736"><ele>725.0</ele><time>2026-04-04T12:34:19.183Z</time></trkpt><trkpt lat="45.58781780430944" lon="11.169906203266539"><ele>725.0</ele><time>2026-04-04T12:34:20.183Z</time></trkpt><trkpt lat="45.58788158664765" lon="11.169783849434571"><ele>725.0</ele><time>2026-04-04T12:34:21.183Z</time></trkpt><trkpt lat="45.587948264480985" lon="11.169673511388345"><ele>725.0</ele><time>2026-04-04T12:34:22.183Z</time></trkpt><trkpt lat="45.588007604852244" lon="11.16958406076381"><ele>725.0</ele><time>2026-04-04T12:34:23.183Z</time></trkpt><trkpt lat="45.58807158759845" lon="11.16947095067922"><ele>731.0</ele><time>2026-04-04T12:34:24.183Z</time></trkpt><trkpt lat="45.588112586842946" lon="11.169371977761163"><ele>737.0</ele><time>2026-04-04T12:34:25.183Z</time></trkpt><trkpt lat="45.58816503889691" lon="11.16927221019507"><ele>743.0</ele><time>2026-04-04T12:34:26.183Z</time></trkpt><trkpt lat="45.58825226196517" lon="11.169108177834612"><ele>749.0</ele><time>2026-04-04T12:34:28.183Z</time></trkpt><trkpt lat="45.58832686664898" lon="11.169007858436157"><ele>755.0</ele><time>2026-04-04T12:34:29.183Z</time></trkpt><trkpt lat="45.58839775346333" lon="11.168967810293568"><ele>757.0</ele><time>2026-04-04T12:34:30.183Z</time></trkpt><trkpt lat="45.5885138248327" lon="11.168919002804621"><ele>759.0</ele><time>2026-04-04T12:34:31.183Z</time></trkpt><trkpt lat="45.58865429863472" lon="11.168886372947235"><ele>761.0</ele><time>2026-04-04T12:34:32.183Z</time></trkpt><trkpt lat="45.588730719370865" lon="11.168836293203158"><ele>763.0</ele><time>2026-04-04T12:34:33.183Z</time></trkpt><trkpt lat="45.58885606213599" lon="11.16871708538291"><ele>766.3333333333334</ele><time>2026-04-04T12:34:35.183Z</time></trkpt><trkpt lat="45.589009987136805" lon="11.168790884849054"><ele>769.6666666666667</ele><time>2026-04-04T12:34:37.183Z</time></trkpt><trkpt lat="45.58915995796878" lon="11.168627459409867"><ele>773.0</ele><time>2026-04-04T12:34:39.183Z</time></trkpt><trkpt lat="45.58908425840989" lon="11.168526375590838"><ele>773.0</ele><time>2026-04-04T12:34:40.183Z</time></trkpt><trkpt lat="45.58898196353535" lon="11.168354324604143"><ele>773.0</ele><time>2026-04-04T12:34:42.183Z</time></trkpt><trkpt lat="45.58888622650128" lon="11.168271421442887"><ele>773.0</ele><time>2026-04-04T12:34:43.183Z</time></trkpt><trkpt lat="45.58881824545713" lon="11.16818908849062"><ele>773.0</ele><time>2026-04-04T12:34:44.183Z</time></trkpt><trkpt lat="45.58874610098909" lon="11.168131983390252"><ele>773.0</ele><time>2026-04-04T12:34:45.183Z</time></trkpt><trkpt lat="45.588643319830645" lon="11.168238784748922"><ele>771.0</ele><time>2026-04-04T12:34:46.183Z</time></trkpt><trkpt lat="45.588545028576064" lon="11.16821878177734"><ele>769.0</ele><time>2026-04-04T12:34:47.183Z</time></trkpt><trkpt lat="45.58843368023766" lon="11.168174500651942"><ele>767.0</ele><time>2026-04-04T12:34:48.183Z</time></trkpt><trkpt lat="45.588334390602746" lon="11.1681522519433"><ele>765.0</ele><time>2026-04-04T12:34:49.183Z</time></trkpt><trkpt lat="45.58821632992003" lon="11.168124063834624"><ele>763.0</ele><time>2026-04-04T12:34:50.183Z</time></trkpt><trkpt lat="45.58811731382779" lon="11.168125062235081"><ele>761.8</ele><time>2026-04-04T12:34:51.183Z</time></trkpt><trkpt lat="45.587976789117626" lon="11.168120007246117"><ele>760.5999999999999</ele><time>2026-04-04T12:34:52.183Z</time></trkpt><trkpt lat="45.5878717287014" lon="11.168068523110728"><ele>759.4000000000001</ele><time>2026-04-04T12:34:53.183Z</time></trkpt><trkpt lat="45.58780124461545" lon="11.167989452783015"><ele>758.2</ele><time>2026-04-04T12:34:54.183Z</time></trkpt><trkpt lat="45.587727369356664" lon="11.167947345888265"><ele>757.0</ele><time>2026-04-04T12:34:55.183Z</time></trkpt><trkpt lat="45.587683102425736" lon="11.167874507621104"><ele>757.0</ele><time>2026-04-04T12:34:56.183Z</time></trkpt><trkpt lat="45.58767294980612" lon="11.16778149044235"><ele>757.0</ele><time>2026-04-04T12:34:57.183Z</time></trkpt><trkpt lat="45.58765415923567" lon="11.167670256804413"><ele>757.0</ele><time>2026-04-04T12:34:58.183Z</time></trkpt><trkpt lat="45.58767608404792" lon="11.167525971625302"><ele>757.0</ele><time>2026-04-04T12:34:59.183Z</time></trkpt><trkpt lat="45.58769668230305" lon="11.1673495324566"><ele>757.0</ele><time>2026-04-04T12:35:00.183Z</time></trkpt><trkpt lat="45.587760747701516" lon="11.167147582746194"><ele>757.75</ele><time>2026-04-04T12:35:01.183Z</time></trkpt><trkpt lat="45.58778510344569" lon="11.166908724539844"><ele>758.5</ele><time>2026-04-04T12:35:02.183Z</time></trkpt><trkpt lat="45.5877891538441" lon="11.16673297924247"><ele>759.25</ele><time>2026-04-04T12:35:03.183Z</time></trkpt><trkpt lat="45.58777636745519" lon="11.166579502891995"><ele>760.0</ele><time>2026-04-04T12:35:04.183Z</time></trkpt><trkpt lat="45.587744642532066" lon="11.166458650099266"><ele>759.0</ele><time>2026-04-04T12:35:05.183Z</time></trkpt><trkpt lat="45.58772760978684" lon="11.166366623600124"><ele>758.0</ele><time>2026-04-04T12:35:07.183Z</time></trkpt><trkpt lat="45.58781828290326" lon="11.166388486663866"><ele>757.0</ele><time>2026-04-04T12:35:09.183Z</time></trkpt><trkpt lat="45.587884941758524" lon="11.166458257546346"><ele>756.0</ele><time>2026-04-04T12:35:10.183Z</time></trkpt><trkpt lat="45.58785933812086" lon="11.166575286572428"><ele>755.0</ele><time>2026-04-04T12:35:11.183Z</time></trkpt><trkpt lat="45.58785420522934" lon="11.166741003376083"><ele>754.0</ele><time>2026-04-04T12:35:12.183Z</time></trkpt><trkpt lat="45.587895108574955" lon="11.166871614807155"><ele>759.1666666666667</ele><time>2026-04-04T12:35:13.183Z</time></trkpt><trkpt lat="45.58792595252076" lon="11.166978809302998"><ele>764.3333333333334</ele><time>2026-04-04T12:35:14.183Z</time></trkpt><trkpt lat="45.58795120242683" lon="11.167104927070334"><ele>769.5</ele><time>2026-04-04T12:35:15.183Z</time></trkpt><trkpt lat="45.58799613335099" lon="11.167247397027658"><ele>774.6666666666667</ele><time>2026-04-04T12:35:16.183Z</time></trkpt><trkpt lat="45.58804721555918" lon="11.167340138683066"><ele>779.8333333333334</ele><time>2026-04-04T12:35:17.183Z</time></trkpt><trkpt lat="45.58810146749064" lon="11.167427898404796"><ele>785.0</ele><time>2026-04-04T12:35:18.183Z</time></trkpt><trkpt lat="45.58817431548913" lon="11.167487813658253"><ele>785.0</ele><time>2026-04-04T12:35:19.183Z</time></trkpt><trkpt lat="45.5882684173912" lon="11.167503269853043"><ele>785.0</ele><time>2026-04-04T12:35:20.183Z</time></trkpt><trkpt lat="45.58836521983345" lon="11.167534596466453"><ele>785.0</ele><time>2026-04-04T12:35:21.183Z</time></trkpt><trkpt lat="45.5884865530098" lon="11.16756770335029"><ele>785.0</ele><time>2026-04-04T12:35:22.183Z</time></trkpt><trkpt lat="45.588633556463634" lon="11.167584655847197"><ele>788.3333333333334</ele><time>2026-04-04T12:35:23.183Z</time></trkpt><trkpt lat="45.58879480748806" lon="11.167604389694597"><ele>791.6666666666667</ele><time>2026-04-04T12:35:24.183Z</time></trkpt><trkpt lat="45.58895017095981" lon="11.167644134799547"><ele>795.0</ele><time>2026-04-04T12:35:25.183Z</time></trkpt><trkpt lat="45.58908407139274" lon="11.167705456851843"><ele>795.0</ele><time>2026-04-04T12:35:26.183Z</time></trkpt><trkpt lat="45.58921819678003" lon="11.167776071494483"><ele>795.0</ele><time>2026-04-04T12:35:27.183Z</time></trkpt><trkpt lat="45.58935727382997" lon="11.167860602181898"><ele>795.0</ele><time>2026-04-04T12:35:28.183Z</time></trkpt><trkpt lat="45.58951269241451" lon="11.167932107741297"><ele>795.5</ele><time>2026-04-04T12:35:29.183Z</time></trkpt><trkpt lat="45.589675003198096" lon="11.16799532271677"><ele>796.0</ele><time>2026-04-04T12:35:30.183Z</time></trkpt><trkpt lat="45.58980659888753" lon="11.168060543359573"><ele>796.5</ele><time>2026-04-04T12:35:31.183Z</time></trkpt><trkpt lat="45.5899281192359" lon="11.168124627608675"><ele>797.0</ele><time>2026-04-04T12:35:32.183Z</time></trkpt><trkpt lat="45.59006026858705" lon="11.16818327617325"><ele>797.0</ele><time>2026-04-04T12:35:33.183Z</time></trkpt><trkpt lat="45.59018449158751" lon="11.168272369118016"><ele>797.0</ele><time>2026-04-04T12:35:34.183Z</time></trkpt><trkpt lat="45.59028770146615" lon="11.168383020743267"><ele>797.0</ele><time>2026-04-04T12:35:35.183Z</time></trkpt><trkpt lat="45.59036751521349" lon="11.168512508768822"><ele>797.0</ele><time>2026-04-04T12:35:36.183Z</time></trkpt><trkpt lat="45.59043918436069" lon="11.16863807966956"><ele>797.0</ele><time>2026-04-04T12:35:37.183Z</time></trkpt><trkpt lat="45.590497396556486" lon="11.168791732832283"><ele>797.0</ele><time>2026-04-04T12:35:38.183Z</time></trkpt><trkpt lat="45.59056931850704" lon="11.168926331484675"><ele>797.0</ele><time>2026-04-04T12:35:39.183Z</time></trkpt><trkpt lat="45.59065579407585" lon="11.169069503001776"><ele>797.0</ele><time>2026-04-04T12:35:40.183Z</time></trkpt><trkpt lat="45.590723379460705" lon="11.169232553270673"><ele>799.0</ele><time>2026-04-04T12:35:41.183Z</time></trkpt><trkpt lat="45.590808459157785" lon="11.169384536717109"><ele>801.0</ele><time>2026-04-04T12:35:42.183Z</time></trkpt><trkpt lat="45.590912736439165" lon="11.169551892985831"><ele>803.0</ele><time>2026-04-04T12:35:43.183Z</time></trkpt><trkpt lat="45.59103344216146" lon="11.16970018584089"><ele>803.0</ele><time>2026-04-04T12:35:44.183Z</time></trkpt><trkpt lat="45.59113569130369" lon="11.169814461240906"><ele>803.0</ele><time>2026-04-04T12:35:45.183Z</time></trkpt><trkpt lat="45.591240901881015" lon="11.169916835035252"><ele>803.0</ele><time>2026-04-04T12:35:46.183Z</time></trkpt><trkpt lat="45.591378092932615" lon="11.169941425422358"><ele>803.0</ele><time>2026-04-04T12:35:47.183Z</time></trkpt><trkpt lat="45.59148001356265" lon="11.169962608979263"><ele>807.5</ele><time>2026-04-04T12:35:48.183Z</time></trkpt><trkpt lat="45.591578117850744" lon="11.17002481766169"><ele>812.0</ele><time>2026-04-04T12:35:49.183Z</time></trkpt><trkpt lat="45.59166883370863" lon="11.170115033550612"><ele>816.5</ele><time>2026-04-04T12:35:50.184Z</time></trkpt><trkpt lat="45.591764337634565" lon="11.170230384824048"><ele>821.0</ele><time>2026-04-04T12:35:51.184Z</time></trkpt><trkpt lat="45.59186899388328" lon="11.170362261982051"><ele>821.0</ele><time>2026-04-04T12:35:52.184Z</time></trkpt><trkpt lat="45.59197312921892" lon="11.17049423017391"><ele>821.0</ele><time>2026-04-04T12:35:53.184Z</time></trkpt><trkpt lat="45.592077717468506" lon="11.170615250528625"><ele>821.0</ele><time>2026-04-04T12:35:54.184Z</time></trkpt><trkpt lat="45.59214380365573" lon="11.17074210631077"><ele>821.0</ele><time>2026-04-04T12:35:55.184Z</time></trkpt><trkpt lat="45.592212022374085" lon="11.170774489670011"><ele>822.5000000000001</ele><time>2026-04-04T12:35:56.184Z</time></trkpt><trkpt lat="45.592271015156356" lon="11.170873451146457"><ele>824.0</ele><time>2026-04-04T12:35:58.184Z</time></trkpt><trkpt lat="45.59223625134592" lon="11.17097570588633"><ele>825.5</ele><time>2026-04-04T12:35:59.184Z</time></trkpt><trkpt lat="45.592174438024614" lon="11.171007246593625"><ele>827.0</ele><time>2026-04-04T12:36:00.184Z</time></trkpt><trkpt lat="45.59208587335553" lon="11.170997100338552"><ele>828.5000000000001</ele><time>2026-04-04T12:36:01.184Z</time></trkpt><trkpt lat="45.59200637215945" lon="11.17094212392013"><ele>830.0</ele><time>2026-04-04T12:36:02.184Z</time></trkpt><trkpt lat="45.59191826755173" lon="11.170896487039577"><ele>830.0000000000001</ele><time>2026-04-04T12:36:03.184Z</time></trkpt><trkpt lat="45.59184004512511" lon="11.170871217129752"><ele>830.0</ele><time>2026-04-04T12:36:04.184Z</time></trkpt><trkpt lat="45.59176938705918" lon="11.17088383140764"><ele>830.0</ele><time>2026-04-04T12:36:05.184Z</time></trkpt><trkpt lat="45.59171776327314" lon="11.170947361015543"><ele>830.0</ele><time>2026-04-04T12:36:06.184Z</time></trkpt><trkpt lat="45.59169291353202" lon="11.17105176705078"><ele>830.0000000000001</ele><time>2026-04-04T12:36:07.184Z</time></trkpt><trkpt lat="45.591706313377834" lon="11.171165299589598"><ele>830.0</ele><time>2026-04-04T12:36:08.184Z</time></trkpt><trkpt lat="45.591753825892795" lon="11.171286312593761"><ele>830.0</ele><time>2026-04-04T12:36:09.184Z</time></trkpt><trkpt lat="45.591819671855966" lon="11.171418966803925"><ele>830.0</ele><time>2026-04-04T12:36:10.184Z</time></trkpt><trkpt lat="45.59190792539646" lon="11.171553014094311"><ele>830.0</ele><time>2026-04-04T12:36:11.184Z</time></trkpt><trkpt lat="45.59198432659952" lon="11.171674234133565"><ele>830.0</ele><time>2026-04-04T12:36:12.184Z</time></trkpt><trkpt lat="45.59206480820618" lon="11.1717528831114"><ele>833.4</ele><time>2026-04-04T12:36:13.184Z</time></trkpt><trkpt lat="45.5921668498202" lon="11.171808875389939"><ele>836.8</ele><time>2026-04-04T12:36:14.184Z</time></trkpt><trkpt lat="45.592250556103245" lon="11.171867949266796"><ele>840.2</ele><time>2026-04-04T12:36:15.184Z</time></trkpt><trkpt lat="45.59232516568213" lon="11.171904922975392"><ele>843.6</ele><time>2026-04-04T12:36:17.184Z</time></trkpt><trkpt lat="45.59235547206204" lon="11.17175900126375"><ele>847.0</ele><time>2026-04-04T12:36:19.184Z</time></trkpt><trkpt lat="45.59228843545405" lon="11.171703913177122"><ele>846.9999999999999</ele><time>2026-04-04T12:36:20.184Z</time></trkpt><trkpt lat="45.59221105402893" lon="11.171704716443367"><ele>847.0</ele><time>2026-04-04T12:36:21.184Z</time></trkpt><trkpt lat="45.592145156118924" lon="11.171690990888639"><ele>847.0</ele><time>2026-04-04T12:36:22.184Z</time></trkpt><trkpt lat="45.592100191028315" lon="11.171585544887236"><ele>847.0</ele><time>2026-04-04T12:36:24.184Z</time></trkpt><trkpt lat="45.5921865011249" lon="11.171526386609447"><ele>846.9999999999999</ele><time>2026-04-04T12:36:26.184Z</time></trkpt><trkpt lat="45.59225866739734" lon="11.17158021336174"><ele>847.0</ele><time>2026-04-04T12:36:27.184Z</time></trkpt><trkpt lat="45.59232638256448" lon="11.17164908277715"><ele>846.9999999999999</ele><time>2026-04-04T12:36:28.184Z</time></trkpt><trkpt lat="45.59241932489355" lon="11.171704039937062"><ele>847.0</ele><time>2026-04-04T12:36:29.184Z</time></trkpt><trkpt lat="45.59251226422399" lon="11.17175801757056"><ele>847.0</ele><time>2026-04-04T12:36:30.184Z</time></trkpt><trkpt lat="45.59259121556604" lon="11.171808386883264"><ele>847.0</ele><time>2026-04-04T12:36:31.184Z</time></trkpt><trkpt lat="45.59265583209682" lon="11.171864744911877"><ele>846.9999999999999</ele><time>2026-04-04T12:36:32.184Z</time></trkpt><trkpt lat="45.59270362273929" lon="11.171946766996376"><ele>847.0</ele><time>2026-04-04T12:36:33.184Z</time></trkpt><trkpt lat="45.59273740929266" lon="11.172048936527514"><ele>847.0</ele><time>2026-04-04T12:36:34.184Z</time></trkpt><trkpt lat="45.59275150961344" lon="11.172168106151316"><ele>847.0</ele><time>2026-04-04T12:36:35.184Z</time></trkpt><trkpt lat="45.59272987818809" lon="11.17229300264826"><ele>847.0</ele><time>2026-04-04T12:36:36.184Z</time></trkpt><trkpt lat="45.59268113903441" lon="11.172415341760765"><ele>847.0</ele><time>2026-04-04T12:36:37.184Z</time></trkpt><trkpt lat="45.59260806464763" lon="11.172538576789352"><ele>847.0</ele><time>2026-04-04T12:36:38.184Z</time></trkpt><trkpt lat="45.59253134997605" lon="11.172620707465441"><ele>849.0</ele><time>2026-04-04T12:36:39.184Z</time></trkpt><trkpt lat="45.59239802178874" lon="11.172734187482446"><ele>851.0</ele><time>2026-04-04T12:36:40.184Z</time></trkpt><trkpt lat="45.592298951421185" lon="11.172772384911655"><ele>853.0</ele><time>2026-04-04T12:36:41.184Z</time></trkpt><trkpt lat="45.59222855463719" lon="11.172785560422442"><ele>855.0</ele><time>2026-04-04T12:36:42.184Z</time></trkpt><trkpt lat="45.59217274192851" lon="11.172838162980678"><ele>857.0</ele><time>2026-04-04T12:36:43.184Z</time></trkpt><trkpt lat="45.59215330325722" lon="11.173048405969864"><ele>857.0</ele><time>2026-04-04T12:36:45.184Z</time></trkpt><trkpt lat="45.59218454692858" lon="11.17318383885791"><ele>857.0</ele><time>2026-04-04T12:36:46.184Z</time></trkpt><trkpt lat="45.59223263082171" lon="11.17332775423013"><ele>857.0</ele><time>2026-04-04T12:36:47.184Z</time></trkpt><trkpt lat="45.59224145860449" lon="11.173463526583074"><ele>857.0</ele><time>2026-04-04T12:36:48.184Z</time></trkpt><trkpt lat="45.59222498686417" lon="11.173570379152041"><ele>857.0</ele><time>2026-04-04T12:36:49.184Z</time></trkpt><trkpt lat="45.592183531259074" lon="11.173644110994953"><ele>858.0</ele><time>2026-04-04T12:36:50.184Z</time></trkpt><trkpt lat="45.59212117514514" lon="11.173694764527008"><ele>859.0</ele><time>2026-04-04T12:36:51.184Z</time></trkpt><trkpt lat="45.59203950734085" lon="11.173689790573464"><ele>860.0</ele><time>2026-04-04T12:36:52.184Z</time></trkpt><trkpt lat="45.59197692751277" lon="11.173653219910205"><ele>861.0</ele><time>2026-04-04T12:36:53.184Z</time></trkpt><trkpt lat="45.591908960095196" lon="11.17365734245343"><ele>862.0</ele><time>2026-04-04T12:36:55.184Z</time></trkpt><trkpt lat="45.59191303791836" lon="11.173762994479928"><ele>863.0</ele><time>2026-04-04T12:36:57.184Z</time></trkpt><trkpt lat="45.591976240751094" lon="11.173809154365278"><ele>864.0</ele><time>2026-04-04T12:36:58.184Z</time></trkpt><trkpt lat="45.592048627756355" lon="11.173825534132286"><ele>865.0</ele><time>2026-04-04T12:36:59.184Z</time></trkpt><trkpt lat="45.59212442587276" lon="11.173852965248964"><ele>866.0</ele><time>2026-04-04T12:37:00.184Z</time></trkpt><trkpt lat="45.592217234047475" lon="11.173880992806055"><ele>867.0</ele><time>2026-04-04T12:37:01.184Z</time></trkpt><trkpt lat="45.59229693327794" lon="11.173907769832105"><ele>868.0</ele><time>2026-04-04T12:37:02.184Z</time></trkpt><trkpt lat="45.592366577858826" lon="11.173956590982295"><ele>869.0</ele><time>2026-04-04T12:37:03.184Z</time></trkpt><trkpt lat="45.59243252666203" lon="11.174053276207031"><ele>870.0</ele><time>2026-04-04T12:37:05.184Z</time></trkpt><trkpt lat="45.59237703204077" lon="11.17418107129701"><ele>868.5</ele><time>2026-04-04T12:37:07.184Z</time></trkpt><trkpt lat="45.592270170825266" lon="11.174195603116408"><ele>867.0</ele><time>2026-04-04T12:37:09.184Z</time></trkpt><trkpt lat="45.59219915737035" lon="11.174161086178815"><ele>865.5</ele><time>2026-04-04T12:37:10.184Z</time></trkpt><trkpt lat="45.59208851334729" lon="11.1740538534639"><ele>864.0</ele><time>2026-04-04T12:37:11.184Z</time></trkpt><trkpt lat="45.591942924972635" lon="11.173986274398297"><ele>864.0</ele><time>2026-04-04T12:37:12.184Z</time></trkpt><trkpt lat="45.59179021309427" lon="11.173928765150732"><ele>864.0</ele><time>2026-04-04T12:37:13.184Z</time></trkpt><trkpt lat="45.59165548351048" lon="11.17388014330447"><ele>864.0</ele><time>2026-04-04T12:37:14.184Z</time></trkpt><trkpt lat="45.591537644365616" lon="11.173851936798462"><ele>864.0</ele><time>2026-04-04T12:37:15.184Z</time></trkpt><trkpt lat="45.591428752927605" lon="11.173848846318329"><ele>864.0</ele><time>2026-04-04T12:37:16.184Z</time></trkpt><trkpt lat="45.59133368629289" lon="11.17388201335752"><ele>864.0000000000001</ele><time>2026-04-04T12:37:17.184Z</time></trkpt><trkpt lat="45.59126781910343" lon="11.173836786142472"><ele>864.0000000000001</ele><time>2026-04-04T12:37:18.184Z</time></trkpt><trkpt lat="45.59119419700901" lon="11.173844651504249"><ele>864.0</ele><time>2026-04-04T12:37:20.184Z</time></trkpt><trkpt lat="45.59117220652653" lon="11.174015154445408"><ele>864.0</ele><time>2026-04-04T12:37:22.184Z</time></trkpt><trkpt lat="45.59118930859009" lon="11.174156736468031"><ele>866.6</ele><time>2026-04-04T12:37:24.184Z</time></trkpt><trkpt lat="45.591207531588445" lon="11.17427027261946"><ele>869.2</ele><time>2026-04-04T12:37:25.184Z</time></trkpt><trkpt lat="45.59124603118278" lon="11.17440101656747"><ele>871.8000000000001</ele><time>2026-04-04T12:37:26.184Z</time></trkpt><trkpt lat="45.59127746897842" lon="11.174528581687738"><ele>874.4000000000001</ele><time>2026-04-04T12:37:27.184Z</time></trkpt><trkpt lat="45.591284935253995" lon="11.17466455639171"><ele>877.0</ele><time>2026-04-04T12:37:28.184Z</time></trkpt><trkpt lat="45.59128652454035" lon="11.174809667382874"><ele>877.8</ele><time>2026-04-04T12:37:29.184Z</time></trkpt><trkpt lat="45.59128854381241" lon="11.174954311760008"><ele>878.6</ele><time>2026-04-04T12:37:30.184Z</time></trkpt><trkpt lat="45.591299983561406" lon="11.175103256896628"><ele>879.3999999999999</ele><time>2026-04-04T12:37:31.184Z</time></trkpt><trkpt lat="45.59133782388813" lon="11.175219694941614"><ele>880.1999999999999</ele><time>2026-04-04T12:37:32.184Z</time></trkpt><trkpt lat="45.591392943043296" lon="11.175337761121355"><ele>881.0</ele><time>2026-04-04T12:37:33.184Z</time></trkpt><trkpt lat="45.591453575987785" lon="11.175450940351004"><ele>881.0</ele><time>2026-04-04T12:37:34.184Z</time></trkpt><trkpt lat="45.59154527363955" lon="11.175562055025553"><ele>881.0</ele><time>2026-04-04T12:37:35.184Z</time></trkpt><trkpt lat="45.591648728341596" lon="11.175677127571596"><ele>881.0</ele><time>2026-04-04T12:37:36.184Z</time></trkpt><trkpt lat="45.591753447318496" lon="11.175784533317143"><ele>881.0</ele><time>2026-04-04T12:37:37.184Z</time></trkpt><trkpt lat="45.59186681662806" lon="11.175876980689562"><ele>881.6666666666667</ele><time>2026-04-04T12:37:38.184Z</time></trkpt><trkpt lat="45.5919497348259" lon="11.175968592752962"><ele>882.3333333333334</ele><time>2026-04-04T12:37:39.184Z</time></trkpt><trkpt lat="45.59202107841069" lon="11.176055720499223"><ele>883.0</ele><time>2026-04-04T12:37:40.184Z</time></trkpt><trkpt lat="45.59206893620344" lon="11.176148234045232"><ele>883.6666666666667</ele><time>2026-04-04T12:37:41.184Z</time></trkpt><trkpt lat="45.59207378185725" lon="11.176263215983804"><ele>884.3333333333334</ele><time>2026-04-04T12:37:42.184Z</time></trkpt><trkpt lat="45.592066247309994" lon="11.176361875959117"><ele>885.0</ele><time>2026-04-04T12:37:43.184Z</time></trkpt><trkpt lat="45.59205146801762" lon="11.176476088841756"><ele>881.2</ele><time>2026-04-04T12:37:44.184Z</time></trkpt><trkpt lat="45.59204778097885" lon="11.176598729500643"><ele>877.4</ele><time>2026-04-04T12:37:45.184Z</time></trkpt><trkpt lat="45.5920268680346" lon="11.176737451431014"><ele>873.5999999999999</ele><time>2026-04-04T12:37:46.184Z</time></trkpt><trkpt lat="45.59198193952078" lon="11.176889977087864"><ele>869.8</ele><time>2026-04-04T12:37:47.184Z</time></trkpt><trkpt lat="45.59190883144088" lon="11.177072190312863"><ele>866.0</ele><time>2026-04-04T12:37:48.184Z</time></trkpt><trkpt lat="45.59182281421508" lon="11.177242129874317"><ele>863.0</ele><time>2026-04-04T12:37:49.184Z</time></trkpt><trkpt lat="45.591715581594826" lon="11.177375682277138"><ele>860.0</ele><time>2026-04-04T12:37:50.184Z</time></trkpt><trkpt lat="45.59159113974435" lon="11.177503950095522"><ele>857.0</ele><time>2026-04-04T12:37:51.184Z</time></trkpt><trkpt lat="45.591441655192234" lon="11.177619546813744"><ele>857.0</ele><time>2026-04-04T12:37:52.184Z</time></trkpt><trkpt lat="45.59128218355953" lon="11.17777171813042"><ele>857.0</ele><time>2026-04-04T12:37:53.184Z</time></trkpt><trkpt lat="45.59110144203148" lon="11.177928399187048"><ele>857.0</ele><time>2026-04-04T12:37:54.184Z</time></trkpt><trkpt lat="45.5909505168261" lon="11.178088784245714"><ele>858.3333333333334</ele><time>2026-04-04T12:37:55.184Z</time></trkpt><trkpt lat="45.59080705094454" lon="11.178249899116569"><ele>859.6666666666667</ele><time>2026-04-04T12:37:56.184Z</time></trkpt><trkpt lat="45.59067630657185" lon="11.178427897506257"><ele>861.0</ele><time>2026-04-04T12:37:57.184Z</time></trkpt><trkpt lat="45.59056082932077" lon="11.178600914023939"><ele>861.0</ele><time>2026-04-04T12:37:58.184Z</time></trkpt><trkpt lat="45.59046224856465" lon="11.178779009334216"><ele>861.0</ele><time>2026-04-04T12:37:59.184Z</time></trkpt><trkpt lat="45.590366094740816" lon="11.178937288812506"><ele>861.0</ele><time>2026-04-04T12:38:00.184Z</time></trkpt><trkpt lat="45.59026464299195" lon="11.179071007452995"><ele>861.0</ele><time>2026-04-04T12:38:01.184Z</time></trkpt><trkpt lat="45.59015456874498" lon="11.179198591231026"><ele>863.25</ele><time>2026-04-04T12:38:02.184Z</time></trkpt><trkpt lat="45.59002631086271" lon="11.179292054488833"><ele>865.5</ele><time>2026-04-04T12:38:03.184Z</time></trkpt><trkpt lat="45.58988694101646" lon="11.179356761078095"><ele>867.75</ele><time>2026-04-04T12:38:04.184Z</time></trkpt><trkpt lat="45.589739813011285" lon="11.179399802859097"><ele>870.0</ele><time>2026-04-04T12:38:05.184Z</time></trkpt><trkpt lat="45.58959841504211" lon="11.179428174696126"><ele>869.8333333333334</ele><time>2026-04-04T12:38:06.184Z</time></trkpt><trkpt lat="45.58949260171581" lon="11.179448014330315"><ele>869.6666666666667</ele><time>2026-04-04T12:38:07.184Z</time></trkpt><trkpt lat="45.58944998748918" lon="11.17952209752161"><ele>869.5</ele><time>2026-04-04T12:38:08.184Z</time></trkpt><trkpt lat="45.58939375971537" lon="11.179626558136091"><ele>869.3333333333334</ele><time>2026-04-04T12:38:09.184Z</time></trkpt><trkpt lat="45.589373018089205" lon="11.179744723912277"><ele>869.1666666666667</ele><time>2026-04-04T12:38:10.184Z</time></trkpt><trkpt lat="45.589344294523166" lon="11.179857850743385"><ele>869.0</ele><time>2026-04-04T12:38:11.184Z</time></trkpt><trkpt lat="45.58929263158865" lon="11.179964799512614"><ele>869.0</ele><time>2026-04-04T12:38:12.184Z</time></trkpt><trkpt lat="45.58925236829168" lon="11.180110357937814"><ele>869.0</ele><time>2026-04-04T12:38:13.184Z</time></trkpt><trkpt lat="45.58923217721423" lon="11.180278395482741"><ele>869.0</ele><time>2026-04-04T12:38:14.184Z</time></trkpt><trkpt lat="45.58922692305716" lon="11.180462922173339"><ele>869.0</ele><time>2026-04-04T12:38:15.184Z</time></trkpt><trkpt lat="45.589245098373745" lon="11.18063039525279"><ele>870.4000000000001</ele><time>2026-04-04T12:38:16.184Z</time></trkpt><trkpt lat="45.58928005828126" lon="11.180774766452895"><ele>871.8000000000001</ele><time>2026-04-04T12:38:17.184Z</time></trkpt><trkpt lat="45.589304634109716" lon="11.180909458064905"><ele>873.1999999999999</ele><time>2026-04-04T12:38:18.184Z</time></trkpt><trkpt lat="45.58930907810034" lon="11.181040331675867"><ele>874.5999999999999</ele><time>2026-04-04T12:38:19.184Z</time></trkpt><trkpt lat="45.58930533614281" lon="11.181168910515781"><ele>876.0</ele><time>2026-04-04T12:38:20.184Z</time></trkpt><trkpt lat="45.589272235566504" lon="11.181306159997266"><ele>876.0</ele><time>2026-04-04T12:38:21.184Z</time></trkpt><trkpt lat="45.58921628164628" lon="11.181451699217375"><ele>876.0</ele><time>2026-04-04T12:38:22.184Z</time></trkpt><trkpt lat="45.58917860120473" lon="11.181631606195635"><ele>876.0</ele><time>2026-04-04T12:38:23.184Z</time></trkpt><trkpt lat="45.58914332673525" lon="11.181827696039566"><ele>876.0</ele><time>2026-04-04T12:38:24.184Z</time></trkpt><trkpt lat="45.58910254979564" lon="11.182072753583814"><ele>875.3333333333333</ele><time>2026-04-04T12:38:25.184Z</time></trkpt><trkpt lat="45.58907465848763" lon="11.18233486861055"><ele>874.6666666666666</ele><time>2026-04-04T12:38:26.184Z</time></trkpt><trkpt lat="45.589050902181484" lon="11.182573935683234"><ele>874.0</ele><time>2026-04-04T12:38:27.184Z</time></trkpt><trkpt lat="45.58902232859769" lon="11.182781754058226"><ele>873.25</ele><time>2026-04-04T12:38:28.184Z</time></trkpt><trkpt lat="45.58900874161095" lon="11.18296411038271"><ele>872.5</ele><time>2026-04-04T12:38:29.184Z</time></trkpt><trkpt lat="45.589007775868716" lon="11.183147048589346"><ele>871.75</ele><time>2026-04-04T12:38:30.184Z</time></trkpt><trkpt lat="45.589017726833916" lon="11.183294776472476"><ele>871.0</ele><time>2026-04-04T12:38:31.184Z</time></trkpt><trkpt lat="45.58904828292798" lon="11.18343972444701"><ele>871.0</ele><time>2026-04-04T12:38:32.184Z</time></trkpt><trkpt lat="45.589108616148756" lon="11.183567407527628"><ele>871.0</ele><time>2026-04-04T12:38:33.184Z</time></trkpt><trkpt lat="45.589173009303146" lon="11.183701545066938"><ele>871.0</ele><time>2026-04-04T12:38:34.184Z</time></trkpt><trkpt lat="45.58927699023008" lon="11.183827254736862"><ele>871.0</ele><time>2026-04-04T12:38:35.184Z</time></trkpt><trkpt lat="45.58940380988548" lon="11.18396945916654"><ele>875.0</ele><time>2026-04-04T12:38:36.184Z</time></trkpt><trkpt lat="45.58952335228048" lon="11.184159764613012"><ele>879.0</ele><time>2026-04-04T12:38:37.184Z</time></trkpt><trkpt lat="45.58965378128979" lon="11.184375570530268"><ele>883.0</ele><time>2026-04-04T12:38:38.184Z</time></trkpt><trkpt lat="45.589792657225736" lon="11.184603320758708"><ele>883.0</ele><time>2026-04-04T12:38:39.184Z</time></trkpt><trkpt lat="45.58992067420547" lon="11.184834675294734"><ele>883.0</ele><time>2026-04-04T12:38:40.184Z</time></trkpt><trkpt lat="45.590020989032304" lon="11.185037274960571"><ele>883.0</ele><time>2026-04-04T12:38:41.184Z</time></trkpt><trkpt lat="45.590117073405246" lon="11.185221604190643"><ele>884.3333333333333</ele><time>2026-04-04T12:38:42.184Z</time></trkpt><trkpt lat="45.59023327471377" lon="11.185376143972968"><ele>885.6666666666667</ele><time>2026-04-04T12:38:43.184Z</time></trkpt><trkpt lat="45.590351314376946" lon="11.185541179945297"><ele>887.0</ele><time>2026-04-04T12:38:44.184Z</time></trkpt><trkpt lat="45.59045514235984" lon="11.185702783087683"><ele>891.75</ele><time>2026-04-04T12:38:45.184Z</time></trkpt><trkpt lat="45.59057063381243" lon="11.185851495206139"><ele>896.5</ele><time>2026-04-04T12:38:46.184Z</time></trkpt><trkpt lat="45.590675782226334" lon="11.185982089349208"><ele>901.25</ele><time>2026-04-04T12:38:47.184Z</time></trkpt><trkpt lat="45.59077604583484" lon="11.186102095495833"><ele>906.0</ele><time>2026-04-04T12:38:48.184Z</time></trkpt><trkpt lat="45.5908646076589" lon="11.186204856654703"><ele>906.0</ele><time>2026-04-04T12:38:49.184Z</time></trkpt><trkpt lat="45.59095569583755" lon="11.18631655319671"><ele>906.0</ele><time>2026-04-04T12:38:50.184Z</time></trkpt><trkpt lat="45.59104465622803" lon="11.18644312262974"><ele>906.0</ele><time>2026-04-04T12:38:51.184Z</time></trkpt><trkpt lat="45.59112382733852" lon="11.186570555185268"><ele>906.0</ele><time>2026-04-04T12:38:52.184Z</time></trkpt><trkpt lat="45.59120716757529" lon="11.186713714174019"><ele>904.75</ele><time>2026-04-04T12:38:53.184Z</time></trkpt><trkpt lat="45.591305161570034" lon="11.186848229196958"><ele>903.5</ele><time>2026-04-04T12:38:54.184Z</time></trkpt><trkpt lat="45.5914052491031" lon="11.187014881100476"><ele>902.25</ele><time>2026-04-04T12:38:55.184Z</time></trkpt><trkpt lat="45.591518154358205" lon="11.187154039047956"><ele>901.0</ele><time>2026-04-04T12:38:56.184Z</time></trkpt><trkpt lat="45.59162378851816" lon="11.187296794999497"><ele>899.75</ele><time>2026-04-04T12:38:57.184Z</time></trkpt><trkpt lat="45.59172325588597" lon="11.18742375417245"><ele>898.5</ele><time>2026-04-04T12:38:58.184Z</time></trkpt><trkpt lat="45.591817091131844" lon="11.187563024411578"><ele>897.25</ele><time>2026-04-04T12:38:59.184Z</time></trkpt><trkpt lat="45.591910625004935" lon="11.187699269988304"><ele>896.0</ele><time>2026-04-04T12:39:00.184Z</time></trkpt><trkpt lat="45.59200967940214" lon="11.18782626359341"><ele>895.5</ele><time>2026-04-04T12:39:01.184Z</time></trkpt><trkpt lat="45.592091815296726" lon="11.18796341304356"><ele>895.0</ele><time>2026-04-04T12:39:02.184Z</time></trkpt><trkpt lat="45.592179257148814" lon="11.188105770703043"><ele>894.5</ele><time>2026-04-04T12:39:03.184Z</time></trkpt><trkpt lat="45.592255856051665" lon="11.188256270589898"><ele>894.0</ele><time>2026-04-04T12:39:04.184Z</time></trkpt><trkpt lat="45.59232528478435" lon="11.188422293467433"><ele>894.0</ele><time>2026-04-04T12:39:05.184Z</time></trkpt><trkpt lat="45.59237879836177" lon="11.188619230930408"><ele>894.0</ele><time>2026-04-04T12:39:06.184Z</time></trkpt><trkpt lat="45.59245311009371" lon="11.188822496854362"><ele>894.0</ele><time>2026-04-04T12:39:07.184Z</time></trkpt><trkpt lat="45.5925123944173" lon="11.189026624152577"><ele>895.0</ele><time>2026-04-04T12:39:08.184Z</time></trkpt><trkpt lat="45.5926123054353" lon="11.189174356049064"><ele>896.0</ele><time>2026-04-04T12:39:09.184Z</time></trkpt><trkpt lat="45.592687822806354" lon="11.189325615367459"><ele>897.0</ele><time>2026-04-04T12:39:10.184Z</time></trkpt><trkpt lat="45.59275671448871" lon="11.189485417597744"><ele>898.0</ele><time>2026-04-04T12:39:11.184Z</time></trkpt><trkpt lat="45.59282146142275" lon="11.18963802101399"><ele>896.4</ele><time>2026-04-04T12:39:12.184Z</time></trkpt><trkpt lat="45.592878448917006" lon="11.189764208185956"><ele>894.8</ele><time>2026-04-04T12:39:13.184Z</time></trkpt><trkpt lat="45.59292875617227" lon="11.189891958456554"><ele>893.2</ele><time>2026-04-04T12:39:14.184Z</time></trkpt><trkpt lat="45.59295792563231" lon="11.190020745314948"><ele>891.6</ele><time>2026-04-04T12:39:15.184Z</time></trkpt><trkpt lat="45.592991722746355" lon="11.190154096073949"><ele>890.0</ele><time>2026-04-04T12:39:16.184Z</time></trkpt><trkpt lat="45.593006358547946" lon="11.190304116003986"><ele>890.0</ele><time>2026-04-04T12:39:17.184Z</time></trkpt><trkpt lat="45.59302862800342" lon="11.190460866178798"><ele>890.0</ele><time>2026-04-04T12:39:18.184Z</time></trkpt><trkpt lat="45.59302656199674" lon="11.190634752989446"><ele>890.0</ele><time>2026-04-04T12:39:19.184Z</time></trkpt><trkpt lat="45.59301915372843" lon="11.190824816909473"><ele>890.0</ele><time>2026-04-04T12:39:20.184Z</time></trkpt><trkpt lat="45.59297640866597" lon="11.191034484793295"><ele>890.3333333333334</ele><time>2026-04-04T12:39:21.184Z</time></trkpt><trkpt lat="45.59294011351641" lon="11.191258048496898"><ele>890.6666666666667</ele><time>2026-04-04T12:39:22.184Z</time></trkpt><trkpt lat="45.59287671622764" lon="11.191476596066295"><ele>891.0</ele><time>2026-04-04T12:39:23.184Z</time></trkpt><trkpt lat="45.59283872830701" lon="11.191645447982756"><ele>890.8</ele><time>2026-04-04T12:39:24.184Z</time></trkpt><trkpt lat="45.59278114256839" lon="11.191797310856629"><ele>890.5999999999999</ele><time>2026-04-04T12:39:25.184Z</time></trkpt><trkpt lat="45.59270976378345" lon="11.191951485912021"><ele>890.4</ele><time>2026-04-04T12:39:26.184Z</time></trkpt><trkpt lat="45.59269754724892" lon="11.192085030090976"><ele>890.2</ele><time>2026-04-04T12:39:27.184Z</time></trkpt><trkpt lat="45.59268462274235" lon="11.192220153242909"><ele>890.0</ele><time>2026-04-04T12:39:28.184Z</time></trkpt><trkpt lat="45.5926895214892" lon="11.1923875297056"><ele>890.0</ele><time>2026-04-04T12:39:29.184Z</time></trkpt><trkpt lat="45.59273662789507" lon="11.192570645504464"><ele>890.0</ele><time>2026-04-04T12:39:30.184Z</time></trkpt><trkpt lat="45.592808855031805" lon="11.192798544382542"><ele>890.0</ele><time>2026-04-04T12:39:31.184Z</time></trkpt><trkpt lat="45.5928974512415" lon="11.193054254320643"><ele>890.0</ele><time>2026-04-04T12:39:32.184Z</time></trkpt><trkpt lat="45.59299206361397" lon="11.193329672003998"><ele>890.0</ele><time>2026-04-04T12:39:33.184Z</time></trkpt><trkpt lat="45.59306986989144" lon="11.193595996573398"><ele>890.0</ele><time>2026-04-04T12:39:34.184Z</time></trkpt><trkpt lat="45.59312923019972" lon="11.193841143058634"><ele>890.6666666666667</ele><time>2026-04-04T12:39:35.184Z</time></trkpt><trkpt lat="45.593181480895886" lon="11.19410158974537"><ele>891.3333333333333</ele><time>2026-04-04T12:39:36.184Z</time></trkpt><trkpt lat="45.59323959130349" lon="11.194400023370187"><ele>892.0</ele><time>2026-04-04T12:39:37.184Z</time></trkpt><trkpt lat="45.593333147252636" lon="11.194722497526639"><ele>893.6666666666666</ele><time>2026-04-04T12:39:38.184Z</time></trkpt><trkpt lat="45.593426841758664" lon="11.195022905513904"><ele>895.3333333333333</ele><time>2026-04-04T12:39:39.184Z</time></trkpt><trkpt lat="45.593501687506574" lon="11.19529050400245"><ele>897.0</ele><time>2026-04-04T12:39:40.184Z</time></trkpt><trkpt lat="45.59355954323563" lon="11.195546305042683"><ele>899.6666666666667</ele><time>2026-04-04T12:39:41.184Z</time></trkpt><trkpt lat="45.59361603535742" lon="11.195789281609473"><ele>902.3333333333334</ele><time>2026-04-04T12:39:42.184Z</time></trkpt><trkpt lat="45.59368755768967" lon="11.196021759277544"><ele>905.0</ele><time>2026-04-04T12:39:43.184Z</time></trkpt><trkpt lat="45.59373754361455" lon="11.19624230590399"><ele>901.0</ele><time>2026-04-04T12:39:44.184Z</time></trkpt><trkpt lat="45.59378653754937" lon="11.196440307998225"><ele>897.0</ele><time>2026-04-04T12:39:45.184Z</time></trkpt><trkpt lat="45.59383124912977" lon="11.19662216617992"><ele>893.0</ele><time>2026-04-04T12:39:46.184Z</time></trkpt><trkpt lat="45.59387545493459" lon="11.196790568722985"><ele>889.0</ele><time>2026-04-04T12:39:47.184Z</time></trkpt><trkpt lat="45.59391818261287" lon="11.196941780909807"><ele>889.0</ele><time>2026-04-04T12:39:48.184Z</time></trkpt><trkpt lat="45.59399480301028" lon="11.197075752626532"><ele>889.0000000000001</ele><time>2026-04-04T12:39:49.184Z</time></trkpt><trkpt lat="45.594072767482835" lon="11.197175718402248"><ele>889.0000000000001</ele><time>2026-04-04T12:39:50.184Z</time></trkpt><trkpt lat="45.594158033452565" lon="11.197264981016692"><ele>889.0</ele><time>2026-04-04T12:39:51.184Z</time></trkpt><trkpt lat="45.59424808175942" lon="11.197324964469116"><ele>889.0</ele><time>2026-04-04T12:39:52.184Z</time></trkpt><trkpt lat="45.59431137780645" lon="11.197371510098748"><ele>890.2</ele><time>2026-04-04T12:39:53.184Z</time></trkpt><trkpt lat="45.594376464491596" lon="11.197442916170555"><ele>891.4000000000001</ele><time>2026-04-04T12:39:54.184Z</time></trkpt><trkpt lat="45.59444509341249" lon="11.19756159310668"><ele>892.6</ele><time>2026-04-04T12:39:55.184Z</time></trkpt><trkpt lat="45.594512531633306" lon="11.197683759280821"><ele>893.8</ele><time>2026-04-04T12:39:56.184Z</time></trkpt><trkpt lat="45.59458191365721" lon="11.197790480521759"><ele>895.0</ele><time>2026-04-04T12:39:57.184Z</time></trkpt><trkpt lat="45.594638600913285" lon="11.197880194920184"><ele>894.9999999999999</ele><time>2026-04-04T12:39:58.184Z</time></trkpt><trkpt lat="45.59469505935604" lon="11.197952640160832"><ele>895.0</ele><time>2026-04-04T12:39:59.184Z</time></trkpt><trkpt lat="45.59474963726949" lon="11.198008098831307"><ele>895.0</ele><time>2026-04-04T12:40:00.184Z</time></trkpt><trkpt lat="45.59482254970865" lon="11.198075230480013"><ele>895.0</ele><time>2026-04-04T12:40:01.184Z</time></trkpt><trkpt lat="45.59489533706407" lon="11.198129782813366"><ele>894.9999999999999</ele><time>2026-04-04T12:40:02.185Z</time></trkpt><trkpt lat="45.59500108908189" lon="11.198223196127916"><ele>895.0</ele><time>2026-04-04T12:40:04.185Z</time></trkpt><trkpt lat="45.595068376738375" lon="11.198364213431447"><ele>893.8333333333333</ele><time>2026-04-04T12:40:06.185Z</time></trkpt><trkpt lat="45.595107013679446" lon="11.19843762564262"><ele>892.6666666666666</ele><time>2026-04-04T12:40:07.185Z</time></trkpt><trkpt lat="45.59515337829716" lon="11.198501513968175"><ele>891.5</ele><time>2026-04-04T12:40:08.185Z</time></trkpt><trkpt lat="45.595210059219774" lon="11.198559536061916"><ele>890.3333333333333</ele><time>2026-04-04T12:40:09.185Z</time></trkpt><trkpt lat="45.59528881987747" lon="11.198600182918916"><ele>889.1666666666666</ele><time>2026-04-04T12:40:10.185Z</time></trkpt><trkpt lat="45.59537734683537" lon="11.198620635470052"><ele>888.0</ele><time>2026-04-04T12:40:11.185Z</time></trkpt><trkpt lat="45.59547158270821" lon="11.198640927027308"><ele>888.0</ele><time>2026-04-04T12:40:12.185Z</time></trkpt><trkpt lat="45.59557650607541" lon="11.198670250820294"><ele>888.0</ele><time>2026-04-04T12:40:13.185Z</time></trkpt><trkpt lat="45.59569356789003" lon="11.198703735436679"><ele>888.0</ele><time>2026-04-04T12:40:14.185Z</time></trkpt><trkpt lat="45.59581297514596" lon="11.198730397925267"><ele>888.0</ele><time>2026-04-04T12:40:15.185Z</time></trkpt><trkpt lat="45.595926424871145" lon="11.198777742042394"><ele>888.0</ele><time>2026-04-04T12:40:16.185Z</time></trkpt><trkpt lat="45.596037184207695" lon="11.198805802386357"><ele>888.0</ele><time>2026-04-04T12:40:17.185Z</time></trkpt><trkpt lat="45.59614772651618" lon="11.198849862736132"><ele>888.0</ele><time>2026-04-04T12:40:18.185Z</time></trkpt><trkpt lat="45.596253528431596" lon="11.198885810849555"><ele>888.0</ele><time>2026-04-04T12:40:19.185Z</time></trkpt><trkpt lat="45.596346253641975" lon="11.198932213046938"><ele>888.0</ele><time>2026-04-04T12:40:20.185Z</time></trkpt><trkpt lat="45.596436348730485" lon="11.199009985845633"><ele>883.2</ele><time>2026-04-04T12:40:21.185Z</time></trkpt><trkpt lat="45.59652063420007" lon="11.199080386129856"><ele>878.4</ele><time>2026-04-04T12:40:22.185Z</time></trkpt><trkpt lat="45.59660655793548" lon="11.199105856183312"><ele>873.6000000000001</ele><time>2026-04-04T12:40:23.185Z</time></trkpt><trkpt lat="45.596719053656855" lon="11.199079838884614"><ele>868.8000000000001</ele><time>2026-04-04T12:40:24.185Z</time></trkpt><trkpt lat="45.59683270268624" lon="11.19906687002047"><ele>864.0</ele><time>2026-04-04T12:40:25.185Z</time></trkpt><trkpt lat="45.59693454447776" lon="11.199060171287229"><ele>865.8000000000001</ele><time>2026-04-04T12:40:26.185Z</time></trkpt><trkpt lat="45.59703336142251" lon="11.19904313252304"><ele>867.6000000000001</ele><time>2026-04-04T12:40:27.185Z</time></trkpt><trkpt lat="45.59713569238861" lon="11.199025529132333"><ele>869.4</ele><time>2026-04-04T12:40:28.185Z</time></trkpt><trkpt lat="45.597223708230246" lon="11.198990456398485"><ele>871.2</ele><time>2026-04-04T12:40:29.185Z</time></trkpt><trkpt lat="45.59730849939821" lon="11.198945363174039"><ele>873.0</ele><time>2026-04-04T12:40:30.185Z</time></trkpt><trkpt lat="45.59737809942466" lon="11.198907670434318"><ele>873.0</ele><time>2026-04-04T12:40:31.185Z</time></trkpt><trkpt lat="45.59749248695629" lon="11.198834658175057"><ele>873.0</ele><time>2026-04-04T12:40:33.185Z</time></trkpt><trkpt lat="45.59757949296804" lon="11.198880723622612"><ele>873.0</ele><time>2026-04-04T12:40:35.185Z</time></trkpt><trkpt lat="45.59759901022745" lon="11.199018933107023"><ele>873.0</ele><time>2026-04-04T12:40:37.185Z</time></trkpt><trkpt lat="45.59755752543098" lon="11.19911474337933"><ele>873.0</ele><time>2026-04-04T12:40:38.185Z</time></trkpt><trkpt lat="45.597475195386245" lon="11.19923248963857"><ele>868.25</ele><time>2026-04-04T12:40:39.185Z</time></trkpt><trkpt lat="45.59740503983492" lon="11.199349830591792"><ele>863.5</ele><time>2026-04-04T12:40:40.185Z</time></trkpt><trkpt lat="45.59734559940567" lon="11.199512123581387"><ele>858.75</ele><time>2026-04-04T12:40:41.185Z</time></trkpt><trkpt lat="45.59728233477887" lon="11.1996592624943"><ele>854.0</ele><time>2026-04-04T12:40:42.185Z</time></trkpt><trkpt lat="45.597224779975676" lon="11.199792221419933"><ele>851.6</ele><time>2026-04-04T12:40:43.185Z</time></trkpt><trkpt lat="45.597164565257025" lon="11.199929910075575"><ele>849.2</ele><time>2026-04-04T12:40:44.185Z</time></trkpt><trkpt lat="45.59711028146388" lon="11.200063412369541"><ele>846.8000000000001</ele><time>2026-04-04T12:40:45.185Z</time></trkpt><trkpt lat="45.59706648096822" lon="11.200192550398002"><ele>844.4000000000001</ele><time>2026-04-04T12:40:46.185Z</time></trkpt><trkpt lat="45.597047475246406" lon="11.200339823076447"><ele>842.0</ele><time>2026-04-04T12:40:47.185Z</time></trkpt><trkpt lat="45.59706502789398" lon="11.200486417906806"><ele>842.0</ele><time>2026-04-04T12:40:48.185Z</time></trkpt><trkpt lat="45.597112860182555" lon="11.200634204816414"><ele>842.0</ele><time>2026-04-04T12:40:49.185Z</time></trkpt><trkpt lat="45.597193935826155" lon="11.200782076086501"><ele>842.0</ele><time>2026-04-04T12:40:50.185Z</time></trkpt><trkpt lat="45.597281421069674" lon="11.200907433604113"><ele>842.0</ele><time>2026-04-04T12:40:51.185Z</time></trkpt><trkpt lat="45.5973555804256" lon="11.201036078803837"><ele>840.75</ele><time>2026-04-04T12:40:52.185Z</time></trkpt><trkpt lat="45.59742887601071" lon="11.201172939082047"><ele>839.5</ele><time>2026-04-04T12:40:53.185Z</time></trkpt><trkpt lat="45.59750944622856" lon="11.201308056388841"><ele>838.25</ele><time>2026-04-04T12:40:54.185Z</time></trkpt><trkpt lat="45.59756948197798" lon="11.201440265235814"><ele>837.0</ele><time>2026-04-04T12:40:55.185Z</time></trkpt><trkpt lat="45.59763797797607" lon="11.201559283868473"><ele>835.5</ele><time>2026-04-04T12:40:56.185Z</time></trkpt><trkpt lat="45.597690414744555" lon="11.201663142433128"><ele>834.0</ele><time>2026-04-04T12:40:57.185Z</time></trkpt><trkpt lat="45.59774434679565" lon="11.201749966432567"><ele>832.5</ele><time>2026-04-04T12:40:59.185Z</time></trkpt><trkpt lat="45.59784016892591" lon="11.201795384176878"><ele>831.0</ele><time>2026-04-04T12:41:01.185Z</time></trkpt><trkpt lat="45.59790327564366" lon="11.20178522753028"><ele>829.5</ele><time>2026-04-04T12:41:02.185Z</time></trkpt><trkpt lat="45.59797658103156" lon="11.201732593278976"><ele>828.0</ele><time>2026-04-04T12:41:03.185Z</time></trkpt><trkpt lat="45.59804646727366" lon="11.201717255949228"><ele>828.0</ele><time>2026-04-04T12:41:04.185Z</time></trkpt><trkpt lat="45.59813850120925" lon="11.201693521937184"><ele>828.0</ele><time>2026-04-04T12:41:05.185Z</time></trkpt><trkpt lat="45.59820799839562" lon="11.201633891706262"><ele>828.0</ele><time>2026-04-04T12:41:06.185Z</time></trkpt><trkpt lat="45.59835308053534" lon="11.201592757914492"><ele>828.0</ele><time>2026-04-04T12:41:08.185Z</time></trkpt><trkpt lat="45.59845424699689" lon="11.201542678415274"><ele>828.0</ele><time>2026-04-04T12:41:09.185Z</time></trkpt><trkpt lat="45.59853658932117" lon="11.20150095731172"><ele>828.0</ele><time>2026-04-04T12:41:10.185Z</time></trkpt><trkpt lat="45.598617033575366" lon="11.201473068863194"><ele>828.0</ele><time>2026-04-04T12:41:11.185Z</time></trkpt><trkpt lat="45.5987032491457" lon="11.201428536562286"><ele>828.0</ele><time>2026-04-04T12:41:12.185Z</time></trkpt><trkpt lat="45.59878812433724" lon="11.201399738046314"><ele>828.0</ele><time>2026-04-04T12:41:13.185Z</time></trkpt><trkpt lat="45.59887704858335" lon="11.201370321594153"><ele>828.0</ele><time>2026-04-04T12:41:14.185Z</time></trkpt><trkpt lat="45.598963803783676" lon="11.20135565770179"><ele>828.0</ele><time>2026-04-04T12:41:15.185Z</time></trkpt><trkpt lat="45.59905484641612" lon="11.201362826943514"><ele>827.8333333333334</ele><time>2026-04-04T12:41:16.185Z</time></trkpt><trkpt lat="45.599139098349944" lon="11.20137881663632"><ele>827.6666666666667</ele><time>2026-04-04T12:41:17.185Z</time></trkpt><trkpt lat="45.59922325220331" lon="11.201395191111256"><ele>827.5</ele><time>2026-04-04T12:41:18.185Z</time></trkpt><trkpt lat="45.59930688896071" lon="11.20141517355794"><ele>827.3333333333334</ele><time>2026-04-04T12:41:19.185Z</time></trkpt><trkpt lat="45.59938294079612" lon="11.201426759070756"><ele>827.1666666666667</ele><time>2026-04-04T12:41:20.185Z</time></trkpt><trkpt lat="45.59946557883543" lon="11.20143884849251"><ele>827.0</ele><time>2026-04-04T12:41:21.185Z</time></trkpt><trkpt lat="45.59956091350865" lon="11.201472845593374"><ele>825.8571428571429</ele><time>2026-04-04T12:41:22.185Z</time></trkpt><trkpt lat="45.59963695029341" lon="11.201503760649224"><ele>824.7142857142857</ele><time>2026-04-04T12:41:23.185Z</time></trkpt><trkpt lat="45.599704883651505" lon="11.201534971838209"><ele>823.5714285714286</ele><time>2026-04-04T12:41:24.185Z</time></trkpt><trkpt lat="45.599768006683156" lon="11.201571854892924"><ele>822.4285714285714</ele><time>2026-04-04T12:41:25.185Z</time></trkpt><trkpt lat="45.59982694070595" lon="11.201620144962893"><ele>821.2857142857142</ele><time>2026-04-04T12:41:26.185Z</time></trkpt><trkpt lat="45.59989150320327" lon="11.201660007727657"><ele>820.1428571428571</ele><time>2026-04-04T12:41:27.185Z</time></trkpt><trkpt lat="45.59996152593765" lon="11.201688496260529"><ele>819.0</ele><time>2026-04-04T12:41:28.185Z</time></trkpt><trkpt lat="45.60003561942881" lon="11.201688995852123"><ele>819.0</ele><time>2026-04-04T12:41:29.185Z</time></trkpt><trkpt lat="45.600110579818704" lon="11.201681458393484"><ele>819.0</ele><time>2026-04-04T12:41:30.185Z</time></trkpt><trkpt lat="45.600189161021284" lon="11.201642305273015"><ele>819.0</ele><time>2026-04-04T12:41:31.185Z</time></trkpt><trkpt lat="45.60026149585807" lon="11.201605877630486"><ele>819.0</ele><time>2026-04-04T12:41:32.185Z</time></trkpt><trkpt lat="45.600326609487844" lon="11.201587659049922"><ele>819.0</ele><time>2026-04-04T12:41:33.185Z</time></trkpt><trkpt lat="45.600407123187956" lon="11.201544032214734"><ele>819.0</ele><time>2026-04-04T12:41:34.185Z</time></trkpt><trkpt lat="45.60048232487973" lon="11.201495780743143"><ele>820.3333333333334</ele><time>2026-04-04T12:41:35.185Z</time></trkpt><trkpt lat="45.6005589072841" lon="11.201436113628755"><ele>821.6666666666667</ele><time>2026-04-04T12:41:36.185Z</time></trkpt><trkpt lat="45.60062861488148" lon="11.201389175028408"><ele>823.0</ele><time>2026-04-04T12:41:37.185Z</time></trkpt><trkpt lat="45.60070313166389" lon="11.201365845742039"><ele>824.3333333333334</ele><time>2026-04-04T12:41:38.185Z</time></trkpt><trkpt lat="45.6007792145961" lon="11.201376205416263"><ele>825.6666666666667</ele><time>2026-04-04T12:41:39.185Z</time></trkpt><trkpt lat="45.60086775852155" lon="11.20142636820162"><ele>827.0</ele><time>2026-04-04T12:41:40.185Z</time></trkpt><trkpt lat="45.60095487653546" lon="11.201482395147123"><ele>823.0</ele><time>2026-04-04T12:41:41.185Z</time></trkpt><trkpt lat="45.60104507282628" lon="11.201538882666476"><ele>819.0</ele><time>2026-04-04T12:41:42.185Z</time></trkpt><trkpt lat="45.60110682026163" lon="11.201667166217243"><ele>815.0</ele><time>2026-04-04T12:41:43.185Z</time></trkpt><trkpt lat="45.60117596485146" lon="11.201766739824544"><ele>811.0</ele><time>2026-04-04T12:41:44.185Z</time></trkpt><trkpt lat="45.60126322026037" lon="11.201830097922066"><ele>807.0</ele><time>2026-04-04T12:41:45.185Z</time></trkpt><trkpt lat="45.6013376706375" lon="11.201916004826181"><ele>805.0</ele><time>2026-04-04T12:41:46.185Z</time></trkpt><trkpt lat="45.60140481017871" lon="11.201976034136337"><ele>803.0</ele><time>2026-04-04T12:41:47.185Z</time></trkpt><trkpt lat="45.60147798936055" lon="11.202014672041619"><ele>801.0</ele><time>2026-04-04T12:41:48.185Z</time></trkpt><trkpt lat="45.60154786636603" lon="11.202021219643362"><ele>799.0</ele><time>2026-04-04T12:41:49.185Z</time></trkpt><trkpt lat="45.60162807630754" lon="11.20201192917049"><ele>797.0</ele><time>2026-04-04T12:41:50.185Z</time></trkpt><trkpt lat="45.6017054166636" lon="11.201939178450068"><ele>795.0</ele><time>2026-04-04T12:41:51.185Z</time></trkpt><trkpt lat="45.60177390211434" lon="11.20181633077044"><ele>795.0</ele><time>2026-04-04T12:41:52.185Z</time></trkpt><trkpt lat="45.601841326164525" lon="11.201699377450193"><ele>795.0</ele><time>2026-04-04T12:41:53.185Z</time></trkpt><trkpt lat="45.60191473768657" lon="11.201586749676494"><ele>795.0</ele><time>2026-04-04T12:41:54.185Z</time></trkpt><trkpt lat="45.601991300406745" lon="11.201456341723896"><ele>795.0</ele><time>2026-04-04T12:41:55.185Z</time></trkpt><trkpt lat="45.60205966436198" lon="11.201340340681009"><ele>795.0</ele><time>2026-04-04T12:41:56.185Z</time></trkpt><trkpt lat="45.602142818866035" lon="11.201218581881829"><ele>794.0</ele><time>2026-04-04T12:41:57.185Z</time></trkpt><trkpt lat="45.60223358924749" lon="11.201097525434434"><ele>793.0</ele><time>2026-04-04T12:41:58.185Z</time></trkpt><trkpt lat="45.60232292720256" lon="11.20100377339231"><ele>792.0</ele><time>2026-04-04T12:41:59.185Z</time></trkpt><trkpt lat="45.60242317140396" lon="11.200898229368358"><ele>791.0</ele><time>2026-04-04T12:42:00.185Z</time></trkpt><trkpt lat="45.60254577298823" lon="11.200782552827699"><ele>791.0</ele><time>2026-04-04T12:42:01.185Z</time></trkpt><trkpt lat="45.60268262377374" lon="11.200764187916587"><ele>791.0</ele><time>2026-04-04T12:42:02.185Z</time></trkpt><trkpt lat="45.60282331123663" lon="11.200670681123775"><ele>791.0</ele><time>2026-04-04T12:42:03.185Z</time></trkpt><trkpt lat="45.60296644804025" lon="11.200609834985901"><ele>791.0</ele><time>2026-04-04T12:42:04.185Z</time></trkpt><trkpt lat="45.60309208659194" lon="11.2005104342779"><ele>792.25</ele><time>2026-04-04T12:42:05.185Z</time></trkpt><trkpt lat="45.60322031963227" lon="11.200431447819287"><ele>793.5</ele><time>2026-04-04T12:42:06.185Z</time></trkpt><trkpt lat="45.60336393872602" lon="11.200354921957318"><ele>794.75</ele><time>2026-04-04T12:42:07.185Z</time></trkpt><trkpt lat="45.60348933724757" lon="11.200262605794329"><ele>796.0</ele><time>2026-04-04T12:42:08.185Z</time></trkpt><trkpt lat="45.603604569814195" lon="11.200163622620602"><ele>786.75</ele><time>2026-04-04T12:42:09.185Z</time></trkpt><trkpt lat="45.60372450857072" lon="11.200095451804886"><ele>777.5</ele><time>2026-04-04T12:42:10.185Z</time></trkpt><trkpt lat="45.60381439818859" lon="11.200023342399549"><ele>768.25</ele><time>2026-04-04T12:42:11.185Z</time></trkpt><trkpt lat="45.603926818724716" lon="11.200008566834965"><ele>759.0</ele><time>2026-04-04T12:42:12.185Z</time></trkpt><trkpt lat="45.604053713604834" lon="11.200015459363357"><ele>759.0</ele><time>2026-04-04T12:42:13.185Z</time></trkpt><trkpt lat="45.60419536111808" lon="11.200057958643301"><ele>759.0</ele><time>2026-04-04T12:42:14.185Z</time></trkpt><trkpt lat="45.60431506903363" lon="11.200112486150656"><ele>759.0</ele><time>2026-04-04T12:42:15.185Z</time></trkpt><trkpt lat="45.60442698256093" lon="11.20017756972585"><ele>759.0</ele><time>2026-04-04T12:42:16.185Z</time></trkpt><trkpt lat="45.60454204467344" lon="11.20025572988799"><ele>759.0</ele><time>2026-04-04T12:42:17.185Z</time></trkpt><trkpt lat="45.604647749224355" lon="11.200313622425679"><ele>759.0</ele><time>2026-04-04T12:42:18.185Z</time></trkpt><trkpt lat="45.6047577816695" lon="11.200371878315533"><ele>759.0</ele><time>2026-04-04T12:42:19.185Z</time></trkpt><trkpt lat="45.604855167514195" lon="11.200432058188863"><ele>759.0</ele><time>2026-04-04T12:42:20.185Z</time></trkpt><trkpt lat="45.60494556404671" lon="11.200541209030009"><ele>759.0</ele><time>2026-04-04T12:42:21.185Z</time></trkpt><trkpt lat="45.605031999528165" lon="11.200646848362124"><ele>759.0</ele><time>2026-04-04T12:42:22.185Z</time></trkpt><trkpt lat="45.605103261867214" lon="11.200732670559697"><ele>759.0</ele><time>2026-04-04T12:42:23.185Z</time></trkpt><trkpt lat="45.60518419554088" lon="11.200797985435317"><ele>759.0</ele><time>2026-04-04T12:42:24.185Z</time></trkpt><trkpt lat="45.605271667162405" lon="11.200851188588494"><ele>759.0</ele><time>2026-04-04T12:42:25.185Z</time></trkpt><trkpt lat="45.605362557042824" lon="11.200887207734725"><ele>755.6</ele><time>2026-04-04T12:42:26.185Z</time></trkpt><trkpt lat="45.60545023649334" lon="11.200934872892656"><ele>752.2</ele><time>2026-04-04T12:42:27.185Z</time></trkpt><trkpt lat="45.605533053806155" lon="11.201005051226833"><ele>748.8000000000001</ele><time>2026-04-04T12:42:28.185Z</time></trkpt><trkpt lat="45.60562353076611" lon="11.201077500911829"><ele>745.4000000000001</ele><time>2026-04-04T12:42:29.185Z</time></trkpt><trkpt lat="45.60573056977491" lon="11.201104080131064"><ele>742.0</ele><time>2026-04-04T12:42:30.185Z</time></trkpt><trkpt lat="45.60582722787783" lon="11.201131494691905"><ele>742.0</ele><time>2026-04-04T12:42:31.185Z</time></trkpt><trkpt lat="45.605918521001236" lon="11.201119800734837"><ele>742.0</ele><time>2026-04-04T12:42:32.185Z</time></trkpt><trkpt lat="45.60599730423385" lon="11.201084546401187"><ele>742.0</ele><time>2026-04-04T12:42:33.185Z</time></trkpt><trkpt lat="45.60606418823728" lon="11.201004013620055"><ele>742.0</ele><time>2026-04-04T12:42:34.185Z</time></trkpt><trkpt lat="45.60611258419265" lon="11.20093214986246"><ele>742.0</ele><time>2026-04-04T12:42:35.185Z</time></trkpt><trkpt lat="45.60617529730162" lon="11.20089154899241"><ele>742.0</ele><time>2026-04-04T12:42:36.185Z</time></trkpt><trkpt lat="45.60626667837173" lon="11.200877070599393"><ele>741.0</ele><time>2026-04-04T12:42:37.185Z</time></trkpt><trkpt lat="45.60635372173434" lon="11.200895745181995"><ele>740.0</ele><time>2026-04-04T12:42:38.185Z</time></trkpt><trkpt lat="45.60646736459959" lon="11.200921405309831"><ele>739.0</ele><time>2026-04-04T12:42:39.185Z</time></trkpt><trkpt lat="45.606581274338396" lon="11.200964552915261"><ele>738.0</ele><time>2026-04-04T12:42:40.185Z</time></trkpt><trkpt lat="45.60669048924686" lon="11.201021171665401"><ele>737.0</ele><time>2026-04-04T12:42:41.185Z</time></trkpt><trkpt lat="45.60680038262539" lon="11.201069552135525"><ele>737.0</ele><time>2026-04-04T12:42:42.185Z</time></trkpt><trkpt lat="45.60690656441168" lon="11.201141509253276"><ele>737.0</ele><time>2026-04-04T12:42:43.185Z</time></trkpt><trkpt lat="45.60700158431694" lon="11.201199986208904"><ele>737.0</ele><time>2026-04-04T12:42:44.185Z</time></trkpt><trkpt lat="45.60710246216199" lon="11.201259040654952"><ele>737.0</ele><time>2026-04-04T12:42:45.185Z</time></trkpt><trkpt lat="45.607201908858755" lon="11.201340733138922"><ele>737.0</ele><time>2026-04-04T12:42:46.185Z</time></trkpt><trkpt lat="45.60728762596407" lon="11.201440802550913"><ele>735.8333333333333</ele><time>2026-04-04T12:42:47.185Z</time></trkpt><trkpt lat="45.60736291952146" lon="11.201559448699353"><ele>734.6666666666666</ele><time>2026-04-04T12:42:48.185Z</time></trkpt><trkpt lat="45.607437510334506" lon="11.201654490843174"><ele>733.5</ele><time>2026-04-04T12:42:49.185Z</time></trkpt><trkpt lat="45.607502476791225" lon="11.201723651215678"><ele>732.3333333333334</ele><time>2026-04-04T12:42:50.185Z</time></trkpt><trkpt lat="45.607560681718944" lon="11.201773577711442"><ele>731.1666666666667</ele><time>2026-04-04T12:42:51.185Z</time></trkpt><trkpt lat="45.60760286806181" lon="11.201849684939178"><ele>730.0</ele><time>2026-04-04T12:42:52.185Z</time></trkpt><trkpt lat="45.60763535043783" lon="11.201948142794448"><ele>730.0</ele><time>2026-04-04T12:42:53.185Z</time></trkpt><trkpt lat="45.60763295447477" lon="11.20211316833106"><ele>730.0</ele><time>2026-04-04T12:42:54.185Z</time></trkpt><trkpt lat="45.60761854781406" lon="11.202283911991799"><ele>730.0</ele><time>2026-04-04T12:42:55.185Z</time></trkpt><trkpt lat="45.60761508161203" lon="11.202432595014882"><ele>730.0</ele><time>2026-04-04T12:42:56.185Z</time></trkpt><trkpt lat="45.607619428570324" lon="11.20253320729959"><ele>730.0</ele><time>2026-04-04T12:42:57.185Z</time></trkpt><trkpt lat="45.607628309437345" lon="11.202644678576554"><ele>731.4</ele><time>2026-04-04T12:42:58.185Z</time></trkpt><trkpt lat="45.60767398905713" lon="11.202740314815133"><ele>732.8</ele><time>2026-04-04T12:42:59.185Z</time></trkpt><trkpt lat="45.60774330329094" lon="11.202799138252068"><ele>734.2</ele><time>2026-04-04T12:43:00.185Z</time></trkpt><trkpt lat="45.60781461574582" lon="11.202885384252758"><ele>735.6</ele><time>2026-04-04T12:43:01.185Z</time></trkpt><trkpt lat="45.60786619677582" lon="11.203011884278949"><ele>737.0</ele><time>2026-04-04T12:43:02.185Z</time></trkpt><trkpt lat="45.60794246056025" lon="11.203159813137502"><ele>732.25</ele><time>2026-04-04T12:43:03.185Z</time></trkpt><trkpt lat="45.6080139599914" lon="11.203320958593375"><ele>727.5</ele><time>2026-04-04T12:43:04.185Z</time></trkpt><trkpt lat="45.6080791535329" lon="11.203475316732332"><ele>722.75</ele><time>2026-04-04T12:43:05.185Z</time></trkpt><trkpt lat="45.60814971709602" lon="11.203613676587807"><ele>718.0</ele><time>2026-04-04T12:43:06.185Z</time></trkpt><trkpt lat="45.60822488036234" lon="11.203744974657662"><ele>718.0</ele><time>2026-04-04T12:43:07.185Z</time></trkpt><trkpt lat="45.60830078891036" lon="11.20384661544262"><ele>718.0</ele><time>2026-04-04T12:43:08.185Z</time></trkpt><trkpt lat="45.60834683306792" lon="11.203953101699755"><ele>718.0</ele><time>2026-04-04T12:43:09.185Z</time></trkpt><trkpt lat="45.60837622877113" lon="11.204069880580292"><ele>718.0</ele><time>2026-04-04T12:43:10.185Z</time></trkpt><trkpt lat="45.608376315996765" lon="11.204194000538248"><ele>718.0</ele><time>2026-04-04T12:43:11.185Z</time></trkpt><trkpt lat="45.60835488668049" lon="11.20433346047592"><ele>714.5</ele><time>2026-04-04T12:43:12.185Z</time></trkpt><trkpt lat="45.60832179151805" lon="11.20445758111642"><ele>711.0</ele><time>2026-04-04T12:43:13.185Z</time></trkpt><trkpt lat="45.60831523916058" lon="11.204549535379915"><ele>707.5</ele><time>2026-04-04T12:43:14.185Z</time></trkpt><trkpt lat="45.60830290731303" lon="11.20464477019742"><ele>704.0</ele><time>2026-04-04T12:43:15.185Z</time></trkpt><trkpt lat="45.608393318601436" lon="11.204778031975884"><ele>700.5</ele><time>2026-04-04T12:43:17.185Z</time></trkpt><trkpt lat="45.60847180251314" lon="11.204823180135037"><ele>697.0</ele><time>2026-04-04T12:43:18.185Z</time></trkpt><trkpt lat="45.608548542012066" lon="11.204893662031589"><ele>695.3333333333334</ele><time>2026-04-04T12:43:19.185Z</time></trkpt><trkpt lat="45.60859549065518" lon="11.204993039760645"><ele>693.6666666666667</ele><time>2026-04-04T12:43:20.185Z</time></trkpt><trkpt lat="45.60863976658461" lon="11.205086308914408"><ele>692.0</ele><time>2026-04-04T12:43:21.185Z</time></trkpt><trkpt lat="45.60871052268763" lon="11.205123276081002"><ele>690.3333333333334</ele><time>2026-04-04T12:43:22.185Z</time></trkpt><trkpt lat="45.608791321878236" lon="11.205134021758298"><ele>688.6666666666666</ele><time>2026-04-04T12:43:23.185Z</time></trkpt><trkpt lat="45.60886886768309" lon="11.20512597448671"><ele>687.0</ele><time>2026-04-04T12:43:24.185Z</time></trkpt><trkpt lat="45.60892500419906" lon="11.205082120792365"><ele>687.0</ele><time>2026-04-04T12:43:25.185Z</time></trkpt><trkpt lat="45.608992773125806" lon="11.204919350121243"><ele>687.0</ele><time>2026-04-04T12:43:27.185Z</time></trkpt><trkpt lat="45.60899116235981" lon="11.204799786624704"><ele>687.0</ele><time>2026-04-04T12:43:28.185Z</time></trkpt><trkpt lat="45.609000650331716" lon="11.204695254609325"><ele>687.0</ele><time>2026-04-04T12:43:29.185Z</time></trkpt><trkpt lat="45.60903465367671" lon="11.204617545461954"><ele>687.0</ele><time>2026-04-04T12:43:30.185Z</time></trkpt><trkpt lat="45.60907517142735" lon="11.204545171645302"><ele>687.0</ele><time>2026-04-04T12:43:31.185Z</time></trkpt><trkpt lat="45.60913096016532" lon="11.204482190268454"><ele>689.0</ele><time>2026-04-04T12:43:32.185Z</time></trkpt><trkpt lat="45.609197762130364" lon="11.204436705421"><ele>691.0</ele><time>2026-04-04T12:43:33.185Z</time></trkpt><trkpt lat="45.60925830335507" lon="11.204401416763574"><ele>693.0</ele><time>2026-04-04T12:43:34.185Z</time></trkpt><trkpt lat="45.60933297694549" lon="11.204398249103862"><ele>695.0</ele><time>2026-04-04T12:43:35.185Z</time></trkpt><trkpt lat="45.60942765751931" lon="11.204438355705577"><ele>697.0</ele><time>2026-04-04T12:43:36.185Z</time></trkpt><trkpt lat="45.60950914375037" lon="11.204477776133828"><ele>699.0</ele><time>2026-04-04T12:43:37.185Z</time></trkpt><trkpt lat="45.60957609102831" lon="11.20459504158463"><ele>697.0</ele><time>2026-04-04T12:43:38.185Z</time></trkpt><trkpt lat="45.60963625709068" lon="11.204717461010661"><ele>695.0</ele><time>2026-04-04T12:43:39.185Z</time></trkpt><trkpt lat="45.60969792966811" lon="11.204907840104873"><ele>693.0</ele><time>2026-04-04T12:43:40.185Z</time></trkpt><trkpt lat="45.60977904689826" lon="11.20514963039698"><ele>691.0</ele><time>2026-04-04T12:43:41.185Z</time></trkpt><trkpt lat="45.609838932101184" lon="11.205363558088091"><ele>691.0</ele><time>2026-04-04T12:43:42.185Z</time></trkpt><trkpt lat="45.60989037486272" lon="11.20553751118697"><ele>691.0</ele><time>2026-04-04T12:43:43.185Z</time></trkpt><trkpt lat="45.60995176082839" lon="11.20569820257963"><ele>691.0</ele><time>2026-04-04T12:43:44.185Z</time></trkpt><trkpt lat="45.61000096034573" lon="11.205840675170617"><ele>691.0</ele><time>2026-04-04T12:43:45.185Z</time></trkpt><trkpt lat="45.610051849615914" lon="11.205969828933643"><ele>688.0</ele><time>2026-04-04T12:43:46.185Z</time></trkpt><trkpt lat="45.61009719403731" lon="11.206101689090707"><ele>685.0</ele><time>2026-04-04T12:43:47.185Z</time></trkpt><trkpt lat="45.61014434368125" lon="11.206193848044512"><ele>682.0</ele><time>2026-04-04T12:43:48.185Z</time></trkpt><trkpt lat="45.61022571118773" lon="11.206272065331532"><ele>679.0</ele><time>2026-04-04T12:43:49.185Z</time></trkpt><trkpt lat="45.6103586123749" lon="11.206321411805549"><ele>676.0</ele><time>2026-04-04T12:43:50.185Z</time></trkpt><trkpt lat="45.610464423490555" lon="11.206419121638792"><ele>676.0</ele><time>2026-04-04T12:43:51.185Z</time></trkpt><trkpt lat="45.61056091554597" lon="11.206451185250152"><ele>676.0</ele><time>2026-04-04T12:43:52.185Z</time></trkpt><trkpt lat="45.61064427840192" lon="11.20647052799479"><ele>676.0</ele><time>2026-04-04T12:43:53.185Z</time></trkpt><trkpt lat="45.610720743906484" lon="11.206450474753252"><ele>676.0</ele><time>2026-04-04T12:43:54.185Z</time></trkpt><trkpt lat="45.610815714784636" lon="11.206416696688278"><ele>676.0</ele><time>2026-04-04T12:43:55.185Z</time></trkpt><trkpt lat="45.61089588848511" lon="11.206396630480919"><ele>676.0</ele><time>2026-04-04T12:43:56.185Z</time></trkpt><trkpt lat="45.610972202477875" lon="11.206387761943102"><ele>676.0</ele><time>2026-04-04T12:43:57.185Z</time></trkpt><trkpt lat="45.611027623209516" lon="11.206277259946917"><ele>676.0</ele><time>2026-04-04T12:43:58.185Z</time></trkpt><trkpt lat="45.61107048982836" lon="11.206200509451126"><ele>676.0</ele><time>2026-04-04T12:43:59.185Z</time></trkpt><trkpt lat="45.61113166526152" lon="11.206088340559507"><ele>676.0</ele><time>2026-04-04T12:44:00.185Z</time></trkpt><trkpt lat="45.611269929691765" lon="11.206059609541374"><ele>676.0</ele><time>2026-04-04T12:44:02.185Z</time></trkpt><trkpt lat="45.61135853976043" lon="11.206118947509466"><ele>674.4</ele><time>2026-04-04T12:44:03.185Z</time></trkpt><trkpt lat="45.61141263498572" lon="11.20624565713376"><ele>672.8</ele><time>2026-04-04T12:44:04.185Z</time></trkpt><trkpt lat="45.6114885694665" lon="11.206350928365424"><ele>671.1999999999999</ele><time>2026-04-04T12:44:05.185Z</time></trkpt><trkpt lat="45.61157561426076" lon="11.206444479935998"><ele>669.5999999999999</ele><time>2026-04-04T12:44:06.185Z</time></trkpt><trkpt lat="45.61162863898735" lon="11.206603497674774"><ele>668.0</ele><time>2026-04-04T12:44:07.185Z</time></trkpt><trkpt lat="45.61167785224853" lon="11.206741433530954"><ele>665.75</ele><time>2026-04-04T12:44:08.185Z</time></trkpt><trkpt lat="45.61169221228983" lon="11.206939496145994"><ele>663.5</ele><time>2026-04-04T12:44:09.185Z</time></trkpt><trkpt lat="45.61171064132254" lon="11.20709891502695"><ele>661.25</ele><time>2026-04-04T12:44:10.185Z</time></trkpt><trkpt lat="45.61174442556681" lon="11.20724805378952"><ele>659.0</ele><time>2026-04-04T12:44:11.185Z</time></trkpt><trkpt lat="45.6117784946922" lon="11.207386227564108"><ele>659.5</ele><time>2026-04-04T12:44:12.185Z</time></trkpt><trkpt lat="45.61182499029593" lon="11.207519038068922"><ele>660.0</ele><time>2026-04-04T12:44:13.185Z</time></trkpt><trkpt lat="45.611899403651954" lon="11.207640038775201"><ele>660.5</ele><time>2026-04-04T12:44:14.186Z</time></trkpt><trkpt lat="45.61199312036624" lon="11.207756308239658"><ele>661.0</ele><time>2026-04-04T12:44:15.186Z</time></trkpt><trkpt lat="45.61210231726456" lon="11.207865255867523"><ele>661.0</ele><time>2026-04-04T12:44:16.186Z</time></trkpt><trkpt lat="45.61221076974744" lon="11.207977558508732"><ele>661.0</ele><time>2026-04-04T12:44:17.186Z</time></trkpt><trkpt lat="45.61230008092559" lon="11.208085421668754"><ele>661.0</ele><time>2026-04-04T12:44:18.186Z</time></trkpt><trkpt lat="45.612379006683724" lon="11.20814096829761"><ele>661.0</ele><time>2026-04-04T12:44:19.186Z</time></trkpt><trkpt lat="45.61246632949266" lon="11.208131800128706"><ele>661.0</ele><time>2026-04-04T12:44:20.186Z</time></trkpt><trkpt lat="45.612584256827034" lon="11.208081370947825"><ele>661.0</ele><time>2026-04-04T12:44:21.186Z</time></trkpt><trkpt lat="45.612691966449646" lon="11.207992973881304"><ele>661.0</ele><time>2026-04-04T12:44:22.186Z</time></trkpt><trkpt lat="45.61281063112879" lon="11.20789331215909"><ele>661.0</ele><time>2026-04-04T12:44:23.186Z</time></trkpt><trkpt lat="45.61292203990235" lon="11.207828289079895"><ele>661.0</ele><time>2026-04-04T12:44:24.186Z</time></trkpt><trkpt lat="45.61303086749943" lon="11.20777744850576"><ele>661.4</ele><time>2026-04-04T12:44:25.186Z</time></trkpt><trkpt lat="45.613122150357036" lon="11.207702226144352"><ele>661.8</ele><time>2026-04-04T12:44:26.186Z</time></trkpt><trkpt lat="45.6131795003434" lon="11.207591086283484"><ele>662.1999999999999</ele><time>2026-04-04T12:44:27.186Z</time></trkpt><trkpt lat="45.61321950741776" lon="11.207445295540028"><ele>662.5999999999999</ele><time>2026-04-04T12:44:28.186Z</time></trkpt><trkpt lat="45.61323635746542" lon="11.207301034069967"><ele>663.0</ele><time>2026-04-04T12:44:29.186Z</time></trkpt><trkpt lat="45.61325986586925" lon="11.207188177894256"><ele>665.0</ele><time>2026-04-04T12:44:30.186Z</time></trkpt><trkpt lat="45.61329457788964" lon="11.207082440049042"><ele>667.0</ele><time>2026-04-04T12:44:31.186Z</time></trkpt><trkpt lat="45.613356402054336" lon="11.207017885553885"><ele>669.0</ele><time>2026-04-04T12:44:32.186Z</time></trkpt><trkpt lat="45.61343343650636" lon="11.206997405131567"><ele>671.0</ele><time>2026-04-04T12:44:33.186Z</time></trkpt><trkpt lat="45.61349809012909" lon="11.20704417531623"><ele>673.0</ele><time>2026-04-04T12:44:34.186Z</time></trkpt><trkpt lat="45.61356019776042" lon="11.207149937502715"><ele>675.0</ele><time>2026-04-04T12:44:35.186Z</time></trkpt><trkpt lat="45.613595053464714" lon="11.207300515019696"><ele>674.0</ele><time>2026-04-04T12:44:36.186Z</time></trkpt><trkpt lat="45.61363908467544" lon="11.207477584925476"><ele>673.0</ele><time>2026-04-04T12:44:37.186Z</time></trkpt><trkpt lat="45.61370859601079" lon="11.207646409086394"><ele>672.0</ele><time>2026-04-04T12:44:38.186Z</time></trkpt><trkpt lat="45.613800536280124" lon="11.207806289234"><ele>671.0</ele><time>2026-04-04T12:44:39.186Z</time></trkpt><trkpt lat="45.61389175966065" lon="11.207975195726002"><ele>671.0</ele><time>2026-04-04T12:44:40.186Z</time></trkpt><trkpt lat="45.613954679420964" lon="11.2081220147741"><ele>671.0</ele><time>2026-04-04T12:44:41.186Z</time></trkpt><trkpt lat="45.614014417582126" lon="11.208257958212414"><ele>671.0</ele><time>2026-04-04T12:44:42.186Z</time></trkpt><trkpt lat="45.61406886979545" lon="11.20837335739235"><ele>671.0</ele><time>2026-04-04T12:44:43.186Z</time></trkpt><trkpt lat="45.61415706959697" lon="11.208461380869833"><ele>671.0</ele><time>2026-04-04T12:44:44.186Z</time></trkpt><trkpt lat="45.61426572787368" lon="11.208535045679165"><ele>669.4</ele><time>2026-04-04T12:44:45.186Z</time></trkpt><trkpt lat="45.61438837641428" lon="11.208576768899803"><ele>667.8</ele><time>2026-04-04T12:44:46.186Z</time></trkpt><trkpt lat="45.61449435151715" lon="11.208610046365312"><ele>666.1999999999999</ele><time>2026-04-04T12:44:47.186Z</time></trkpt><trkpt lat="45.61458530839182" lon="11.208660342275296"><ele>664.5999999999999</ele><time>2026-04-04T12:44:48.186Z</time></trkpt><trkpt lat="45.614663521174485" lon="11.20872560507416"><ele>663.0</ele><time>2026-04-04T12:44:49.186Z</time></trkpt><trkpt lat="45.614756339629004" lon="11.208771199846527"><ele>663.0</ele><time>2026-04-04T12:44:50.186Z</time></trkpt><trkpt lat="45.61488243156846" lon="11.208786940005577"><ele>663.0</ele><time>2026-04-04T12:44:51.186Z</time></trkpt><trkpt lat="45.61500363195643" lon="11.208810667974381"><ele>663.0</ele><time>2026-04-04T12:44:52.186Z</time></trkpt><trkpt lat="45.61511229985182" lon="11.208866030308549"><ele>663.0</ele><time>2026-04-04T12:44:53.186Z</time></trkpt><trkpt lat="45.61521654381193" lon="11.208939331126569"><ele>661.5999999999999</ele><time>2026-04-04T12:44:54.186Z</time></trkpt><trkpt lat="45.61530915999461" lon="11.209006969372432"><ele>660.1999999999999</ele><time>2026-04-04T12:44:55.186Z</time></trkpt><trkpt lat="45.61540234948968" lon="11.209092605927713"><ele>658.8</ele><time>2026-04-04T12:44:56.186Z</time></trkpt><trkpt lat="45.61550113934315" lon="11.209166493405906"><ele>657.4</ele><time>2026-04-04T12:44:57.186Z</time></trkpt><trkpt lat="45.615599616223925" lon="11.209226658057721"><ele>656.0</ele><time>2026-04-04T12:44:58.186Z</time></trkpt><trkpt lat="45.61569396483107" lon="11.209331858641947"><ele>656.0</ele><time>2026-04-04T12:44:59.186Z</time></trkpt><trkpt lat="45.61580550728771" lon="11.209412637161138"><ele>656.0</ele><time>2026-04-04T12:45:00.186Z</time></trkpt><trkpt lat="45.61590130746897" lon="11.209508626900682"><ele>656.0</ele><time>2026-04-04T12:45:01.186Z</time></trkpt><trkpt lat="45.615985731666235" lon="11.209608773616067"><ele>656.0</ele><time>2026-04-04T12:45:02.186Z</time></trkpt><trkpt lat="45.61608138085945" lon="11.209720365625886"><ele>656.5</ele><time>2026-04-04T12:45:03.186Z</time></trkpt><trkpt lat="45.616203863304975" lon="11.209791293039281"><ele>657.0</ele><time>2026-04-04T12:45:04.186Z</time></trkpt><trkpt lat="45.61632601224685" lon="11.209878489270007"><ele>657.5</ele><time>2026-04-04T12:45:05.186Z</time></trkpt><trkpt lat="45.61643620193346" lon="11.209976119929085"><ele>658.0</ele><time>2026-04-04T12:45:06.186Z</time></trkpt><trkpt lat="45.616538745121495" lon="11.21007538005066"><ele>656.5999999999999</ele><time>2026-04-04T12:45:07.186Z</time></trkpt><trkpt lat="45.61659454803626" lon="11.210166079673208"><ele>655.1999999999999</ele><time>2026-04-04T12:45:08.186Z</time></trkpt><trkpt lat="45.616628495124225" lon="11.210258364855438"><ele>653.8</ele><time>2026-04-04T12:45:09.186Z</time></trkpt><trkpt lat="45.61663045709606" lon="11.210381177966912"><ele>652.4</ele><time>2026-04-04T12:45:10.186Z</time></trkpt><trkpt lat="45.61659224285667" lon="11.210515322404236"><ele>651.0</ele><time>2026-04-04T12:45:11.186Z</time></trkpt><trkpt lat="45.61653913787964" lon="11.21065863314443"><ele>650.0</ele><time>2026-04-04T12:45:12.186Z</time></trkpt><trkpt lat="45.616495396511525" lon="11.210797186524083"><ele>649.0</ele><time>2026-04-04T12:45:13.186Z</time></trkpt><trkpt lat="45.61646495742872" lon="11.21093156276379"><ele>648.0</ele><time>2026-04-04T12:45:14.186Z</time></trkpt><trkpt lat="45.616454968227224" lon="11.211085338537883"><ele>647.0</ele><time>2026-04-04T12:45:15.186Z</time></trkpt><trkpt lat="45.61644922396503" lon="11.211218193848055"><ele>646.0</ele><time>2026-04-04T12:45:16.186Z</time></trkpt><trkpt lat="45.616445903359555" lon="11.211333357492252"><ele>644.0</ele><time>2026-04-04T12:45:17.186Z</time></trkpt><trkpt lat="45.61638089111054" lon="11.211494376813956"><ele>642.0</ele><time>2026-04-04T12:45:19.186Z</time></trkpt><trkpt lat="45.616297605100954" lon="11.211540253254773"><ele>640.0</ele><time>2026-04-04T12:45:20.186Z</time></trkpt><trkpt lat="45.616171039255235" lon="11.21159990143073"><ele>638.0</ele><time>2026-04-04T12:45:21.186Z</time></trkpt><trkpt lat="45.61605284926927" lon="11.211654957533078"><ele>636.0</ele><time>2026-04-04T12:45:22.186Z</time></trkpt><trkpt lat="45.615949295780645" lon="11.211713539317575"><ele>634.0</ele><time>2026-04-04T12:45:23.186Z</time></trkpt><trkpt lat="45.61584384077923" lon="11.211815152225068"><ele>632.0</ele><time>2026-04-04T12:45:24.186Z</time></trkpt><trkpt lat="45.61575491372031" lon="11.211911255537506"><ele>630.0</ele><time>2026-04-04T12:45:25.186Z</time></trkpt><trkpt lat="45.61568081442981" lon="11.212003520357683"><ele>628.0</ele><time>2026-04-04T12:45:26.186Z</time></trkpt><trkpt lat="45.61562044270353" lon="11.212106527658932"><ele>628.0</ele><time>2026-04-04T12:45:27.186Z</time></trkpt><trkpt lat="45.61558809137122" lon="11.212243341964555"><ele>628.0</ele><time>2026-04-04T12:45:28.186Z</time></trkpt><trkpt lat="45.61558283480197" lon="11.212397158898693"><ele>628.0</ele><time>2026-04-04T12:45:29.186Z</time></trkpt><trkpt lat="45.61556830546104" lon="11.212548871495704"><ele>628.0</ele><time>2026-04-04T12:45:30.186Z</time></trkpt><trkpt lat="45.61552141589083" lon="11.212679037824662"><ele>628.0</ele><time>2026-04-04T12:45:31.186Z</time></trkpt><trkpt lat="45.615465691535334" lon="11.212797857697224"><ele>627.6</ele><time>2026-04-04T12:45:32.186Z</time></trkpt><trkpt lat="45.61539687225812" lon="11.212889307226282"><ele>627.1999999999999</ele><time>2026-04-04T12:45:33.186Z</time></trkpt><trkpt lat="45.615315734518674" lon="11.212976576074638"><ele>626.8</ele><time>2026-04-04T12:45:34.186Z</time></trkpt><trkpt lat="45.61522133947672" lon="11.21305637816077"><ele>626.4</ele><time>2026-04-04T12:45:35.186Z</time></trkpt><trkpt lat="45.615123044297384" lon="11.21312995607085"><ele>626.0</ele><time>2026-04-04T12:45:36.186Z</time></trkpt><trkpt lat="45.61502864857284" lon="11.21320306738331"><ele>625.0</ele><time>2026-04-04T12:45:37.186Z</time></trkpt><trkpt lat="45.614938498656564" lon="11.213281067331994"><ele>624.0</ele><time>2026-04-04T12:45:38.186Z</time></trkpt><trkpt lat="45.61486497244762" lon="11.213348258699662"><ele>623.0</ele><time>2026-04-04T12:45:39.186Z</time></trkpt><trkpt lat="45.61479791955211" lon="11.213425908204565"><ele>622.0</ele><time>2026-04-04T12:45:40.186Z</time></trkpt><trkpt lat="45.61475103154174" lon="11.213532285971423"><ele>621.0</ele><time>2026-04-04T12:45:41.186Z</time></trkpt><trkpt lat="45.61473534676197" lon="11.21365080967223"><ele>621.0</ele><time>2026-04-04T12:45:42.186Z</time></trkpt><trkpt lat="45.6147466576188" lon="11.213767569645082"><ele>621.0</ele><time>2026-04-04T12:45:43.186Z</time></trkpt><trkpt lat="45.6147588912447" lon="11.213893084142475"><ele>621.0</ele><time>2026-04-04T12:45:44.186Z</time></trkpt><trkpt lat="45.61476637650646" lon="11.213985524179902"><ele>621.0</ele><time>2026-04-04T12:45:45.186Z</time></trkpt><trkpt lat="45.61475017365447" lon="11.214113611425033"><ele>621.0</ele><time>2026-04-04T12:45:47.186Z</time></trkpt><trkpt lat="45.61465868983149" lon="11.214193868429204"><ele>621.0</ele><time>2026-04-04T12:45:49.186Z</time></trkpt><trkpt lat="45.614638619584596" lon="11.214296335154486"><ele>621.2</ele><time>2026-04-04T12:45:50.186Z</time></trkpt><trkpt lat="45.61463161828092" lon="11.214408873984299"><ele>621.4000000000001</ele><time>2026-04-04T12:45:51.186Z</time></trkpt><trkpt lat="45.614624166099716" lon="11.214545416383878"><ele>621.6</ele><time>2026-04-04T12:45:52.186Z</time></trkpt><trkpt lat="45.614582536787275" lon="11.214672119017669"><ele>621.8000000000001</ele><time>2026-04-04T12:45:53.186Z</time></trkpt><trkpt lat="45.614540906503784" lon="11.21478688468573"><ele>622.0</ele><time>2026-04-04T12:45:54.186Z</time></trkpt><trkpt lat="45.61449933873516" lon="11.214924894634134"><ele>614.8000000000001</ele><time>2026-04-04T12:45:55.186Z</time></trkpt><trkpt lat="45.614461850703215" lon="11.215043298102659"><ele>607.6</ele><time>2026-04-04T12:45:56.186Z</time></trkpt><trkpt lat="45.614440588954935" lon="11.21518297714669"><ele>600.4000000000001</ele><time>2026-04-04T12:45:57.186Z</time></trkpt><trkpt lat="45.61441448654959" lon="11.215309385125023"><ele>593.2</ele><time>2026-04-04T12:45:58.186Z</time></trkpt><trkpt lat="45.614399095443204" lon="11.21542976765399"><ele>586.0</ele><time>2026-04-04T12:45:59.186Z</time></trkpt><trkpt lat="45.61437259539026" lon="11.215543862786381"><ele>586.0</ele><time>2026-04-04T12:46:00.186Z</time></trkpt><trkpt lat="45.61434168307771" lon="11.215632693992706"><ele>586.0</ele><time>2026-04-04T12:46:01.186Z</time></trkpt><trkpt lat="45.61432114541405" lon="11.215788649892577"><ele>586.0</ele><time>2026-04-04T12:46:03.186Z</time></trkpt><trkpt lat="45.61437389642327" lon="11.215910582350459"><ele>586.0</ele><time>2026-04-04T12:46:05.186Z</time></trkpt><trkpt lat="45.614415309711895" lon="11.215978542176567"><ele>586.0</ele><time>2026-04-04T12:46:06.186Z</time></trkpt><trkpt lat="45.614480566603774" lon="11.216033704171883"><ele>586.0</ele><time>2026-04-04T12:46:07.186Z</time></trkpt><trkpt lat="45.61454148639943" lon="11.216090592016476"><ele>588.1428571428571</ele><time>2026-04-04T12:46:08.186Z</time></trkpt><trkpt lat="45.61459830266555" lon="11.216149473023712"><ele>590.2857142857142</ele><time>2026-04-04T12:46:09.186Z</time></trkpt><trkpt lat="45.61466136447021" lon="11.216201264880631"><ele>592.4285714285713</ele><time>2026-04-04T12:46:10.186Z</time></trkpt><trkpt lat="45.61473312621273" lon="11.216238983420991"><ele>594.5714285714286</ele><time>2026-04-04T12:46:11.186Z</time></trkpt><trkpt lat="45.6148065659418" lon="11.216269307632256"><ele>596.7142857142858</ele><time>2026-04-04T12:46:12.186Z</time></trkpt><trkpt lat="45.61487162149717" lon="11.21629447378534"><ele>598.8571428571428</ele><time>2026-04-04T12:46:13.186Z</time></trkpt><trkpt lat="45.61494150862065" lon="11.21635411480409"><ele>601.0</ele><time>2026-04-04T12:46:14.186Z</time></trkpt><trkpt lat="45.614995426492406" lon="11.216435313594038"><ele>596.2</ele><time>2026-04-04T12:46:15.186Z</time></trkpt><trkpt lat="45.615074622752964" lon="11.216487643944122"><ele>591.4000000000001</ele><time>2026-04-04T12:46:16.186Z</time></trkpt><trkpt lat="45.61516004137083" lon="11.216509457539356"><ele>586.6</ele><time>2026-04-04T12:46:17.186Z</time></trkpt><trkpt lat="45.615259671841315" lon="11.216516343697519"><ele>581.8000000000001</ele><time>2026-04-04T12:46:18.186Z</time></trkpt><trkpt lat="45.6153477085596" lon="11.216555146648814"><ele>577.0</ele><time>2026-04-04T12:46:19.186Z</time></trkpt><trkpt lat="45.61544704172917" lon="11.216566395256843"><ele>577.0</ele><time>2026-04-04T12:46:20.187Z</time></trkpt><trkpt lat="45.6155479654634" lon="11.216588974502631"><ele>577.0</ele><time>2026-04-04T12:46:21.187Z</time></trkpt><trkpt lat="45.61565457815684" lon="11.216616039489061"><ele>577.0</ele><time>2026-04-04T12:46:22.187Z</time></trkpt><trkpt lat="45.61575790367552" lon="11.216631402685918"><ele>577.0</ele><time>2026-04-04T12:46:23.187Z</time></trkpt><trkpt lat="45.61585874120044" lon="11.216690414127672"><ele>577.0</ele><time>2026-04-04T12:46:24.187Z</time></trkpt><trkpt lat="45.615955569122086" lon="11.216747381652352"><ele>577.0</ele><time>2026-04-04T12:46:25.187Z</time></trkpt><trkpt lat="45.61604854528303" lon="11.216770671002203"><ele>577.0</ele><time>2026-04-04T12:46:26.187Z</time></trkpt><trkpt lat="45.61614167042897" lon="11.216796027033473"><ele>577.0</ele><time>2026-04-04T12:46:27.187Z</time></trkpt><trkpt lat="45.61623431610356" lon="11.216809406293132"><ele>577.0</ele><time>2026-04-04T12:46:28.187Z</time></trkpt><trkpt lat="45.61631819498057" lon="11.2168350864253"><ele>577.0</ele><time>2026-04-04T12:46:29.187Z</time></trkpt><trkpt lat="45.61639474987559" lon="11.216858222004047"><ele>577.0</ele><time>2026-04-04T12:46:30.187Z</time></trkpt><trkpt lat="45.61646846620875" lon="11.216898993252178"><ele>577.6666666666667</ele><time>2026-04-04T12:46:31.187Z</time></trkpt><trkpt lat="45.616535293103055" lon="11.216972622436375"><ele>578.3333333333334</ele><time>2026-04-04T12:46:32.187Z</time></trkpt><trkpt lat="45.61659718738941" lon="11.21704374563904"><ele>579.0</ele><time>2026-04-04T12:46:33.187Z</time></trkpt><trkpt lat="45.61665753905247" lon="11.217102414307526"><ele>579.6666666666666</ele><time>2026-04-04T12:46:34.187Z</time></trkpt><trkpt lat="45.616722317923525" lon="11.217189526038794"><ele>580.3333333333333</ele><time>2026-04-04T12:46:36.187Z</time></trkpt><trkpt lat="45.616670932972795" lon="11.217284493792715"><ele>581.0</ele><time>2026-04-04T12:46:38.187Z</time></trkpt><trkpt lat="45.61654298166722" lon="11.217168962438144"><ele>581.0</ele><time>2026-04-04T12:46:40.187Z</time></trkpt><trkpt lat="45.61646720014366" lon="11.217129758088063"><ele>581.0</ele><time>2026-04-04T12:46:41.187Z</time></trkpt><trkpt lat="45.61635353451331" lon="11.217170062475613"><ele>581.0</ele><time>2026-04-04T12:46:42.187Z</time></trkpt><trkpt lat="45.616251025597634" lon="11.21721080224509"><ele>581.0</ele><time>2026-04-04T12:46:43.187Z</time></trkpt><trkpt lat="45.61614008316385" lon="11.217252692444038"><ele>581.0</ele><time>2026-04-04T12:46:44.187Z</time></trkpt><trkpt lat="45.616041996553676" lon="11.21728223029242"><ele>580.2</ele><time>2026-04-04T12:46:45.187Z</time></trkpt><trkpt lat="45.61594446542599" lon="11.21732055848297"><ele>579.4000000000001</ele><time>2026-04-04T12:46:46.187Z</time></trkpt><trkpt lat="45.61583705135541" lon="11.217348552652709"><ele>578.6</ele><time>2026-04-04T12:46:47.187Z</time></trkpt><trkpt lat="45.615742485996094" lon="11.21734294606017"><ele>577.8000000000001</ele><time>2026-04-04T12:46:48.187Z</time></trkpt><trkpt lat="45.61563897574675" lon="11.217323819960308"><ele>577.0</ele><time>2026-04-04T12:46:49.187Z</time></trkpt><trkpt lat="45.615524736386206" lon="11.217302903262654"><ele>577.0</ele><time>2026-04-04T12:46:50.187Z</time></trkpt><trkpt lat="45.61541251808837" lon="11.217310077051446"><ele>577.0</ele><time>2026-04-04T12:46:51.187Z</time></trkpt><trkpt lat="45.6152895952553" lon="11.217326028936405"><ele>577.0</ele><time>2026-04-04T12:46:52.187Z</time></trkpt><trkpt lat="45.61517223994167" lon="11.217345421949513"><ele>577.0</ele><time>2026-04-04T12:46:53.187Z</time></trkpt><trkpt lat="45.615045142465796" lon="11.217402187856173"><ele>565.25</ele><time>2026-04-04T12:46:54.187Z</time></trkpt><trkpt lat="45.614920009035075" lon="11.217438445300441"><ele>553.5</ele><time>2026-04-04T12:46:55.187Z</time></trkpt><trkpt lat="45.614797639881665" lon="11.217460057433156"><ele>541.75</ele><time>2026-04-04T12:46:56.187Z</time></trkpt><trkpt lat="45.614699915977944" lon="11.217480324051293"><ele>530.0</ele><time>2026-04-04T12:46:57.187Z</time></trkpt><trkpt lat="45.6146006611214" lon="11.217509688549452"><ele>530.0</ele><time>2026-04-04T12:46:58.187Z</time></trkpt><trkpt lat="45.6144992228351" lon="11.217513828633475"><ele>530.0</ele><time>2026-04-04T12:46:59.187Z</time></trkpt><trkpt lat="45.61438879264454" lon="11.217493763539888"><ele>530.0</ele><time>2026-04-04T12:47:00.187Z</time></trkpt><trkpt lat="45.61427645644554" lon="11.217464236684648"><ele>530.0</ele><time>2026-04-04T12:47:01.187Z</time></trkpt><trkpt lat="45.614164377803384" lon="11.2174037279119"><ele>530.0</ele><time>2026-04-04T12:47:02.187Z</time></trkpt><trkpt lat="45.61405163968666" lon="11.217363186273992"><ele>526.6</ele><time>2026-04-04T12:47:03.187Z</time></trkpt><trkpt lat="45.61395012531075" lon="11.217320707692805"><ele>523.2</ele><time>2026-04-04T12:47:04.187Z</time></trkpt><trkpt lat="45.61387024739398" lon="11.217282437969219"><ele>519.8</ele><time>2026-04-04T12:47:05.187Z</time></trkpt><trkpt lat="45.613803542590496" lon="11.217204003445898"><ele>516.4</ele><time>2026-04-04T12:47:06.187Z</time></trkpt><trkpt lat="45.61373734356164" lon="11.21706443124592"><ele>513.0</ele><time>2026-04-04T12:47:07.187Z</time></trkpt><trkpt lat="45.613696990189204" lon="11.21688529559173"><ele>510.0</ele><time>2026-04-04T12:47:08.187Z</time></trkpt><trkpt lat="45.61365627915859" lon="11.216745201550843"><ele>507.0</ele><time>2026-04-04T12:47:09.187Z</time></trkpt><trkpt lat="45.61356255852506" lon="11.21665400393391"><ele>504.0</ele><time>2026-04-04T12:47:11.187Z</time></trkpt><trkpt lat="45.613524414034664" lon="11.21684142864338"><ele>501.0</ele><time>2026-04-04T12:47:13.187Z</time></trkpt><trkpt lat="45.61362265262328" lon="11.217001665610045"><ele>503.4</ele><time>2026-04-04T12:47:15.187Z</time></trkpt><trkpt lat="45.61373326523972" lon="11.217107079045098"><ele>505.8</ele><time>2026-04-04T12:47:16.187Z</time></trkpt><trkpt lat="45.61381769831581" lon="11.217199961236622"><ele>508.19999999999993</ele><time>2026-04-04T12:47:17.187Z</time></trkpt><trkpt lat="45.61389099465619" lon="11.217287863284257"><ele>510.59999999999997</ele><time>2026-04-04T12:47:18.187Z</time></trkpt><trkpt lat="45.6139538259975" lon="11.217390493755516"><ele>513.0</ele><time>2026-04-04T12:47:19.187Z</time></trkpt><trkpt lat="45.614026068370926" lon="11.217481380252481"><ele>513.0</ele><time>2026-04-04T12:47:20.187Z</time></trkpt><trkpt lat="45.614089476911765" lon="11.217573027917222"><ele>513.0</ele><time>2026-04-04T12:47:21.187Z</time></trkpt><trkpt lat="45.614140809001114" lon="11.217660452672137"><ele>513.0</ele><time>2026-04-04T12:47:22.187Z</time></trkpt><trkpt lat="45.614188537137544" lon="11.217747160814715"><ele>513.0</ele><time>2026-04-04T12:47:23.187Z</time></trkpt><trkpt lat="45.614249786317444" lon="11.217820044393134"><ele>513.0</ele><time>2026-04-04T12:47:24.187Z</time></trkpt><trkpt lat="45.614307765041715" lon="11.217898032807915"><ele>513.0</ele><time>2026-04-04T12:47:25.187Z</time></trkpt><trkpt lat="45.614361135451915" lon="11.21798024168138"><ele>513.0</ele><time>2026-04-04T12:47:26.187Z</time></trkpt><trkpt lat="45.614427256223" lon="11.218049755734617"><ele>513.0</ele><time>2026-04-04T12:47:27.187Z</time></trkpt><trkpt lat="45.614492648832844" lon="11.218136047335685"><ele>513.0</ele><time>2026-04-04T12:47:28.187Z</time></trkpt><trkpt lat="45.614571352822374" lon="11.218197333895562"><ele>513.0</ele><time>2026-04-04T12:47:29.187Z</time></trkpt><trkpt lat="45.61466532782575" lon="11.218235051792858"><ele>513.0</ele><time>2026-04-04T12:47:30.187Z</time></trkpt><trkpt lat="45.61475268017236" lon="11.218262467230623"><ele>513.0</ele><time>2026-04-04T12:47:31.187Z</time></trkpt><trkpt lat="45.614826022681115" lon="11.218307885478904"><ele>508.8333333333333</ele><time>2026-04-04T12:47:32.187Z</time></trkpt><trkpt lat="45.61489997224496" lon="11.218351308518342"><ele>504.66666666666663</ele><time>2026-04-04T12:47:33.187Z</time></trkpt><trkpt lat="45.614980224386066" lon="11.218397401621711"><ele>500.5</ele><time>2026-04-04T12:47:34.187Z</time></trkpt><trkpt lat="45.61507848994238" lon="11.218423608624374"><ele>496.3333333333333</ele><time>2026-04-04T12:47:35.187Z</time></trkpt><trkpt lat="45.61515892599778" lon="11.218464671120724"><ele>492.16666666666663</ele><time>2026-04-04T12:47:36.187Z</time></trkpt><trkpt lat="45.615244291152095" lon="11.21848707540965"><ele>488.0</ele><time>2026-04-04T12:47:37.187Z</time></trkpt><trkpt lat="45.61531931105293" lon="11.21853536315559"><ele>486.66666666666663</ele><time>2026-04-04T12:47:38.187Z</time></trkpt><trkpt lat="45.61538250192406" lon="11.218597322766865"><ele>485.3333333333333</ele><time>2026-04-04T12:47:39.187Z</time></trkpt><trkpt lat="45.61544804321498" lon="11.218656347821161"><ele>484.0</ele><time>2026-04-04T12:47:40.187Z</time></trkpt><trkpt lat="45.61550284835169" lon="11.218749577502752"><ele>482.66666666666663</ele><time>2026-04-04T12:47:41.187Z</time></trkpt><trkpt lat="45.615575257063306" lon="11.218857176509461"><ele>481.3333333333333</ele><time>2026-04-04T12:47:42.187Z</time></trkpt><trkpt lat="45.61561888442085" lon="11.21896049065873"><ele>480.0</ele><time>2026-04-04T12:47:43.187Z</time></trkpt><trkpt lat="45.615655317679085" lon="11.219061645075191"><ele>480.0</ele><time>2026-04-04T12:47:44.187Z</time></trkpt><trkpt lat="45.6156730790505" lon="11.219199888072863"><ele>480.0</ele><time>2026-04-04T12:47:46.187Z</time></trkpt><trkpt lat="45.61560742248778" lon="11.219241719709467"><ele>480.0</ele><time>2026-04-04T12:47:48.187Z</time></trkpt><trkpt lat="45.6155270477395" lon="11.219096828965226"><ele>480.0</ele><time>2026-04-04T12:47:50.187Z</time></trkpt><trkpt lat="45.615468712115906" lon="11.219021181186836"><ele>480.0</ele><time>2026-04-04T12:47:51.187Z</time></trkpt><trkpt lat="45.61537900344277" lon="11.218972150607758"><ele>481.3333333333333</ele><time>2026-04-04T12:47:52.187Z</time></trkpt><trkpt lat="45.615296619266225" lon="11.218971398518285"><ele>482.66666666666663</ele><time>2026-04-04T12:47:53.187Z</time></trkpt><trkpt lat="45.61519963108943" lon="11.218940977123122"><ele>484.0</ele><time>2026-04-04T12:47:54.187Z</time></trkpt><trkpt lat="45.61512363506255" lon="11.218922138644443"><ele>485.3333333333333</ele><time>2026-04-04T12:47:55.187Z</time></trkpt><trkpt lat="45.615058641198445" lon="11.218912070146377"><ele>486.66666666666663</ele><time>2026-04-04T12:47:56.187Z</time></trkpt><trkpt lat="45.614979048128184" lon="11.218933123206595"><ele>488.0</ele><time>2026-04-04T12:47:58.187Z</time></trkpt><trkpt lat="45.615009806471505" lon="11.219036884130725"><ele>479.25</ele><time>2026-04-04T12:48:00.187Z</time></trkpt><trkpt lat="45.615132108426316" lon="11.219109672011959"><ele>470.5</ele><time>2026-04-04T12:48:02.187Z</time></trkpt><trkpt lat="45.615201088928536" lon="11.219290572849461"><ele>461.75</ele><time>2026-04-04T12:48:04.187Z</time></trkpt><trkpt lat="45.61520343467184" lon="11.219480409871741"><ele>453.0</ele><time>2026-04-04T12:48:05.187Z</time></trkpt><trkpt lat="45.61520688103455" lon="11.219683126461494"><ele>450.59999999999997</ele><time>2026-04-04T12:48:06.187Z</time></trkpt><trkpt lat="45.61521433479803" lon="11.219855093253113"><ele>448.19999999999993</ele><time>2026-04-04T12:48:07.187Z</time></trkpt><trkpt lat="45.615224587716234" lon="11.220013329607559"><ele>445.8</ele><time>2026-04-04T12:48:08.187Z</time></trkpt><trkpt lat="45.61523529465891" lon="11.22013606819845"><ele>443.4</ele><time>2026-04-04T12:48:09.187Z</time></trkpt><trkpt lat="45.61524122515168" lon="11.220237768262075"><ele>441.0</ele><time>2026-04-04T12:48:10.187Z</time></trkpt><trkpt lat="45.615256799140525" lon="11.220347505686973"><ele>441.0</ele><time>2026-04-04T12:48:11.187Z</time></trkpt><trkpt lat="45.61528917103241" lon="11.220451772071414"><ele>441.0</ele><time>2026-04-04T12:48:12.187Z</time></trkpt><trkpt lat="45.615349523026595" lon="11.220525183169078"><ele>441.0</ele><time>2026-04-04T12:48:13.187Z</time></trkpt><trkpt lat="45.61542400399963" lon="11.22058096884969"><ele>441.0</ele><time>2026-04-04T12:48:14.187Z</time></trkpt><trkpt lat="45.615482360283096" lon="11.220639020839933"><ele>441.0</ele><time>2026-04-04T12:48:15.187Z</time></trkpt><trkpt lat="45.6155714955169" lon="11.220650753982866"><ele>441.0</ele><time>2026-04-04T12:48:16.187Z</time></trkpt><trkpt lat="45.61567239145312" lon="11.22069615892336"><ele>438.0</ele><time>2026-04-04T12:48:17.187Z</time></trkpt><trkpt lat="45.61578141098085" lon="11.220770376091071"><ele>435.0</ele><time>2026-04-04T12:48:18.187Z</time></trkpt><trkpt lat="45.615882532461036" lon="11.220852417692289"><ele>432.0</ele><time>2026-04-04T12:48:19.187Z</time></trkpt><trkpt lat="45.61598050656564" lon="11.220953324514424"><ele>429.0</ele><time>2026-04-04T12:48:20.187Z</time></trkpt><trkpt lat="45.61608994972013" lon="11.221013052556918"><ele>429.0</ele><time>2026-04-04T12:48:21.187Z</time></trkpt><trkpt lat="45.61615313056922" lon="11.221091095220402"><ele>429.0</ele><time>2026-04-04T12:48:22.187Z</time></trkpt><trkpt lat="45.616220748741284" lon="11.221161865036125"><ele>429.0</ele><time>2026-04-04T12:48:23.187Z</time></trkpt><trkpt lat="45.616283643645424" lon="11.22123845908357"><ele>429.0</ele><time>2026-04-04T12:48:24.187Z</time></trkpt><trkpt lat="45.61633187800503" lon="11.221324786799709"><ele>429.0</ele><time>2026-04-04T12:48:25.187Z</time></trkpt><trkpt lat="45.616365224845964" lon="11.221451918760279"><ele>429.0</ele><time>2026-04-04T12:48:26.188Z</time></trkpt><trkpt lat="45.61639112364643" lon="11.221607120514312"><ele>427.2</ele><time>2026-04-04T12:48:27.188Z</time></trkpt><trkpt lat="45.61641164922009" lon="11.221754357851776"><ele>425.4</ele><time>2026-04-04T12:48:28.188Z</time></trkpt><trkpt lat="45.61646581877491" lon="11.221871078766833"><ele>423.6</ele><time>2026-04-04T12:48:29.188Z</time></trkpt><trkpt lat="45.616547111498086" lon="11.221985450056431"><ele>421.8</ele><time>2026-04-04T12:48:30.188Z</time></trkpt><trkpt lat="45.61665545146874" lon="11.22208803978834"><ele>420.0</ele><time>2026-04-04T12:48:31.188Z</time></trkpt><trkpt lat="45.616749047503674" lon="11.22219612837069"><ele>420.0</ele><time>2026-04-04T12:48:32.188Z</time></trkpt><trkpt lat="45.61683279369909" lon="11.222285974892909"><ele>420.0</ele><time>2026-04-04T12:48:33.188Z</time></trkpt><trkpt lat="45.61690006795586" lon="11.222356525897466"><ele>420.0</ele><time>2026-04-04T12:48:34.188Z</time></trkpt><trkpt lat="45.6169925448985" lon="11.22243073421466"><ele>420.0</ele><time>2026-04-04T12:48:35.188Z</time></trkpt><trkpt lat="45.61705942470154" lon="11.222505008944971"><ele>420.0</ele><time>2026-04-04T12:48:36.188Z</time></trkpt><trkpt lat="45.6171704260244" lon="11.222504168245711"><ele>416.8</ele><time>2026-04-04T12:48:38.188Z</time></trkpt><trkpt lat="45.617285488537696" lon="11.222435414400923"><ele>413.6</ele><time>2026-04-04T12:48:39.188Z</time></trkpt><trkpt lat="45.61738736870303" lon="11.222369658678886"><ele>410.4</ele><time>2026-04-04T12:48:40.188Z</time></trkpt><trkpt lat="45.617494646150355" lon="11.222346596959046"><ele>407.2</ele><time>2026-04-04T12:48:41.188Z</time></trkpt><trkpt lat="45.61759134331025" lon="11.22235740906652"><ele>404.0</ele><time>2026-04-04T12:48:42.188Z</time></trkpt><trkpt lat="45.61768486465355" lon="11.222408224478045"><ele>404.0</ele><time>2026-04-04T12:48:43.188Z</time></trkpt><trkpt lat="45.617762846318215" lon="11.222451209050146"><ele>404.0</ele><time>2026-04-04T12:48:44.188Z</time></trkpt><trkpt lat="45.61781319739123" lon="11.22251335810449"><ele>404.0</ele><time>2026-04-04T12:48:45.188Z</time></trkpt><trkpt lat="45.617940779440026" lon="11.22255732734729"><ele>404.0</ele><time>2026-04-04T12:48:47.188Z</time></trkpt><trkpt lat="45.61804514908368" lon="11.222507192932522"><ele>404.0</ele><time>2026-04-04T12:48:48.188Z</time></trkpt><trkpt lat="45.61814225739974" lon="11.222529027683915"><ele>402.2</ele><time>2026-04-04T12:48:49.188Z</time></trkpt><trkpt lat="45.61823794287376" lon="11.222534229359413"><ele>400.4</ele><time>2026-04-04T12:48:50.188Z</time></trkpt><trkpt lat="45.61833832906301" lon="11.22254081734482"><ele>398.6</ele><time>2026-04-04T12:48:51.188Z</time></trkpt><trkpt lat="45.61843449398385" lon="11.222599210030122"><ele>396.8</ele><time>2026-04-04T12:48:52.188Z</time></trkpt><trkpt lat="45.61853178566595" lon="11.222621081853848"><ele>395.0</ele><time>2026-04-04T12:48:53.188Z</time></trkpt><trkpt lat="45.61862854388512" lon="11.22261504146191"><ele>393.49999999999994</ele><time>2026-04-04T12:48:54.188Z</time></trkpt><trkpt lat="45.61870709317015" lon="11.222614093343918"><ele>392.0</ele><time>2026-04-04T12:48:55.188Z</time></trkpt><trkpt lat="45.61877072870741" lon="11.222597525204504"><ele>390.5</ele><time>2026-04-04T12:48:56.188Z</time></trkpt><trkpt lat="45.618853655428865" lon="11.222549747680187"><ele>389.0</ele><time>2026-04-04T12:48:58.188Z</time></trkpt><trkpt lat="45.61888122528155" lon="11.222452825305009"><ele>387.49999999999994</ele><time>2026-04-04T12:48:59.188Z</time></trkpt><trkpt lat="45.618885789807955" lon="11.222310058598936"><ele>386.0</ele><time>2026-04-04T12:49:00.188Z</time></trkpt><trkpt lat="45.618866845900584" lon="11.222159111297822"><ele>385.99999999999994</ele><time>2026-04-04T12:49:01.188Z</time></trkpt><trkpt lat="45.61885690890192" lon="11.222059126691656"><ele>386.0</ele><time>2026-04-04T12:49:02.188Z</time></trkpt><trkpt lat="45.61885383582835" lon="11.221954334055502"><ele>386.0</ele><time>2026-04-04T12:49:03.188Z</time></trkpt><trkpt lat="45.61890645198914" lon="11.221838305417606"><ele>386.0</ele><time>2026-04-04T12:49:04.188Z</time></trkpt><trkpt lat="45.61896037235168" lon="11.221738782932546"><ele>385.99999999999994</ele><time>2026-04-04T12:49:05.188Z</time></trkpt><trkpt lat="45.61902397929583" lon="11.221652352556253"><ele>386.0</ele><time>2026-04-04T12:49:06.188Z</time></trkpt><trkpt lat="45.61910012371756" lon="11.221552661798254"><ele>389.8333333333333</ele><time>2026-04-04T12:49:07.188Z</time></trkpt><trkpt lat="45.619156418631675" lon="11.221461970127958"><ele>393.66666666666663</ele><time>2026-04-04T12:49:08.188Z</time></trkpt><trkpt lat="45.619197516247326" lon="11.221355640685221"><ele>397.5</ele><time>2026-04-04T12:49:09.188Z</time></trkpt><trkpt lat="45.61925242451182" lon="11.221266171108438"><ele>401.33333333333337</ele><time>2026-04-04T12:49:10.188Z</time></trkpt><trkpt lat="45.619290125583426" lon="11.221165243401764"><ele>405.1666666666667</ele><time>2026-04-04T12:49:12.188Z</time></trkpt><trkpt lat="45.61930280335636" lon="11.221257482911158"><ele>409.0</ele><time>2026-04-04T12:49:15.188Z</time></trkpt><trkpt lat="45.61926299985373" lon="11.221343719769283"><ele>404.4</ele><time>2026-04-04T12:49:16.188Z</time></trkpt><trkpt lat="45.61919224803594" lon="11.221551845509502"><ele>399.79999999999995</ele><time>2026-04-04T12:49:17.188Z</time></trkpt><trkpt lat="45.61916749849871" lon="11.221665993036932"><ele>395.20000000000005</ele><time>2026-04-04T12:49:18.188Z</time></trkpt><trkpt lat="45.6191776301502" lon="11.221763860772244"><ele>390.6</ele><time>2026-04-04T12:49:19.188Z</time></trkpt><trkpt lat="45.619139098256454" lon="11.221892948330064"><ele>386.0</ele><time>2026-04-04T12:49:21.188Z</time></trkpt><trkpt lat="45.619170326990236" lon="11.221981363744073"><ele>386.0</ele><time>2026-04-04T12:49:22.188Z</time></trkpt><trkpt lat="45.619242650669804" lon="11.222050113710441"><ele>386.0</ele><time>2026-04-04T12:49:23.188Z</time></trkpt><trkpt lat="45.619327217473206" lon="11.222150400029593"><ele>386.0</ele><time>2026-04-04T12:49:24.188Z</time></trkpt><trkpt lat="45.619393268906386" lon="11.222214073982082"><ele>386.0</ele><time>2026-04-04T12:49:25.188Z</time></trkpt><trkpt lat="45.6194610562574" lon="11.222283991506915"><ele>386.0</ele><time>2026-04-04T12:49:26.188Z</time></trkpt><trkpt lat="45.6195068174775" lon="11.222395947035583"><ele>382.49999999999994</ele><time>2026-04-04T12:49:27.188Z</time></trkpt><trkpt lat="45.61954486558383" lon="11.222495960924748"><ele>379.0</ele><time>2026-04-04T12:49:28.188Z</time></trkpt><trkpt lat="45.61960015485473" lon="11.222598974586397"><ele>375.5</ele><time>2026-04-04T12:49:30.188Z</time></trkpt><trkpt lat="45.619588551221256" lon="11.22272987728032"><ele>372.0</ele><time>2026-04-04T12:49:31.188Z</time></trkpt><trkpt lat="45.61954862269998" lon="11.222803157440895"><ele>368.5</ele><time>2026-04-04T12:49:32.188Z</time></trkpt><trkpt lat="45.619467860832124" lon="11.222872453172508"><ele>365.0</ele><time>2026-04-04T12:49:33.188Z</time></trkpt><trkpt lat="45.61937379701777" lon="11.222899469765466"><ele>365.0</ele><time>2026-04-04T12:49:34.188Z</time></trkpt><trkpt lat="45.619262378411484" lon="11.222941888667545"><ele>365.0</ele><time>2026-04-04T12:49:35.188Z</time></trkpt><trkpt lat="45.6191693670379" lon="11.222984732878734"><ele>365.0</ele><time>2026-04-04T12:49:36.188Z</time></trkpt><trkpt lat="45.619079148768606" lon="11.223088973126805"><ele>365.0</ele><time>2026-04-04T12:49:37.188Z</time></trkpt><trkpt lat="45.61897356198458" lon="11.223242164122599"><ele>367.25</ele><time>2026-04-04T12:49:38.188Z</time></trkpt><trkpt lat="45.61887070655956" lon="11.223403704598768"><ele>369.5</ele><time>2026-04-04T12:49:39.188Z</time></trkpt><trkpt lat="45.61878779575746" lon="11.223563343853181"><ele>371.75</ele><time>2026-04-04T12:49:40.188Z</time></trkpt><trkpt lat="45.61868670917337" lon="11.223707989687837"><ele>374.0</ele><time>2026-04-04T12:49:41.188Z</time></trkpt><trkpt lat="45.61862328917495" lon="11.223854578534931"><ele>368.6</ele><time>2026-04-04T12:49:42.188Z</time></trkpt><trkpt lat="45.61856697867803" lon="11.223999299823037"><ele>363.2</ele><time>2026-04-04T12:49:43.188Z</time></trkpt><trkpt lat="45.61851595871493" lon="11.224145716457153"><ele>357.8</ele><time>2026-04-04T12:49:44.188Z</time></trkpt><trkpt lat="45.6184685503404" lon="11.224275215629124"><ele>352.40000000000003</ele><time>2026-04-04T12:49:45.188Z</time></trkpt><trkpt lat="45.61839283392769" lon="11.224394554640822"><ele>347.0</ele><time>2026-04-04T12:49:46.188Z</time></trkpt><trkpt lat="45.61830605794519" lon="11.224526832776066"><ele>347.0</ele><time>2026-04-04T12:49:47.188Z</time></trkpt><trkpt lat="45.618229289231984" lon="11.22462648471976"><ele>347.0</ele><time>2026-04-04T12:49:48.188Z</time></trkpt><trkpt lat="45.61811729966736" lon="11.224779178609955"><ele>347.0</ele><time>2026-04-04T12:49:49.188Z</time></trkpt><trkpt lat="45.61801082115954" lon="11.224908828962606"><ele>347.0</ele><time>2026-04-04T12:49:50.188Z</time></trkpt><trkpt lat="45.61793571702975" lon="11.225046390422433"><ele>344.75</ele><time>2026-04-04T12:49:51.188Z</time></trkpt><trkpt lat="45.617858123928826" lon="11.225190942295098"><ele>342.5</ele><time>2026-04-04T12:49:52.188Z</time></trkpt><trkpt lat="45.61780069752624" lon="11.225322591094816"><ele>340.25</ele><time>2026-04-04T12:49:53.188Z</time></trkpt><trkpt lat="45.6177094724971" lon="11.225436498543099"><ele>338.0</ele><time>2026-04-04T12:49:54.188Z</time></trkpt><trkpt lat="45.61762958120307" lon="11.225571599743407"><ele>336.75</ele><time>2026-04-04T12:49:55.188Z</time></trkpt><trkpt lat="45.61758078690196" lon="11.225752572162962"><ele>335.5</ele><time>2026-04-04T12:49:56.188Z</time></trkpt><trkpt lat="45.61753852070057" lon="11.225926966339014"><ele>334.25</ele><time>2026-04-04T12:49:57.188Z</time></trkpt><trkpt lat="45.617507834646496" lon="11.226083509096707"><ele>333.0</ele><time>2026-04-04T12:49:58.188Z</time></trkpt><trkpt lat="45.6174814125897" lon="11.226245922936808"><ele>333.0</ele><time>2026-04-04T12:49:59.188Z</time></trkpt><trkpt lat="45.61744089951798" lon="11.226420834753357"><ele>333.0</ele><time>2026-04-04T12:50:00.188Z</time></trkpt><trkpt lat="45.6174110177744" lon="11.226590782598045"><ele>333.0</ele><time>2026-04-04T12:50:01.188Z</time></trkpt><trkpt lat="45.61737355214685" lon="11.226753649723614"><ele>333.0</ele><time>2026-04-04T12:50:02.188Z</time></trkpt><trkpt lat="45.61732807199903" lon="11.226935295471618"><ele>332.0</ele><time>2026-04-04T12:50:03.188Z</time></trkpt><trkpt lat="45.617263427250435" lon="11.227117578702433"><ele>331.0</ele><time>2026-04-04T12:50:04.188Z</time></trkpt><trkpt lat="45.61719257595498" lon="11.227289064241495"><ele>330.0</ele><time>2026-04-04T12:50:05.188Z</time></trkpt><trkpt lat="45.61712720853797" lon="11.227450542673594"><ele>329.0</ele><time>2026-04-04T12:50:06.188Z</time></trkpt><trkpt lat="45.617056382878495" lon="11.227595847030596"><ele>328.0</ele><time>2026-04-04T12:50:07.188Z</time></trkpt><trkpt lat="45.61697053217086" lon="11.227719014911562"><ele>327.0</ele><time>2026-04-04T12:50:08.188Z</time></trkpt><trkpt lat="45.61687925397066" lon="11.22784074272096"><ele>326.0</ele><time>2026-04-04T12:50:09.188Z</time></trkpt><trkpt lat="45.61678932915344" lon="11.227932100054485"><ele>325.0</ele><time>2026-04-04T12:50:10.188Z</time></trkpt><trkpt lat="45.616705721751444" lon="11.22803250929327"><ele>325.0</ele><time>2026-04-04T12:50:11.188Z</time></trkpt><trkpt lat="45.616642165200226" lon="11.228147131040046"><ele>325.0</ele><time>2026-04-04T12:50:12.188Z</time></trkpt><trkpt lat="45.61659160694017" lon="11.228253423123297"><ele>325.0</ele><time>2026-04-04T12:50:13.188Z</time></trkpt><trkpt lat="45.61656365884574" lon="11.228371827583837"><ele>325.0</ele><time>2026-04-04T12:50:14.188Z</time></trkpt><trkpt lat="45.61657046773336" lon="11.228486677423355"><ele>325.0</ele><time>2026-04-04T12:50:15.188Z</time></trkpt><trkpt lat="45.61659696281392" lon="11.228596649800869"><ele>325.0</ele><time>2026-04-04T12:50:16.188Z</time></trkpt><trkpt lat="45.61664922439228" lon="11.228686868115313"><ele>325.0</ele><time>2026-04-04T12:50:17.188Z</time></trkpt><trkpt lat="45.61673171337978" lon="11.228762642507125"><ele>325.0</ele><time>2026-04-04T12:50:18.188Z</time></trkpt><trkpt lat="45.61683150242678" lon="11.22880404208549"><ele>325.0</ele><time>2026-04-04T12:50:19.188Z</time></trkpt><trkpt lat="45.616892737509964" lon="11.228839529370914"><ele>325.0</ele><time>2026-04-04T12:50:20.188Z</time></trkpt><trkpt lat="45.61694374315282" lon="11.22895196306658"><ele>325.0</ele><time>2026-04-04T12:50:23.188Z</time></trkpt><trkpt lat="45.616963162383946" lon="11.229058468318769"><ele>325.0</ele><time>2026-04-04T12:50:24.188Z</time></trkpt><trkpt lat="45.61684984928155" lon="11.229185183369053"><ele>325.5</ele><time>2026-04-04T12:50:25.188Z</time></trkpt><trkpt lat="45.61678081830439" lon="11.229296413618277"><ele>326.0</ele><time>2026-04-04T12:50:26.188Z</time></trkpt><trkpt lat="45.61667559081609" lon="11.22947415310154"><ele>326.5</ele><time>2026-04-04T12:50:27.188Z</time></trkpt><trkpt lat="45.61656725716844" lon="11.229682380086754"><ele>327.0</ele><time>2026-04-04T12:50:28.188Z</time></trkpt><trkpt lat="45.61645701670654" lon="11.2298811926105"><ele>326.25</ele><time>2026-04-04T12:50:29.188Z</time></trkpt><trkpt lat="45.61636298528245" lon="11.230063356753528"><ele>325.5</ele><time>2026-04-04T12:50:30.188Z</time></trkpt><trkpt lat="45.61626150036112" lon="11.23022094726678"><ele>324.75</ele><time>2026-04-04T12:50:31.188Z</time></trkpt><trkpt lat="45.616173697694975" lon="11.23036761943082"><ele>324.0</ele><time>2026-04-04T12:50:32.189Z</time></trkpt><trkpt lat="45.61606875904407" lon="11.23051485841052"><ele>328.3333333333333</ele><time>2026-04-04T12:50:33.189Z</time></trkpt><trkpt lat="45.6159431546817" lon="11.23066276053877"><ele>332.66666666666663</ele><time>2026-04-04T12:50:34.189Z</time></trkpt><trkpt lat="45.61578330038531" lon="11.230814724311369"><ele>337.0</ele><time>2026-04-04T12:50:35.189Z</time></trkpt><trkpt lat="45.61558328034168" lon="11.23097822327382"><ele>337.0</ele><time>2026-04-04T12:50:36.189Z</time></trkpt><trkpt lat="45.615390508948266" lon="11.231139538906815"><ele>337.0</ele><time>2026-04-04T12:50:37.189Z</time></trkpt><trkpt lat="45.61520716097746" lon="11.231292440895645"><ele>337.0</ele><time>2026-04-04T12:50:38.189Z</time></trkpt><trkpt lat="45.61503353536035" lon="11.231444118009351"><ele>335.0</ele><time>2026-04-04T12:50:39.189Z</time></trkpt><trkpt lat="45.61485864386415" lon="11.23156199936954"><ele>333.0</ele><time>2026-04-04T12:50:40.189Z</time></trkpt><trkpt lat="45.61470667889447" lon="11.231676980150073"><ele>331.0</ele><time>2026-04-04T12:50:41.189Z</time></trkpt><trkpt lat="45.614524444413" lon="11.23179184170256"><ele>327.0</ele><time>2026-04-04T12:50:42.189Z</time></trkpt><trkpt lat="45.614389015878935" lon="11.231909822313177"><ele>323.0</ele><time>2026-04-04T12:50:43.189Z</time></trkpt><trkpt lat="45.61424916498941" lon="11.232016127840652"><ele>319.0</ele><time>2026-04-04T12:50:44.189Z</time></trkpt><trkpt lat="45.61411805439367" lon="11.232118759899969"><ele>319.0</ele><time>2026-04-04T12:50:45.189Z</time></trkpt><trkpt lat="45.61399908653004" lon="11.232224654602339"><ele>319.0</ele><time>2026-04-04T12:50:46.189Z</time></trkpt><trkpt lat="45.61388413591871" lon="11.232333393484126"><ele>319.0</ele><time>2026-04-04T12:50:47.189Z</time></trkpt><trkpt lat="45.61376154745434" lon="11.232469038897118"><ele>319.0</ele><time>2026-04-04T12:50:48.189Z</time></trkpt><trkpt lat="45.61362790815494" lon="11.232640900219378"><ele>319.0</ele><time>2026-04-04T12:50:49.189Z</time></trkpt><trkpt lat="45.613490018321095" lon="11.232855206750214"><ele>319.0</ele><time>2026-04-04T12:50:50.189Z</time></trkpt><trkpt lat="45.61333099700207" lon="11.233106750244525"><ele>319.0</ele><time>2026-04-04T12:50:51.189Z</time></trkpt><trkpt lat="45.61317056168511" lon="11.233380897949345"><ele>319.0</ele><time>2026-04-04T12:50:52.189Z</time></trkpt><trkpt lat="45.613022296720686" lon="11.233597051356996"><ele>319.0</ele><time>2026-04-04T12:50:53.189Z</time></trkpt><trkpt lat="45.61289540670014" lon="11.233792311504375"><ele>319.0</ele><time>2026-04-04T12:50:54.189Z</time></trkpt><trkpt lat="45.612775997881194" lon="11.233978604186822"><ele>317.3333333333333</ele><time>2026-04-04T12:50:55.189Z</time></trkpt><trkpt lat="45.612664564718884" lon="11.234152097433848"><ele>315.6666666666667</ele><time>2026-04-04T12:50:56.189Z</time></trkpt><trkpt lat="45.612546847379605" lon="11.234305605379692"><ele>314.0</ele><time>2026-04-04T12:50:57.189Z</time></trkpt><trkpt lat="45.61240405179654" lon="11.234452491140383"><ele>314.0</ele><time>2026-04-04T12:50:58.189Z</time></trkpt><trkpt lat="45.612237779884076" lon="11.234597321140111"><ele>314.0</ele><time>2026-04-04T12:50:59.189Z</time></trkpt><trkpt lat="45.61206854848124" lon="11.23474710485469"><ele>314.0</ele><time>2026-04-04T12:51:00.189Z</time></trkpt><trkpt lat="45.61192871449703" lon="11.234878414630654"><ele>313.0</ele><time>2026-04-04T12:51:01.189Z</time></trkpt><trkpt lat="45.61180680377514" lon="11.23500057462804"><ele>312.0</ele><time>2026-04-04T12:51:02.189Z</time></trkpt><trkpt lat="45.61170161326875" lon="11.235121429054715"><ele>311.0</ele><time>2026-04-04T12:51:03.189Z</time></trkpt><trkpt lat="45.61158948095489" lon="11.235273691880199"><ele>310.0</ele><time>2026-04-04T12:51:04.189Z</time></trkpt><trkpt lat="45.61148261386565" lon="11.23546323384277"><ele>311.3333333333333</ele><time>2026-04-04T12:51:05.189Z</time></trkpt><trkpt lat="45.61138995477158" lon="11.235692845866003"><ele>312.6666666666667</ele><time>2026-04-04T12:51:06.189Z</time></trkpt><trkpt lat="45.61130232057073" lon="11.235972781386483"><ele>314.0</ele><time>2026-04-04T12:51:07.189Z</time></trkpt><trkpt lat="45.611217003427164" lon="11.236203834347068"><ele>313.75</ele><time>2026-04-04T12:51:08.189Z</time></trkpt><trkpt lat="45.6111395665672" lon="11.236394886123911"><ele>313.5</ele><time>2026-04-04T12:51:09.189Z</time></trkpt><trkpt lat="45.611079379630624" lon="11.236570269326725"><ele>313.25</ele><time>2026-04-04T12:51:10.189Z</time></trkpt><trkpt lat="45.61102631109841" lon="11.23672354362798"><ele>313.0</ele><time>2026-04-04T12:51:11.189Z</time></trkpt><trkpt lat="45.61097537165873" lon="11.236861772992565"><ele>312.3333333333333</ele><time>2026-04-04T12:51:12.189Z</time></trkpt><trkpt lat="45.61093078341563" lon="11.23697439496431"><ele>311.66666666666663</ele><time>2026-04-04T12:51:13.189Z</time></trkpt><trkpt lat="45.61089103434502" lon="11.23707235522097"><ele>311.0</ele><time>2026-04-04T12:51:14.189Z</time></trkpt><trkpt lat="45.61085412477644" lon="11.237166883927143"><ele>310.3333333333333</ele><time>2026-04-04T12:51:15.189Z</time></trkpt><trkpt lat="45.61082509828411" lon="11.237251772541498"><ele>309.6666666666667</ele><time>2026-04-04T12:51:16.189Z</time></trkpt><trkpt lat="45.610788221919485" lon="11.237377377401849"><ele>309.0</ele><time>2026-04-04T12:51:18.189Z</time></trkpt><trkpt lat="45.61080472423017" lon="11.237283385941792"><ele>309.0</ele><time>2026-04-04T12:52:17.189Z</time></trkpt><trkpt lat="45.610800705953196" lon="11.237191266214545"><ele>309.0</ele><time>2026-04-04T12:52:24.189Z</time></trkpt><trkpt lat="45.61072725806933" lon="11.237172586853838"><ele>309.0</ele><time>2026-04-04T12:52:27.189Z</time></trkpt><trkpt lat="45.61076354" lon="11.23734378"><ele>308.0</ele><time>2026-04-04T12:52:41.377Z</time></trkpt></trkseg><trkseg><trkpt lat="45.6107962235333" lon="11.237478019819909"><ele>308.0</ele><time>2026-04-04T13:58:41.287Z</time></trkpt><trkpt lat="45.61088433111101" lon="11.23736166719565"><ele>308.0</ele><time>2026-04-04T13:58:54.218Z</time></trkpt><trkpt lat="45.61083439682631" lon="11.237454957283882"><ele>308.0</ele><time>2026-04-04T13:58:57.218Z</time></trkpt><trkpt lat="45.6107624209192" lon="11.237581776783427"><ele>308.0</ele><time>2026-04-04T13:58:58.218Z</time></trkpt><trkpt lat="45.61065111070253" lon="11.237825074109537"><ele>308.0</ele><time>2026-04-04T13:58:59.218Z</time></trkpt><trkpt lat="45.61052059969935" lon="11.238065141166235"><ele>308.0</ele><time>2026-04-04T13:59:00.218Z</time></trkpt><trkpt lat="45.610442386302495" lon="11.238222441979795"><ele>308.0</ele><time>2026-04-04T13:59:01.218Z</time></trkpt><trkpt lat="45.6103297850611" lon="11.238454526493403"><ele>307.5</ele><time>2026-04-04T13:59:02.218Z</time></trkpt><trkpt lat="45.610207098959975" lon="11.238783731683132"><ele>307.0</ele><time>2026-04-04T13:59:03.218Z</time></trkpt><trkpt lat="45.61004597327383" lon="11.239002811655993"><ele>305.66666666666663</ele><time>2026-04-04T13:59:04.218Z</time></trkpt><trkpt lat="45.609914412692056" lon="11.239229635665737"><ele>304.3333333333333</ele><time>2026-04-04T13:59:05.218Z</time></trkpt><trkpt lat="45.60981997941535" lon="11.239424804243262"><ele>303.0</ele><time>2026-04-04T13:59:06.218Z</time></trkpt><trkpt lat="45.60971615967417" lon="11.239602852285119"><ele>303.0</ele><time>2026-04-04T13:59:07.218Z</time></trkpt><trkpt lat="45.6096202031861" lon="11.239752544157277"><ele>303.0</ele><time>2026-04-04T13:59:08.218Z</time></trkpt><trkpt lat="45.6095370931341" lon="11.239876294343595"><ele>303.0</ele><time>2026-04-04T13:59:09.218Z</time></trkpt><trkpt lat="45.60947060411136" lon="11.239967485242193"><ele>303.0</ele><time>2026-04-04T13:59:10.218Z</time></trkpt><trkpt lat="45.60936981574459" lon="11.240063198706661"><ele>302.0</ele><time>2026-04-04T13:59:11.218Z</time></trkpt><trkpt lat="45.60926451367224" lon="11.240210367231683"><ele>301.0</ele><time>2026-04-04T13:59:12.218Z</time></trkpt><trkpt lat="45.609127181929196" lon="11.240332351199594"><ele>300.0</ele><time>2026-04-04T13:59:13.218Z</time></trkpt><trkpt lat="45.60900250143072" lon="11.24042952265939"><ele>300.0</ele><time>2026-04-04T13:59:14.218Z</time></trkpt><trkpt lat="45.60879060568008" lon="11.240452241271333"><ele>300.0</ele><time>2026-04-04T13:59:15.218Z</time></trkpt><trkpt lat="45.608584083183224" lon="11.240529019819453"><ele>300.0</ele><time>2026-04-04T13:59:16.218Z</time></trkpt><trkpt lat="45.60839148614527" lon="11.240587630166763"><ele>299.5</ele><time>2026-04-04T13:59:17.218Z</time></trkpt><trkpt lat="45.60822187298405" lon="11.240619895988745"><ele>299.0</ele><time>2026-04-04T13:59:18.218Z</time></trkpt><trkpt lat="45.60807211919219" lon="11.240673926992674"><ele>298.5</ele><time>2026-04-04T13:59:19.218Z</time></trkpt><trkpt lat="45.60795954073821" lon="11.240709837807753"><ele>298.0</ele><time>2026-04-04T13:59:20.218Z</time></trkpt><trkpt lat="45.60785764191829" lon="11.240693977288734"><ele>298.0</ele><time>2026-04-04T13:59:21.218Z</time></trkpt><trkpt lat="45.607715092485606" lon="11.240628559243918"><ele>298.0</ele><time>2026-04-04T13:59:22.218Z</time></trkpt><trkpt lat="45.607586799823814" lon="11.240574227993843"><ele>298.0</ele><time>2026-04-04T13:59:23.218Z</time></trkpt><trkpt lat="45.607462813056536" lon="11.240437715721438"><ele>298.0</ele><time>2026-04-04T13:59:24.218Z</time></trkpt><trkpt lat="45.60734837200324" lon="11.240320033188054"><ele>298.0</ele><time>2026-04-04T13:59:25.218Z</time></trkpt><trkpt lat="45.6071849394864" lon="11.240170771043692"><ele>298.0</ele><time>2026-04-04T13:59:26.218Z</time></trkpt><trkpt lat="45.6069749701048" lon="11.240038406760663"><ele>298.0</ele><time>2026-04-04T13:59:27.218Z</time></trkpt><trkpt lat="45.60681178580872" lon="11.239959378780169"><ele>299.3333333333333</ele><time>2026-04-04T13:59:28.218Z</time></trkpt><trkpt lat="45.60663337531349" lon="11.239887321188528"><ele>300.6666666666667</ele><time>2026-04-04T13:59:29.218Z</time></trkpt><trkpt lat="45.60646667256196" lon="11.239797545236147"><ele>302.0</ele><time>2026-04-04T13:59:30.218Z</time></trkpt><trkpt lat="45.60636534444644" lon="11.239779022585646"><ele>301.0</ele><time>2026-04-04T13:59:31.218Z</time></trkpt><trkpt lat="45.60626722145485" lon="11.239776478147974"><ele>300.0</ele><time>2026-04-04T13:59:32.218Z</time></trkpt><trkpt lat="45.60613674762703" lon="11.23986789273998"><ele>299.0</ele><time>2026-04-04T13:59:33.218Z</time></trkpt><trkpt lat="45.6059276832934" lon="11.239957417622602"><ele>299.0</ele><time>2026-04-04T13:59:34.218Z</time></trkpt><trkpt lat="45.60573440941775" lon="11.240103510559388"><ele>299.0</ele><time>2026-04-04T13:59:35.218Z</time></trkpt><trkpt lat="45.60553767510434" lon="11.24026394859063"><ele>299.0</ele><time>2026-04-04T13:59:36.218Z</time></trkpt><trkpt lat="45.60533765958604" lon="11.240373830301692"><ele>299.33333333333337</ele><time>2026-04-04T13:59:37.218Z</time></trkpt><trkpt lat="45.60515510469566" lon="11.240468807315601"><ele>299.6666666666667</ele><time>2026-04-04T13:59:38.218Z</time></trkpt><trkpt lat="45.604988452762214" lon="11.240554514859497"><ele>300.0</ele><time>2026-04-04T13:59:39.218Z</time></trkpt><trkpt lat="45.60480356341584" lon="11.240632653413574"><ele>300.6666666666667</ele><time>2026-04-04T13:59:40.218Z</time></trkpt><trkpt lat="45.60460392529564" lon="11.240693182099523"><ele>301.33333333333337</ele><time>2026-04-04T13:59:41.218Z</time></trkpt><trkpt lat="45.60443436807202" lon="11.24070459661892"><ele>302.0</ele><time>2026-04-04T13:59:42.218Z</time></trkpt><trkpt lat="45.60426678084956" lon="11.240729163664085"><ele>302.0</ele><time>2026-04-04T13:59:43.218Z</time></trkpt><trkpt lat="45.60409132014845" lon="11.24074189832712"><ele>302.0</ele><time>2026-04-04T13:59:44.218Z</time></trkpt><trkpt lat="45.603930933205426" lon="11.240747985662486"><ele>302.0</ele><time>2026-04-04T13:59:45.218Z</time></trkpt><trkpt lat="45.60381857243731" lon="11.240834126624422"><ele>304.33333333333337</ele><time>2026-04-04T13:59:46.218Z</time></trkpt><trkpt lat="45.6036551896539" lon="11.240885956862142"><ele>306.6666666666667</ele><time>2026-04-04T13:59:47.218Z</time></trkpt><trkpt lat="45.60354285456559" lon="11.241112676662192"><ele>309.0</ele><time>2026-04-04T13:59:48.218Z</time></trkpt><trkpt lat="45.60338458939456" lon="11.241222200924664"><ele>309.0</ele><time>2026-04-04T13:59:49.218Z</time></trkpt><trkpt lat="45.603236219175564" lon="11.24131390268964"><ele>309.0</ele><time>2026-04-04T13:59:50.218Z</time></trkpt><trkpt lat="45.60308133132952" lon="11.241399886616234"><ele>309.0</ele><time>2026-04-04T13:59:51.218Z</time></trkpt><trkpt lat="45.602935150890836" lon="11.241478368693219"><ele>306.25</ele><time>2026-04-04T13:59:52.218Z</time></trkpt><trkpt lat="45.602789337258066" lon="11.241538737747673"><ele>303.5</ele><time>2026-04-04T13:59:53.218Z</time></trkpt><trkpt lat="45.602646826228316" lon="11.241595496072645"><ele>300.75</ele><time>2026-04-04T13:59:54.218Z</time></trkpt><trkpt lat="45.60250631481914" lon="11.241602612641252"><ele>298.0</ele><time>2026-04-04T13:59:55.218Z</time></trkpt><trkpt lat="45.60240244209419" lon="11.241694638611634"><ele>298.0</ele><time>2026-04-04T13:59:56.218Z</time></trkpt><trkpt lat="45.60237925032433" lon="11.241898335903281"><ele>298.0</ele><time>2026-04-04T13:59:57.218Z</time></trkpt><trkpt lat="45.60228279325063" lon="11.242013606599002"><ele>298.0</ele><time>2026-04-04T13:59:58.218Z</time></trkpt><trkpt lat="45.60219653966818" lon="11.242139350693785"><ele>298.0</ele><time>2026-04-04T13:59:59.218Z</time></trkpt><trkpt lat="45.602103458397046" lon="11.242281359907443"><ele>298.75</ele><time>2026-04-04T14:00:00.218Z</time></trkpt><trkpt lat="45.60203870474343" lon="11.242450712512774"><ele>299.5</ele><time>2026-04-04T14:00:01.218Z</time></trkpt><trkpt lat="45.602000473442835" lon="11.242636073740876"><ele>300.25</ele><time>2026-04-04T14:00:02.218Z</time></trkpt><trkpt lat="45.60194895004655" lon="11.242766140271444"><ele>301.0</ele><time>2026-04-04T14:00:03.218Z</time></trkpt><trkpt lat="45.601859633270784" lon="11.242888526641337"><ele>297.75</ele><time>2026-04-04T14:00:04.218Z</time></trkpt><trkpt lat="45.60175486191573" lon="11.24300110109231"><ele>294.5</ele><time>2026-04-04T14:00:05.218Z</time></trkpt><trkpt lat="45.60163750690005" lon="11.243117121730762"><ele>291.25</ele><time>2026-04-04T14:00:06.218Z</time></trkpt><trkpt lat="45.601510241513644" lon="11.243238213040522"><ele>288.0</ele><time>2026-04-04T14:00:07.218Z</time></trkpt><trkpt lat="45.60136670645881" lon="11.243313016636101"><ele>287.75</ele><time>2026-04-04T14:00:08.218Z</time></trkpt><trkpt lat="45.601233734480985" lon="11.243337791414776"><ele>287.5</ele><time>2026-04-04T14:00:09.218Z</time></trkpt><trkpt lat="45.60104940627956" lon="11.243313928701642"><ele>287.25</ele><time>2026-04-04T14:00:10.218Z</time></trkpt><trkpt lat="45.60092038586097" lon="11.243319643955115"><ele>287.0</ele><time>2026-04-04T14:00:11.218Z</time></trkpt><trkpt lat="45.600794351582394" lon="11.243360259256264"><ele>285.33333333333337</ele><time>2026-04-04T14:00:12.218Z</time></trkpt><trkpt lat="45.60063471463167" lon="11.243433283077827"><ele>283.6666666666667</ele><time>2026-04-04T14:00:13.218Z</time></trkpt><trkpt lat="45.600599777146236" lon="11.243600366405314"><ele>282.0</ele><time>2026-04-04T14:00:14.218Z</time></trkpt><trkpt lat="45.60044913061206" lon="11.243835552292877"><ele>280.6666666666667</ele><time>2026-04-04T14:00:15.218Z</time></trkpt><trkpt lat="45.6003128994602" lon="11.244024235820492"><ele>279.33333333333337</ele><time>2026-04-04T14:00:16.218Z</time></trkpt><trkpt lat="45.600180701425494" lon="11.244237272747512"><ele>278.0</ele><time>2026-04-04T14:00:17.218Z</time></trkpt><trkpt lat="45.60003154404071" lon="11.244473966319994"><ele>278.0</ele><time>2026-04-04T14:00:18.218Z</time></trkpt><trkpt lat="45.599838222365214" lon="11.244730606945328"><ele>278.0</ele><time>2026-04-04T14:00:19.218Z</time></trkpt><trkpt lat="45.59967490698432" lon="11.244965711475157"><ele>276.6666666666667</ele><time>2026-04-04T14:00:20.218Z</time></trkpt><trkpt lat="45.59950794651298" lon="11.245148638036518"><ele>275.3333333333333</ele><time>2026-04-04T14:00:21.218Z</time></trkpt><trkpt lat="45.59933214488912" lon="11.24532402061885"><ele>274.0</ele><time>2026-04-04T14:00:22.218Z</time></trkpt><trkpt lat="45.59919152159388" lon="11.245488714035776"><ele>289.5</ele><time>2026-04-04T14:00:23.218Z</time></trkpt><trkpt lat="45.59903238004695" lon="11.245657489990528"><ele>305.0</ele><time>2026-04-04T14:00:24.218Z</time></trkpt><trkpt lat="45.5988035466563" lon="11.245809188494194"><ele>293.5</ele><time>2026-04-04T14:00:25.218Z</time></trkpt><trkpt lat="45.59858087223528" lon="11.245929830515745"><ele>282.0</ele><time>2026-04-04T14:00:26.218Z</time></trkpt><trkpt lat="45.59834946809024" lon="11.245991438792993"><ele>282.0</ele><time>2026-04-04T14:00:27.218Z</time></trkpt><trkpt lat="45.598117020011976" lon="11.246061122100432"><ele>282.0</ele><time>2026-04-04T14:00:28.218Z</time></trkpt><trkpt lat="45.59789271113065" lon="11.246137644217763"><ele>278.6666666666667</ele><time>2026-04-04T14:00:29.218Z</time></trkpt><trkpt lat="45.597691360332256" lon="11.246195594784067"><ele>275.33333333333337</ele><time>2026-04-04T14:00:30.218Z</time></trkpt><trkpt lat="45.59750296366634" lon="11.246230911350663"><ele>272.0</ele><time>2026-04-04T14:00:31.218Z</time></trkpt><trkpt lat="45.597323873143054" lon="11.24629064253131"><ele>272.0</ele><time>2026-04-04T14:00:32.218Z</time></trkpt><trkpt lat="45.59715788491335" lon="11.246300859734705"><ele>272.0</ele><time>2026-04-04T14:00:33.218Z</time></trkpt><trkpt lat="45.59700255265202" lon="11.246454790835589"><ele>272.0</ele><time>2026-04-04T14:00:34.218Z</time></trkpt><trkpt lat="45.59680752204491" lon="11.246538557971897"><ele>272.0</ele><time>2026-04-04T14:00:35.218Z</time></trkpt><trkpt lat="45.596591834389145" lon="11.24661304071521"><ele>272.0</ele><time>2026-04-04T14:00:36.218Z</time></trkpt><trkpt lat="45.59637172203635" lon="11.246683924288758"><ele>272.0</ele><time>2026-04-04T14:00:37.218Z</time></trkpt><trkpt lat="45.59613877549548" lon="11.246755462360333"><ele>272.0</ele><time>2026-04-04T14:00:38.218Z</time></trkpt><trkpt lat="45.59592536524603" lon="11.24680140816872"><ele>272.0</ele><time>2026-04-04T14:00:39.218Z</time></trkpt><trkpt lat="45.59569979401298" lon="11.246823983937388"><ele>272.0</ele><time>2026-04-04T14:00:40.218Z</time></trkpt><trkpt lat="45.595508150433794" lon="11.246860655648778"><ele>272.0</ele><time>2026-04-04T14:00:41.218Z</time></trkpt><trkpt lat="45.595349196231155" lon="11.246837349913292"><ele>272.0</ele><time>2026-04-04T14:00:42.218Z</time></trkpt><trkpt lat="45.59520290295805" lon="11.246825936113899"><ele>272.0</ele><time>2026-04-04T14:00:43.218Z</time></trkpt><trkpt lat="45.59502889135141" lon="11.246832978545468"><ele>269.6666666666667</ele><time>2026-04-04T14:00:44.218Z</time></trkpt><trkpt lat="45.59485029663705" lon="11.246800030863703"><ele>267.3333333333333</ele><time>2026-04-04T14:00:45.218Z</time></trkpt><trkpt lat="45.59463555299116" lon="11.24673817036628"><ele>265.0</ele><time>2026-04-04T14:00:46.218Z</time></trkpt><trkpt lat="45.5944512745813" lon="11.246694935906554"><ele>264.3333333333333</ele><time>2026-04-04T14:00:47.218Z</time></trkpt><trkpt lat="45.59427382652731" lon="11.246685379324727"><ele>263.6666666666667</ele><time>2026-04-04T14:00:48.218Z</time></trkpt><trkpt lat="45.594106864589655" lon="11.246705226665675"><ele>263.0</ele><time>2026-04-04T14:00:49.218Z</time></trkpt><trkpt lat="45.593977020340574" lon="11.24678445058117"><ele>263.0</ele><time>2026-04-04T14:00:50.218Z</time></trkpt><trkpt lat="45.593851652474626" lon="11.246838843947208"><ele>263.0</ele><time>2026-04-04T14:00:51.218Z</time></trkpt><trkpt lat="45.59374494452765" lon="11.246947311056738"><ele>263.0</ele><time>2026-04-04T14:00:52.218Z</time></trkpt><trkpt lat="45.5936167401117" lon="11.247052013993793"><ele>263.0</ele><time>2026-04-04T14:00:53.218Z</time></trkpt><trkpt lat="45.59347945792019" lon="11.24722266723204"><ele>262.0</ele><time>2026-04-04T14:00:54.218Z</time></trkpt><trkpt lat="45.59334040084596" lon="11.24743894097084"><ele>261.0</ele><time>2026-04-04T14:00:55.218Z</time></trkpt><trkpt lat="45.59319727846966" lon="11.24767663631649"><ele>260.0</ele><time>2026-04-04T14:00:56.219Z</time></trkpt><trkpt lat="45.59300772051959" lon="11.247935584325857"><ele>260.5</ele><time>2026-04-04T14:00:57.218Z</time></trkpt><trkpt lat="45.592795889263854" lon="11.248213424629338"><ele>261.0</ele><time>2026-04-04T14:00:58.219Z</time></trkpt><trkpt lat="45.59262752490096" lon="11.2485147287773"><ele>261.0</ele><time>2026-04-04T14:00:59.219Z</time></trkpt><trkpt lat="45.59245597712903" lon="11.248803572783904"><ele>261.0</ele><time>2026-04-04T14:01:00.219Z</time></trkpt><trkpt lat="45.59230465128214" lon="11.249079428041515"><ele>261.0</ele><time>2026-04-04T14:01:01.219Z</time></trkpt><trkpt lat="45.59213357841117" lon="11.249357672378068"><ele>261.0</ele><time>2026-04-04T14:01:02.219Z</time></trkpt><trkpt lat="45.59199433716948" lon="11.24964479256058"><ele>259.3333333333333</ele><time>2026-04-04T14:01:03.219Z</time></trkpt><trkpt lat="45.59182697644505" lon="11.249883544800408"><ele>257.66666666666663</ele><time>2026-04-04T14:01:04.219Z</time></trkpt><trkpt lat="45.591690553208984" lon="11.250097060812807"><ele>256.0</ele><time>2026-04-04T14:01:05.219Z</time></trkpt><trkpt lat="45.59155073638135" lon="11.250311621222883"><ele>256.0</ele><time>2026-04-04T14:01:06.219Z</time></trkpt><trkpt lat="45.59141934003281" lon="11.250504802437975"><ele>256.0</ele><time>2026-04-04T14:01:07.219Z</time></trkpt><trkpt lat="45.591273265430694" lon="11.250710930799084"><ele>256.0</ele><time>2026-04-04T14:01:08.219Z</time></trkpt><trkpt lat="45.59116554501428" lon="11.250904446484851"><ele>255.66666666666666</ele><time>2026-04-04T14:01:09.219Z</time></trkpt><trkpt lat="45.59105059265467" lon="11.251091633766732"><ele>255.33333333333331</ele><time>2026-04-04T14:01:10.219Z</time></trkpt><trkpt lat="45.59092382718903" lon="11.25131409115657"><ele>255.0</ele><time>2026-04-04T14:01:11.219Z</time></trkpt><trkpt lat="45.590755354689065" lon="11.251559474460784"><ele>255.0</ele><time>2026-04-04T14:01:12.219Z</time></trkpt><trkpt lat="45.59058526328095" lon="11.251787693314885"><ele>255.0</ele><time>2026-04-04T14:01:13.219Z</time></trkpt><trkpt lat="45.59029544281021" lon="11.252001229152237"><ele>254.0</ele><time>2026-04-04T14:01:14.219Z</time></trkpt><trkpt lat="45.59009906501097" lon="11.252258526139645"><ele>253.0</ele><time>2026-04-04T14:01:15.219Z</time></trkpt><trkpt lat="45.58988595474975" lon="11.252494128020261"><ele>253.0</ele><time>2026-04-04T14:01:16.219Z</time></trkpt><trkpt lat="45.58963621715517" lon="11.252761800076932"><ele>253.0</ele><time>2026-04-04T14:01:17.219Z</time></trkpt><trkpt lat="45.58939664544171" lon="11.253018701088278"><ele>253.0</ele><time>2026-04-04T14:01:18.219Z</time></trkpt><trkpt lat="45.58915570786477" lon="11.25327523739033"><ele>253.0</ele><time>2026-04-04T14:01:19.219Z</time></trkpt><trkpt lat="45.58889590233405" lon="11.253574038287056"><ele>253.0</ele><time>2026-04-04T14:01:20.219Z</time></trkpt><trkpt lat="45.58867948852605" lon="11.253843879422044"><ele>253.0</ele><time>2026-04-04T14:01:21.219Z</time></trkpt><trkpt lat="45.58846988307687" lon="11.254061192135275"><ele>253.0</ele><time>2026-04-04T14:01:22.219Z</time></trkpt><trkpt lat="45.58827173082433" lon="11.254229995113175"><ele>253.0</ele><time>2026-04-04T14:01:23.219Z</time></trkpt><trkpt lat="45.58808129317207" lon="11.254386265808511"><ele>253.0</ele><time>2026-04-04T14:01:24.219Z</time></trkpt><trkpt lat="45.58793459566392" lon="11.254557688953437"><ele>253.0</ele><time>2026-04-04T14:01:25.219Z</time></trkpt><trkpt lat="45.5877876315748" lon="11.254732561764246"><ele>253.0</ele><time>2026-04-04T14:01:26.219Z</time></trkpt><trkpt lat="45.58765649943738" lon="11.254889790652802"><ele>253.33333333333331</ele><time>2026-04-04T14:01:27.219Z</time></trkpt><trkpt lat="45.58749981454856" lon="11.255061689370555"><ele>253.66666666666669</ele><time>2026-04-04T14:01:28.219Z</time></trkpt><trkpt lat="45.58735408042284" lon="11.25520468763601"><ele>254.0</ele><time>2026-04-04T14:01:29.219Z</time></trkpt><trkpt lat="45.587203735655216" lon="11.255339405692462"><ele>254.0</ele><time>2026-04-04T14:01:30.219Z</time></trkpt><trkpt lat="45.587062573335935" lon="11.255462674074804"><ele>254.0</ele><time>2026-04-04T14:01:31.219Z</time></trkpt><trkpt lat="45.586939187794236" lon="11.255551333721206"><ele>254.0</ele><time>2026-04-04T14:01:32.219Z</time></trkpt><trkpt lat="45.58680872963654" lon="11.255657823260723"><ele>255.0</ele><time>2026-04-04T14:01:33.219Z</time></trkpt><trkpt lat="45.58662198836466" lon="11.25576933399053"><ele>256.0</ele><time>2026-04-04T14:01:34.219Z</time></trkpt><trkpt lat="45.586448300926406" lon="11.255827806669432"><ele>257.0</ele><time>2026-04-04T14:01:35.219Z</time></trkpt><trkpt lat="45.58623642961849" lon="11.255904076109342"><ele>255.66666666666669</ele><time>2026-04-04T14:01:36.219Z</time></trkpt><trkpt lat="45.58607610004924" lon="11.256006062610956"><ele>254.33333333333331</ele><time>2026-04-04T14:01:37.219Z</time></trkpt><trkpt lat="45.58589904411446" lon="11.256087210106429"><ele>253.0</ele><time>2026-04-04T14:01:38.219Z</time></trkpt><trkpt lat="45.58573824792094" lon="11.256158164089276"><ele>253.0</ele><time>2026-04-04T14:01:39.219Z</time></trkpt><trkpt lat="45.58559724087145" lon="11.25625983103264"><ele>253.0</ele><time>2026-04-04T14:01:40.219Z</time></trkpt><trkpt lat="45.58544999131659" lon="11.25635611339453"><ele>253.0</ele><time>2026-04-04T14:01:41.219Z</time></trkpt><trkpt lat="45.58529096880153" lon="11.256468951798263"><ele>253.33333333333331</ele><time>2026-04-04T14:01:42.219Z</time></trkpt><trkpt lat="45.58511822711719" lon="11.256568514841183"><ele>253.66666666666669</ele><time>2026-04-04T14:01:43.219Z</time></trkpt><trkpt lat="45.5849475073749" lon="11.256654758285016"><ele>254.0</ele><time>2026-04-04T14:01:44.219Z</time></trkpt><trkpt lat="45.58479430064715" lon="11.25674255596645"><ele>254.0</ele><time>2026-04-04T14:01:45.219Z</time></trkpt><trkpt lat="45.584621370719894" lon="11.256821822863795"><ele>254.0</ele><time>2026-04-04T14:01:46.219Z</time></trkpt><trkpt lat="45.584456288831966" lon="11.256914974698894"><ele>254.0</ele><time>2026-04-04T14:01:47.219Z</time></trkpt><trkpt lat="45.58431817141126" lon="11.25702132574368"><ele>252.0</ele><time>2026-04-04T14:01:48.219Z</time></trkpt><trkpt lat="45.58417499384985" lon="11.257119276858742"><ele>250.0</ele><time>2026-04-04T14:01:49.219Z</time></trkpt><trkpt lat="45.58402215448408" lon="11.2572212697356"><ele>248.0</ele><time>2026-04-04T14:01:50.219Z</time></trkpt><trkpt lat="45.583873685700794" lon="11.257308473278298"><ele>248.0</ele><time>2026-04-04T14:01:51.219Z</time></trkpt><trkpt lat="45.583717801107426" lon="11.257400882674258"><ele>248.0</ele><time>2026-04-04T14:01:52.219Z</time></trkpt><trkpt lat="45.58353298545342" lon="11.257487921640498"><ele>248.0</ele><time>2026-04-04T14:01:53.219Z</time></trkpt><trkpt lat="45.58336943048442" lon="11.257588202795215"><ele>246.33333333333334</ele><time>2026-04-04T14:01:54.219Z</time></trkpt><trkpt lat="45.58320610852636" lon="11.257687761179307"><ele>244.66666666666669</ele><time>2026-04-04T14:01:55.219Z</time></trkpt><trkpt lat="45.58305375411378" lon="11.257797941500868"><ele>243.0</ele><time>2026-04-04T14:01:56.219Z</time></trkpt><trkpt lat="45.58287401308205" lon="11.257956278947606"><ele>240.5</ele><time>2026-04-04T14:01:57.219Z</time></trkpt><trkpt lat="45.58269022009706" lon="11.258163320625199"><ele>238.0</ele><time>2026-04-04T14:01:58.219Z</time></trkpt><trkpt lat="45.58248292260905" lon="11.258367952925974"><ele>238.0</ele><time>2026-04-04T14:01:59.219Z</time></trkpt><trkpt lat="45.58231329517104" lon="11.258568072877564"><ele>238.0</ele><time>2026-04-04T14:02:00.219Z</time></trkpt><trkpt lat="45.58213293280876" lon="11.258751704473585"><ele>238.0</ele><time>2026-04-04T14:02:01.219Z</time></trkpt><trkpt lat="45.58196758891114" lon="11.258979038211367"><ele>236.5</ele><time>2026-04-04T14:02:02.219Z</time></trkpt><trkpt lat="45.58177102868724" lon="11.259194393650935"><ele>235.0</ele><time>2026-04-04T14:02:03.219Z</time></trkpt><trkpt lat="45.58155330233145" lon="11.259431283509896"><ele>235.0</ele><time>2026-04-04T14:02:04.219Z</time></trkpt><trkpt lat="45.58134882346045" lon="11.259687991935465"><ele>235.0</ele><time>2026-04-04T14:02:05.219Z</time></trkpt><trkpt lat="45.5811268048558" lon="11.259908111079135"><ele>235.0</ele><time>2026-04-04T14:02:06.219Z</time></trkpt><trkpt lat="45.58092630222647" lon="11.260117826929315"><ele>235.0</ele><time>2026-04-04T14:02:07.219Z</time></trkpt><trkpt lat="45.58073060709748" lon="11.26032539807927"><ele>235.0</ele><time>2026-04-04T14:02:08.219Z</time></trkpt><trkpt lat="45.580542631595335" lon="11.260498164292505"><ele>235.0</ele><time>2026-04-04T14:02:09.219Z</time></trkpt><trkpt lat="45.58037411713627" lon="11.26067887596635"><ele>235.0</ele><time>2026-04-04T14:02:10.219Z</time></trkpt><trkpt lat="45.58020436313112" lon="11.26085736134022"><ele>234.66666666666666</ele><time>2026-04-04T14:02:11.219Z</time></trkpt><trkpt lat="45.580015662390544" lon="11.261033695320938"><ele>234.33333333333331</ele><time>2026-04-04T14:02:12.219Z</time></trkpt><trkpt lat="45.579838143726576" lon="11.261184127167027"><ele>234.0</ele><time>2026-04-04T14:02:13.219Z</time></trkpt><trkpt lat="45.57966896295243" lon="11.261350394413961"><ele>233.66666666666669</ele><time>2026-04-04T14:02:14.219Z</time></trkpt><trkpt lat="45.57947648709153" lon="11.26150161953726"><ele>233.33333333333334</ele><time>2026-04-04T14:02:15.219Z</time></trkpt><trkpt lat="45.57928639678846" lon="11.261576135968395"><ele>233.0</ele><time>2026-04-04T14:02:16.219Z</time></trkpt><trkpt lat="45.5791144998255" lon="11.261675557852215"><ele>233.0</ele><time>2026-04-04T14:02:17.219Z</time></trkpt><trkpt lat="45.57894876211046" lon="11.261763378426597"><ele>233.0</ele><time>2026-04-04T14:02:18.219Z</time></trkpt><trkpt lat="45.57879563004946" lon="11.261863967594234"><ele>233.0</ele><time>2026-04-04T14:02:19.219Z</time></trkpt><trkpt lat="45.578646684114844" lon="11.261962245994678"><ele>232.5</ele><time>2026-04-04T14:02:20.219Z</time></trkpt><trkpt lat="45.57849574973446" lon="11.262039748703065"><ele>232.0</ele><time>2026-04-04T14:02:21.219Z</time></trkpt><trkpt lat="45.57835653743114" lon="11.262104817654105"><ele>231.5</ele><time>2026-04-04T14:02:22.219Z</time></trkpt><trkpt lat="45.57822653031115" lon="11.26216652725646"><ele>231.0</ele><time>2026-04-04T14:02:23.219Z</time></trkpt><trkpt lat="45.578111103144344" lon="11.262249794598016"><ele>231.5</ele><time>2026-04-04T14:02:24.219Z</time></trkpt><trkpt lat="45.57798027643321" lon="11.26230787351232"><ele>232.0</ele><time>2026-04-04T14:02:25.219Z</time></trkpt><trkpt lat="45.577831350310106" lon="11.262345949042633"><ele>232.5</ele><time>2026-04-04T14:02:26.219Z</time></trkpt><trkpt lat="45.57768646852546" lon="11.262368111057325"><ele>233.0</ele><time>2026-04-04T14:02:27.219Z</time></trkpt><trkpt lat="45.577549046628235" lon="11.262385216442231"><ele>233.33333333333334</ele><time>2026-04-04T14:02:28.219Z</time></trkpt><trkpt lat="45.57738402091923" lon="11.262396320012495"><ele>233.66666666666669</ele><time>2026-04-04T14:02:29.219Z</time></trkpt><trkpt lat="45.577248980036664" lon="11.26242263766821"><ele>234.0</ele><time>2026-04-04T14:02:30.219Z</time></trkpt><trkpt lat="45.57709562526462" lon="11.262406591269396"><ele>233.75</ele><time>2026-04-04T14:02:31.219Z</time></trkpt><trkpt lat="45.57693951730161" lon="11.262392511450077"><ele>233.5</ele><time>2026-04-04T14:02:32.219Z</time></trkpt><trkpt lat="45.576796335518985" lon="11.26238278012476"><ele>233.25</ele><time>2026-04-04T14:02:33.219Z</time></trkpt><trkpt lat="45.576648591410105" lon="11.262365227484269"><ele>233.0</ele><time>2026-04-04T14:02:34.219Z</time></trkpt><trkpt lat="45.576511472412335" lon="11.262354265063548"><ele>233.0</ele><time>2026-04-04T14:02:35.219Z</time></trkpt><trkpt lat="45.57638231626591" lon="11.262359295246638"><ele>233.0</ele><time>2026-04-04T14:02:36.219Z</time></trkpt><trkpt lat="45.57626030419818" lon="11.262358521200808"><ele>233.0</ele><time>2026-04-04T14:02:37.219Z</time></trkpt><trkpt lat="45.57612372176516" lon="11.262372806021558"><ele>233.0</ele><time>2026-04-04T14:02:38.219Z</time></trkpt><trkpt lat="45.57599572724026" lon="11.262436161986907"><ele>232.66666666666669</ele><time>2026-04-04T14:02:39.219Z</time></trkpt><trkpt lat="45.57583880420402" lon="11.262473766255578"><ele>232.33333333333331</ele><time>2026-04-04T14:02:40.219Z</time></trkpt><trkpt lat="45.57568789313563" lon="11.262537634475818"><ele>232.0</ele><time>2026-04-04T14:02:41.219Z</time></trkpt><trkpt lat="45.57554283230135" lon="11.26261819213114"><ele>232.0</ele><time>2026-04-04T14:02:42.219Z</time></trkpt><trkpt lat="45.57540489456113" lon="11.262694479797323"><ele>232.0</ele><time>2026-04-04T14:02:43.219Z</time></trkpt><trkpt lat="45.57528180174006" lon="11.262777848029144"><ele>232.0</ele><time>2026-04-04T14:02:44.219Z</time></trkpt><trkpt lat="45.57515570372047" lon="11.262854061503482"><ele>232.0</ele><time>2026-04-04T14:02:45.219Z</time></trkpt><trkpt lat="45.57501752252988" lon="11.26292010909555"><ele>231.0</ele><time>2026-04-04T14:02:46.219Z</time></trkpt><trkpt lat="45.57489057067451" lon="11.263001795370513"><ele>230.0</ele><time>2026-04-04T14:02:47.219Z</time></trkpt><trkpt lat="45.57473577137616" lon="11.263092893968642"><ele>229.0</ele><time>2026-04-04T14:02:48.219Z</time></trkpt><trkpt lat="45.5746040463354" lon="11.263197760083843"><ele>227.25</ele><time>2026-04-04T14:02:49.219Z</time></trkpt><trkpt lat="45.57448053583446" lon="11.263310140404416"><ele>225.5</ele><time>2026-04-04T14:02:50.219Z</time></trkpt><trkpt lat="45.57436164387847" lon="11.263410703151674"><ele>223.75</ele><time>2026-04-04T14:02:51.219Z</time></trkpt><trkpt lat="45.574236329902114" lon="11.263507024475233"><ele>222.0</ele><time>2026-04-04T14:02:52.219Z</time></trkpt><trkpt lat="45.57410718767042" lon="11.26359534745461"><ele>222.0</ele><time>2026-04-04T14:02:53.219Z</time></trkpt><trkpt lat="45.573993425943435" lon="11.263679064508189"><ele>222.0</ele><time>2026-04-04T14:02:54.219Z</time></trkpt><trkpt lat="45.57388641995665" lon="11.263757458060898"><ele>222.0</ele><time>2026-04-04T14:02:55.219Z</time></trkpt><trkpt lat="45.57378415357599" lon="11.26384320517887"><ele>222.0</ele><time>2026-04-04T14:02:56.219Z</time></trkpt><trkpt lat="45.573685147388254" lon="11.263918888054747"><ele>221.25</ele><time>2026-04-04T14:02:57.219Z</time></trkpt><trkpt lat="45.573575623005546" lon="11.263974032903336"><ele>220.5</ele><time>2026-04-04T14:02:58.219Z</time></trkpt><trkpt lat="45.573460504927404" lon="11.26399239526076"><ele>219.75</ele><time>2026-04-04T14:02:59.219Z</time></trkpt><trkpt lat="45.57335653369891" lon="11.263937901341393"><ele>219.0</ele><time>2026-04-04T14:03:00.219Z</time></trkpt><trkpt lat="45.573242374751615" lon="11.263852492169976"><ele>218.75</ele><time>2026-04-04T14:03:01.219Z</time></trkpt><trkpt lat="45.57315903956364" lon="11.263705242086383"><ele>218.5</ele><time>2026-04-04T14:03:02.219Z</time></trkpt><trkpt lat="45.573086130859345" lon="11.263543550460533"><ele>218.25</ele><time>2026-04-04T14:03:03.219Z</time></trkpt><trkpt lat="45.573030000428425" lon="11.263346127311285"><ele>218.0</ele><time>2026-04-04T14:03:04.219Z</time></trkpt><trkpt lat="45.57296827289642" lon="11.263158082109468"><ele>218.0</ele><time>2026-04-04T14:03:05.219Z</time></trkpt><trkpt lat="45.57290389948115" lon="11.26298174418457"><ele>218.0</ele><time>2026-04-04T14:03:06.219Z</time></trkpt><trkpt lat="45.572822527146755" lon="11.2628159970016"><ele>218.0</ele><time>2026-04-04T14:03:07.219Z</time></trkpt><trkpt lat="45.57272941103226" lon="11.262673757083654"><ele>218.0</ele><time>2026-04-04T14:03:08.219Z</time></trkpt><trkpt lat="45.57264271537235" lon="11.2625270651773"><ele>218.0</ele><time>2026-04-04T14:03:09.219Z</time></trkpt><trkpt lat="45.57253054784418" lon="11.262421423523156"><ele>218.0</ele><time>2026-04-04T14:03:10.219Z</time></trkpt><trkpt lat="45.57243093262364" lon="11.262316938016646"><ele>218.0</ele><time>2026-04-04T14:03:11.219Z</time></trkpt><trkpt lat="45.57233891797215" lon="11.26224887915671"><ele>218.0</ele><time>2026-04-04T14:03:12.219Z</time></trkpt><trkpt lat="45.572247140041675" lon="11.262207099943367"><ele>221.75</ele><time>2026-04-04T14:03:13.219Z</time></trkpt><trkpt lat="45.57213739192057" lon="11.262203318769672"><ele>225.5</ele><time>2026-04-04T14:03:14.219Z</time></trkpt><trkpt lat="45.5719987339202" lon="11.262152655309183"><ele>229.25</ele><time>2026-04-04T14:03:15.219Z</time></trkpt><trkpt lat="45.57183454848745" lon="11.262136129507107"><ele>233.0</ele><time>2026-04-04T14:03:16.219Z</time></trkpt><trkpt lat="45.571656936118465" lon="11.262170534367833"><ele>230.33333333333334</ele><time>2026-04-04T14:03:17.219Z</time></trkpt><trkpt lat="45.57147047511787" lon="11.262240532317737"><ele>227.66666666666669</ele><time>2026-04-04T14:03:18.219Z</time></trkpt><trkpt lat="45.57124981259426" lon="11.262352821073014"><ele>225.0</ele><time>2026-04-04T14:03:19.219Z</time></trkpt><trkpt lat="45.57103007747844" lon="11.26246944851546"><ele>225.0</ele><time>2026-04-04T14:03:20.219Z</time></trkpt><trkpt lat="45.57081289392162" lon="11.262588174096836"><ele>225.0</ele><time>2026-04-04T14:03:21.219Z</time></trkpt><trkpt lat="45.57061519723821" lon="11.2626920719065"><ele>225.0</ele><time>2026-04-04T14:03:22.219Z</time></trkpt><trkpt lat="45.57041427728486" lon="11.262810854645688"><ele>232.5</ele><time>2026-04-04T14:03:23.219Z</time></trkpt><trkpt lat="45.570202556556914" lon="11.262952213212888"><ele>240.0</ele><time>2026-04-04T14:03:24.219Z</time></trkpt><trkpt lat="45.56997985689866" lon="11.263088076435416"><ele>233.33333333333331</ele><time>2026-04-04T14:03:25.219Z</time></trkpt><trkpt lat="45.569772651751904" lon="11.263204388158547"><ele>226.66666666666666</ele><time>2026-04-04T14:03:26.219Z</time></trkpt><trkpt lat="45.569585346517336" lon="11.263338861294157"><ele>220.0</ele><time>2026-04-04T14:03:27.219Z</time></trkpt><trkpt lat="45.56940644593761" lon="11.263469602716118"><ele>220.0</ele><time>2026-04-04T14:03:28.219Z</time></trkpt><trkpt lat="45.56924161574372" lon="11.26358899500983"><ele>220.0</ele><time>2026-04-04T14:03:29.219Z</time></trkpt><trkpt lat="45.56907632445858" lon="11.263712384602552"><ele>220.0</ele><time>2026-04-04T14:03:30.219Z</time></trkpt><trkpt lat="45.56890482041664" lon="11.263861695378079"><ele>217.5</ele><time>2026-04-04T14:03:31.219Z</time></trkpt><trkpt lat="45.56870909090325" lon="11.264002513895829"><ele>215.0</ele><time>2026-04-04T14:03:32.219Z</time></trkpt><trkpt lat="45.568514584095965" lon="11.264200947909266"><ele>214.5</ele><time>2026-04-04T14:03:33.219Z</time></trkpt><trkpt lat="45.56829174947802" lon="11.264390735043326"><ele>214.0</ele><time>2026-04-04T14:03:34.219Z</time></trkpt><trkpt lat="45.56808439854395" lon="11.2645698853835"><ele>214.0</ele><time>2026-04-04T14:03:35.219Z</time></trkpt><trkpt lat="45.56787557998286" lon="11.26474256687548"><ele>214.0</ele><time>2026-04-04T14:03:36.219Z</time></trkpt><trkpt lat="45.567668488234034" lon="11.264896258958714"><ele>212.5</ele><time>2026-04-04T14:03:37.219Z</time></trkpt><trkpt lat="45.567449146067915" lon="11.265058851703609"><ele>211.0</ele><time>2026-04-04T14:03:38.219Z</time></trkpt><trkpt lat="45.567225228084126" lon="11.26521067627777"><ele>210.5</ele><time>2026-04-04T14:03:39.219Z</time></trkpt><trkpt lat="45.56698022782056" lon="11.265338688915058"><ele>210.0</ele><time>2026-04-04T14:03:40.219Z</time></trkpt><trkpt lat="45.56671016195628" lon="11.2654770593144"><ele>208.0</ele><time>2026-04-04T14:03:41.219Z</time></trkpt><trkpt lat="45.566410148951455" lon="11.265613464732052"><ele>206.0</ele><time>2026-04-04T14:03:42.219Z</time></trkpt><trkpt lat="45.566145022493664" lon="11.265739908274357"><ele>206.0</ele><time>2026-04-04T14:03:43.219Z</time></trkpt><trkpt lat="45.565900780859366" lon="11.265843951303102"><ele>206.0</ele><time>2026-04-04T14:03:44.219Z</time></trkpt><trkpt lat="45.565670459929386" lon="11.265931629785914"><ele>206.0</ele><time>2026-04-04T14:03:45.219Z</time></trkpt><trkpt lat="45.565440873394216" lon="11.266001464261565"><ele>206.0</ele><time>2026-04-04T14:03:46.219Z</time></trkpt><trkpt lat="45.56522444877309" lon="11.266073061299124"><ele>206.33333333333334</ele><time>2026-04-04T14:03:47.219Z</time></trkpt><trkpt lat="45.56502431441034" lon="11.266138347825423"><ele>206.66666666666669</ele><time>2026-04-04T14:03:48.219Z</time></trkpt><trkpt lat="45.564888714583994" lon="11.266290814946952"><ele>207.0</ele><time>2026-04-04T14:03:49.219Z</time></trkpt><trkpt lat="45.56472780073732" lon="11.266385842220037"><ele>206.66666666666669</ele><time>2026-04-04T14:03:50.219Z</time></trkpt><trkpt lat="45.564563892822804" lon="11.26646424919172"><ele>206.33333333333334</ele><time>2026-04-04T14:03:51.219Z</time></trkpt><trkpt lat="45.564382564650174" lon="11.266565576379257"><ele>206.0</ele><time>2026-04-04T14:03:52.219Z</time></trkpt><trkpt lat="45.564213003093734" lon="11.266692541636985"><ele>205.66666666666669</ele><time>2026-04-04T14:03:53.219Z</time></trkpt><trkpt lat="45.564011505059746" lon="11.266794953569768"><ele>205.33333333333331</ele><time>2026-04-04T14:03:54.219Z</time></trkpt><trkpt lat="45.563818925617646" lon="11.266882661633579"><ele>205.0</ele><time>2026-04-04T14:03:55.219Z</time></trkpt><trkpt lat="45.563634305411746" lon="11.266940867225127"><ele>204.66666666666666</ele><time>2026-04-04T14:03:56.219Z</time></trkpt><trkpt lat="45.5634574082105" lon="11.266981437148853"><ele>204.33333333333331</ele><time>2026-04-04T14:03:57.219Z</time></trkpt><trkpt lat="45.563287951639005" lon="11.26701575996604"><ele>204.0</ele><time>2026-04-04T14:03:58.219Z</time></trkpt><trkpt lat="45.56311381163919" lon="11.2670427861984"><ele>204.0</ele><time>2026-04-04T14:03:59.219Z</time></trkpt><trkpt lat="45.56293617731761" lon="11.267065257900544"><ele>204.0</ele><time>2026-04-04T14:04:00.219Z</time></trkpt><trkpt lat="45.56276036468889" lon="11.267078922823254"><ele>204.0</ele><time>2026-04-04T14:04:01.219Z</time></trkpt><trkpt lat="45.562611481550114" lon="11.267114404394519"><ele>204.0</ele><time>2026-04-04T14:04:02.219Z</time></trkpt><trkpt lat="45.56248374761241" lon="11.267155391829185"><ele>204.0</ele><time>2026-04-04T14:04:03.219Z</time></trkpt><trkpt lat="45.56235930935936" lon="11.267204578073807"><ele>204.0</ele><time>2026-04-04T14:04:04.219Z</time></trkpt><trkpt lat="45.562212527413394" lon="11.267240801160176"><ele>204.0</ele><time>2026-04-04T14:04:05.219Z</time></trkpt><trkpt lat="45.56206849177317" lon="11.267353698246348"><ele>204.0</ele><time>2026-04-04T14:04:06.219Z</time></trkpt><trkpt lat="45.56192858977019" lon="11.267497263572222"><ele>204.0</ele><time>2026-04-04T14:04:07.219Z</time></trkpt><trkpt lat="45.56179291604931" lon="11.267711541373096"><ele>204.0</ele><time>2026-04-04T14:04:08.219Z</time></trkpt><trkpt lat="45.561681812148564" lon="11.267901906098972"><ele>204.0</ele><time>2026-04-04T14:04:09.219Z</time></trkpt><trkpt lat="45.5615720148398" lon="11.268064255726093"><ele>204.0</ele><time>2026-04-04T14:04:10.219Z</time></trkpt><trkpt lat="45.56147344151635" lon="11.268211425520118"><ele>204.0</ele><time>2026-04-04T14:04:11.219Z</time></trkpt><trkpt lat="45.56136827188231" lon="11.268361930796706"><ele>204.0</ele><time>2026-04-04T14:04:12.219Z</time></trkpt><trkpt lat="45.561252432493056" lon="11.268492957803735"><ele>204.66666666666669</ele><time>2026-04-04T14:04:13.219Z</time></trkpt><trkpt lat="45.56112343371464" lon="11.268634611014422"><ele>205.33333333333334</ele><time>2026-04-04T14:04:14.219Z</time></trkpt><trkpt lat="45.56097382906699" lon="11.268760915852658"><ele>206.0</ele><time>2026-04-04T14:04:15.219Z</time></trkpt><trkpt lat="45.56083652991222" lon="11.268868178395216"><ele>205.0</ele><time>2026-04-04T14:04:16.219Z</time></trkpt><trkpt lat="45.56067826842936" lon="11.268950581843692"><ele>204.0</ele><time>2026-04-04T14:04:17.219Z</time></trkpt><trkpt lat="45.56053597542175" lon="11.269069296425226"><ele>203.0</ele><time>2026-04-04T14:04:18.219Z</time></trkpt><trkpt lat="45.560371474206704" lon="11.269171546055551"><ele>203.0</ele><time>2026-04-04T14:04:19.219Z</time></trkpt><trkpt lat="45.56020707568438" lon="11.269252029004036"><ele>203.0</ele><time>2026-04-04T14:04:20.219Z</time></trkpt><trkpt lat="45.56005019346352" lon="11.269311554005132"><ele>203.0</ele><time>2026-04-04T14:04:21.219Z</time></trkpt><trkpt lat="45.559910954588254" lon="11.269368349055606"><ele>203.0</ele><time>2026-04-04T14:04:22.219Z</time></trkpt><trkpt lat="45.559733359817635" lon="11.269407675236842"><ele>203.0</ele><time>2026-04-04T14:04:23.219Z</time></trkpt><trkpt lat="45.55957089772274" lon="11.26954025889215"><ele>203.0</ele><time>2026-04-04T14:04:24.219Z</time></trkpt><trkpt lat="45.559402929245145" lon="11.269727103544302"><ele>201.0</ele><time>2026-04-04T14:04:25.219Z</time></trkpt><trkpt lat="45.55920410347688" lon="11.269894378872154"><ele>199.0</ele><time>2026-04-04T14:04:26.219Z</time></trkpt><trkpt lat="45.55900714646702" lon="11.270081507800048"><ele>199.0</ele><time>2026-04-04T14:04:27.219Z</time></trkpt><trkpt lat="45.55881921632458" lon="11.270246718219957"><ele>199.0</ele><time>2026-04-04T14:04:28.219Z</time></trkpt><trkpt lat="45.558640336849095" lon="11.270397252257684"><ele>199.0</ele><time>2026-04-04T14:04:29.219Z</time></trkpt><trkpt lat="45.558467729866436" lon="11.27052485064672"><ele>196.66666666666666</ele><time>2026-04-04T14:04:30.219Z</time></trkpt><trkpt lat="45.55830342099692" lon="11.270664238393856"><ele>194.33333333333331</ele><time>2026-04-04T14:04:31.219Z</time></trkpt><trkpt lat="45.558138107946405" lon="11.270795606359792"><ele>192.0</ele><time>2026-04-04T14:04:32.219Z</time></trkpt><trkpt lat="45.55797012122138" lon="11.270923667334701"><ele>192.33333333333331</ele><time>2026-04-04T14:04:33.219Z</time></trkpt><trkpt lat="45.55781347183089" lon="11.271028338169158"><ele>192.66666666666666</ele><time>2026-04-04T14:04:34.219Z</time></trkpt><trkpt lat="45.557665754640695" lon="11.271114279676212"><ele>193.0</ele><time>2026-04-04T14:04:35.219Z</time></trkpt><trkpt lat="45.55750468599671" lon="11.27115733605501"><ele>193.0</ele><time>2026-04-04T14:04:36.219Z</time></trkpt><trkpt lat="45.557345981228906" lon="11.271187547861693"><ele>193.0</ele><time>2026-04-04T14:04:37.219Z</time></trkpt><trkpt lat="45.557192593725524" lon="11.271192279166128"><ele>193.0</ele><time>2026-04-04T14:04:38.219Z</time></trkpt><trkpt lat="45.557030060598166" lon="11.271196994171175"><ele>192.5</ele><time>2026-04-04T14:04:39.219Z</time></trkpt><trkpt lat="45.55688840793591" lon="11.271169294307125"><ele>192.0</ele><time>2026-04-04T14:04:40.219Z</time></trkpt><trkpt lat="45.55672891223684" lon="11.271144612284013"><ele>191.5</ele><time>2026-04-04T14:04:41.219Z</time></trkpt><trkpt lat="45.55660554853155" lon="11.271145420001071"><ele>191.0</ele><time>2026-04-04T14:04:42.219Z</time></trkpt><trkpt lat="45.55648513601415" lon="11.27114938504535"><ele>191.0</ele><time>2026-04-04T14:04:43.219Z</time></trkpt><trkpt lat="45.55635160588255" lon="11.271139932565909"><ele>191.0</ele><time>2026-04-04T14:04:44.219Z</time></trkpt><trkpt lat="45.5562203354769" lon="11.27114621918965"><ele>191.0</ele><time>2026-04-04T14:04:45.219Z</time></trkpt><trkpt lat="45.55609991734543" lon="11.271176955447677"><ele>191.0</ele><time>2026-04-04T14:04:46.219Z</time></trkpt><trkpt lat="45.5559705429819" lon="11.271201995704018"><ele>191.0</ele><time>2026-04-04T14:04:47.219Z</time></trkpt><trkpt lat="45.55582814132128" lon="11.271216221324343"><ele>191.0</ele><time>2026-04-04T14:04:48.219Z</time></trkpt><trkpt lat="45.55570707260763" lon="11.271294341137587"><ele>191.0</ele><time>2026-04-04T14:04:49.219Z</time></trkpt><trkpt lat="45.55559691781987" lon="11.271382471480958"><ele>191.0</ele><time>2026-04-04T14:04:50.219Z</time></trkpt><trkpt lat="45.55549437403771" lon="11.271499962734302"><ele>190.25</ele><time>2026-04-04T14:04:51.219Z</time></trkpt><trkpt lat="45.555385806467484" lon="11.271644847677688"><ele>189.5</ele><time>2026-04-04T14:04:52.219Z</time></trkpt><trkpt lat="45.55527284280334" lon="11.27179864103864"><ele>188.75</ele><time>2026-04-04T14:04:53.219Z</time></trkpt><trkpt lat="45.55516936161322" lon="11.271935906867483"><ele>188.0</ele><time>2026-04-04T14:04:54.219Z</time></trkpt><trkpt lat="45.555061656252164" lon="11.272067310346877"><ele>188.0</ele><time>2026-04-04T14:04:55.219Z</time></trkpt><trkpt lat="45.554940434590584" lon="11.272204334820167"><ele>188.0</ele><time>2026-04-04T14:04:56.219Z</time></trkpt><trkpt lat="45.55483282962331" lon="11.272322023957527"><ele>188.0</ele><time>2026-04-04T14:04:57.219Z</time></trkpt><trkpt lat="45.55473826931733" lon="11.27243177950609"><ele>188.0</ele><time>2026-04-04T14:04:58.219Z</time></trkpt><trkpt lat="45.554630312348415" lon="11.272518950560004"><ele>187.25</ele><time>2026-04-04T14:04:59.219Z</time></trkpt><trkpt lat="45.55451779330724" lon="11.272606005294483"><ele>186.5</ele><time>2026-04-04T14:05:00.219Z</time></trkpt><trkpt lat="45.554379717116156" lon="11.272708000501652"><ele>185.75</ele><time>2026-04-04T14:05:01.219Z</time></trkpt><trkpt lat="45.554252465960595" lon="11.272790805570626"><ele>185.0</ele><time>2026-04-04T14:05:02.219Z</time></trkpt><trkpt lat="45.55410805085257" lon="11.272909957141703"><ele>185.0</ele><time>2026-04-04T14:05:03.219Z</time></trkpt><trkpt lat="45.553961383173785" lon="11.273014502041312"><ele>185.0</ele><time>2026-04-04T14:05:04.22Z</time></trkpt><trkpt lat="45.553789215023684" lon="11.273171328013294"><ele>185.0</ele><time>2026-04-04T14:05:05.22Z</time></trkpt><trkpt lat="45.55365451913565" lon="11.273306356320198"><ele>184.33333333333331</ele><time>2026-04-04T14:05:06.22Z</time></trkpt><trkpt lat="45.55351979523557" lon="11.273427208390421"><ele>183.66666666666666</ele><time>2026-04-04T14:05:07.22Z</time></trkpt><trkpt lat="45.55337200598808" lon="11.273526437748982"><ele>183.0</ele><time>2026-04-04T14:05:08.22Z</time></trkpt><trkpt lat="45.55324193410258" lon="11.273635013647205"><ele>183.0</ele><time>2026-04-04T14:05:09.22Z</time></trkpt><trkpt lat="45.55311223297209" lon="11.273724449089741"><ele>183.0</ele><time>2026-04-04T14:05:10.22Z</time></trkpt><trkpt lat="45.553010227613136" lon="11.273816578828518"><ele>183.0</ele><time>2026-04-04T14:05:11.22Z</time></trkpt><trkpt lat="45.55290787055779" lon="11.273913770949633"><ele>183.0</ele><time>2026-04-04T14:05:12.22Z</time></trkpt><trkpt lat="45.55280321226598" lon="11.27401238016378"><ele>183.0</ele><time>2026-04-04T14:05:13.22Z</time></trkpt><trkpt lat="45.552690234557716" lon="11.274105441830999"><ele>183.0</ele><time>2026-04-04T14:05:14.22Z</time></trkpt><trkpt lat="45.55259229076216" lon="11.274202981593717"><ele>183.0</ele><time>2026-04-04T14:05:15.22Z</time></trkpt><trkpt lat="45.55248295239629" lon="11.274303073030312"><ele>183.0</ele><time>2026-04-04T14:05:16.22Z</time></trkpt><trkpt lat="45.55237315692607" lon="11.27439137412804"><ele>183.0</ele><time>2026-04-04T14:05:17.22Z</time></trkpt><trkpt lat="45.55225362522231" lon="11.274521969748795"><ele>183.0</ele><time>2026-04-04T14:05:18.22Z</time></trkpt><trkpt lat="45.55211032343354" lon="11.274656809719545"><ele>183.0</ele><time>2026-04-04T14:05:19.22Z</time></trkpt><trkpt lat="45.551955429861025" lon="11.274782563034693"><ele>182.66666666666666</ele><time>2026-04-04T14:05:20.22Z</time></trkpt><trkpt lat="45.551795726910214" lon="11.274960357569297"><ele>182.33333333333331</ele><time>2026-04-04T14:05:21.22Z</time></trkpt><trkpt lat="45.55164429188044" lon="11.275137496931453"><ele>182.0</ele><time>2026-04-04T14:05:22.22Z</time></trkpt><trkpt lat="45.55148282165147" lon="11.275262737220613"><ele>182.0</ele><time>2026-04-04T14:05:23.22Z</time></trkpt><trkpt lat="45.55135586122461" lon="11.275394736287689"><ele>182.0</ele><time>2026-04-04T14:05:24.22Z</time></trkpt><trkpt lat="45.55122627159782" lon="11.27550787404985"><ele>182.0</ele><time>2026-04-04T14:05:25.22Z</time></trkpt><trkpt lat="45.55109765850094" lon="11.27560984694709"><ele>182.0</ele><time>2026-04-04T14:05:26.22Z</time></trkpt><trkpt lat="45.55097366627637" lon="11.27571044022197"><ele>182.0</ele><time>2026-04-04T14:05:27.22Z</time></trkpt><trkpt lat="45.55087349738178" lon="11.275799919650622"><ele>182.0</ele><time>2026-04-04T14:05:28.22Z</time></trkpt><trkpt lat="45.55076946507307" lon="11.275882637208234"><ele>182.0</ele><time>2026-04-04T14:05:29.22Z</time></trkpt><trkpt lat="45.55065972571698" lon="11.275956194815851"><ele>182.0</ele><time>2026-04-04T14:05:30.22Z</time></trkpt><trkpt lat="45.55057435318262" lon="11.27606498758035"><ele>182.0</ele><time>2026-04-04T14:05:31.22Z</time></trkpt><trkpt lat="45.55047290741621" lon="11.27617000509542"><ele>182.0</ele><time>2026-04-04T14:05:32.22Z</time></trkpt><trkpt lat="45.5503636526055" lon="11.27626191296758"><ele>182.0</ele><time>2026-04-04T14:05:33.22Z</time></trkpt><trkpt lat="45.55024115667429" lon="11.276344301138183"><ele>181.0</ele><time>2026-04-04T14:05:34.22Z</time></trkpt><trkpt lat="45.55012876112565" lon="11.276449124359118"><ele>180.0</ele><time>2026-04-04T14:05:35.22Z</time></trkpt><trkpt lat="45.55001624531838" lon="11.276541911467211"><ele>179.0</ele><time>2026-04-04T14:05:36.22Z</time></trkpt><trkpt lat="45.54990457582194" lon="11.276638384806917"><ele>178.0</ele><time>2026-04-04T14:05:37.22Z</time></trkpt><trkpt lat="45.54978267456308" lon="11.2767348107291"><ele>178.0</ele><time>2026-04-04T14:05:38.22Z</time></trkpt><trkpt lat="45.54967086757388" lon="11.27683680373306"><ele>178.0</ele><time>2026-04-04T14:05:39.22Z</time></trkpt><trkpt lat="45.549537912079195" lon="11.276922373833116"><ele>178.0</ele><time>2026-04-04T14:05:40.22Z</time></trkpt><trkpt lat="45.54941871435237" lon="11.277009772010638"><ele>178.0</ele><time>2026-04-04T14:05:41.22Z</time></trkpt><trkpt lat="45.54929259221884" lon="11.27709797564537"><ele>178.0</ele><time>2026-04-04T14:05:42.22Z</time></trkpt><trkpt lat="45.549180649160114" lon="11.277203005881573"><ele>178.0</ele><time>2026-04-04T14:05:43.22Z</time></trkpt><trkpt lat="45.54909677024963" lon="11.277287094695527"><ele>178.0</ele><time>2026-04-04T14:05:44.22Z</time></trkpt><trkpt lat="45.54899186864598" lon="11.277367240923747"><ele>178.0</ele><time>2026-04-04T14:05:45.22Z</time></trkpt><trkpt lat="45.54888299479607" lon="11.277474972707704"><ele>177.0</ele><time>2026-04-04T14:05:46.22Z</time></trkpt><trkpt lat="45.54876699018672" lon="11.27758452763981"><ele>176.0</ele><time>2026-04-04T14:05:47.22Z</time></trkpt><trkpt lat="45.54862964493617" lon="11.277702212237518"><ele>175.0</ele><time>2026-04-04T14:05:48.22Z</time></trkpt><trkpt lat="45.54848832532081" lon="11.277867850893623"><ele>175.0</ele><time>2026-04-04T14:05:49.22Z</time></trkpt><trkpt lat="45.54834073366562" lon="11.278023541653718"><ele>175.0</ele><time>2026-04-04T14:05:50.22Z</time></trkpt><trkpt lat="45.54822445188312" lon="11.27816828138906"><ele>175.0</ele><time>2026-04-04T14:05:51.22Z</time></trkpt><trkpt lat="45.548120461661576" lon="11.278302690393838"><ele>175.0</ele><time>2026-04-04T14:05:52.22Z</time></trkpt><trkpt lat="45.548016208124146" lon="11.278413404279112"><ele>175.0</ele><time>2026-04-04T14:05:53.22Z</time></trkpt><trkpt lat="45.54790743979295" lon="11.27852930895078"><ele>175.0</ele><time>2026-04-04T14:05:54.22Z</time></trkpt><trkpt lat="45.54780853702003" lon="11.278636444368113"><ele>175.0</ele><time>2026-04-04T14:05:55.22Z</time></trkpt><trkpt lat="45.547718292115476" lon="11.278741175560942"><ele>175.0</ele><time>2026-04-04T14:05:56.22Z</time></trkpt><trkpt lat="45.54763090697814" lon="11.278851692984942"><ele>175.0</ele><time>2026-04-04T14:05:57.22Z</time></trkpt><trkpt lat="45.54753217046506" lon="11.278961740032727"><ele>175.0</ele><time>2026-04-04T14:05:58.22Z</time></trkpt><trkpt lat="45.547427980624526" lon="11.279075243159086"><ele>175.0</ele><time>2026-04-04T14:05:59.22Z</time></trkpt><trkpt lat="45.547352225860465" lon="11.279183860725265"><ele>175.0</ele><time>2026-04-04T14:06:00.22Z</time></trkpt><trkpt lat="45.54728901532928" lon="11.279243306865453"><ele>175.0</ele><time>2026-04-04T14:06:01.22Z</time></trkpt><trkpt lat="45.547186977648245" lon="11.279333060059475"><ele>175.0</ele><time>2026-04-04T14:06:02.22Z</time></trkpt><trkpt lat="45.54707175226234" lon="11.279447864754088"><ele>175.0</ele><time>2026-04-04T14:06:03.22Z</time></trkpt><trkpt lat="45.546967587646286" lon="11.279531362440315"><ele>175.25</ele><time>2026-04-04T14:06:04.22Z</time></trkpt><trkpt lat="45.54686007736166" lon="11.279640201477838"><ele>175.5</ele><time>2026-04-04T14:06:05.22Z</time></trkpt><trkpt lat="45.54676780437827" lon="11.279746534867588"><ele>175.75</ele><time>2026-04-04T14:06:06.22Z</time></trkpt><trkpt lat="45.546668938847695" lon="11.279847202655942"><ele>176.0</ele><time>2026-04-04T14:06:07.22Z</time></trkpt><trkpt lat="45.546563785761926" lon="11.279930448044896"><ele>175.25</ele><time>2026-04-04T14:06:08.22Z</time></trkpt><trkpt lat="45.546473931735676" lon="11.280057526809543"><ele>174.5</ele><time>2026-04-04T14:06:09.22Z</time></trkpt><trkpt lat="45.54639487316201" lon="11.280188622857697"><ele>173.75</ele><time>2026-04-04T14:06:10.22Z</time></trkpt><trkpt lat="45.54630286013184" lon="11.280288302968568"><ele>173.0</ele><time>2026-04-04T14:06:11.22Z</time></trkpt><trkpt lat="45.54621327184547" lon="11.280398085353989"><ele>173.0</ele><time>2026-04-04T14:06:12.22Z</time></trkpt><trkpt lat="45.54611265941522" lon="11.280544062505154"><ele>173.0</ele><time>2026-04-04T14:06:13.22Z</time></trkpt><trkpt lat="45.54601500525473" lon="11.28069198421066"><ele>173.0</ele><time>2026-04-04T14:06:14.22Z</time></trkpt><trkpt lat="45.54592845711318" lon="11.28086303224779"><ele>173.0</ele><time>2026-04-04T14:06:15.22Z</time></trkpt><trkpt lat="45.545815978016066" lon="11.281059094362389"><ele>172.66666666666666</ele><time>2026-04-04T14:06:16.22Z</time></trkpt><trkpt lat="45.54567844714294" lon="11.2812756756361"><ele>172.33333333333334</ele><time>2026-04-04T14:06:17.22Z</time></trkpt><trkpt lat="45.54551712538143" lon="11.281514667768874"><ele>172.0</ele><time>2026-04-04T14:06:18.22Z</time></trkpt><trkpt lat="45.54534006694734" lon="11.281741250816806"><ele>171.66666666666669</ele><time>2026-04-04T14:06:19.22Z</time></trkpt><trkpt lat="45.5451873344733" lon="11.28196264903994"><ele>171.33333333333334</ele><time>2026-04-04T14:06:20.22Z</time></trkpt><trkpt lat="45.545024321950784" lon="11.282166192036163"><ele>171.0</ele><time>2026-04-04T14:06:21.22Z</time></trkpt><trkpt lat="45.54487035332313" lon="11.282357680554504"><ele>170.66666666666666</ele><time>2026-04-04T14:06:22.22Z</time></trkpt><trkpt lat="45.544725873527696" lon="11.282540878176436"><ele>170.33333333333331</ele><time>2026-04-04T14:06:23.22Z</time></trkpt><trkpt lat="45.544590018225946" lon="11.28272733351062"><ele>170.0</ele><time>2026-04-04T14:06:24.22Z</time></trkpt><trkpt lat="45.54444124654347" lon="11.282887770667127"><ele>170.0</ele><time>2026-04-04T14:06:25.22Z</time></trkpt><trkpt lat="45.54431681833583" lon="11.283034956779597"><ele>170.0</ele><time>2026-04-04T14:06:26.22Z</time></trkpt><trkpt lat="45.54420630113328" lon="11.283155111729881"><ele>170.0</ele><time>2026-04-04T14:06:27.22Z</time></trkpt><trkpt lat="45.54409051959341" lon="11.28331349169431"><ele>169.5</ele><time>2026-04-04T14:06:28.22Z</time></trkpt><trkpt lat="45.54397135600169" lon="11.2834644416817"><ele>169.0</ele><time>2026-04-04T14:06:29.22Z</time></trkpt><trkpt lat="45.54386327602555" lon="11.283600821834753"><ele>168.5</ele><time>2026-04-04T14:06:30.22Z</time></trkpt><trkpt lat="45.5437659771619" lon="11.283725515187703"><ele>168.0</ele><time>2026-04-04T14:06:31.22Z</time></trkpt><trkpt lat="45.54365949411191" lon="11.283857049682327"><ele>167.4</ele><time>2026-04-04T14:06:32.22Z</time></trkpt><trkpt lat="45.543576872327094" lon="11.283982664040455"><ele>166.8</ele><time>2026-04-04T14:06:33.22Z</time></trkpt><trkpt lat="45.54351285751843" lon="11.284092840066739"><ele>166.2</ele><time>2026-04-04T14:06:34.22Z</time></trkpt><trkpt lat="45.54342705898471" lon="11.284203772592429"><ele>165.6</ele><time>2026-04-04T14:06:35.22Z</time></trkpt><trkpt lat="45.54336437029875" lon="11.284293430699721"><ele>165.0</ele><time>2026-04-04T14:06:36.22Z</time></trkpt><trkpt lat="45.54329314883749" lon="11.284382255132275"><ele>165.0</ele><time>2026-04-04T14:06:37.22Z</time></trkpt><trkpt lat="45.543237346032086" lon="11.28445946887985"><ele>165.0</ele><time>2026-04-04T14:06:38.22Z</time></trkpt><trkpt lat="45.54317684029541" lon="11.284491804870052"><ele>165.0</ele><time>2026-04-04T14:06:39.22Z</time></trkpt><trkpt lat="45.54311184711145" lon="11.284528516170784"><ele>165.0</ele><time>2026-04-04T14:06:40.22Z</time></trkpt><trkpt lat="45.543033340024394" lon="11.284540430195056"><ele>165.0</ele><time>2026-04-04T14:06:41.22Z</time></trkpt><trkpt lat="45.54297164173221" lon="11.284559734736572"><ele>165.0</ele><time>2026-04-04T14:06:43.22Z</time></trkpt><trkpt lat="45.543012477252276" lon="11.28470768126118"><ele>165.0</ele><time>2026-04-04T14:07:26.221Z</time></trkpt><trkpt lat="45.5428892139374" lon="11.284860788491224"><ele>165.0</ele><time>2026-04-04T14:07:28.221Z</time></trkpt><trkpt lat="45.54277052974892" lon="11.285004743031955"><ele>165.0</ele><time>2026-04-04T14:07:29.221Z</time></trkpt><trkpt lat="45.5426250900023" lon="11.285174893218642"><ele>165.0</ele><time>2026-04-04T14:07:30.221Z</time></trkpt><trkpt lat="45.54246898919867" lon="11.285422775830156"><ele>165.0</ele><time>2026-04-04T14:07:31.221Z</time></trkpt><trkpt lat="45.54227955084927" lon="11.285681151250452"><ele>164.5</ele><time>2026-04-04T14:07:32.221Z</time></trkpt><trkpt lat="45.542091539553574" lon="11.285943217587722"><ele>164.0</ele><time>2026-04-04T14:07:33.221Z</time></trkpt><trkpt lat="45.541873387660786" lon="11.286218475401013"><ele>164.0</ele><time>2026-04-04T14:07:34.221Z</time></trkpt><trkpt lat="45.54165866391657" lon="11.28646981752051"><ele>164.0</ele><time>2026-04-04T14:07:35.221Z</time></trkpt><trkpt lat="45.54146043536164" lon="11.286736138338128"><ele>164.0</ele><time>2026-04-04T14:07:36.221Z</time></trkpt><trkpt lat="45.54129097023396" lon="11.287004870261326"><ele>164.0</ele><time>2026-04-04T14:07:37.221Z</time></trkpt><trkpt lat="45.54114490826157" lon="11.287273841084087"><ele>163.33333333333331</ele><time>2026-04-04T14:07:38.221Z</time></trkpt><trkpt lat="45.54099795724607" lon="11.287510630708208"><ele>162.66666666666666</ele><time>2026-04-04T14:07:39.221Z</time></trkpt><trkpt lat="45.54086148014537" lon="11.287749603596481"><ele>162.0</ele><time>2026-04-04T14:07:40.221Z</time></trkpt><trkpt lat="45.54076107256797" lon="11.287980309425318"><ele>162.0</ele><time>2026-04-04T14:07:41.221Z</time></trkpt><trkpt lat="45.540661560412964" lon="11.288153129341238"><ele>162.0</ele><time>2026-04-04T14:07:42.221Z</time></trkpt><trkpt lat="45.54055988148367" lon="11.288320814077968"><ele>162.0</ele><time>2026-04-04T14:07:43.221Z</time></trkpt><trkpt lat="45.54052641836231" lon="11.28845870730487"><ele>162.0</ele><time>2026-04-04T14:07:44.221Z</time></trkpt><trkpt lat="45.540487487070834" lon="11.288577314670675"><ele>162.0</ele><time>2026-04-04T14:07:45.221Z</time></trkpt><trkpt lat="45.54043692893307" lon="11.288704465228331"><ele>162.0</ele><time>2026-04-04T14:07:46.221Z</time></trkpt><trkpt lat="45.54040124338705" lon="11.288800231349382"><ele>162.0</ele><time>2026-04-04T14:07:47.221Z</time></trkpt><trkpt lat="45.54031885358197" lon="11.28891969953487"><ele>162.0</ele><time>2026-04-04T14:07:48.221Z</time></trkpt><trkpt lat="45.54026723549595" lon="11.288984615378416"><ele>162.0</ele><time>2026-04-04T14:07:49.221Z</time></trkpt><trkpt lat="45.54022386570535" lon="11.28905332855127"><ele>162.0</ele><time>2026-04-04T14:07:50.221Z</time></trkpt><trkpt lat="45.54016733677656" lon="11.289156509685576"><ele>161.75</ele><time>2026-04-04T14:07:52.221Z</time></trkpt><trkpt lat="45.54011371421767" lon="11.289241057874667"><ele>161.5</ele><time>2026-04-04T14:07:54.221Z</time></trkpt><trkpt lat="45.54004617110374" lon="11.28935341094991"><ele>161.25</ele><time>2026-04-04T14:07:55.221Z</time></trkpt><trkpt lat="45.53993871165109" lon="11.289529402882321"><ele>161.0</ele><time>2026-04-04T14:07:56.221Z</time></trkpt><trkpt lat="45.539843765651206" lon="11.289766068424996"><ele>161.0</ele><time>2026-04-04T14:07:57.221Z</time></trkpt><trkpt lat="45.53973681998063" lon="11.2900221924004"><ele>161.0</ele><time>2026-04-04T14:07:58.221Z</time></trkpt><trkpt lat="45.53963795133181" lon="11.290255243836294"><ele>161.0</ele><time>2026-04-04T14:07:59.221Z</time></trkpt><trkpt lat="45.5394971403645" lon="11.290482429274043"><ele>160.33333333333331</ele><time>2026-04-04T14:08:00.221Z</time></trkpt><trkpt lat="45.53936334492727" lon="11.290665661710708"><ele>159.66666666666666</ele><time>2026-04-04T14:08:01.221Z</time></trkpt><trkpt lat="45.53923637569444" lon="11.290826484694694"><ele>159.0</ele><time>2026-04-04T14:08:02.221Z</time></trkpt><trkpt lat="45.539137515941185" lon="11.291000496910604"><ele>159.0</ele><time>2026-04-04T14:08:03.221Z</time></trkpt><trkpt lat="45.53901778982506" lon="11.291194168123518"><ele>159.0</ele><time>2026-04-04T14:08:04.221Z</time></trkpt><trkpt lat="45.53889949101683" lon="11.291457948383925"><ele>159.0</ele><time>2026-04-04T14:08:05.221Z</time></trkpt><trkpt lat="45.53872600460743" lon="11.291749893870184"><ele>158.5</ele><time>2026-04-04T14:08:06.221Z</time></trkpt><trkpt lat="45.53856574368098" lon="11.292063666584523"><ele>158.0</ele><time>2026-04-04T14:08:07.221Z</time></trkpt><trkpt lat="45.53842584011371" lon="11.292302395491511"><ele>157.66666666666666</ele><time>2026-04-04T14:08:08.221Z</time></trkpt><trkpt lat="45.538313369289284" lon="11.292548117985424"><ele>157.33333333333334</ele><time>2026-04-04T14:08:09.221Z</time></trkpt><trkpt lat="45.538200809786744" lon="11.29279301805502"><ele>157.0</ele><time>2026-04-04T14:08:10.221Z</time></trkpt><trkpt lat="45.538087478059786" lon="11.293023291608764"><ele>156.75</ele><time>2026-04-04T14:08:11.221Z</time></trkpt><trkpt lat="45.537994638517056" lon="11.293210751888894"><ele>156.5</ele><time>2026-04-04T14:08:12.221Z</time></trkpt><trkpt lat="45.53791747643639" lon="11.293388202636905"><ele>156.25</ele><time>2026-04-04T14:08:13.221Z</time></trkpt><trkpt lat="45.537878426430666" lon="11.29355680863524"><ele>156.0</ele><time>2026-04-04T14:08:14.221Z</time></trkpt><trkpt lat="45.53781098525721" lon="11.293720876775499"><ele>156.0</ele><time>2026-04-04T14:08:15.221Z</time></trkpt><trkpt lat="45.537754568035396" lon="11.293879749903219"><ele>156.0</ele><time>2026-04-04T14:08:16.221Z</time></trkpt><trkpt lat="45.537708220861866" lon="11.29402653922858"><ele>156.0</ele><time>2026-04-04T14:08:17.221Z</time></trkpt><trkpt lat="45.537674509973215" lon="11.294129196712674"><ele>156.0</ele><time>2026-04-04T14:08:18.221Z</time></trkpt><trkpt lat="45.537634135453956" lon="11.2942826233507"><ele>156.0</ele><time>2026-04-04T14:08:19.221Z</time></trkpt><trkpt lat="45.537576365297895" lon="11.294451562946186"><ele>156.0</ele><time>2026-04-04T14:08:20.221Z</time></trkpt><trkpt lat="45.53753659376742" lon="11.294591490006214"><ele>156.0</ele><time>2026-04-04T14:08:21.221Z</time></trkpt><trkpt lat="45.537453151062515" lon="11.294791078437887"><ele>156.0</ele><time>2026-04-04T14:08:22.221Z</time></trkpt><trkpt lat="45.53739341278366" lon="11.295009686675801"><ele>156.0</ele><time>2026-04-04T14:08:23.221Z</time></trkpt><trkpt lat="45.537323552484615" lon="11.295205990359564"><ele>155.5</ele><time>2026-04-04T14:08:24.221Z</time></trkpt><trkpt lat="45.537241027413906" lon="11.295390289335616"><ele>155.0</ele><time>2026-04-04T14:08:25.221Z</time></trkpt><trkpt lat="45.53716072703384" lon="11.295527143037019"><ele>154.5</ele><time>2026-04-04T14:08:26.221Z</time></trkpt><trkpt lat="45.53707947568777" lon="11.295663979958249"><ele>154.0</ele><time>2026-04-04T14:08:27.221Z</time></trkpt><trkpt lat="45.53700444901154" lon="11.29580985457025"><ele>153.6</ele><time>2026-04-04T14:08:28.221Z</time></trkpt><trkpt lat="45.53694561004535" lon="11.295938124138681"><ele>153.2</ele><time>2026-04-04T14:08:29.221Z</time></trkpt><trkpt lat="45.53687249015115" lon="11.29606369508506"><ele>152.79999999999998</ele><time>2026-04-04T14:08:30.221Z</time></trkpt><trkpt lat="45.53680587771995" lon="11.296182724013157"><ele>152.4</ele><time>2026-04-04T14:08:31.221Z</time></trkpt><trkpt lat="45.536748356792415" lon="11.296282996121137"><ele>152.0</ele><time>2026-04-04T14:08:32.221Z</time></trkpt><trkpt lat="45.536680420866425" lon="11.296402063614442"><ele>151.25</ele><time>2026-04-04T14:08:33.221Z</time></trkpt><trkpt lat="45.53661006731676" lon="11.296534871353396"><ele>150.5</ele><time>2026-04-04T14:08:34.221Z</time></trkpt><trkpt lat="45.53652692090874" lon="11.296668506875474"><ele>149.75</ele><time>2026-04-04T14:08:35.221Z</time></trkpt><trkpt lat="45.536455368524024" lon="11.296800646371022"><ele>149.0</ele><time>2026-04-04T14:08:36.221Z</time></trkpt><trkpt lat="45.5363674785909" lon="11.296922311935354"><ele>149.0</ele><time>2026-04-04T14:08:37.221Z</time></trkpt><trkpt lat="45.536302141223054" lon="11.297053712966317"><ele>149.0</ele><time>2026-04-04T14:08:38.221Z</time></trkpt><trkpt lat="45.536239259497975" lon="11.29716627394405"><ele>149.0</ele><time>2026-04-04T14:08:39.221Z</time></trkpt><trkpt lat="45.5361899126078" lon="11.297282669923103"><ele>149.0</ele><time>2026-04-04T14:08:40.221Z</time></trkpt><trkpt lat="45.53612667353279" lon="11.297389890348118"><ele>149.0</ele><time>2026-04-04T14:08:41.221Z</time></trkpt><trkpt lat="45.53605120932237" lon="11.297520103468282"><ele>149.0</ele><time>2026-04-04T14:08:42.221Z</time></trkpt><trkpt lat="45.535990918031395" lon="11.297650346837434"><ele>149.0</ele><time>2026-04-04T14:08:43.221Z</time></trkpt><trkpt lat="45.53594936283718" lon="11.297827337535258"><ele>149.0</ele><time>2026-04-04T14:08:44.221Z</time></trkpt><trkpt lat="45.535882191455876" lon="11.29803426560748"><ele>149.0</ele><time>2026-04-04T14:08:45.221Z</time></trkpt><trkpt lat="45.53576891210231" lon="11.298264560335898"><ele>149.0</ele><time>2026-04-04T14:08:46.221Z</time></trkpt><trkpt lat="45.535663802730625" lon="11.298469462020625"><ele>149.0</ele><time>2026-04-04T14:08:47.221Z</time></trkpt><trkpt lat="45.53556280993844" lon="11.298687039011202"><ele>149.0</ele><time>2026-04-04T14:08:48.221Z</time></trkpt><trkpt lat="45.53547794202628" lon="11.298920510740151"><ele>149.0</ele><time>2026-04-04T14:08:49.221Z</time></trkpt><trkpt lat="45.53538356583096" lon="11.299150572261345"><ele>149.0</ele><time>2026-04-04T14:08:50.221Z</time></trkpt><trkpt lat="45.53526930450091" lon="11.29938870835067"><ele>149.0</ele><time>2026-04-04T14:08:51.221Z</time></trkpt><trkpt lat="45.535140468474985" lon="11.299657699368774"><ele>148.66666666666666</ele><time>2026-04-04T14:08:52.221Z</time></trkpt><trkpt lat="45.53501385928276" lon="11.299896910076171"><ele>148.33333333333334</ele><time>2026-04-04T14:08:53.221Z</time></trkpt><trkpt lat="45.53489176499674" lon="11.300134584850866"><ele>148.0</ele><time>2026-04-04T14:08:54.221Z</time></trkpt><trkpt lat="45.534779566302305" lon="11.30036840396184"><ele>148.0</ele><time>2026-04-04T14:08:55.221Z</time></trkpt><trkpt lat="45.534678235419804" lon="11.300597639474358"><ele>148.0</ele><time>2026-04-04T14:08:56.221Z</time></trkpt><trkpt lat="45.53460242808272" lon="11.300787532232885"><ele>148.0</ele><time>2026-04-04T14:08:57.221Z</time></trkpt><trkpt lat="45.5345282788635" lon="11.300972963330224"><ele>147.5</ele><time>2026-04-04T14:08:58.221Z</time></trkpt><trkpt lat="45.534473495766306" lon="11.301124102437676"><ele>147.0</ele><time>2026-04-04T14:08:59.221Z</time></trkpt><trkpt lat="45.53440615769799" lon="11.301290697499612"><ele>146.5</ele><time>2026-04-04T14:09:00.221Z</time></trkpt><trkpt lat="45.53434466153045" lon="11.30145048303173"><ele>146.0</ele><time>2026-04-04T14:09:01.221Z</time></trkpt><trkpt lat="45.53429264285781" lon="11.301602625501971"><ele>146.0</ele><time>2026-04-04T14:09:02.221Z</time></trkpt><trkpt lat="45.534208234153795" lon="11.301746582444684"><ele>146.0</ele><time>2026-04-04T14:09:03.221Z</time></trkpt><trkpt lat="45.53413038200251" lon="11.30189392892105"><ele>146.0</ele><time>2026-04-04T14:09:04.221Z</time></trkpt><trkpt lat="45.53405136178734" lon="11.302073669500206"><ele>146.0</ele><time>2026-04-04T14:09:05.221Z</time></trkpt><trkpt lat="45.533967520198445" lon="11.30229574374186"><ele>146.0</ele><time>2026-04-04T14:09:06.221Z</time></trkpt><trkpt lat="45.533863122534974" lon="11.30253854133445"><ele>146.0</ele><time>2026-04-04T14:09:07.221Z</time></trkpt><trkpt lat="45.53375516689168" lon="11.302788240658792"><ele>146.0</ele><time>2026-04-04T14:09:08.221Z</time></trkpt><trkpt lat="45.53363524726827" lon="11.303042990181389"><ele>145.66666666666666</ele><time>2026-04-04T14:09:09.221Z</time></trkpt><trkpt lat="45.53352886928888" lon="11.303275062055114"><ele>145.33333333333334</ele><time>2026-04-04T14:09:10.221Z</time></trkpt><trkpt lat="45.53342216534412" lon="11.303507788783538"><ele>145.0</ele><time>2026-04-04T14:09:11.221Z</time></trkpt><trkpt lat="45.533328983900766" lon="11.303732518007367"><ele>145.0</ele><time>2026-04-04T14:09:12.221Z</time></trkpt><trkpt lat="45.53325614220066" lon="11.303941275104247"><ele>145.0</ele><time>2026-04-04T14:09:13.221Z</time></trkpt><trkpt lat="45.533172547716994" lon="11.304143605889669"><ele>145.0</ele><time>2026-04-04T14:09:14.221Z</time></trkpt><trkpt lat="45.533097257585" lon="11.304306790111834"><ele>145.0</ele><time>2026-04-04T14:09:15.221Z</time></trkpt><trkpt lat="45.53302299030347" lon="11.304473421976176"><ele>145.0</ele><time>2026-04-04T14:09:16.222Z</time></trkpt><trkpt lat="45.53294165792018" lon="11.304622143066927"><ele>145.0</ele><time>2026-04-04T14:09:17.222Z</time></trkpt><trkpt lat="45.53286943540905" lon="11.304767832026632"><ele>145.0</ele><time>2026-04-04T14:09:18.222Z</time></trkpt><trkpt lat="45.53279441363679" lon="11.304928030803216"><ele>144.0</ele><time>2026-04-04T14:09:19.222Z</time></trkpt><trkpt lat="45.53272096493196" lon="11.305092129528575"><ele>143.0</ele><time>2026-04-04T14:09:20.222Z</time></trkpt><trkpt lat="45.532644694220174" lon="11.305251859385399"><ele>142.0</ele><time>2026-04-04T14:09:21.222Z</time></trkpt><trkpt lat="45.53257474678223" lon="11.305390432705684"><ele>141.0</ele><time>2026-04-04T14:09:22.222Z</time></trkpt><trkpt lat="45.532524080278066" lon="11.305492382373325"><ele>140.6</ele><time>2026-04-04T14:09:23.222Z</time></trkpt><trkpt lat="45.532457060583575" lon="11.305608321510823"><ele>140.2</ele><time>2026-04-04T14:09:24.222Z</time></trkpt><trkpt lat="45.53242055850466" lon="11.305726167686048"><ele>139.8</ele><time>2026-04-04T14:09:25.222Z</time></trkpt><trkpt lat="45.53233481940073" lon="11.305810092291049"><ele>139.4</ele><time>2026-04-04T14:09:26.222Z</time></trkpt><trkpt lat="45.53224794350682" lon="11.305915837861507"><ele>139.0</ele><time>2026-04-04T14:09:27.222Z</time></trkpt><trkpt lat="45.53218302869892" lon="11.306047241459243"><ele>139.0</ele><time>2026-04-04T14:09:28.222Z</time></trkpt><trkpt lat="45.53209585930396" lon="11.306180503519146"><ele>139.0</ele><time>2026-04-04T14:09:29.222Z</time></trkpt><trkpt lat="45.532052312767924" lon="11.306290867022385"><ele>139.0</ele><time>2026-04-04T14:09:30.222Z</time></trkpt><trkpt lat="45.53197964080209" lon="11.306415007783283"><ele>139.0</ele><time>2026-04-04T14:09:31.222Z</time></trkpt><trkpt lat="45.53190617710989" lon="11.30652856299198"><ele>139.0</ele><time>2026-04-04T14:09:32.222Z</time></trkpt><trkpt lat="45.531841723216665" lon="11.306650343782524"><ele>138.8</ele><time>2026-04-04T14:09:33.222Z</time></trkpt><trkpt lat="45.53179809989312" lon="11.30677760776755"><ele>138.60000000000002</ele><time>2026-04-04T14:09:34.222Z</time></trkpt><trkpt lat="45.53174364874022" lon="11.306889811779687"><ele>138.4</ele><time>2026-04-04T14:09:35.222Z</time></trkpt><trkpt lat="45.531675058502394" lon="11.306990085508497"><ele>138.20000000000002</ele><time>2026-04-04T14:09:36.222Z</time></trkpt><trkpt lat="45.531617145357025" lon="11.307069668290197"><ele>138.0</ele><time>2026-04-04T14:09:37.222Z</time></trkpt><trkpt lat="45.53155538168814" lon="11.307161760397934"><ele>138.0</ele><time>2026-04-04T14:09:38.222Z</time></trkpt><trkpt lat="45.53150921461012" lon="11.307247527559435"><ele>138.0</ele><time>2026-04-04T14:09:39.222Z</time></trkpt><trkpt lat="45.53145882793297" lon="11.307332475486907"><ele>138.0</ele><time>2026-04-04T14:09:40.222Z</time></trkpt><trkpt lat="45.531400295979566" lon="11.307416410658574"><ele>138.0</ele><time>2026-04-04T14:09:41.222Z</time></trkpt><trkpt lat="45.53130901273949" lon="11.307553270957706"><ele>138.0</ele><time>2026-04-04T14:09:43.222Z</time></trkpt><trkpt lat="45.53126751520077" lon="11.30762498166596"><ele>138.0</ele><time>2026-04-04T14:09:44.222Z</time></trkpt><trkpt lat="45.53121075190761" lon="11.307689531866943"><ele>138.0</ele><time>2026-04-04T14:09:45.222Z</time></trkpt><trkpt lat="45.531125079824214" lon="11.307776058061929"><ele>138.0</ele><time>2026-04-04T14:09:47.222Z</time></trkpt><trkpt lat="45.53101891646195" lon="11.30783065940125"><ele>138.0</ele><time>2026-04-04T14:09:49.222Z</time></trkpt><trkpt lat="45.53094107777542" lon="11.30793663657452"><ele>138.0</ele><time>2026-04-04T14:09:51.222Z</time></trkpt><trkpt lat="45.53090340340106" lon="11.308048603308139"><ele>138.0</ele><time>2026-04-04T14:09:53.222Z</time></trkpt><trkpt lat="45.53091657282601" lon="11.308154878711173"><ele>137.6</ele><time>2026-04-04T14:09:55.222Z</time></trkpt><trkpt lat="45.53092095493713" lon="11.308251210220027"><ele>137.20000000000002</ele><time>2026-04-04T14:09:57.222Z</time></trkpt><trkpt lat="45.53090707252429" lon="11.308392699100823"><ele>136.8</ele><time>2026-04-04T14:10:00.222Z</time></trkpt><trkpt lat="45.5308445962383" lon="11.308576310200186"><ele>136.4</ele><time>2026-04-04T14:10:02.222Z</time></trkpt><trkpt lat="45.530761598861645" lon="11.308713446891288"><ele>136.0</ele><time>2026-04-04T14:10:04.222Z</time></trkpt><trkpt lat="45.53068902870997" lon="11.30886953071629"><ele>136.28571428571428</ele><time>2026-04-04T14:10:06.222Z</time></trkpt><trkpt lat="45.53064703823682" lon="11.308952651843486"><ele>136.57142857142856</ele><time>2026-04-04T14:10:07.222Z</time></trkpt><trkpt lat="45.53062718979214" lon="11.309073367032479"><ele>136.85714285714286</ele><time>2026-04-04T14:10:08.222Z</time></trkpt><trkpt lat="45.530597739031926" lon="11.309153197062802"><ele>137.14285714285714</ele><time>2026-04-04T14:10:09.222Z</time></trkpt><trkpt lat="45.53055713205526" lon="11.309237707797168"><ele>137.42857142857144</ele><time>2026-04-04T14:10:10.222Z</time></trkpt><trkpt lat="45.53051633823553" lon="11.309329784892682"><ele>137.71428571428572</ele><time>2026-04-04T14:10:11.222Z</time></trkpt><trkpt lat="45.530491891625914" lon="11.30941613945837"><ele>138.0</ele><time>2026-04-04T14:10:12.222Z</time></trkpt><trkpt lat="45.53044067171143" lon="11.309528201629353"><ele>138.0</ele><time>2026-04-04T14:10:13.222Z</time></trkpt><trkpt lat="45.5303951113528" lon="11.309652065831964"><ele>138.0</ele><time>2026-04-04T14:10:14.222Z</time></trkpt><trkpt lat="45.53034472762294" lon="11.309793056877385"><ele>138.0</ele><time>2026-04-04T14:10:15.222Z</time></trkpt><trkpt lat="45.53029255632739" lon="11.309961687510572"><ele>138.0</ele><time>2026-04-04T14:10:16.222Z</time></trkpt><trkpt lat="45.53022034756721" lon="11.310128260362927"><ele>138.0</ele><time>2026-04-04T14:10:17.222Z</time></trkpt><trkpt lat="45.53015795397571" lon="11.310298720693028"><ele>138.0</ele><time>2026-04-04T14:10:18.222Z</time></trkpt><trkpt lat="45.530086225599455" lon="11.31046153021529"><ele>138.0</ele><time>2026-04-04T14:10:19.222Z</time></trkpt><trkpt lat="45.53003672705777" lon="11.310601660538286"><ele>138.0</ele><time>2026-04-04T14:10:20.222Z</time></trkpt><trkpt lat="45.529993183765676" lon="11.310743631384032"><ele>138.0</ele><time>2026-04-04T14:10:21.222Z</time></trkpt><trkpt lat="45.5299437118417" lon="11.3108844831715"><ele>138.0</ele><time>2026-04-04T14:10:22.222Z</time></trkpt><trkpt lat="45.52987984689152" lon="11.311027589711445"><ele>138.0</ele><time>2026-04-04T14:10:23.222Z</time></trkpt><trkpt lat="45.52980773906939" lon="11.311197089555433"><ele>138.0</ele><time>2026-04-04T14:10:24.222Z</time></trkpt><trkpt lat="45.529702538116176" lon="11.311420377830732"><ele>137.33333333333334</ele><time>2026-04-04T14:10:25.222Z</time></trkpt><trkpt lat="45.529607994906954" lon="11.311668478563563"><ele>136.66666666666669</ele><time>2026-04-04T14:10:26.222Z</time></trkpt><trkpt lat="45.529549785875815" lon="11.31186675480176"><ele>136.0</ele><time>2026-04-04T14:10:27.222Z</time></trkpt><trkpt lat="45.529479823081296" lon="11.312064664346245"><ele>136.0</ele><time>2026-04-04T14:10:28.222Z</time></trkpt><trkpt lat="45.529428332095" lon="11.312238929036257"><ele>136.0</ele><time>2026-04-04T14:10:29.222Z</time></trkpt><trkpt lat="45.529348890151624" lon="11.312436621832946"><ele>136.0</ele><time>2026-04-04T14:10:30.222Z</time></trkpt><trkpt lat="45.52928073392769" lon="11.312676740623749"><ele>135.66666666666669</ele><time>2026-04-04T14:10:31.222Z</time></trkpt><trkpt lat="45.52916965260058" lon="11.312895421332955"><ele>135.33333333333334</ele><time>2026-04-04T14:10:32.222Z</time></trkpt><trkpt lat="45.529083234658906" lon="11.313101945766638"><ele>135.0</ele><time>2026-04-04T14:10:33.222Z</time></trkpt><trkpt lat="45.529011837076325" lon="11.313317261420067"><ele>136.66666666666666</ele><time>2026-04-04T14:10:34.222Z</time></trkpt><trkpt lat="45.52894686698884" lon="11.313516150753156"><ele>138.33333333333331</ele><time>2026-04-04T14:10:35.222Z</time></trkpt><trkpt lat="45.52886414223946" lon="11.313714918341047"><ele>140.0</ele><time>2026-04-04T14:10:36.222Z</time></trkpt><trkpt lat="45.52879403316096" lon="11.313923696045377"><ele>138.33333333333331</ele><time>2026-04-04T14:10:37.222Z</time></trkpt><trkpt lat="45.5287127395034" lon="11.314138270247197"><ele>136.66666666666666</ele><time>2026-04-04T14:10:38.222Z</time></trkpt><trkpt lat="45.52861892217854" lon="11.314351775941095"><ele>135.0</ele><time>2026-04-04T14:10:39.222Z</time></trkpt><trkpt lat="45.528531674338886" lon="11.31455702528793"><ele>135.33333333333334</ele><time>2026-04-04T14:10:40.222Z</time></trkpt><trkpt lat="45.52842818572636" lon="11.314783572751661"><ele>135.66666666666669</ele><time>2026-04-04T14:10:41.222Z</time></trkpt><trkpt lat="45.528332776063024" lon="11.315036300407526"><ele>136.0</ele><time>2026-04-04T14:10:42.222Z</time></trkpt><trkpt lat="45.528233042900524" lon="11.315299135141167"><ele>136.5</ele><time>2026-04-04T14:10:43.222Z</time></trkpt><trkpt lat="45.52811560430671" lon="11.315585248302682"><ele>137.0</ele><time>2026-04-04T14:10:44.222Z</time></trkpt><trkpt lat="45.52797768027855" lon="11.315857823377831"><ele>134.0</ele><time>2026-04-04T14:10:45.222Z</time></trkpt><trkpt lat="45.527852119009204" lon="11.316111079480565"><ele>131.0</ele><time>2026-04-04T14:10:46.222Z</time></trkpt><trkpt lat="45.52773893375221" lon="11.316366914078893"><ele>128.0</ele><time>2026-04-04T14:10:47.222Z</time></trkpt><trkpt lat="45.52762186193111" lon="11.316628968580567"><ele>128.0</ele><time>2026-04-04T14:10:48.222Z</time></trkpt><trkpt lat="45.527516039800965" lon="11.316881020954412"><ele>128.0</ele><time>2026-04-04T14:10:49.222Z</time></trkpt><trkpt lat="45.52741292150576" lon="11.317151085294915"><ele>128.0</ele><time>2026-04-04T14:10:50.222Z</time></trkpt><trkpt lat="45.52732192056224" lon="11.31736881945485"><ele>128.33333333333331</ele><time>2026-04-04T14:10:51.222Z</time></trkpt><trkpt lat="45.52722710306193" lon="11.317624795346358"><ele>128.66666666666666</ele><time>2026-04-04T14:10:52.222Z</time></trkpt><trkpt lat="45.52713842992446" lon="11.317849483288672"><ele>129.0</ele><time>2026-04-04T14:10:53.222Z</time></trkpt><trkpt lat="45.52703726727015" lon="11.318061821680256"><ele>128.33333333333334</ele><time>2026-04-04T14:10:54.222Z</time></trkpt><trkpt lat="45.526936615714156" lon="11.318263025586242"><ele>127.66666666666667</ele><time>2026-04-04T14:10:55.222Z</time></trkpt><trkpt lat="45.52685312551452" lon="11.318484992348802"><ele>127.0</ele><time>2026-04-04T14:10:56.222Z</time></trkpt><trkpt lat="45.52678349509548" lon="11.318713208326969"><ele>127.0</ele><time>2026-04-04T14:10:57.222Z</time></trkpt><trkpt lat="45.52672945545554" lon="11.31891497990031"><ele>127.0</ele><time>2026-04-04T14:10:58.222Z</time></trkpt><trkpt lat="45.52665669211317" lon="11.319119034731315"><ele>127.0</ele><time>2026-04-04T14:10:59.222Z</time></trkpt><trkpt lat="45.526601785974044" lon="11.319304284189768"><ele>127.0</ele><time>2026-04-04T14:11:00.222Z</time></trkpt><trkpt lat="45.526559047825884" lon="11.319496401778542"><ele>127.0</ele><time>2026-04-04T14:11:01.222Z</time></trkpt><trkpt lat="45.52649959522748" lon="11.319670986679506"><ele>127.0</ele><time>2026-04-04T14:11:02.222Z</time></trkpt><trkpt lat="45.526450113803236" lon="11.319844284198732"><ele>127.0</ele><time>2026-04-04T14:11:03.222Z</time></trkpt><trkpt lat="45.526384724272994" lon="11.320040716271146"><ele>127.0</ele><time>2026-04-04T14:11:04.222Z</time></trkpt><trkpt lat="45.526326724742944" lon="11.320209342439062"><ele>127.0</ele><time>2026-04-04T14:11:05.222Z</time></trkpt><trkpt lat="45.52627110770721" lon="11.320355394707255"><ele>127.0</ele><time>2026-04-04T14:11:06.222Z</time></trkpt><trkpt lat="45.52622401357571" lon="11.320505772651961"><ele>127.0</ele><time>2026-04-04T14:11:07.222Z</time></trkpt><trkpt lat="45.52615632332349" lon="11.320649659401102"><ele>126.75</ele><time>2026-04-04T14:11:08.222Z</time></trkpt><trkpt lat="45.52608479899092" lon="11.32079971199508"><ele>126.5</ele><time>2026-04-04T14:11:09.222Z</time></trkpt><trkpt lat="45.526016582894705" lon="11.32094062277466"><ele>126.25</ele><time>2026-04-04T14:11:10.222Z</time></trkpt><trkpt lat="45.52594290106336" lon="11.321076485938212"><ele>126.0</ele><time>2026-04-04T14:11:11.222Z</time></trkpt><trkpt lat="45.52587745326793" lon="11.321211506789378"><ele>126.0</ele><time>2026-04-04T14:11:12.222Z</time></trkpt><trkpt lat="45.525813118629316" lon="11.321359302299747"><ele>126.0</ele><time>2026-04-04T14:11:13.222Z</time></trkpt><trkpt lat="45.52579804159666" lon="11.321505280034401"><ele>126.0</ele><time>2026-04-04T14:11:14.222Z</time></trkpt><trkpt lat="45.52572786191228" lon="11.321668986639065"><ele>126.0</ele><time>2026-04-04T14:11:15.222Z</time></trkpt><trkpt lat="45.525635652149084" lon="11.32182045767802"><ele>126.25</ele><time>2026-04-04T14:11:16.222Z</time></trkpt><trkpt lat="45.52555553126641" lon="11.321977907958944"><ele>126.5</ele><time>2026-04-04T14:11:17.222Z</time></trkpt><trkpt lat="45.52545547034401" lon="11.32212548156952"><ele>126.75</ele><time>2026-04-04T14:11:18.222Z</time></trkpt><trkpt lat="45.5253669355687" lon="11.32228220176685"><ele>127.0</ele><time>2026-04-04T14:11:19.222Z</time></trkpt><trkpt lat="45.525262999950414" lon="11.322432878528389"><ele>126.5</ele><time>2026-04-04T14:11:20.222Z</time></trkpt><trkpt lat="45.525173747418116" lon="11.322564771673953"><ele>126.0</ele><time>2026-04-04T14:11:21.222Z</time></trkpt><trkpt lat="45.525095826643124" lon="11.32269862070869"><ele>125.5</ele><time>2026-04-04T14:11:22.222Z</time></trkpt><trkpt lat="45.52501582736978" lon="11.322796247859912"><ele>125.0</ele><time>2026-04-04T14:11:23.222Z</time></trkpt><trkpt lat="45.52492740934953" lon="11.32285958115416"><ele>124.99999999999999</ele><time>2026-04-04T14:11:24.222Z</time></trkpt><trkpt lat="45.524834709344006" lon="11.322922322494897"><ele>125.0</ele><time>2026-04-04T14:11:25.222Z</time></trkpt><trkpt lat="45.52474450009455" lon="11.322946978633817"><ele>125.0</ele><time>2026-04-04T14:11:26.222Z</time></trkpt><trkpt lat="45.52467283069276" lon="11.322950075167594"><ele>125.0</ele><time>2026-04-04T14:11:27.222Z</time></trkpt><trkpt lat="45.52458993376916" lon="11.322936697598909"><ele>124.99999999999999</ele><time>2026-04-04T14:11:28.222Z</time></trkpt><trkpt lat="45.524514073625966" lon="11.322887131191571"><ele>125.0</ele><time>2026-04-04T14:11:29.222Z</time></trkpt><trkpt lat="45.52444497829382" lon="11.322825826646058"><ele>124.6</ele><time>2026-04-04T14:11:30.222Z</time></trkpt><trkpt lat="45.52437259385708" lon="11.32280368486176"><ele>124.2</ele><time>2026-04-04T14:11:31.222Z</time></trkpt><trkpt lat="45.524263759853284" lon="11.322905141471614"><ele>123.80000000000001</ele><time>2026-04-04T14:11:33.222Z</time></trkpt><trkpt lat="45.52420840299126" lon="11.322971137514038"><ele>123.4</ele><time>2026-04-04T14:11:34.222Z</time></trkpt><trkpt lat="45.5240905670574" lon="11.323005167416119"><ele>123.0</ele><time>2026-04-04T14:11:36.222Z</time></trkpt><trkpt lat="45.5240165095169" lon="11.323000739673123"><ele>123.0</ele><time>2026-04-04T14:11:37.222Z</time></trkpt><trkpt lat="45.52394589303341" lon="11.322980432342959"><ele>123.00000000000001</ele><time>2026-04-04T14:11:38.222Z</time></trkpt><trkpt lat="45.523870955713974" lon="11.32290967772463"><ele>123.00000000000001</ele><time>2026-04-04T14:11:39.222Z</time></trkpt><trkpt lat="45.523747812634994" lon="11.32278979383762"><ele>123.0</ele><time>2026-04-04T14:11:40.222Z</time></trkpt><trkpt lat="45.52367710609473" lon="11.32273850931832"><ele>123.0</ele><time>2026-04-04T14:11:41.222Z</time></trkpt><trkpt lat="45.52358958929483" lon="11.322654206436845"><ele>123.0</ele><time>2026-04-04T14:11:42.222Z</time></trkpt><trkpt lat="45.523523129875606" lon="11.322580263190822"><ele>123.0</ele><time>2026-04-04T14:11:43.222Z</time></trkpt><trkpt lat="45.52344679733949" lon="11.322525214051765"><ele>123.0</ele><time>2026-04-04T14:11:44.222Z</time></trkpt><trkpt lat="45.5233806910132" lon="11.322455392695167"><ele>123.0</ele><time>2026-04-04T14:11:45.222Z</time></trkpt><trkpt lat="45.523312497355725" lon="11.322388186765043"><ele>123.0</ele><time>2026-04-04T14:11:46.222Z</time></trkpt><trkpt lat="45.523249321363444" lon="11.322322748155559"><ele>123.0</ele><time>2026-04-04T14:11:47.222Z</time></trkpt><trkpt lat="45.523208059081135" lon="11.322246809403294"><ele>123.0</ele><time>2026-04-04T14:11:48.222Z</time></trkpt><trkpt lat="45.52311620707828" lon="11.322160145365274"><ele>123.00000000000001</ele><time>2026-04-04T14:11:50.222Z</time></trkpt><trkpt lat="45.523028596221295" lon="11.322081623092167"><ele>123.00000000000001</ele><time>2026-04-04T14:11:52.222Z</time></trkpt><trkpt lat="45.522952826832054" lon="11.322024387892835"><ele>123.0</ele><time>2026-04-04T14:11:54.222Z</time></trkpt><trkpt lat="45.52285450847252" lon="11.321995551218498"><ele>123.0</ele><time>2026-04-04T14:11:56.222Z</time></trkpt><trkpt lat="45.52276945655321" lon="11.321967270669607"><ele>123.0</ele><time>2026-04-04T14:11:58.222Z</time></trkpt><trkpt lat="45.5226555446265" lon="11.321888966010492"><ele>123.00000000000001</ele><time>2026-04-04T14:12:00.222Z</time></trkpt><trkpt lat="45.52259676351217" lon="11.321822159506496"><ele>123.00000000000001</ele><time>2026-04-04T14:12:01.222Z</time></trkpt><trkpt lat="45.52250993847497" lon="11.321732233651181"><ele>123.0</ele><time>2026-04-04T14:12:03.222Z</time></trkpt><trkpt lat="45.52244487742922" lon="11.321706990988368"><ele>123.0</ele><time>2026-04-04T14:12:04.222Z</time></trkpt><trkpt lat="45.52236008294658" lon="11.321720757908356"><ele>123.0</ele><time>2026-04-04T14:12:05.222Z</time></trkpt><trkpt lat="45.5223032476221" lon="11.32177428396134"><ele>123.00000000000001</ele><time>2026-04-04T14:12:06.222Z</time></trkpt><trkpt lat="45.52224948823926" lon="11.321851274731507"><ele>123.00000000000001</ele><time>2026-04-04T14:12:07.222Z</time></trkpt><trkpt lat="45.5222129014165" lon="11.321966097813304"><ele>123.0</ele><time>2026-04-04T14:12:08.222Z</time></trkpt><trkpt lat="45.52217031534804" lon="11.322101386965656"><ele>123.0</ele><time>2026-04-04T14:12:09.222Z</time></trkpt><trkpt lat="45.522080220104066" lon="11.322253333579097"><ele>122.66666666666666</ele><time>2026-04-04T14:12:10.222Z</time></trkpt><trkpt lat="45.52199268153311" lon="11.322412150183116"><ele>122.33333333333333</ele><time>2026-04-04T14:12:11.222Z</time></trkpt><trkpt lat="45.52188636699646" lon="11.322596539723952"><ele>122.0</ele><time>2026-04-04T14:12:12.222Z</time></trkpt><trkpt lat="45.5217604260743" lon="11.32281840485468"><ele>122.5</ele><time>2026-04-04T14:12:13.222Z</time></trkpt><trkpt lat="45.52162069810134" lon="11.323065931297192"><ele>123.0</ele><time>2026-04-04T14:12:14.222Z</time></trkpt><trkpt lat="45.52146172827114" lon="11.323367930775975"><ele>123.0</ele><time>2026-04-04T14:12:15.222Z</time></trkpt><trkpt lat="45.52131562604467" lon="11.323655618447578"><ele>123.0</ele><time>2026-04-04T14:12:16.222Z</time></trkpt><trkpt lat="45.521171720468885" lon="11.323904255150339"><ele>121.5</ele><time>2026-04-04T14:12:17.222Z</time></trkpt><trkpt lat="45.521019143038195" lon="11.324142825750695"><ele>120.0</ele><time>2026-04-04T14:12:18.222Z</time></trkpt><trkpt lat="45.52087968648929" lon="11.324393033181165"><ele>120.0</ele><time>2026-04-04T14:12:19.222Z</time></trkpt><trkpt lat="45.520746901362386" lon="11.324642113591356"><ele>120.0</ele><time>2026-04-04T14:12:20.222Z</time></trkpt><trkpt lat="45.52060469279882" lon="11.324890912621177"><ele>120.0</ele><time>2026-04-04T14:12:21.222Z</time></trkpt><trkpt lat="45.52047399863017" lon="11.325125955103987"><ele>120.0</ele><time>2026-04-04T14:12:22.222Z</time></trkpt><trkpt lat="45.520350200290856" lon="11.325360073173329"><ele>120.0</ele><time>2026-04-04T14:12:23.222Z</time></trkpt><trkpt lat="45.52023355472507" lon="11.32557427857142"><ele>120.0</ele><time>2026-04-04T14:12:24.222Z</time></trkpt><trkpt lat="45.52012014054977" lon="11.325784527717211"><ele>120.0</ele><time>2026-04-04T14:12:25.222Z</time></trkpt><trkpt lat="45.52001912572153" lon="11.325980541938995"><ele>120.0</ele><time>2026-04-04T14:12:26.222Z</time></trkpt><trkpt lat="45.519919874357726" lon="11.32615469008698"><ele>120.0</ele><time>2026-04-04T14:12:27.222Z</time></trkpt><trkpt lat="45.5198338115662" lon="11.326327041532869"><ele>119.66666666666666</ele><time>2026-04-04T14:12:28.222Z</time></trkpt><trkpt lat="45.519735350068956" lon="11.326507396684102"><ele>119.33333333333333</ele><time>2026-04-04T14:12:29.222Z</time></trkpt><trkpt lat="45.519644184356025" lon="11.326671888624823"><ele>119.0</ele><time>2026-04-04T14:12:30.222Z</time></trkpt><trkpt lat="45.51954974276296" lon="11.326843505013288"><ele>118.66666666666666</ele><time>2026-04-04T14:12:31.222Z</time></trkpt><trkpt lat="45.51944870534334" lon="11.327024976348518"><ele>118.33333333333334</ele><time>2026-04-04T14:12:32.222Z</time></trkpt><trkpt lat="45.51936457705934" lon="11.327223933463836"><ele>118.0</ele><time>2026-04-04T14:12:33.222Z</time></trkpt><trkpt lat="45.5192899385295" lon="11.327446994163996"><ele>117.66666666666667</ele><time>2026-04-04T14:12:34.222Z</time></trkpt><trkpt lat="45.51920457865767" lon="11.32764987832909"><ele>117.33333333333334</ele><time>2026-04-04T14:12:35.222Z</time></trkpt><trkpt lat="45.51912111902933" lon="11.327848658548199"><ele>117.0</ele><time>2026-04-04T14:12:36.222Z</time></trkpt><trkpt lat="45.51904068688081" lon="11.328050249723196"><ele>117.0</ele><time>2026-04-04T14:12:37.222Z</time></trkpt><trkpt lat="45.518975865021474" lon="11.32823289455952"><ele>117.0</ele><time>2026-04-04T14:12:38.222Z</time></trkpt><trkpt lat="45.51890282778975" lon="11.328426451454732"><ele>117.0</ele><time>2026-04-04T14:12:39.222Z</time></trkpt><trkpt lat="45.518830021750574" lon="11.328619749460277"><ele>117.0</ele><time>2026-04-04T14:12:40.222Z</time></trkpt><trkpt lat="45.51874829391677" lon="11.328834989401615"><ele>117.0</ele><time>2026-04-04T14:12:41.222Z</time></trkpt><trkpt lat="45.51867425651603" lon="11.329040597877054"><ele>117.0</ele><time>2026-04-04T14:12:42.222Z</time></trkpt><trkpt lat="45.5186054734256" lon="11.329254288458202"><ele>116.33333333333334</ele><time>2026-04-04T14:12:43.222Z</time></trkpt><trkpt lat="45.5185445837945" lon="11.329453572319494"><ele>115.66666666666667</ele><time>2026-04-04T14:12:44.222Z</time></trkpt><trkpt lat="45.51846507834503" lon="11.329654977617588"><ele>115.0</ele><time>2026-04-04T14:12:45.222Z</time></trkpt><trkpt lat="45.51836761631145" lon="11.329908979063655"><ele>115.0</ele><time>2026-04-04T14:12:46.222Z</time></trkpt><trkpt lat="45.51827178415774" lon="11.330143678676697"><ele>115.0</ele><time>2026-04-04T14:12:47.222Z</time></trkpt><trkpt lat="45.51819397423587" lon="11.33038111042528"><ele>115.0</ele><time>2026-04-04T14:12:48.222Z</time></trkpt><trkpt lat="45.51810830283641" lon="11.330619764538197"><ele>115.66666666666667</ele><time>2026-04-04T14:12:49.222Z</time></trkpt><trkpt lat="45.51801203413746" lon="11.330864224152215"><ele>116.33333333333334</ele><time>2026-04-04T14:12:50.222Z</time></trkpt><trkpt lat="45.51792803621586" lon="11.331099966970188"><ele>117.0</ele><time>2026-04-04T14:12:51.222Z</time></trkpt><trkpt lat="45.5178513053955" lon="11.331337684479617"><ele>117.33333333333334</ele><time>2026-04-04T14:12:52.222Z</time></trkpt><trkpt lat="45.51776481549929" lon="11.331557827145664"><ele>117.66666666666667</ele><time>2026-04-04T14:12:53.222Z</time></trkpt><trkpt lat="45.51770168009884" lon="11.331775571354973"><ele>118.0</ele><time>2026-04-04T14:12:54.222Z</time></trkpt><trkpt lat="45.51763527629737" lon="11.331987498680766"><ele>118.0</ele><time>2026-04-04T14:12:55.222Z</time></trkpt><trkpt lat="45.51756249256706" lon="11.332191958871148"><ele>118.0</ele><time>2026-04-04T14:12:56.222Z</time></trkpt><trkpt lat="45.51750308292474" lon="11.332396650446716"><ele>118.0</ele><time>2026-04-04T14:12:57.222Z</time></trkpt><trkpt lat="45.517445417659346" lon="11.332599340277559"><ele>117.5</ele><time>2026-04-04T14:12:58.222Z</time></trkpt><trkpt lat="45.51737727123305" lon="11.33278362318738"><ele>117.0</ele><time>2026-04-04T14:12:59.222Z</time></trkpt><trkpt lat="45.51732088380775" lon="11.332957019520356"><ele>116.5</ele><time>2026-04-04T14:13:00.222Z</time></trkpt><trkpt lat="45.517264462399" lon="11.333135662110056"><ele>116.0</ele><time>2026-04-04T14:13:01.222Z</time></trkpt><trkpt lat="45.51721291324801" lon="11.333304823596325"><ele>115.6</ele><time>2026-04-04T14:13:02.222Z</time></trkpt><trkpt lat="45.51717658851988" lon="11.333440571308843"><ele>115.19999999999999</ele><time>2026-04-04T14:13:03.222Z</time></trkpt><trkpt lat="45.517154024356984" lon="11.333562298239054"><ele>114.80000000000001</ele><time>2026-04-04T14:13:04.222Z</time></trkpt><trkpt lat="45.517124987927126" lon="11.333645718199193"><ele>114.4</ele><time>2026-04-04T14:13:05.222Z</time></trkpt><trkpt lat="45.51709600311927" lon="11.333792474824438"><ele>114.0</ele><time>2026-04-04T14:13:07.222Z</time></trkpt><trkpt lat="45.51703130487139" lon="11.333955122977867"><ele>113.4</ele><time>2026-04-04T14:13:09.222Z</time></trkpt><trkpt lat="45.516957767314416" lon="11.334066019083945"><ele>112.80000000000001</ele><time>2026-04-04T14:13:10.222Z</time></trkpt><trkpt lat="45.51692634128956" lon="11.334205086481482"><ele>112.19999999999999</ele><time>2026-04-04T14:13:11.222Z</time></trkpt><trkpt lat="45.51688734818928" lon="11.334361842993221"><ele>111.6</ele><time>2026-04-04T14:13:12.222Z</time></trkpt><trkpt lat="45.516873768092914" lon="11.334530139289026"><ele>111.0</ele><time>2026-04-04T14:13:13.222Z</time></trkpt><trkpt lat="45.51685791702794" lon="11.334683213801744"><ele>111.25</ele><time>2026-04-04T14:13:14.222Z</time></trkpt><trkpt lat="45.51681389979032" lon="11.334836985626957"><ele>111.5</ele><time>2026-04-04T14:13:15.222Z</time></trkpt><trkpt lat="45.51676384261269" lon="11.335031149774274"><ele>111.75</ele><time>2026-04-04T14:13:16.222Z</time></trkpt><trkpt lat="45.51671237414911" lon="11.335252787687192"><ele>112.0</ele><time>2026-04-04T14:13:17.222Z</time></trkpt><trkpt lat="45.516638610721124" lon="11.335507718352002"><ele>111.66666666666667</ele><time>2026-04-04T14:13:18.222Z</time></trkpt><trkpt lat="45.516578769700594" lon="11.335760832245434"><ele>111.33333333333334</ele><time>2026-04-04T14:13:19.222Z</time></trkpt><trkpt lat="45.51652181980907" lon="11.335987846534065"><ele>111.0</ele><time>2026-04-04T14:13:20.222Z</time></trkpt><trkpt lat="45.51645822732245" lon="11.336206382950666"><ele>111.0</ele><time>2026-04-04T14:13:21.222Z</time></trkpt><trkpt lat="45.51639475956254" lon="11.336407718839284"><ele>111.0</ele><time>2026-04-04T14:13:22.222Z</time></trkpt><trkpt lat="45.51632971420125" lon="11.336609453121017"><ele>111.0</ele><time>2026-04-04T14:13:23.222Z</time></trkpt><trkpt lat="45.51625149487969" lon="11.336815942265025"><ele>111.0</ele><time>2026-04-04T14:13:24.222Z</time></trkpt><trkpt lat="45.51618539414779" lon="11.33700555160992"><ele>111.0</ele><time>2026-04-04T14:13:25.222Z</time></trkpt><trkpt lat="45.51611379328971" lon="11.337176567421706"><ele>111.0</ele><time>2026-04-04T14:13:26.222Z</time></trkpt><trkpt lat="45.51604747789502" lon="11.337330107843393"><ele>111.0</ele><time>2026-04-04T14:13:27.222Z</time></trkpt><trkpt lat="45.51596955826982" lon="11.337518453174205"><ele>111.0</ele><time>2026-04-04T14:13:28.223Z</time></trkpt><trkpt lat="45.51589482198478" lon="11.337704914547052"><ele>111.0</ele><time>2026-04-04T14:13:29.223Z</time></trkpt><trkpt lat="45.515837060785124" lon="11.33785749742014"><ele>111.0</ele><time>2026-04-04T14:13:30.223Z</time></trkpt><trkpt lat="45.51574829341188" lon="11.33807112983739"><ele>111.0</ele><time>2026-04-04T14:13:31.223Z</time></trkpt><trkpt lat="45.51564946277138" lon="11.338243335417811"><ele>110.33333333333334</ele><time>2026-04-04T14:13:32.223Z</time></trkpt><trkpt lat="45.515581485140416" lon="11.338438479485363"><ele>109.66666666666667</ele><time>2026-04-04T14:13:33.223Z</time></trkpt><trkpt lat="45.5155043311099" lon="11.33861060707722"><ele>109.0</ele><time>2026-04-04T14:13:34.223Z</time></trkpt><trkpt lat="45.51541765683608" lon="11.338799831748995"><ele>108.66666666666667</ele><time>2026-04-04T14:13:35.223Z</time></trkpt><trkpt lat="45.51533144712183" lon="11.338997072339199"><ele>108.33333333333334</ele><time>2026-04-04T14:13:36.223Z</time></trkpt><trkpt lat="45.51524080996815" lon="11.339203229031732"><ele>108.0</ele><time>2026-04-04T14:13:37.223Z</time></trkpt><trkpt lat="45.515147388752204" lon="11.339424226142022"><ele>108.0</ele><time>2026-04-04T14:13:38.223Z</time></trkpt><trkpt lat="45.51505912183997" lon="11.339635095683187"><ele>108.0</ele><time>2026-04-04T14:13:39.223Z</time></trkpt><trkpt lat="45.51496957575132" lon="11.339845212568001"><ele>108.0</ele><time>2026-04-04T14:13:40.223Z</time></trkpt><trkpt lat="45.514882570206034" lon="11.340048621675585"><ele>108.33333333333334</ele><time>2026-04-04T14:13:41.223Z</time></trkpt><trkpt lat="45.51479091367764" lon="11.340253889017538"><ele>108.66666666666667</ele><time>2026-04-04T14:13:42.223Z</time></trkpt><trkpt lat="45.514695698726946" lon="11.340463005024985"><ele>109.0</ele><time>2026-04-04T14:13:43.223Z</time></trkpt><trkpt lat="45.51460586811306" lon="11.34066149581852"><ele>109.0</ele><time>2026-04-04T14:13:44.223Z</time></trkpt><trkpt lat="45.51452323173151" lon="11.340872541747233"><ele>109.0</ele><time>2026-04-04T14:13:45.223Z</time></trkpt><trkpt lat="45.51442489968535" lon="11.341081113182916"><ele>109.0</ele><time>2026-04-04T14:13:46.223Z</time></trkpt><trkpt lat="45.51432937862658" lon="11.341291881664926"><ele>108.0</ele><time>2026-04-04T14:13:47.223Z</time></trkpt><trkpt lat="45.51422841706616" lon="11.341510779561306"><ele>107.0</ele><time>2026-04-04T14:13:48.223Z</time></trkpt><trkpt lat="45.514139652568275" lon="11.341723435246712"><ele>106.0</ele><time>2026-04-04T14:13:49.223Z</time></trkpt><trkpt lat="45.51404824981526" lon="11.341932857765952"><ele>106.0</ele><time>2026-04-04T14:13:50.223Z</time></trkpt><trkpt lat="45.513951456958225" lon="11.342138403488866"><ele>106.0</ele><time>2026-04-04T14:13:51.223Z</time></trkpt><trkpt lat="45.51387199525797" lon="11.342344979057335"><ele>106.0</ele><time>2026-04-04T14:13:52.223Z</time></trkpt><trkpt lat="45.513772980720525" lon="11.342554639211246"><ele>106.0</ele><time>2026-04-04T14:13:53.223Z</time></trkpt><trkpt lat="45.513680820906444" lon="11.34274944384001"><ele>106.0</ele><time>2026-04-04T14:13:54.223Z</time></trkpt><trkpt lat="45.51359794945101" lon="11.342937281906671"><ele>106.0</ele><time>2026-04-04T14:13:55.223Z</time></trkpt><trkpt lat="45.513504046777825" lon="11.343129777065192"><ele>105.75</ele><time>2026-04-04T14:13:56.223Z</time></trkpt><trkpt lat="45.513432004749184" lon="11.343306553541813"><ele>105.5</ele><time>2026-04-04T14:13:57.223Z</time></trkpt><trkpt lat="45.51336255769151" lon="11.343481442548255"><ele>105.25</ele><time>2026-04-04T14:13:58.223Z</time></trkpt><trkpt lat="45.51328445295602" lon="11.343653088686157"><ele>105.0</ele><time>2026-04-04T14:13:59.223Z</time></trkpt><trkpt lat="45.51320610794533" lon="11.343833523939955"><ele>105.0</ele><time>2026-04-04T14:14:00.223Z</time></trkpt><trkpt lat="45.51313415925305" lon="11.343999823904772"><ele>105.0</ele><time>2026-04-04T14:14:01.223Z</time></trkpt><trkpt lat="45.51305029534693" lon="11.344188887971974"><ele>105.0</ele><time>2026-04-04T14:14:02.223Z</time></trkpt><trkpt lat="45.51297373906498" lon="11.344362816019238"><ele>105.0</ele><time>2026-04-04T14:14:03.223Z</time></trkpt><trkpt lat="45.51288569380139" lon="11.344543381994216"><ele>104.25</ele><time>2026-04-04T14:14:04.223Z</time></trkpt><trkpt lat="45.512826573736014" lon="11.344699780354883"><ele>103.5</ele><time>2026-04-04T14:14:05.223Z</time></trkpt><trkpt lat="45.51275195329504" lon="11.344859220633607"><ele>102.75</ele><time>2026-04-04T14:14:06.223Z</time></trkpt><trkpt lat="45.512680550855514" lon="11.345013698855597"><ele>102.0</ele><time>2026-04-04T14:14:07.223Z</time></trkpt><trkpt lat="45.512608876604304" lon="11.345165907323866"><ele>102.0</ele><time>2026-04-04T14:14:08.223Z</time></trkpt><trkpt lat="45.51254331811934" lon="11.345318734394569"><ele>102.0</ele><time>2026-04-04T14:14:09.223Z</time></trkpt><trkpt lat="45.51246663459599" lon="11.345474455590187"><ele>102.0</ele><time>2026-04-04T14:14:10.223Z</time></trkpt><trkpt lat="45.512406511686976" lon="11.345594072553494"><ele>102.0</ele><time>2026-04-04T14:14:11.223Z</time></trkpt><trkpt lat="45.51236512732416" lon="11.345725644471914"><ele>101.75</ele><time>2026-04-04T14:14:12.223Z</time></trkpt><trkpt lat="45.51229021667979" lon="11.345880899120756"><ele>101.5</ele><time>2026-04-04T14:14:13.223Z</time></trkpt><trkpt lat="45.51223017305973" lon="11.346013545259312"><ele>101.25</ele><time>2026-04-04T14:14:14.223Z</time></trkpt><trkpt lat="45.51217919342014" lon="11.346147942555401"><ele>101.0</ele><time>2026-04-04T14:14:15.223Z</time></trkpt><trkpt lat="45.512120659684776" lon="11.346264566549443"><ele>101.0</ele><time>2026-04-04T14:14:16.223Z</time></trkpt><trkpt lat="45.51206705782192" lon="11.3463973291937"><ele>101.0</ele><time>2026-04-04T14:14:17.223Z</time></trkpt><trkpt lat="45.51202327817084" lon="11.346525751911658"><ele>101.0</ele><time>2026-04-04T14:14:18.223Z</time></trkpt><trkpt lat="45.51198591369308" lon="11.346634761850222"><ele>101.0</ele><time>2026-04-04T14:14:19.223Z</time></trkpt><trkpt lat="45.51193420263775" lon="11.34673992963347"><ele>101.0</ele><time>2026-04-04T14:14:20.223Z</time></trkpt><trkpt lat="45.51188289750628" lon="11.346848317688771"><ele>101.0</ele><time>2026-04-04T14:14:21.223Z</time></trkpt><trkpt lat="45.51183211896079" lon="11.346972887442945"><ele>101.0</ele><time>2026-04-04T14:14:22.223Z</time></trkpt><trkpt lat="45.51176007454959" lon="11.347074631949067"><ele>101.0</ele><time>2026-04-04T14:14:23.223Z</time></trkpt><trkpt lat="45.51165273875379" lon="11.347154250247034"><ele>101.0</ele><time>2026-04-04T14:14:24.223Z</time></trkpt><trkpt lat="45.51148564491335" lon="11.347197089567851"><ele>101.33333333333333</ele><time>2026-04-04T14:14:25.223Z</time></trkpt><trkpt lat="45.51131616169899" lon="11.347222332875885"><ele>101.66666666666666</ele><time>2026-04-04T14:14:26.223Z</time></trkpt><trkpt lat="45.51109955584804" lon="11.347192924750278"><ele>102.0</ele><time>2026-04-04T14:14:27.223Z</time></trkpt><trkpt lat="45.510906232112546" lon="11.347165333766137"><ele>101.5</ele><time>2026-04-04T14:14:28.223Z</time></trkpt><trkpt lat="45.51073333815873" lon="11.347141839768767"><ele>101.0</ele><time>2026-04-04T14:14:29.223Z</time></trkpt><trkpt lat="45.51058943341783" lon="11.347142851679953"><ele>100.5</ele><time>2026-04-04T14:14:30.223Z</time></trkpt><trkpt lat="45.510480104327094" lon="11.347172344106454"><ele>100.0</ele><time>2026-04-04T14:14:31.223Z</time></trkpt><trkpt lat="45.51042300804082" lon="11.347217980259662"><ele>99.33333333333334</ele><time>2026-04-04T14:14:32.223Z</time></trkpt><trkpt lat="45.51030798432997" lon="11.347388708733487"><ele>98.66666666666666</ele><time>2026-04-04T14:14:33.223Z</time></trkpt><trkpt lat="45.51029512522549" lon="11.347661427577394"><ele>98.0</ele><time>2026-04-04T14:14:34.223Z</time></trkpt><trkpt lat="45.51026307129598" lon="11.347913579503624"><ele>98.0</ele><time>2026-04-04T14:14:35.223Z</time></trkpt><trkpt lat="45.510258647138116" lon="11.348202970951151"><ele>98.0</ele><time>2026-04-04T14:14:36.223Z</time></trkpt><trkpt lat="45.51022025248222" lon="11.348473309239564"><ele>98.0</ele><time>2026-04-04T14:14:37.223Z</time></trkpt><trkpt lat="45.51018326480914" lon="11.348696771502134"><ele>98.0</ele><time>2026-04-04T14:14:38.223Z</time></trkpt><trkpt lat="45.510199726976396" lon="11.348850105437702"><ele>98.0</ele><time>2026-04-04T14:14:39.223Z</time></trkpt><trkpt lat="45.510219330906956" lon="11.349000522398628"><ele>98.0</ele><time>2026-04-04T14:14:40.223Z</time></trkpt><trkpt lat="45.51025776272152" lon="11.34914607348073"><ele>98.0</ele><time>2026-04-04T14:14:41.223Z</time></trkpt><trkpt lat="45.510355278386996" lon="11.349249026992382"><ele>98.0</ele><time>2026-04-04T14:14:42.223Z</time></trkpt><trkpt lat="45.51054960463238" lon="11.349313209937671"><ele>98.66666666666666</ele><time>2026-04-04T14:14:43.223Z</time></trkpt><trkpt lat="45.51070035298256" lon="11.349340796127237"><ele>99.33333333333334</ele><time>2026-04-04T14:14:44.223Z</time></trkpt><trkpt lat="45.51087185761826" lon="11.3493342430166"><ele>100.0</ele><time>2026-04-04T14:14:45.223Z</time></trkpt><trkpt lat="45.5110085121877" lon="11.349331755702874"><ele>100.0</ele><time>2026-04-04T14:14:46.223Z</time></trkpt><trkpt lat="45.511126451677235" lon="11.349262051020277"><ele>100.0</ele><time>2026-04-04T14:14:47.223Z</time></trkpt><trkpt lat="45.5112461474137" lon="11.349244269484569"><ele>100.0</ele><time>2026-04-04T14:14:48.223Z</time></trkpt><trkpt lat="45.51135151395376" lon="11.349287293514319"><ele>100.0</ele><time>2026-04-04T14:14:49.223Z</time></trkpt><trkpt lat="45.51143458152487" lon="11.349354630750389"><ele>99.75</ele><time>2026-04-04T14:14:50.223Z</time></trkpt><trkpt lat="45.51147669960015" lon="11.349462731066545"><ele>99.5</ele><time>2026-04-04T14:14:51.223Z</time></trkpt><trkpt lat="45.51153248826673" lon="11.34963064351089"><ele>99.25</ele><time>2026-04-04T14:14:52.223Z</time></trkpt><trkpt lat="45.51156453798009" lon="11.349774544308588"><ele>99.0</ele><time>2026-04-04T14:14:53.223Z</time></trkpt><trkpt lat="45.511584021444655" lon="11.350033552125872"><ele>99.0</ele><time>2026-04-04T14:14:54.223Z</time></trkpt><trkpt lat="45.5116004842211" lon="11.350296524384085"><ele>99.0</ele><time>2026-04-04T14:14:55.223Z</time></trkpt><trkpt lat="45.51160745365109" lon="11.350564950359454"><ele>99.0</ele><time>2026-04-04T14:14:56.223Z</time></trkpt><trkpt lat="45.51160872604553" lon="11.350881423219993"><ele>99.0</ele><time>2026-04-04T14:14:57.223Z</time></trkpt><trkpt lat="45.51162749232005" lon="11.351154560853017"><ele>99.0</ele><time>2026-04-04T14:14:58.223Z</time></trkpt><trkpt lat="45.51165635334081" lon="11.351437669330945"><ele>99.0</ele><time>2026-04-04T14:14:59.223Z</time></trkpt><trkpt lat="45.511695973373094" lon="11.351752061711395"><ele>99.0</ele><time>2026-04-04T14:15:00.223Z</time></trkpt><trkpt lat="45.51172322681853" lon="11.3521111157669"><ele>99.0</ele><time>2026-04-04T14:15:01.223Z</time></trkpt><trkpt lat="45.5117505928538" lon="11.352505729121345"><ele>98.5</ele><time>2026-04-04T14:15:02.223Z</time></trkpt><trkpt lat="45.51178310826116" lon="11.352931538421446"><ele>98.0</ele><time>2026-04-04T14:15:03.223Z</time></trkpt><trkpt lat="45.51182453234155" lon="11.353397389716491"><ele>98.0</ele><time>2026-04-04T14:15:04.223Z</time></trkpt><trkpt lat="45.51185783986802" lon="11.353829706121932"><ele>98.0</ele><time>2026-04-04T14:15:05.223Z</time></trkpt><trkpt lat="45.51187843093295" lon="11.354249068384503"><ele>98.0</ele><time>2026-04-04T14:15:06.223Z</time></trkpt><trkpt lat="45.51190437505457" lon="11.354633907745264"><ele>98.0</ele><time>2026-04-04T14:15:07.223Z</time></trkpt><trkpt lat="45.51193163826846" lon="11.354985945992729"><ele>97.5</ele><time>2026-04-04T14:15:08.223Z</time></trkpt><trkpt lat="45.511955542597185" lon="11.355314545480908"><ele>97.0</ele><time>2026-04-04T14:15:09.223Z</time></trkpt><trkpt lat="45.511990372023185" lon="11.355650210418032"><ele>96.5</ele><time>2026-04-04T14:15:10.223Z</time></trkpt><trkpt lat="45.512037449659424" lon="11.355965520728656"><ele>96.0</ele><time>2026-04-04T14:15:11.223Z</time></trkpt><trkpt lat="45.51209646355348" lon="11.356299748336998"><ele>96.5</ele><time>2026-04-04T14:15:12.223Z</time></trkpt><trkpt lat="45.51217497900866" lon="11.356637621593359"><ele>97.0</ele><time>2026-04-04T14:15:13.223Z</time></trkpt><trkpt lat="45.51228009282311" lon="11.35699923458996"><ele>97.0</ele><time>2026-04-04T14:15:14.223Z</time></trkpt><trkpt lat="45.51239423001335" lon="11.35738569139667"><ele>97.0</ele><time>2026-04-04T14:15:15.223Z</time></trkpt><trkpt lat="45.51251173925191" lon="11.357786859756574"><ele>95.5</ele><time>2026-04-04T14:15:16.223Z</time></trkpt><trkpt lat="45.51262344544191" lon="11.358140870216882"><ele>94.0</ele><time>2026-04-04T14:15:17.223Z</time></trkpt><trkpt lat="45.51272094193904" lon="11.358481363873917"><ele>94.0</ele><time>2026-04-04T14:15:18.223Z</time></trkpt><trkpt lat="45.51280748119559" lon="11.358787770442854"><ele>94.0</ele><time>2026-04-04T14:15:19.223Z</time></trkpt><trkpt lat="45.51288773893322" lon="11.359085168650541"><ele>94.33333333333333</ele><time>2026-04-04T14:15:20.223Z</time></trkpt><trkpt lat="45.51296577774186" lon="11.359335075143619"><ele>94.66666666666667</ele><time>2026-04-04T14:15:21.223Z</time></trkpt><trkpt lat="45.51303667425119" lon="11.359572144994896"><ele>95.0</ele><time>2026-04-04T14:15:22.223Z</time></trkpt><trkpt lat="45.513095344204146" lon="11.359792122725384"><ele>95.25</ele><time>2026-04-04T14:15:23.223Z</time></trkpt><trkpt lat="45.51316755030339" lon="11.35999557190949"><ele>95.5</ele><time>2026-04-04T14:15:24.223Z</time></trkpt><trkpt lat="45.51321796936264" lon="11.360152549896886"><ele>95.75</ele><time>2026-04-04T14:15:25.223Z</time></trkpt><trkpt lat="45.51326634169389" lon="11.360341938556477"><ele>96.0</ele><time>2026-04-04T14:15:26.223Z</time></trkpt><trkpt lat="45.513317489031586" lon="11.360538297007821"><ele>95.0</ele><time>2026-04-04T14:15:27.223Z</time></trkpt><trkpt lat="45.51338733162983" lon="11.360747679628897"><ele>94.0</ele><time>2026-04-04T14:15:28.223Z</time></trkpt><trkpt lat="45.513417834592175" lon="11.360998015788592"><ele>93.0</ele><time>2026-04-04T14:15:29.223Z</time></trkpt><trkpt lat="45.51344950827107" lon="11.361280959961256"><ele>93.33333333333333</ele><time>2026-04-04T14:15:30.223Z</time></trkpt><trkpt lat="45.513422832877154" lon="11.361603688357384"><ele>93.66666666666666</ele><time>2026-04-04T14:15:31.223Z</time></trkpt><trkpt lat="45.51342622434007" lon="11.361899749353617"><ele>94.0</ele><time>2026-04-04T14:15:32.223Z</time></trkpt><trkpt lat="45.51344613268279" lon="11.362164772297378"><ele>93.33333333333333</ele><time>2026-04-04T14:15:33.223Z</time></trkpt><trkpt lat="45.513435769936144" lon="11.362430156076636"><ele>92.66666666666667</ele><time>2026-04-04T14:15:34.224Z</time></trkpt><trkpt lat="45.51343060178562" lon="11.36266014631684"><ele>92.0</ele><time>2026-04-04T14:15:35.224Z</time></trkpt><trkpt lat="45.5134490002299" lon="11.362859553851408"><ele>92.0</ele><time>2026-04-04T14:15:36.224Z</time></trkpt><trkpt lat="45.513456646298074" lon="11.363045251257368"><ele>92.0</ele><time>2026-04-04T14:15:37.224Z</time></trkpt><trkpt lat="45.513484690916215" lon="11.36320166453576"><ele>92.0</ele><time>2026-04-04T14:15:38.224Z</time></trkpt><trkpt lat="45.51352407706464" lon="11.363344192455116"><ele>92.0</ele><time>2026-04-04T14:15:39.224Z</time></trkpt><trkpt lat="45.51353701395915" lon="11.363477763555405"><ele>92.0</ele><time>2026-04-04T14:15:40.224Z</time></trkpt><trkpt lat="45.513479785624305" lon="11.363630861935476"><ele>92.0</ele><time>2026-04-04T14:15:41.224Z</time></trkpt><trkpt lat="45.51342938178296" lon="11.363738515905792"><ele>92.0</ele><time>2026-04-04T14:15:42.224Z</time></trkpt><trkpt lat="45.51351871469156" lon="11.363889377627103"><ele>92.0</ele><time>2026-04-04T14:15:44.224Z</time></trkpt><trkpt lat="45.513582763053954" lon="11.363926255673595"><ele>92.0</ele><time>2026-04-04T14:15:45.224Z</time></trkpt><trkpt lat="45.51368222153976" lon="11.363909364478317"><ele>92.0</ele><time>2026-04-04T14:15:46.224Z</time></trkpt><trkpt lat="45.51375227370385" lon="11.363836915461839"><ele>92.25</ele><time>2026-04-04T14:15:47.224Z</time></trkpt><trkpt lat="45.513830379458874" lon="11.36368820524451"><ele>92.5</ele><time>2026-04-04T14:15:48.224Z</time></trkpt><trkpt lat="45.51393797468676" lon="11.363551543771534"><ele>92.75</ele><time>2026-04-04T14:15:49.224Z</time></trkpt><trkpt lat="45.514055071585425" lon="11.363470762651248"><ele>93.0</ele><time>2026-04-04T14:15:50.224Z</time></trkpt><trkpt lat="45.5141651489191" lon="11.363419529448826"><ele>93.0</ele><time>2026-04-04T14:15:51.224Z</time></trkpt><trkpt lat="45.514319304433855" lon="11.363380656609946"><ele>93.0</ele><time>2026-04-04T14:15:52.224Z</time></trkpt><trkpt lat="45.514474773381195" lon="11.363359269972321"><ele>93.0</ele><time>2026-04-04T14:15:53.224Z</time></trkpt><trkpt lat="45.514684895418654" lon="11.363326241160053"><ele>91.5</ele><time>2026-04-04T14:15:54.224Z</time></trkpt><trkpt lat="45.51491856442944" lon="11.363313037890324"><ele>90.0</ele><time>2026-04-04T14:15:55.224Z</time></trkpt><trkpt lat="45.51515316783263" lon="11.363320622698803"><ele>90.0</ele><time>2026-04-04T14:15:56.224Z</time></trkpt><trkpt lat="45.51536145753526" lon="11.36331440891977"><ele>90.0</ele><time>2026-04-04T14:15:57.224Z</time></trkpt><trkpt lat="45.5155550390795" lon="11.36330923418981"><ele>90.0</ele><time>2026-04-04T14:15:58.224Z</time></trkpt><trkpt lat="45.51572866619876" lon="11.36331012213449"><ele>90.75</ele><time>2026-04-04T14:15:59.224Z</time></trkpt><trkpt lat="45.51588654622901" lon="11.363307428038395"><ele>91.5</ele><time>2026-04-04T14:16:00.224Z</time></trkpt><trkpt lat="45.51603241501107" lon="11.363300945070364"><ele>92.25</ele><time>2026-04-04T14:16:01.224Z</time></trkpt><trkpt lat="45.51615107914289" lon="11.363296610455928"><ele>93.0</ele><time>2026-04-04T14:16:02.224Z</time></trkpt><trkpt lat="45.516258587977454" lon="11.36329822466085"><ele>93.2</ele><time>2026-04-04T14:16:03.224Z</time></trkpt><trkpt lat="45.51635654232245" lon="11.36327763265009"><ele>93.4</ele><time>2026-04-04T14:16:04.224Z</time></trkpt><trkpt lat="45.516463591140415" lon="11.363273204611964"><ele>93.60000000000001</ele><time>2026-04-04T14:16:05.224Z</time></trkpt><trkpt lat="45.51657083137273" lon="11.363280351466448"><ele>93.80000000000001</ele><time>2026-04-04T14:16:06.224Z</time></trkpt><trkpt lat="45.5166866529641" lon="11.36328333468686"><ele>94.0</ele><time>2026-04-04T14:16:07.224Z</time></trkpt><trkpt lat="45.51680805072758" lon="11.36332826499029"><ele>94.0</ele><time>2026-04-04T14:16:08.224Z</time></trkpt><trkpt lat="45.51691724518902" lon="11.363402380552785"><ele>94.0</ele><time>2026-04-04T14:16:09.224Z</time></trkpt><trkpt lat="45.517014206515256" lon="11.363516529773849"><ele>94.0</ele><time>2026-04-04T14:16:10.224Z</time></trkpt><trkpt lat="45.51713078567983" lon="11.36362567089237"><ele>94.0</ele><time>2026-04-04T14:16:11.224Z</time></trkpt><trkpt lat="45.51723803391388" lon="11.363729004986348"><ele>93.5</ele><time>2026-04-04T14:16:12.224Z</time></trkpt><trkpt lat="45.51734819534783" lon="11.363835896053697"><ele>93.0</ele><time>2026-04-04T14:16:13.224Z</time></trkpt><trkpt lat="45.51748252165008" lon="11.36388081400244"><ele>92.5</ele><time>2026-04-04T14:16:14.224Z</time></trkpt><trkpt lat="45.517616979580225" lon="11.363897662934868"><ele>92.0</ele><time>2026-04-04T14:16:15.224Z</time></trkpt><trkpt lat="45.51774324915973" lon="11.363872496994603"><ele>92.0</ele><time>2026-04-04T14:16:16.224Z</time></trkpt><trkpt lat="45.51790190744265" lon="11.363844397843588"><ele>92.0</ele><time>2026-04-04T14:16:17.224Z</time></trkpt><trkpt lat="45.51811018207866" lon="11.363775140783753"><ele>92.0</ele><time>2026-04-04T14:16:18.224Z</time></trkpt><trkpt lat="45.51830233522688" lon="11.363733970778098"><ele>92.0</ele><time>2026-04-04T14:16:19.224Z</time></trkpt><trkpt lat="45.518468197666095" lon="11.363701956358865"><ele>92.0</ele><time>2026-04-04T14:16:20.224Z</time></trkpt><trkpt lat="45.51863223059468" lon="11.363667880393963"><ele>92.0</ele><time>2026-04-04T14:16:21.224Z</time></trkpt><trkpt lat="45.51877265868418" lon="11.363644087297777"><ele>91.5</ele><time>2026-04-04T14:16:22.224Z</time></trkpt><trkpt lat="45.51891841919142" lon="11.363610804655602"><ele>91.0</ele><time>2026-04-04T14:16:23.224Z</time></trkpt><trkpt lat="45.51906069917672" lon="11.363580510154724"><ele>90.5</ele><time>2026-04-04T14:16:24.224Z</time></trkpt><trkpt lat="45.51920516942015" lon="11.363556199729553"><ele>90.0</ele><time>2026-04-04T14:16:25.224Z</time></trkpt><trkpt lat="45.51934766548799" lon="11.363538891789014"><ele>90.0</ele><time>2026-04-04T14:16:26.224Z</time></trkpt><trkpt lat="45.51950997592472" lon="11.363511541906373"><ele>90.0</ele><time>2026-04-04T14:16:27.224Z</time></trkpt><trkpt lat="45.51966626116174" lon="11.363513514405803"><ele>90.0</ele><time>2026-04-04T14:16:28.224Z</time></trkpt><trkpt lat="45.51986808269671" lon="11.36354365313107"><ele>90.0</ele><time>2026-04-04T14:16:29.224Z</time></trkpt><trkpt lat="45.52007562174452" lon="11.3635985659666"><ele>90.0</ele><time>2026-04-04T14:16:30.224Z</time></trkpt><trkpt lat="45.52030460816533" lon="11.363686938915459"><ele>90.0</ele><time>2026-04-04T14:16:31.224Z</time></trkpt><trkpt lat="45.52053330055278" lon="11.363812813577036"><ele>89.5</ele><time>2026-04-04T14:16:32.224Z</time></trkpt><trkpt lat="45.52078432356387" lon="11.363985673577554"><ele>89.0</ele><time>2026-04-04T14:16:33.224Z</time></trkpt><trkpt lat="45.52105465303172" lon="11.36416596634274"><ele>89.5</ele><time>2026-04-04T14:16:34.224Z</time></trkpt><trkpt lat="45.5213197732613" lon="11.364312025064445"><ele>90.0</ele><time>2026-04-04T14:16:35.224Z</time></trkpt><trkpt lat="45.52154997936505" lon="11.364435734562774"><ele>90.0</ele><time>2026-04-04T14:16:36.224Z</time></trkpt><trkpt lat="45.521756110414756" lon="11.364543875910202"><ele>90.0</ele><time>2026-04-04T14:16:37.224Z</time></trkpt><trkpt lat="45.5219500476923" lon="11.364647677334299"><ele>90.0</ele><time>2026-04-04T14:16:38.224Z</time></trkpt><trkpt lat="45.522141026138264" lon="11.364727206588626"><ele>90.66666666666667</ele><time>2026-04-04T14:16:39.224Z</time></trkpt><trkpt lat="45.52233555688113" lon="11.364766309069866"><ele>91.33333333333334</ele><time>2026-04-04T14:16:40.224Z</time></trkpt><trkpt lat="45.52254080698404" lon="11.364771455175443"><ele>92.0</ele><time>2026-04-04T14:16:41.224Z</time></trkpt><trkpt lat="45.5227603532082" lon="11.364730233094605"><ele>91.5</ele><time>2026-04-04T14:16:42.224Z</time></trkpt><trkpt lat="45.52298585105667" lon="11.364675022683082"><ele>91.0</ele><time>2026-04-04T14:16:43.224Z</time></trkpt><trkpt lat="45.52323823527392" lon="11.36455473974232"><ele>91.0</ele><time>2026-04-04T14:16:44.224Z</time></trkpt><trkpt lat="45.52350651212759" lon="11.364428665479517"><ele>91.0</ele><time>2026-04-04T14:16:45.224Z</time></trkpt><trkpt lat="45.52379472182977" lon="11.364326439098782"><ele>92.0</ele><time>2026-04-04T14:16:46.224Z</time></trkpt><trkpt lat="45.5240581842538" lon="11.36423197119218"><ele>93.0</ele><time>2026-04-04T14:16:47.224Z</time></trkpt><trkpt lat="45.524307908093924" lon="11.3641215006998"><ele>93.0</ele><time>2026-04-04T14:16:48.224Z</time></trkpt><trkpt lat="45.52455109603845" lon="11.364023062660877"><ele>93.0</ele><time>2026-04-04T14:16:49.224Z</time></trkpt><trkpt lat="45.524794312375285" lon="11.363922800359973"><ele>92.66666666666667</ele><time>2026-04-04T14:16:50.224Z</time></trkpt><trkpt lat="45.5250014832027" lon="11.363813826761671"><ele>92.33333333333334</ele><time>2026-04-04T14:16:51.224Z</time></trkpt><trkpt lat="45.52520460149109" lon="11.363702479527399"><ele>92.0</ele><time>2026-04-04T14:16:52.224Z</time></trkpt><trkpt lat="45.52539723402319" lon="11.36358461689293"><ele>92.0</ele><time>2026-04-04T14:16:53.224Z</time></trkpt><trkpt lat="45.52557538993479" lon="11.363433999629454"><ele>92.0</ele><time>2026-04-04T14:16:54.224Z</time></trkpt><trkpt lat="45.52576368389325" lon="11.36327857568516"><ele>92.0</ele><time>2026-04-04T14:16:55.224Z</time></trkpt><trkpt lat="45.52594704518384" lon="11.363072885598301"><ele>92.5</ele><time>2026-04-04T14:16:56.224Z</time></trkpt><trkpt lat="45.526124672221265" lon="11.362833193996867"><ele>93.0</ele><time>2026-04-04T14:16:57.224Z</time></trkpt><trkpt lat="45.52630559746211" lon="11.362559661257599"><ele>93.0</ele><time>2026-04-04T14:16:58.224Z</time></trkpt><trkpt lat="45.526490119185034" lon="11.362274651252136"><ele>93.0</ele><time>2026-04-04T14:16:59.224Z</time></trkpt><trkpt lat="45.52668534416645" lon="11.361959155821939"><ele>94.0</ele><time>2026-04-04T14:17:00.224Z</time></trkpt><trkpt lat="45.52687617095077" lon="11.361642067708534"><ele>95.0</ele><time>2026-04-04T14:17:01.224Z</time></trkpt><trkpt lat="45.52706048891045" lon="11.361356250695389"><ele>95.5</ele><time>2026-04-04T14:17:02.224Z</time></trkpt><trkpt lat="45.52724157526571" lon="11.361089774622238"><ele>96.0</ele><time>2026-04-04T14:17:03.224Z</time></trkpt><trkpt lat="45.52739522516518" lon="11.360846074470034"><ele>96.0</ele><time>2026-04-04T14:17:04.224Z</time></trkpt><trkpt lat="45.52757237094433" lon="11.360622763702747"><ele>96.0</ele><time>2026-04-04T14:17:05.224Z</time></trkpt><trkpt lat="45.52775410101304" lon="11.360420729418935"><ele>96.0</ele><time>2026-04-04T14:17:06.224Z</time></trkpt><trkpt lat="45.52795028617686" lon="11.360234988639691"><ele>96.0</ele><time>2026-04-04T14:17:07.224Z</time></trkpt><trkpt lat="45.528165495293344" lon="11.360066302026176"><ele>96.0</ele><time>2026-04-04T14:17:08.224Z</time></trkpt><trkpt lat="45.528372414183124" lon="11.35993560293421"><ele>96.0</ele><time>2026-04-04T14:17:09.224Z</time></trkpt><trkpt lat="45.52856910080663" lon="11.359823164732841"><ele>96.0</ele><time>2026-04-04T14:17:10.224Z</time></trkpt><trkpt lat="45.528760274551246" lon="11.35970039262233"><ele>97.0</ele><time>2026-04-04T14:17:11.224Z</time></trkpt><trkpt lat="45.528960842572474" lon="11.35960470217445"><ele>98.0</ele><time>2026-04-04T14:17:12.224Z</time></trkpt><trkpt lat="45.52912638684203" lon="11.359505780138344"><ele>99.0</ele><time>2026-04-04T14:17:13.224Z</time></trkpt><trkpt lat="45.529328457036556" lon="11.359421003420513"><ele>99.5</ele><time>2026-04-04T14:17:14.224Z</time></trkpt><trkpt lat="45.529567533390136" lon="11.359383002617989"><ele>100.0</ele><time>2026-04-04T14:17:15.224Z</time></trkpt><trkpt lat="45.52980333130197" lon="11.359376546473698"><ele>100.0</ele><time>2026-04-04T14:17:16.224Z</time></trkpt><trkpt lat="45.53001477493882" lon="11.35940070726155"><ele>100.0</ele><time>2026-04-04T14:17:17.224Z</time></trkpt><trkpt lat="45.530214746825585" lon="11.359431697025062"><ele>100.0</ele><time>2026-04-04T14:17:18.224Z</time></trkpt><trkpt lat="45.53040100840149" lon="11.359480872722427"><ele>99.0</ele><time>2026-04-04T14:17:19.224Z</time></trkpt><trkpt lat="45.5305749020476" lon="11.359552710464506"><ele>98.0</ele><time>2026-04-04T14:17:20.224Z</time></trkpt><trkpt lat="45.53074628162222" lon="11.359639574782276"><ele>97.0</ele><time>2026-04-04T14:17:21.224Z</time></trkpt><trkpt lat="45.53091639295244" lon="11.359723862343"><ele>97.0</ele><time>2026-04-04T14:17:22.224Z</time></trkpt><trkpt lat="45.53107766161558" lon="11.359840544199002"><ele>97.0</ele><time>2026-04-04T14:17:23.224Z</time></trkpt><trkpt lat="45.53123754184611" lon="11.359958957831084"><ele>97.0</ele><time>2026-04-04T14:17:24.224Z</time></trkpt><trkpt lat="45.531380324812496" lon="11.360100835056135"><ele>98.0</ele><time>2026-04-04T14:17:25.224Z</time></trkpt><trkpt lat="45.53150402649315" lon="11.360230530699504"><ele>99.0</ele><time>2026-04-04T14:17:26.224Z</time></trkpt><trkpt lat="45.53161631415861" lon="11.360374857021268"><ele>100.0</ele><time>2026-04-04T14:17:27.224Z</time></trkpt><trkpt lat="45.53174853094814" lon="11.360493156318963"><ele>99.75</ele><time>2026-04-04T14:17:28.224Z</time></trkpt><trkpt lat="45.53186851097371" lon="11.360618906533205"><ele>99.5</ele><time>2026-04-04T14:17:29.224Z</time></trkpt><trkpt lat="45.531973501020765" lon="11.36071241062387"><ele>99.25</ele><time>2026-04-04T14:17:30.224Z</time></trkpt><trkpt lat="45.53207014666058" lon="11.360849406665341"><ele>99.0</ele><time>2026-04-04T14:17:31.224Z</time></trkpt><trkpt lat="45.53217181198173" lon="11.360959472238228"><ele>99.0</ele><time>2026-04-04T14:17:32.224Z</time></trkpt><trkpt lat="45.5322703498283" lon="11.36105066285705"><ele>99.0</ele><time>2026-04-04T14:17:33.224Z</time></trkpt><trkpt lat="45.53236457109343" lon="11.361150542531577"><ele>99.0</ele><time>2026-04-04T14:17:34.224Z</time></trkpt><trkpt lat="45.53246456995865" lon="11.361229397424756"><ele>99.0</ele><time>2026-04-04T14:17:35.224Z</time></trkpt><trkpt lat="45.53256338374136" lon="11.361283045749387"><ele>98.6</ele><time>2026-04-04T14:17:36.224Z</time></trkpt><trkpt lat="45.532627724202825" lon="11.36138914130926"><ele>98.2</ele><time>2026-04-04T14:17:37.224Z</time></trkpt><trkpt lat="45.532670257367144" lon="11.36148214955704"><ele>97.8</ele><time>2026-04-04T14:17:38.224Z</time></trkpt><trkpt lat="45.53270820360551" lon="11.36160558731532"><ele>97.39999999999999</ele><time>2026-04-04T14:17:39.224Z</time></trkpt><trkpt lat="45.532746248417006" lon="11.36176778852366"><ele>97.0</ele><time>2026-04-04T14:17:40.224Z</time></trkpt><trkpt lat="45.53276265101743" lon="11.361991079265767"><ele>96.75</ele><time>2026-04-04T14:17:41.224Z</time></trkpt><trkpt lat="45.53275614550763" lon="11.362217094310447"><ele>96.5</ele><time>2026-04-04T14:17:42.224Z</time></trkpt><trkpt lat="45.532754232831365" lon="11.36239545634107"><ele>96.25</ele><time>2026-04-04T14:17:43.224Z</time></trkpt><trkpt lat="45.53275664796386" lon="11.362549512213256"><ele>96.0</ele><time>2026-04-04T14:17:44.224Z</time></trkpt><trkpt lat="45.532753170347085" lon="11.362703670065144"><ele>96.0</ele><time>2026-04-04T14:17:45.224Z</time></trkpt><trkpt lat="45.53273134362197" lon="11.36288597038898"><ele>96.0</ele><time>2026-04-04T14:17:46.224Z</time></trkpt><trkpt lat="45.532725351059504" lon="11.363028098025756"><ele>96.0</ele><time>2026-04-04T14:17:47.225Z</time></trkpt><trkpt lat="45.532694356445376" lon="11.36321372606916"><ele>96.0</ele><time>2026-04-04T14:17:48.225Z</time></trkpt><trkpt lat="45.53266299258072" lon="11.36337647722891"><ele>96.0</ele><time>2026-04-04T14:17:49.225Z</time></trkpt><trkpt lat="45.53264775185463" lon="11.363571707581375"><ele>96.0</ele><time>2026-04-04T14:17:50.225Z</time></trkpt><trkpt lat="45.53262408789164" lon="11.363740033894965"><ele>96.0</ele><time>2026-04-04T14:17:51.225Z</time></trkpt><trkpt lat="45.532619505549434" lon="11.363873681891391"><ele>96.0</ele><time>2026-04-04T14:17:52.225Z</time></trkpt><trkpt lat="45.532625917826046" lon="11.363994647029015"><ele>96.0</ele><time>2026-04-04T14:17:53.225Z</time></trkpt><trkpt lat="45.53260227633231" lon="11.364118168444184"><ele>96.0</ele><time>2026-04-04T14:17:54.225Z</time></trkpt><trkpt lat="45.53257472521309" lon="11.364240257984221"><ele>96.0</ele><time>2026-04-04T14:17:55.225Z</time></trkpt><trkpt lat="45.53254820847771" lon="11.364332543516047"><ele>96.0</ele><time>2026-04-04T14:17:56.225Z</time></trkpt><trkpt lat="45.532511707799806" lon="11.3644272444376"><ele>96.0</ele><time>2026-04-04T14:17:57.225Z</time></trkpt><trkpt lat="45.53251794675792" lon="11.364581227324754"><ele>96.0</ele><time>2026-04-04T14:17:59.225Z</time></trkpt><trkpt lat="45.53258547384342" lon="11.364617972290882"><ele>96.0</ele><time>2026-04-04T14:18:00.225Z</time></trkpt><trkpt lat="45.53268076001579" lon="11.364676423721715"><ele>96.25</ele><time>2026-04-04T14:18:01.225Z</time></trkpt><trkpt lat="45.53280157140738" lon="11.364747459547969"><ele>96.5</ele><time>2026-04-04T14:18:02.225Z</time></trkpt><trkpt lat="45.53290361664166" lon="11.364853133435691"><ele>96.75</ele><time>2026-04-04T14:18:03.225Z</time></trkpt><trkpt lat="45.532993865263826" lon="11.364943600145452"><ele>97.0</ele><time>2026-04-04T14:18:04.225Z</time></trkpt><trkpt lat="45.53310871728259" lon="11.365043563437002"><ele>97.00000000000001</ele><time>2026-04-04T14:18:05.225Z</time></trkpt><trkpt lat="45.533185518320195" lon="11.365135738349602"><ele>97.0</ele><time>2026-04-04T14:18:06.225Z</time></trkpt><trkpt lat="45.53324656417939" lon="11.36518663914985"><ele>97.0</ele><time>2026-04-04T14:18:07.225Z</time></trkpt><trkpt lat="45.53332785409465" lon="11.365318741420918"><ele>97.0</ele><time>2026-04-04T14:18:09.225Z</time></trkpt><trkpt lat="45.53336171443414" lon="11.365396361842866"><ele>97.00000000000001</ele><time>2026-04-04T14:18:10.225Z</time></trkpt><trkpt lat="45.53342299932579" lon="11.365426609831296"><ele>97.0</ele><time>2026-04-04T14:18:11.225Z</time></trkpt><trkpt lat="45.533491553995425" lon="11.365396520309046"><ele>97.0</ele><time>2026-04-04T14:18:13.225Z</time></trkpt><trkpt lat="45.53354327088763" lon="11.365252735932307"><ele>97.0</ele><time>2026-04-04T14:18:14.225Z</time></trkpt></trkseg></trk></gpx>